<?xml version='1.0' encoding='UTF-8' standalone='yes' ?>
<gpx version="1.1" creator="OsmAnd" xmlns="http://www.topografix.com/GPX/1/1" xmlns:xsi="http://www.w3.org/2001/XMLSchema-instance" xsi:schemaLocation="http://www.topografix.com/GPX/1/1 http://www.topografix.com/GPX/1/1/gpx.xsd">
  <trk>
    <trkseg>
      <trkpt lat="39.7392706" lon="3.2198338">
        <ele>-8.419998168945313</ele>
        <hdop>10.0</hdop>
        <time>2014-06-04T08:44:50Z</time>
      </trkpt>
    </trkseg>
    <trkseg>
      <trkpt lat="39.7392706" lon="3.2198338">
        <ele>-7.4199981689453125</ele>
        <hdop>10.0</hdop>
        <time>2014-06-04T08:44:54Z</time>
      </trkpt>
      <trkpt lat="39.7392706" lon="3.2198338">
        <ele>-7.4199981689453125</ele>
        <hdop>10.0</hdop>
        <time>2014-06-04T08:44:59Z</time>
      </trkpt>
      <trkpt lat="39.7392706" lon="3.2198338">
        <ele>-7.4199981689453125</ele>
        <hdop>5.0</hdop>
        <time>2014-06-04T08:45:05Z</time>
      </trkpt>
      <trkpt lat="39.7392706" lon="3.2198338">
        <ele>-7.4199981689453125</ele>
        <hdop>10.0</hdop>
        <time>2014-06-04T08:45:11Z</time>
      </trkpt>
      <trkpt lat="39.7392706" lon="3.2198338">
        <ele>-7.4199981689453125</ele>
        <hdop>5.0</hdop>
        <time>2014-06-04T08:45:17Z</time>
      </trkpt>
      <trkpt lat="39.7392706" lon="3.2198338">
        <ele>-7.4199981689453125</ele>
        <hdop>5.0</hdop>
        <time>2014-06-04T08:45:23Z</time>
      </trkpt>
      <trkpt lat="39.7392706" lon="3.2198338">
        <ele>-7.4199981689453125</ele>
        <hdop>10.0</hdop>
        <time>2014-06-04T08:45:29Z</time>
      </trkpt>
      <trkpt lat="39.7392706" lon="3.2198338">
        <ele>-7.4199981689453125</ele>
        <hdop>10.0</hdop>
        <time>2014-06-04T08:45:35Z</time>
      </trkpt>
    </trkseg>
    <trkseg>
      <trkpt lat="39.7392706" lon="3.2198338">
        <ele>-7.4199981689453125</ele>
        <hdop>10.0</hdop>
        <time>2014-06-04T08:45:42Z</time>
      </trkpt>
      <trkpt lat="39.7392706" lon="3.2198338">
        <ele>-7.4199981689453125</ele>
        <hdop>10.0</hdop>
        <time>2014-06-04T08:45:47Z</time>
      </trkpt>
      <trkpt lat="39.7392706" lon="3.2198338">
        <ele>-7.4199981689453125</ele>
        <hdop>10.0</hdop>
        <time>2014-06-04T08:45:54Z</time>
      </trkpt>
      <trkpt lat="39.7392706" lon="3.2198338">
        <ele>-7.4199981689453125</ele>
        <hdop>10.0</hdop>
        <time>2014-06-04T08:46:00Z</time>
      </trkpt>
      <trkpt lat="39.7392691" lon="3.2198194">
        <ele>-7.4199981689453125</ele>
        <hdop>5.0</hdop>
        <time>2014-06-04T08:46:06Z</time>
        <extensions>
          <speed>0.3263704776763916</speed>
        </extensions>
      </trkpt>
      <trkpt lat="39.7392574" lon="3.2197872">
        <ele>-7.4199981689453125</ele>
        <hdop>10.0</hdop>
        <time>2014-06-04T08:46:11Z</time>
      </trkpt>
      <trkpt lat="39.7392574" lon="3.2197872">
        <ele>-7.4199981689453125</ele>
        <hdop>10.0</hdop>
        <time>2014-06-04T08:46:17Z</time>
      </trkpt>
      <trkpt lat="39.7392592" lon="3.2197902">
        <ele>-7.4199981689453125</ele>
        <hdop>10.0</hdop>
        <time>2014-06-04T08:46:23Z</time>
        <extensions>
          <speed>0.2774449586868286</speed>
        </extensions>
      </trkpt>
      <trkpt lat="39.7392612" lon="3.2197935">
        <ele>-7.4199981689453125</ele>
        <hdop>10.0</hdop>
        <time>2014-06-04T08:46:28Z</time>
      </trkpt>
      <trkpt lat="39.7392612" lon="3.2197935">
        <ele>-7.4199981689453125</ele>
        <hdop>10.0</hdop>
        <time>2014-06-04T08:46:34Z</time>
      </trkpt>
      <trkpt lat="39.7392612" lon="3.2197935">
        <ele>-7.4199981689453125</ele>
        <hdop>10.0</hdop>
        <time>2014-06-04T08:46:39Z</time>
      </trkpt>
      <trkpt lat="39.7392612" lon="3.2197935">
        <ele>-7.4199981689453125</ele>
        <hdop>10.0</hdop>
        <time>2014-06-04T08:46:45Z</time>
      </trkpt>
      <trkpt lat="39.7392612" lon="3.2197935">
        <ele>-7.4199981689453125</ele>
        <hdop>10.0</hdop>
        <time>2014-06-04T08:46:50Z</time>
      </trkpt>
      <trkpt lat="39.7392612" lon="3.2197935">
        <ele>-7.4199981689453125</ele>
        <hdop>10.0</hdop>
        <time>2014-06-04T08:46:55Z</time>
      </trkpt>
      <trkpt lat="39.7392612" lon="3.2197935">
        <ele>-7.4199981689453125</ele>
        <hdop>5.0</hdop>
        <time>2014-06-04T08:47:01Z</time>
      </trkpt>
      <trkpt lat="39.7392612" lon="3.2197935">
        <ele>-7.4199981689453125</ele>
        <hdop>10.0</hdop>
        <time>2014-06-04T08:47:06Z</time>
      </trkpt>
      <trkpt lat="39.7392612" lon="3.2197935">
        <ele>-7.4199981689453125</ele>
        <hdop>10.0</hdop>
        <time>2014-06-04T08:47:11Z</time>
      </trkpt>
      <trkpt lat="39.7392612" lon="3.2197935">
        <ele>-7.4199981689453125</ele>
        <hdop>10.0</hdop>
        <time>2014-06-04T08:47:17Z</time>
      </trkpt>
      <trkpt lat="39.7392612" lon="3.2197935">
        <ele>-7.4199981689453125</ele>
        <hdop>5.0</hdop>
        <time>2014-06-04T08:47:22Z</time>
      </trkpt>
      <trkpt lat="39.7392612" lon="3.2197935">
        <ele>-7.4199981689453125</ele>
        <hdop>5.0</hdop>
        <time>2014-06-04T08:47:27Z</time>
      </trkpt>
      <trkpt lat="39.7392612" lon="3.2197935">
        <ele>-7.4199981689453125</ele>
        <hdop>5.0</hdop>
        <time>2014-06-04T08:47:33Z</time>
      </trkpt>
      <trkpt lat="39.7392612" lon="3.2197935">
        <ele>-7.4199981689453125</ele>
        <hdop>5.0</hdop>
        <time>2014-06-04T08:47:39Z</time>
      </trkpt>
      <trkpt lat="39.7392612" lon="3.2197935">
        <ele>-7.4199981689453125</ele>
        <hdop>10.0</hdop>
        <time>2014-06-04T08:47:44Z</time>
      </trkpt>
      <trkpt lat="39.7392598" lon="3.2197895">
        <ele>-7.4199981689453125</ele>
        <hdop>10.0</hdop>
        <time>2014-06-04T08:47:50Z</time>
      </trkpt>
      <trkpt lat="39.7392598" lon="3.2197895">
        <ele>-7.4199981689453125</ele>
        <hdop>10.0</hdop>
        <time>2014-06-04T08:47:56Z</time>
      </trkpt>
      <trkpt lat="39.7392598" lon="3.2197895">
        <ele>-7.4199981689453125</ele>
        <hdop>10.0</hdop>
        <time>2014-06-04T08:48:02Z</time>
      </trkpt>
      <trkpt lat="39.7392413" lon="3.2197719">
        <ele>-7.4199981689453125</ele>
        <hdop>10.0</hdop>
        <time>2014-06-04T08:48:08Z</time>
        <extensions>
          <speed>0.4895888566970825</speed>
        </extensions>
      </trkpt>
      <trkpt lat="39.7392354" lon="3.2197695">
        <ele>-7.4199981689453125</ele>
        <hdop>30.0</hdop>
        <time>2014-06-04T08:48:13Z</time>
        <extensions>
          <speed>0.3287319839000702</speed>
        </extensions>
      </trkpt>
      <trkpt lat="39.7392479" lon="3.2197804">
        <ele>-7.4199981689453125</ele>
        <hdop>10.0</hdop>
        <time>2014-06-04T08:48:18Z</time>
      </trkpt>
      <trkpt lat="39.7392479" lon="3.2197804">
        <ele>-7.4199981689453125</ele>
        <hdop>10.0</hdop>
        <time>2014-06-04T08:48:23Z</time>
      </trkpt>
      <trkpt lat="39.7392688" lon="3.21976">
        <ele>-7.4199981689453125</ele>
        <hdop>10.0</hdop>
        <time>2014-06-04T08:48:28Z</time>
        <extensions>
          <speed>0.5495057702064514</speed>
        </extensions>
      </trkpt>
      <trkpt lat="39.7392773" lon="3.2197634">
        <ele>-7.4199981689453125</ele>
        <hdop>10.0</hdop>
        <time>2014-06-04T08:48:34Z</time>
      </trkpt>
      <trkpt lat="39.7392848" lon="3.2197759">
        <ele>-7.4199981689453125</ele>
        <hdop>10.0</hdop>
        <time>2014-06-04T08:48:40Z</time>
        <extensions>
          <speed>0.32894808053970337</speed>
        </extensions>
      </trkpt>
      <trkpt lat="39.739297" lon="3.2197989">
        <ele>-7.4199981689453125</ele>
        <hdop>10.0</hdop>
        <time>2014-06-04T08:48:45Z</time>
        <extensions>
          <speed>0.33818650245666504</speed>
        </extensions>
      </trkpt>
      <trkpt lat="39.739307" lon="3.2198133">
        <ele>-7.4199981689453125</ele>
        <hdop>10.0</hdop>
        <time>2014-06-04T08:48:51Z</time>
        <extensions>
          <speed>0.3641933798789978</speed>
        </extensions>
      </trkpt>
      <trkpt lat="39.7393071" lon="3.219801">
        <ele>-6.4199981689453125</ele>
        <hdop>10.0</hdop>
        <time>2014-06-04T08:48:57Z</time>
        <extensions>
          <speed>0.651843786239624</speed>
        </extensions>
      </trkpt>
      <trkpt lat="39.7393251" lon="3.2198029">
        <ele>-6.4199981689453125</ele>
        <hdop>10.0</hdop>
        <time>2014-06-04T08:49:03Z</time>
        <extensions>
          <speed>0.5422288775444031</speed>
        </extensions>
      </trkpt>
      <trkpt lat="39.7393245" lon="3.2197905">
        <ele>-6.4199981689453125</ele>
        <hdop>10.0</hdop>
        <time>2014-06-04T08:49:09Z</time>
      </trkpt>
      <trkpt lat="39.7393245" lon="3.2197905">
        <ele>-6.4199981689453125</ele>
        <hdop>10.0</hdop>
        <time>2014-06-04T08:49:14Z</time>
      </trkpt>
      <trkpt lat="39.7393245" lon="3.2197905">
        <ele>-6.4199981689453125</ele>
        <hdop>10.0</hdop>
        <time>2014-06-04T08:49:20Z</time>
      </trkpt>
      <trkpt lat="39.7393438" lon="3.2196667">
        <ele>-6.4199981689453125</ele>
        <hdop>10.0</hdop>
        <time>2014-06-04T08:49:25Z</time>
        <extensions>
          <speed>1.122334599494934</speed>
        </extensions>
      </trkpt>
      <trkpt lat="39.7393489" lon="3.2195953">
        <ele>-6.4199981689453125</ele>
        <hdop>5.0</hdop>
        <time>2014-06-04T08:49:31Z</time>
        <extensions>
          <speed>0.6190313696861267</speed>
        </extensions>
      </trkpt>
      <trkpt lat="39.7393748" lon="3.2195421">
        <ele>-5.4199981689453125</ele>
        <hdop>5.0</hdop>
        <time>2014-06-04T08:49:37Z</time>
        <extensions>
          <speed>0.920843243598938</speed>
        </extensions>
      </trkpt>
      <trkpt lat="39.7393887" lon="3.2194819">
        <ele>-5.4199981689453125</ele>
        <hdop>5.0</hdop>
        <time>2014-06-04T08:49:42Z</time>
        <extensions>
          <speed>1.006828784942627</speed>
        </extensions>
      </trkpt>
      <trkpt lat="39.7393943" lon="3.2194396">
        <ele>-5.4199981689453125</ele>
        <hdop>10.0</hdop>
        <time>2014-06-04T08:49:47Z</time>
      </trkpt>
      <trkpt lat="39.7394125" lon="3.2193907">
        <ele>-5.4199981689453125</ele>
        <hdop>10.0</hdop>
        <time>2014-06-04T08:49:53Z</time>
        <extensions>
          <speed>0.482698529958725</speed>
        </extensions>
      </trkpt>
      <trkpt lat="39.7394529" lon="3.2193217">
        <ele>-5.4199981689453125</ele>
        <hdop>10.0</hdop>
        <time>2014-06-04T08:49:59Z</time>
        <extensions>
          <speed>0.7505801320075989</speed>
        </extensions>
      </trkpt>
      <trkpt lat="39.7394702" lon="3.2192616">
        <ele>-4.4199981689453125</ele>
        <hdop>5.0</hdop>
        <time>2014-06-04T08:50:04Z</time>
        <extensions>
          <speed>0.862599790096283</speed>
        </extensions>
      </trkpt>
      <trkpt lat="39.7395" lon="3.2191996">
        <ele>-4.4199981689453125</ele>
        <hdop>10.0</hdop>
        <time>2014-06-04T08:50:10Z</time>
        <extensions>
          <speed>0.9555703401565552</speed>
        </extensions>
      </trkpt>
      <trkpt lat="39.7395423" lon="3.2191281">
        <ele>-4.4199981689453125</ele>
        <hdop>10.0</hdop>
        <time>2014-06-04T08:50:16Z</time>
        <extensions>
          <speed>1.0616673231124878</speed>
        </extensions>
      </trkpt>
      <trkpt lat="39.7395649" lon="3.2190558">
        <ele>-4.4199981689453125</ele>
        <hdop>5.0</hdop>
        <time>2014-06-04T08:50:22Z</time>
        <extensions>
          <speed>0.9261218905448914</speed>
        </extensions>
      </trkpt>
      <trkpt lat="39.7395861" lon="3.2189709">
        <ele>-3.4199981689453125</ele>
        <hdop>10.0</hdop>
        <time>2014-06-04T08:50:28Z</time>
        <extensions>
          <speed>1.163119912147522</speed>
        </extensions>
      </trkpt>
      <trkpt lat="39.739588" lon="3.2188969">
        <ele>-3.4199981689453125</ele>
        <hdop>5.0</hdop>
        <time>2014-06-04T08:50:33Z</time>
        <extensions>
          <speed>1.2123137712478638</speed>
        </extensions>
      </trkpt>
      <trkpt lat="39.7395585" lon="3.2188103">
        <ele>-2.4199981689453125</ele>
        <hdop>5.0</hdop>
        <time>2014-06-04T08:50:39Z</time>
        <extensions>
          <speed>1.1102533340454102</speed>
        </extensions>
      </trkpt>
      <trkpt lat="39.7395375" lon="3.2187441">
        <ele>-2.4199981689453125</ele>
        <hdop>5.0</hdop>
        <time>2014-06-04T08:50:44Z</time>
        <extensions>
          <speed>1.130379557609558</speed>
        </extensions>
      </trkpt>
      <trkpt lat="39.7395253" lon="3.2186738">
        <ele>-2.4199981689453125</ele>
        <hdop>5.0</hdop>
        <time>2014-06-04T08:50:49Z</time>
        <extensions>
          <speed>1.1032466888427734</speed>
        </extensions>
      </trkpt>
      <trkpt lat="39.7395044" lon="3.2185908">
        <ele>-1.4199981689453125</ele>
        <hdop>5.0</hdop>
        <time>2014-06-04T08:50:55Z</time>
        <extensions>
          <speed>1.129969835281372</speed>
        </extensions>
      </trkpt>
      <trkpt lat="39.739485" lon="3.2185188">
        <ele>-1.4199981689453125</ele>
        <hdop>5.0</hdop>
        <time>2014-06-04T08:51:00Z</time>
        <extensions>
          <speed>1.156944751739502</speed>
        </extensions>
      </trkpt>
      <trkpt lat="39.7394846" lon="3.218429">
        <ele>-0.4199981689453125</ele>
        <hdop>5.0</hdop>
        <time>2014-06-04T08:51:06Z</time>
        <extensions>
          <speed>1.1773426532745361</speed>
        </extensions>
      </trkpt>
      <trkpt lat="39.739481" lon="3.218337">
        <ele>0.5800018310546875</ele>
        <hdop>5.0</hdop>
        <time>2014-06-04T08:51:12Z</time>
        <extensions>
          <speed>1.1954561471939087</speed>
        </extensions>
      </trkpt>
      <trkpt lat="39.739473" lon="3.2182469">
        <ele>0.5800018310546875</ele>
        <hdop>5.0</hdop>
        <time>2014-06-04T08:51:18Z</time>
        <extensions>
          <speed>1.2111767530441284</speed>
        </extensions>
      </trkpt>
      <trkpt lat="39.7394491" lon="3.2181656">
        <ele>0.5800018310546875</ele>
        <hdop>5.0</hdop>
        <time>2014-06-04T08:51:24Z</time>
        <extensions>
          <speed>1.1883511543273926</speed>
        </extensions>
      </trkpt>
      <trkpt lat="39.7394344" lon="3.2180913">
        <ele>1.5800018310546875</ele>
        <hdop>5.0</hdop>
        <time>2014-06-04T08:51:30Z</time>
        <extensions>
          <speed>1.1954569816589355</speed>
        </extensions>
      </trkpt>
      <trkpt lat="39.7394296" lon="3.2180315">
        <ele>1.5800018310546875</ele>
        <hdop>5.0</hdop>
        <time>2014-06-04T08:51:35Z</time>
        <extensions>
          <speed>1.2179003953933716</speed>
        </extensions>
      </trkpt>
      <trkpt lat="39.7394381" lon="3.2179592">
        <ele>2.5800018310546875</ele>
        <hdop>5.0</hdop>
        <time>2014-06-04T08:51:41Z</time>
        <extensions>
          <speed>1.1802273988723755</speed>
        </extensions>
      </trkpt>
      <trkpt lat="39.7394452" lon="3.2178882">
        <ele>2.5800018310546875</ele>
        <hdop>5.0</hdop>
        <time>2014-06-04T08:51:47Z</time>
        <extensions>
          <speed>1.1480464935302734</speed>
        </extensions>
      </trkpt>
      <trkpt lat="39.7394519" lon="3.2178251">
        <ele>2.5800018310546875</ele>
        <hdop>5.0</hdop>
        <time>2014-06-04T08:51:52Z</time>
        <extensions>
          <speed>1.1480621099472046</speed>
        </extensions>
      </trkpt>
      <trkpt lat="39.7394714" lon="3.2177537">
        <ele>3.5800018310546875</ele>
        <hdop>5.0</hdop>
        <time>2014-06-04T08:51:58Z</time>
        <extensions>
          <speed>1.1196918487548828</speed>
        </extensions>
      </trkpt>
      <trkpt lat="39.7395334" lon="3.2177086">
        <ele>3.5800018310546875</ele>
        <hdop>5.0</hdop>
        <time>2014-06-04T08:52:04Z</time>
        <extensions>
          <speed>1.127822995185852</speed>
        </extensions>
      </trkpt>
      <trkpt lat="39.7395835" lon="3.2176547">
        <ele>3.5800018310546875</ele>
        <hdop>5.0</hdop>
        <time>2014-06-04T08:52:10Z</time>
        <extensions>
          <speed>1.101356863975525</speed>
        </extensions>
      </trkpt>
      <trkpt lat="39.739617" lon="3.2176096">
        <ele>4.5800018310546875</ele>
        <hdop>5.0</hdop>
        <time>2014-06-04T08:52:15Z</time>
        <extensions>
          <speed>1.1061692237854004</speed>
        </extensions>
      </trkpt>
      <trkpt lat="39.7396413" lon="3.2175833">
        <ele>4.5800018310546875</ele>
        <hdop>10.0</hdop>
        <time>2014-06-04T08:52:21Z</time>
      </trkpt>
      <trkpt lat="39.73967" lon="3.2175392">
        <ele>4.5800018310546875</ele>
        <hdop>5.0</hdop>
        <time>2014-06-04T08:52:27Z</time>
        <extensions>
          <speed>1.1384656429290771</speed>
        </extensions>
      </trkpt>
      <trkpt lat="39.7397039" lon="3.2174878">
        <ele>5.5800018310546875</ele>
        <hdop>5.0</hdop>
        <time>2014-06-04T08:52:32Z</time>
        <extensions>
          <speed>1.1013507843017578</speed>
        </extensions>
      </trkpt>
      <trkpt lat="39.7397337" lon="3.2174341">
        <ele>5.5800018310546875</ele>
        <hdop>10.0</hdop>
        <time>2014-06-04T08:52:37Z</time>
        <extensions>
          <speed>1.0912727117538452</speed>
        </extensions>
      </trkpt>
      <trkpt lat="39.7397603" lon="3.2173714">
        <ele>5.5800018310546875</ele>
        <hdop>5.0</hdop>
        <time>2014-06-04T08:52:42Z</time>
        <extensions>
          <speed>1.0654103755950928</speed>
        </extensions>
      </trkpt>
      <trkpt lat="39.739777" lon="3.217309">
        <ele>6.5800018310546875</ele>
        <hdop>5.0</hdop>
        <time>2014-06-04T08:52:47Z</time>
        <extensions>
          <speed>1.1252238750457764</speed>
        </extensions>
      </trkpt>
      <trkpt lat="39.7398057" lon="3.217234">
        <ele>6.5800018310546875</ele>
        <hdop>10.0</hdop>
        <time>2014-06-04T08:52:53Z</time>
        <extensions>
          <speed>1.146557092666626</speed>
        </extensions>
      </trkpt>
      <trkpt lat="39.7398468" lon="3.2171703">
        <ele>6.5800018310546875</ele>
        <hdop>10.0</hdop>
        <time>2014-06-04T08:52:58Z</time>
        <extensions>
          <speed>1.155107855796814</speed>
        </extensions>
      </trkpt>
      <trkpt lat="39.7398836" lon="3.2170916">
        <ele>7.5800018310546875</ele>
        <hdop>10.0</hdop>
        <time>2014-06-04T08:53:04Z</time>
        <extensions>
          <speed>1.1538108587265015</speed>
        </extensions>
      </trkpt>
      <trkpt lat="39.7399382" lon="3.2170099">
        <ele>7.5800018310546875</ele>
        <hdop>10.0</hdop>
        <time>2014-06-04T08:53:10Z</time>
        <extensions>
          <speed>1.2316752672195435</speed>
        </extensions>
      </trkpt>
      <trkpt lat="39.7399726" lon="3.216899">
        <ele>7.5800018310546875</ele>
        <hdop>10.0</hdop>
        <time>2014-06-04T08:53:16Z</time>
        <extensions>
          <speed>1.2556575536727905</speed>
        </extensions>
      </trkpt>
      <trkpt lat="39.7400035" lon="3.2167695">
        <ele>7.5800018310546875</ele>
        <hdop>10.0</hdop>
        <time>2014-06-04T08:53:22Z</time>
        <extensions>
          <speed>1.308935284614563</speed>
        </extensions>
      </trkpt>
      <trkpt lat="39.7400135" lon="3.2166685">
        <ele>7.5800018310546875</ele>
        <hdop>10.0</hdop>
        <time>2014-06-04T08:53:28Z</time>
        <extensions>
          <speed>1.3185162544250488</speed>
        </extensions>
      </trkpt>
      <trkpt lat="39.7400398" lon="3.2165829">
        <ele>8.580001831054688</ele>
        <hdop>5.0</hdop>
        <time>2014-06-04T08:53:34Z</time>
        <extensions>
          <speed>1.3062571287155151</speed>
        </extensions>
      </trkpt>
      <trkpt lat="39.7400838" lon="3.2165172">
        <ele>8.580001831054688</ele>
        <hdop>10.0</hdop>
        <time>2014-06-04T08:53:40Z</time>
        <extensions>
          <speed>1.2659448385238647</speed>
        </extensions>
      </trkpt>
      <trkpt lat="39.7401191" lon="3.2164639">
        <ele>8.580001831054688</ele>
        <hdop>10.0</hdop>
        <time>2014-06-04T08:53:46Z</time>
        <extensions>
          <speed>1.1271822452545166</speed>
        </extensions>
      </trkpt>
      <trkpt lat="39.7401433" lon="3.2163826">
        <ele>8.580001831054688</ele>
        <hdop>10.0</hdop>
        <time>2014-06-04T08:53:52Z</time>
        <extensions>
          <speed>1.0076522827148438</speed>
        </extensions>
      </trkpt>
      <trkpt lat="39.7401416" lon="3.2163021">
        <ele>8.580001831054688</ele>
        <hdop>10.0</hdop>
        <time>2014-06-04T08:53:58Z</time>
        <extensions>
          <speed>1.3406504392623901</speed>
        </extensions>
      </trkpt>
      <trkpt lat="39.7401291" lon="3.2162118">
        <ele>8.580001831054688</ele>
        <hdop>10.0</hdop>
        <time>2014-06-04T08:54:03Z</time>
        <extensions>
          <speed>1.4172724485397339</speed>
        </extensions>
      </trkpt>
      <trkpt lat="39.7401125" lon="3.2161222">
        <ele>8.580001831054688</ele>
        <hdop>10.0</hdop>
        <time>2014-06-04T08:54:08Z</time>
        <extensions>
          <speed>1.365549087524414</speed>
        </extensions>
      </trkpt>
      <trkpt lat="39.7401098" lon="3.2160044">
        <ele>8.580001831054688</ele>
        <hdop>5.0</hdop>
        <time>2014-06-04T08:54:14Z</time>
        <extensions>
          <speed>1.363174319267273</speed>
        </extensions>
      </trkpt>
      <trkpt lat="39.7400983" lon="3.2159218">
        <ele>8.580001831054688</ele>
        <hdop>5.0</hdop>
        <time>2014-06-04T08:54:19Z</time>
        <extensions>
          <speed>1.3457071781158447</speed>
        </extensions>
      </trkpt>
      <trkpt lat="39.7400657" lon="3.2158402">
        <ele>9.580001831054688</ele>
        <hdop>5.0</hdop>
        <time>2014-06-04T08:54:25Z</time>
        <extensions>
          <speed>1.330464482307434</speed>
        </extensions>
      </trkpt>
      <trkpt lat="39.7400404" lon="3.2157703">
        <ele>9.580001831054688</ele>
        <hdop>5.0</hdop>
        <time>2014-06-04T08:54:30Z</time>
        <extensions>
          <speed>1.320918083190918</speed>
        </extensions>
      </trkpt>
      <trkpt lat="39.7400283" lon="3.2156822">
        <ele>9.580001831054688</ele>
        <hdop>5.0</hdop>
        <time>2014-06-04T08:54:36Z</time>
        <extensions>
          <speed>1.3346606492996216</speed>
        </extensions>
      </trkpt>
      <trkpt lat="39.7400306" lon="3.2156083">
        <ele>9.580001831054688</ele>
        <hdop>5.0</hdop>
        <time>2014-06-04T08:54:42Z</time>
        <extensions>
          <speed>1.340341329574585</speed>
        </extensions>
      </trkpt>
      <trkpt lat="39.740028" lon="3.2155337">
        <ele>9.580001831054688</ele>
        <hdop>10.0</hdop>
        <time>2014-06-04T08:54:47Z</time>
        <extensions>
          <speed>1.3522051572799683</speed>
        </extensions>
      </trkpt>
      <trkpt lat="39.7400624" lon="3.2154611">
        <ele>10.580001831054688</ele>
        <hdop>10.0</hdop>
        <time>2014-06-04T08:54:53Z</time>
        <extensions>
          <speed>1.2811870574951172</speed>
        </extensions>
      </trkpt>
      <trkpt lat="39.7401313" lon="3.2154203">
        <ele>10.580001831054688</ele>
        <hdop>5.0</hdop>
        <time>2014-06-04T08:54:58Z</time>
        <extensions>
          <speed>1.2514346837997437</speed>
        </extensions>
      </trkpt>
      <trkpt lat="39.7401997" lon="3.2153562">
        <ele>10.580001831054688</ele>
        <hdop>10.0</hdop>
        <time>2014-06-04T08:55:04Z</time>
        <extensions>
          <speed>1.2887417078018188</speed>
        </extensions>
      </trkpt>
      <trkpt lat="39.7402361" lon="3.215306">
        <ele>10.580001831054688</ele>
        <hdop>10.0</hdop>
        <time>2014-06-04T08:55:09Z</time>
        <extensions>
          <speed>1.2598847150802612</speed>
        </extensions>
      </trkpt>
      <trkpt lat="39.7402675" lon="3.2152495">
        <ele>10.580001831054688</ele>
        <hdop>10.0</hdop>
        <time>2014-06-04T08:55:14Z</time>
        <extensions>
          <speed>1.2574645280838013</speed>
        </extensions>
      </trkpt>
      <trkpt lat="39.7403025" lon="3.2151759">
        <ele>10.580001831054688</ele>
        <hdop>10.0</hdop>
        <time>2014-06-04T08:55:20Z</time>
        <extensions>
          <speed>1.25503408908844</speed>
        </extensions>
      </trkpt>
      <trkpt lat="39.7403375" lon="3.2150973">
        <ele>11.580001831054688</ele>
        <hdop>10.0</hdop>
        <time>2014-06-04T08:55:25Z</time>
        <extensions>
          <speed>1.2785546779632568</speed>
        </extensions>
      </trkpt>
      <trkpt lat="39.7403783" lon="3.2150013">
        <ele>11.580001831054688</ele>
        <hdop>10.0</hdop>
        <time>2014-06-04T08:55:31Z</time>
        <extensions>
          <speed>1.3432157039642334</speed>
        </extensions>
      </trkpt>
      <trkpt lat="39.7404129" lon="3.2149126">
        <ele>11.580001831054688</ele>
        <hdop>10.0</hdop>
        <time>2014-06-04T08:55:37Z</time>
        <extensions>
          <speed>1.3348153829574585</speed>
        </extensions>
      </trkpt>
      <trkpt lat="39.7404286" lon="3.2148383">
        <ele>11.580001831054688</ele>
        <hdop>10.0</hdop>
        <time>2014-06-04T08:55:42Z</time>
        <extensions>
          <speed>1.3109784126281738</speed>
        </extensions>
      </trkpt>
      <trkpt lat="39.7404507" lon="3.2147379">
        <ele>11.580001831054688</ele>
        <hdop>10.0</hdop>
        <time>2014-06-04T08:55:48Z</time>
        <extensions>
          <speed>1.3260499238967896</speed>
        </extensions>
      </trkpt>
      <trkpt lat="39.7404797" lon="3.2146608">
        <ele>10.580001831054688</ele>
        <hdop>10.0</hdop>
        <time>2014-06-04T08:55:54Z</time>
        <extensions>
          <speed>1.289976954460144</speed>
        </extensions>
      </trkpt>
      <trkpt lat="39.7405072" lon="3.2145754">
        <ele>10.580001831054688</ele>
        <hdop>10.0</hdop>
        <time>2014-06-04T08:55:59Z</time>
        <extensions>
          <speed>1.2888249158859253</speed>
        </extensions>
      </trkpt>
      <trkpt lat="39.7405315" lon="3.2144809">
        <ele>10.580001831054688</ele>
        <hdop>10.0</hdop>
        <time>2014-06-04T08:56:05Z</time>
        <extensions>
          <speed>1.3353934288024902</speed>
        </extensions>
      </trkpt>
      <trkpt lat="39.74057" lon="3.2143578">
        <ele>10.580001831054688</ele>
        <hdop>10.0</hdop>
        <time>2014-06-04T08:56:11Z</time>
        <extensions>
          <speed>1.3876640796661377</speed>
        </extensions>
      </trkpt>
      <trkpt lat="39.7405985" lon="3.2142561">
        <ele>10.580001831054688</ele>
        <hdop>10.0</hdop>
        <time>2014-06-04T08:56:17Z</time>
        <extensions>
          <speed>1.3825184106826782</speed>
        </extensions>
      </trkpt>
      <trkpt lat="39.7406391" lon="3.2141517">
        <ele>10.580001831054688</ele>
        <hdop>5.0</hdop>
        <time>2014-06-04T08:56:23Z</time>
        <extensions>
          <speed>1.3980766534805298</speed>
        </extensions>
      </trkpt>
      <trkpt lat="39.7406634" lon="3.2140639">
        <ele>10.580001831054688</ele>
        <hdop>10.0</hdop>
        <time>2014-06-04T08:56:28Z</time>
        <extensions>
          <speed>1.3664462566375732</speed>
        </extensions>
      </trkpt>
      <trkpt lat="39.7406876" lon="3.213981">
        <ele>10.580001831054688</ele>
        <hdop>10.0</hdop>
        <time>2014-06-04T08:56:33Z</time>
        <extensions>
          <speed>1.3379497528076172</speed>
        </extensions>
      </trkpt>
      <trkpt lat="39.7406982" lon="3.2139022">
        <ele>10.580001831054688</ele>
        <hdop>5.0</hdop>
        <time>2014-06-04T08:56:39Z</time>
        <extensions>
          <speed>1.254714846611023</speed>
        </extensions>
      </trkpt>
      <trkpt lat="39.7407175" lon="3.2138207">
        <ele>10.580001831054688</ele>
        <hdop>5.0</hdop>
        <time>2014-06-04T08:56:44Z</time>
        <extensions>
          <speed>1.342445969581604</speed>
        </extensions>
      </trkpt>
      <trkpt lat="39.7407357" lon="3.2137187">
        <ele>10.580001831054688</ele>
        <hdop>10.0</hdop>
        <time>2014-06-04T08:56:50Z</time>
        <extensions>
          <speed>1.3528541326522827</speed>
        </extensions>
      </trkpt>
      <trkpt lat="39.7407405" lon="3.2136439">
        <ele>10.580001831054688</ele>
        <hdop>5.0</hdop>
        <time>2014-06-04T08:56:55Z</time>
        <extensions>
          <speed>1.3158212900161743</speed>
        </extensions>
      </trkpt>
      <trkpt lat="39.7407586" lon="3.2135743">
        <ele>10.580001831054688</ele>
        <hdop>10.0</hdop>
        <time>2014-06-04T08:57:00Z</time>
        <extensions>
          <speed>1.2306015491485596</speed>
        </extensions>
      </trkpt>
      <trkpt lat="39.7407731" lon="3.2134999">
        <ele>10.580001831054688</ele>
        <hdop>5.0</hdop>
        <time>2014-06-04T08:57:06Z</time>
        <extensions>
          <speed>1.1331706047058105</speed>
        </extensions>
      </trkpt>
      <trkpt lat="39.7407898" lon="3.2134418">
        <ele>10.580001831054688</ele>
        <hdop>10.0</hdop>
        <time>2014-06-04T08:57:11Z</time>
        <extensions>
          <speed>1.0838395357131958</speed>
        </extensions>
      </trkpt>
      <trkpt lat="39.7408047" lon="3.2133712">
        <ele>10.580001831054688</ele>
        <hdop>10.0</hdop>
        <time>2014-06-04T08:57:16Z</time>
        <extensions>
          <speed>1.0976808071136475</speed>
        </extensions>
      </trkpt>
      <trkpt lat="39.740817" lon="3.2133043">
        <ele>10.580001831054688</ele>
        <hdop>10.0</hdop>
        <time>2014-06-04T08:57:22Z</time>
        <extensions>
          <speed>0.9910860061645508</speed>
        </extensions>
      </trkpt>
      <trkpt lat="39.7408326" lon="3.2132386">
        <ele>10.580001831054688</ele>
        <hdop>10.0</hdop>
        <time>2014-06-04T08:57:28Z</time>
        <extensions>
          <speed>0.97621089220047</speed>
        </extensions>
      </trkpt>
      <trkpt lat="39.7408434" lon="3.2131881">
        <ele>11.580001831054688</ele>
        <hdop>10.0</hdop>
        <time>2014-06-04T08:57:33Z</time>
        <extensions>
          <speed>0.9288613796234131</speed>
        </extensions>
      </trkpt>
      <trkpt lat="39.7409116" lon="3.2131439">
        <ele>11.580001831054688</ele>
        <hdop>5.0</hdop>
        <time>2014-06-04T08:57:39Z</time>
        <extensions>
          <speed>1.0552712678909302</speed>
        </extensions>
      </trkpt>
      <trkpt lat="39.7409687" lon="3.2131086">
        <ele>11.580001831054688</ele>
        <hdop>5.0</hdop>
        <time>2014-06-04T08:57:44Z</time>
        <extensions>
          <speed>1.086429238319397</speed>
        </extensions>
      </trkpt>
      <trkpt lat="39.7410207" lon="3.2130769">
        <ele>11.580001831054688</ele>
        <hdop>5.0</hdop>
        <time>2014-06-04T08:57:49Z</time>
        <extensions>
          <speed>1.1071745157241821</speed>
        </extensions>
      </trkpt>
      <trkpt lat="39.7410813" lon="3.2130212">
        <ele>11.580001831054688</ele>
        <hdop>5.0</hdop>
        <time>2014-06-04T08:57:55Z</time>
        <extensions>
          <speed>1.1501269340515137</speed>
        </extensions>
      </trkpt>
      <trkpt lat="39.7411239" lon="3.2129747">
        <ele>11.580001831054688</ele>
        <hdop>5.0</hdop>
        <time>2014-06-04T08:58:00Z</time>
        <extensions>
          <speed>1.123227834701538</speed>
        </extensions>
      </trkpt>
      <trkpt lat="39.7411843" lon="3.2129504">
        <ele>11.580001831054688</ele>
        <hdop>10.0</hdop>
        <time>2014-06-04T08:58:06Z</time>
        <extensions>
          <speed>1.1435065269470215</speed>
        </extensions>
      </trkpt>
      <trkpt lat="39.7412277" lon="3.2129312">
        <ele>11.580001831054688</ele>
        <hdop>5.0</hdop>
        <time>2014-06-04T08:58:11Z</time>
        <extensions>
          <speed>1.135201096534729</speed>
        </extensions>
      </trkpt>
      <trkpt lat="39.7412828" lon="3.2128962">
        <ele>11.580001831054688</ele>
        <hdop>5.0</hdop>
        <time>2014-06-04T08:58:17Z</time>
        <extensions>
          <speed>1.1140670776367188</speed>
        </extensions>
      </trkpt>
      <trkpt lat="39.7413248" lon="3.2128511">
        <ele>11.580001831054688</ele>
        <hdop>10.0</hdop>
        <time>2014-06-04T08:58:22Z</time>
        <extensions>
          <speed>1.097885251045227</speed>
        </extensions>
      </trkpt>
      <trkpt lat="39.7413658" lon="3.2127927">
        <ele>11.580001831054688</ele>
        <hdop>10.0</hdop>
        <time>2014-06-04T08:58:27Z</time>
        <extensions>
          <speed>1.1195260286331177</speed>
        </extensions>
      </trkpt>
      <trkpt lat="39.7414105" lon="3.212723">
        <ele>11.580001831054688</ele>
        <hdop>10.0</hdop>
        <time>2014-06-04T08:58:33Z</time>
        <extensions>
          <speed>1.1514883041381836</speed>
        </extensions>
      </trkpt>
      <trkpt lat="39.741449" lon="3.2126543">
        <ele>12.580001831054688</ele>
        <hdop>5.0</hdop>
        <time>2014-06-04T08:58:39Z</time>
        <extensions>
          <speed>1.1094766855239868</speed>
        </extensions>
      </trkpt>
      <trkpt lat="39.7414857" lon="3.212583">
        <ele>12.580001831054688</ele>
        <hdop>10.0</hdop>
        <time>2014-06-04T08:58:45Z</time>
        <extensions>
          <speed>1.1093991994857788</speed>
        </extensions>
      </trkpt>
      <trkpt lat="39.7415099" lon="3.2125315">
        <ele>12.580001831054688</ele>
        <hdop>10.0</hdop>
        <time>2014-06-04T08:58:50Z</time>
        <extensions>
          <speed>1.0724680423736572</speed>
        </extensions>
      </trkpt>
      <trkpt lat="39.741536" lon="3.2124574">
        <ele>12.580001831054688</ele>
        <hdop>10.0</hdop>
        <time>2014-06-04T08:58:56Z</time>
        <extensions>
          <speed>1.0156381130218506</speed>
        </extensions>
      </trkpt>
      <trkpt lat="39.7415549" lon="3.2123962">
        <ele>11.580001831054688</ele>
        <hdop>10.0</hdop>
        <time>2014-06-04T08:59:01Z</time>
        <extensions>
          <speed>0.9900848269462585</speed>
        </extensions>
      </trkpt>
      <trkpt lat="39.7415722" lon="3.2123284">
        <ele>11.580001831054688</ele>
        <hdop>10.0</hdop>
        <time>2014-06-04T08:59:07Z</time>
        <extensions>
          <speed>0.9970522522926331</speed>
        </extensions>
      </trkpt>
      <trkpt lat="39.741598" lon="3.212275">
        <ele>11.580001831054688</ele>
        <hdop>5.0</hdop>
        <time>2014-06-04T08:59:12Z</time>
        <extensions>
          <speed>1.044934868812561</speed>
        </extensions>
      </trkpt>
      <trkpt lat="39.7416184" lon="3.212209">
        <ele>11.580001831054688</ele>
        <hdop>5.0</hdop>
        <time>2014-06-04T08:59:17Z</time>
        <extensions>
          <speed>1.0727308988571167</speed>
        </extensions>
      </trkpt>
      <trkpt lat="39.7416567" lon="3.2121441">
        <ele>11.580001831054688</ele>
        <hdop>5.0</hdop>
        <time>2014-06-04T08:59:23Z</time>
        <extensions>
          <speed>1.1324923038482666</speed>
        </extensions>
      </trkpt>
      <trkpt lat="39.741697" lon="3.2120864">
        <ele>11.580001831054688</ele>
        <hdop>5.0</hdop>
        <time>2014-06-04T08:59:28Z</time>
        <extensions>
          <speed>1.169804573059082</speed>
        </extensions>
      </trkpt>
      <trkpt lat="39.7417472" lon="3.2120177">
        <ele>11.580001831054688</ele>
        <hdop>5.0</hdop>
        <time>2014-06-04T08:59:34Z</time>
        <extensions>
          <speed>1.1946388483047485</speed>
        </extensions>
      </trkpt>
      <trkpt lat="39.7417836" lon="3.2119447">
        <ele>11.580001831054688</ele>
        <hdop>10.0</hdop>
        <time>2014-06-04T08:59:40Z</time>
        <extensions>
          <speed>1.1484100818634033</speed>
        </extensions>
      </trkpt>
      <trkpt lat="39.7417945" lon="3.2119232">
        <ele>11.580001831054688</ele>
        <hdop>10.0</hdop>
        <time>2014-06-04T08:59:45Z</time>
        <extensions>
          <speed>0.6403505802154541</speed>
        </extensions>
      </trkpt>
      <trkpt lat="39.7417944" lon="3.2119232">
        <ele>11.580001831054688</ele>
        <hdop>5.0</hdop>
        <time>2014-06-04T08:59:55Z</time>
      </trkpt>
      <trkpt lat="39.7417866" lon="3.2119338">
        <ele>11.580001831054688</ele>
        <hdop>10.0</hdop>
        <time>2014-06-04T09:00:01Z</time>
        <extensions>
          <speed>0.46676212549209595</speed>
        </extensions>
      </trkpt>
      <trkpt lat="39.7418027" lon="3.2119182">
        <ele>11.580001831054688</ele>
        <hdop>10.0</hdop>
        <time>2014-06-04T09:00:07Z</time>
        <extensions>
          <speed>0.6290208697319031</speed>
        </extensions>
      </trkpt>
      <trkpt lat="39.741837" lon="3.2118805">
        <ele>11.580001831054688</ele>
        <hdop>10.0</hdop>
        <time>2014-06-04T09:00:12Z</time>
        <extensions>
          <speed>0.6358426213264465</speed>
        </extensions>
      </trkpt>
      <trkpt lat="39.741847" lon="3.2118371">
        <ele>11.580001831054688</ele>
        <hdop>10.0</hdop>
        <time>2014-06-04T09:00:17Z</time>
        <extensions>
          <speed>0.7659461498260498</speed>
        </extensions>
      </trkpt>
      <trkpt lat="39.741867" lon="3.2117846">
        <ele>11.580001831054688</ele>
        <hdop>10.0</hdop>
        <time>2014-06-04T09:00:23Z</time>
        <extensions>
          <speed>0.9927769303321838</speed>
        </extensions>
      </trkpt>
      <trkpt lat="39.7418996" lon="3.2117491">
        <ele>11.580001831054688</ele>
        <hdop>5.0</hdop>
        <time>2014-06-04T09:00:28Z</time>
        <extensions>
          <speed>0.9101839661598206</speed>
        </extensions>
      </trkpt>
      <trkpt lat="39.7419047" lon="3.211694">
        <ele>11.580001831054688</ele>
        <hdop>10.0</hdop>
        <time>2014-06-04T09:00:34Z</time>
        <extensions>
          <speed>0.8591023683547974</speed>
        </extensions>
      </trkpt>
      <trkpt lat="39.7419254" lon="3.2116571">
        <ele>11.580001831054688</ele>
        <hdop>10.0</hdop>
        <time>2014-06-04T09:00:39Z</time>
        <extensions>
          <speed>0.9553126692771912</speed>
        </extensions>
      </trkpt>
      <trkpt lat="39.7419568" lon="3.2116193">
        <ele>11.580001831054688</ele>
        <hdop>5.0</hdop>
        <time>2014-06-04T09:00:45Z</time>
        <extensions>
          <speed>0.8761763572692871</speed>
        </extensions>
      </trkpt>
      <trkpt lat="39.7419752" lon="3.2115932">
        <ele>11.580001831054688</ele>
        <hdop>5.0</hdop>
        <time>2014-06-04T09:00:51Z</time>
        <extensions>
          <speed>0.7516236305236816</speed>
        </extensions>
      </trkpt>
      <trkpt lat="39.7419947" lon="3.2115471">
        <ele>11.580001831054688</ele>
        <hdop>5.0</hdop>
        <time>2014-06-04T09:00:57Z</time>
        <extensions>
          <speed>0.8612534403800964</speed>
        </extensions>
      </trkpt>
      <trkpt lat="39.7420171" lon="3.2114844">
        <ele>10.580001831054688</ele>
        <hdop>10.0</hdop>
        <time>2014-06-04T09:01:03Z</time>
        <extensions>
          <speed>0.9239811301231384</speed>
        </extensions>
      </trkpt>
      <trkpt lat="39.7420351" lon="3.2114373">
        <ele>10.580001831054688</ele>
        <hdop>10.0</hdop>
        <time>2014-06-04T09:01:08Z</time>
        <extensions>
          <speed>0.8956732153892517</speed>
        </extensions>
      </trkpt>
      <trkpt lat="39.742038" lon="3.2113756">
        <ele>10.580001831054688</ele>
        <hdop>10.0</hdop>
        <time>2014-06-04T09:01:14Z</time>
        <extensions>
          <speed>0.8848869800567627</speed>
        </extensions>
      </trkpt>
      <trkpt lat="39.7420608" lon="3.211326">
        <ele>10.580001831054688</ele>
        <hdop>10.0</hdop>
        <time>2014-06-04T09:01:20Z</time>
        <extensions>
          <speed>0.9241077899932861</speed>
        </extensions>
      </trkpt>
      <trkpt lat="39.7420943" lon="3.2112639">
        <ele>10.580001831054688</ele>
        <hdop>10.0</hdop>
        <time>2014-06-04T09:01:26Z</time>
        <extensions>
          <speed>1.006806492805481</speed>
        </extensions>
      </trkpt>
      <trkpt lat="39.7421356" lon="3.2112187">
        <ele>10.580001831054688</ele>
        <hdop>10.0</hdop>
        <time>2014-06-04T09:01:32Z</time>
        <extensions>
          <speed>0.9800057411193848</speed>
        </extensions>
      </trkpt>
      <trkpt lat="39.7421659" lon="3.2112028">
        <ele>10.580001831054688</ele>
        <hdop>10.0</hdop>
        <time>2014-06-04T09:01:38Z</time>
        <extensions>
          <speed>1.0182433128356934</speed>
        </extensions>
      </trkpt>
      <trkpt lat="39.7421928" lon="3.2111699">
        <ele>10.580001831054688</ele>
        <hdop>10.0</hdop>
        <time>2014-06-04T09:01:43Z</time>
        <extensions>
          <speed>1.0010653734207153</speed>
        </extensions>
      </trkpt>
      <trkpt lat="39.7422331" lon="3.2111382">
        <ele>10.580001831054688</ele>
        <hdop>5.0</hdop>
        <time>2014-06-04T09:01:49Z</time>
        <extensions>
          <speed>0.9713530540466309</speed>
        </extensions>
      </trkpt>
      <trkpt lat="39.7422791" lon="3.2111056">
        <ele>10.580001831054688</ele>
        <hdop>5.0</hdop>
        <time>2014-06-04T09:01:55Z</time>
        <extensions>
          <speed>1.0279779434204102</speed>
        </extensions>
      </trkpt>
      <trkpt lat="39.742322" lon="3.2110892">
        <ele>10.580001831054688</ele>
        <hdop>5.0</hdop>
        <time>2014-06-04T09:02:00Z</time>
        <extensions>
          <speed>1.0356234312057495</speed>
        </extensions>
      </trkpt>
      <trkpt lat="39.7423344" lon="3.2110664">
        <ele>10.580001831054688</ele>
        <hdop>5.0</hdop>
        <time>2014-06-04T09:02:06Z</time>
      </trkpt>
      <trkpt lat="39.7423424" lon="3.2110394">
        <ele>10.580001831054688</ele>
        <hdop>5.0</hdop>
        <time>2014-06-04T09:02:11Z</time>
        <extensions>
          <speed>0.9827926754951477</speed>
        </extensions>
      </trkpt>
      <trkpt lat="39.7423988" lon="3.211072">
        <ele>10.580001831054688</ele>
        <hdop>5.0</hdop>
        <time>2014-06-04T09:02:17Z</time>
        <extensions>
          <speed>1.1573596000671387</speed>
        </extensions>
      </trkpt>
      <trkpt lat="39.7424527" lon="3.2110677">
        <ele>9.580001831054688</ele>
        <hdop>5.0</hdop>
        <time>2014-06-04T09:02:23Z</time>
        <extensions>
          <speed>0.8765372037887573</speed>
        </extensions>
      </trkpt>
      <trkpt lat="39.742473" lon="3.2110239">
        <ele>9.580001831054688</ele>
        <hdop>5.0</hdop>
        <time>2014-06-04T09:02:28Z</time>
        <extensions>
          <speed>0.8036877512931824</speed>
        </extensions>
      </trkpt>
      <trkpt lat="39.7425152" lon="3.2109848">
        <ele>9.580001831054688</ele>
        <hdop>10.0</hdop>
        <time>2014-06-04T09:02:34Z</time>
        <extensions>
          <speed>0.911059558391571</speed>
        </extensions>
      </trkpt>
      <trkpt lat="39.742543" lon="3.210942">
        <ele>9.580001831054688</ele>
        <hdop>5.0</hdop>
        <time>2014-06-04T09:02:39Z</time>
        <extensions>
          <speed>0.9000881314277649</speed>
        </extensions>
      </trkpt>
      <trkpt lat="39.7425718" lon="3.210895">
        <ele>9.580001831054688</ele>
        <hdop>5.0</hdop>
        <time>2014-06-04T09:02:45Z</time>
        <extensions>
          <speed>0.8508359789848328</speed>
        </extensions>
      </trkpt>
      <trkpt lat="39.7426157" lon="3.2108562">
        <ele>9.580001831054688</ele>
        <hdop>5.0</hdop>
        <time>2014-06-04T09:02:51Z</time>
        <extensions>
          <speed>1.0321308374404907</speed>
        </extensions>
      </trkpt>
      <trkpt lat="39.7426598" lon="3.2108322">
        <ele>9.580001831054688</ele>
        <hdop>5.0</hdop>
        <time>2014-06-04T09:02:56Z</time>
        <extensions>
          <speed>1.0755112171173096</speed>
        </extensions>
      </trkpt>
      <trkpt lat="39.742697" lon="3.2107804">
        <ele>9.580001831054688</ele>
        <hdop>5.0</hdop>
        <time>2014-06-04T09:03:02Z</time>
        <extensions>
          <speed>1.016167163848877</speed>
        </extensions>
      </trkpt>
      <trkpt lat="39.7427333" lon="3.2107305">
        <ele>9.580001831054688</ele>
        <hdop>5.0</hdop>
        <time>2014-06-04T09:03:08Z</time>
        <extensions>
          <speed>0.9631146192550659</speed>
        </extensions>
      </trkpt>
      <trkpt lat="39.7427696" lon="3.2106815">
        <ele>8.580001831054688</ele>
        <hdop>5.0</hdop>
        <time>2014-06-04T09:03:14Z</time>
        <extensions>
          <speed>0.9850825667381287</speed>
        </extensions>
      </trkpt>
      <trkpt lat="39.7428042" lon="3.210622">
        <ele>8.580001831054688</ele>
        <hdop>5.0</hdop>
        <time>2014-06-04T09:03:20Z</time>
        <extensions>
          <speed>0.9865565299987793</speed>
        </extensions>
      </trkpt>
      <trkpt lat="39.742849" lon="3.2105612">
        <ele>8.580001831054688</ele>
        <hdop>10.0</hdop>
        <time>2014-06-04T09:03:26Z</time>
        <extensions>
          <speed>1.03920578956604</speed>
        </extensions>
      </trkpt>
      <trkpt lat="39.7428944" lon="3.2105078">
        <ele>8.580001831054688</ele>
        <hdop>5.0</hdop>
        <time>2014-06-04T09:03:32Z</time>
        <extensions>
          <speed>1.078903317451477</speed>
        </extensions>
      </trkpt>
      <trkpt lat="39.7429373" lon="3.2104552">
        <ele>8.580001831054688</ele>
        <hdop>5.0</hdop>
        <time>2014-06-04T09:03:38Z</time>
        <extensions>
          <speed>1.0713427066802979</speed>
        </extensions>
      </trkpt>
      <trkpt lat="39.7429665" lon="3.2104013">
        <ele>8.580001831054688</ele>
        <hdop>5.0</hdop>
        <time>2014-06-04T09:03:43Z</time>
        <extensions>
          <speed>1.0603368282318115</speed>
        </extensions>
      </trkpt>
      <trkpt lat="39.7429978" lon="3.2103394">
        <ele>8.580001831054688</ele>
        <hdop>5.0</hdop>
        <time>2014-06-04T09:03:49Z</time>
        <extensions>
          <speed>1.041382074356079</speed>
        </extensions>
      </trkpt>
      <trkpt lat="39.7430242" lon="3.2102879">
        <ele>8.580001831054688</ele>
        <hdop>5.0</hdop>
        <time>2014-06-04T09:03:54Z</time>
        <extensions>
          <speed>1.039101481437683</speed>
        </extensions>
      </trkpt>
      <trkpt lat="39.7430522" lon="3.2102288">
        <ele>8.580001831054688</ele>
        <hdop>5.0</hdop>
        <time>2014-06-04T09:03:59Z</time>
        <extensions>
          <speed>1.0435398817062378</speed>
        </extensions>
      </trkpt>
      <trkpt lat="39.7430788" lon="3.210158">
        <ele>8.580001831054688</ele>
        <hdop>5.0</hdop>
        <time>2014-06-04T09:04:05Z</time>
        <extensions>
          <speed>1.0324300527572632</speed>
        </extensions>
      </trkpt>
      <trkpt lat="39.7430987" lon="3.2100845">
        <ele>7.5800018310546875</ele>
        <hdop>5.0</hdop>
        <time>2014-06-04T09:04:11Z</time>
        <extensions>
          <speed>1.0090142488479614</speed>
        </extensions>
      </trkpt>
      <trkpt lat="39.7431166" lon="3.2100237">
        <ele>7.5800018310546875</ele>
        <hdop>10.0</hdop>
        <time>2014-06-04T09:04:16Z</time>
        <extensions>
          <speed>1.0061918497085571</speed>
        </extensions>
      </trkpt>
      <trkpt lat="39.7431411" lon="3.2099597">
        <ele>7.5800018310546875</ele>
        <hdop>10.0</hdop>
        <time>2014-06-04T09:04:21Z</time>
        <extensions>
          <speed>1.0070186853408813</speed>
        </extensions>
      </trkpt>
      <trkpt lat="39.7431654" lon="3.2098877">
        <ele>7.5800018310546875</ele>
        <hdop>5.0</hdop>
        <time>2014-06-04T09:04:27Z</time>
        <extensions>
          <speed>1.026822566986084</speed>
        </extensions>
      </trkpt>
      <trkpt lat="39.7431928" lon="3.2098272">
        <ele>7.5800018310546875</ele>
        <hdop>5.0</hdop>
        <time>2014-06-04T09:04:33Z</time>
        <extensions>
          <speed>1.0128041505813599</speed>
        </extensions>
      </trkpt>
      <trkpt lat="39.7432173" lon="3.2097777">
        <ele>7.5800018310546875</ele>
        <hdop>5.0</hdop>
        <time>2014-06-04T09:04:38Z</time>
        <extensions>
          <speed>1.02843177318573</speed>
        </extensions>
      </trkpt>
      <trkpt lat="39.743248" lon="3.2097209">
        <ele>7.5800018310546875</ele>
        <hdop>5.0</hdop>
        <time>2014-06-04T09:04:43Z</time>
        <extensions>
          <speed>1.0866992473602295</speed>
        </extensions>
      </trkpt>
      <trkpt lat="39.7432789" lon="3.2096634">
        <ele>7.5800018310546875</ele>
        <hdop>5.0</hdop>
        <time>2014-06-04T09:04:48Z</time>
        <extensions>
          <speed>1.1019991636276245</speed>
        </extensions>
      </trkpt>
      <trkpt lat="39.7433136" lon="3.2096114">
        <ele>6.5800018310546875</ele>
        <hdop>5.0</hdop>
        <time>2014-06-04T09:04:53Z</time>
        <extensions>
          <speed>1.1192325353622437</speed>
        </extensions>
      </trkpt>
      <trkpt lat="39.743323" lon="3.2095965">
        <ele>6.5800018310546875</ele>
        <hdop>10.0</hdop>
        <time>2014-06-04T09:04:59Z</time>
      </trkpt>
      <trkpt lat="39.743323" lon="3.2095965">
        <ele>6.5800018310546875</ele>
        <hdop>10.0</hdop>
        <time>2014-06-04T09:05:04Z</time>
      </trkpt>
      <trkpt lat="39.743323" lon="3.2095965">
        <ele>6.5800018310546875</ele>
        <hdop>10.0</hdop>
        <time>2014-06-04T09:05:09Z</time>
      </trkpt>
      <trkpt lat="39.743323" lon="3.2095965">
        <ele>6.5800018310546875</ele>
        <hdop>5.0</hdop>
        <time>2014-06-04T09:05:15Z</time>
      </trkpt>
      <trkpt lat="39.743323" lon="3.2095965">
        <ele>6.5800018310546875</ele>
        <hdop>10.0</hdop>
        <time>2014-06-04T09:05:20Z</time>
      </trkpt>
      <trkpt lat="39.743323" lon="3.2095965">
        <ele>6.5800018310546875</ele>
        <hdop>5.0</hdop>
        <time>2014-06-04T09:05:26Z</time>
      </trkpt>
      <trkpt lat="39.743323" lon="3.2095965">
        <ele>6.5800018310546875</ele>
        <hdop>5.0</hdop>
        <time>2014-06-04T09:05:31Z</time>
      </trkpt>
      <trkpt lat="39.743323" lon="3.2095965">
        <ele>6.5800018310546875</ele>
        <hdop>10.0</hdop>
        <time>2014-06-04T09:05:37Z</time>
      </trkpt>
      <trkpt lat="39.743323" lon="3.2095965">
        <ele>6.5800018310546875</ele>
        <hdop>5.0</hdop>
        <time>2014-06-04T09:05:42Z</time>
      </trkpt>
      <trkpt lat="39.743323" lon="3.2095965">
        <ele>6.5800018310546875</ele>
        <hdop>5.0</hdop>
        <time>2014-06-04T09:05:48Z</time>
      </trkpt>
      <trkpt lat="39.743323" lon="3.2095965">
        <ele>6.5800018310546875</ele>
        <hdop>5.0</hdop>
        <time>2014-06-04T09:05:54Z</time>
      </trkpt>
      <trkpt lat="39.743323" lon="3.2095965">
        <ele>6.5800018310546875</ele>
        <hdop>5.0</hdop>
        <time>2014-06-04T09:05:59Z</time>
      </trkpt>
      <trkpt lat="39.743323" lon="3.2095965">
        <ele>6.5800018310546875</ele>
        <hdop>5.0</hdop>
        <time>2014-06-04T09:06:05Z</time>
      </trkpt>
      <trkpt lat="39.743323" lon="3.2095965">
        <ele>6.5800018310546875</ele>
        <hdop>5.0</hdop>
        <time>2014-06-04T09:06:11Z</time>
      </trkpt>
      <trkpt lat="39.7433226" lon="3.2095343">
        <ele>6.5800018310546875</ele>
        <hdop>5.0</hdop>
        <time>2014-06-04T09:06:17Z</time>
        <extensions>
          <speed>0.9407339692115784</speed>
        </extensions>
      </trkpt>
      <trkpt lat="39.7433414" lon="3.2094817">
        <ele>6.5800018310546875</ele>
        <hdop>5.0</hdop>
        <time>2014-06-04T09:06:23Z</time>
        <extensions>
          <speed>0.9714722633361816</speed>
        </extensions>
      </trkpt>
      <trkpt lat="39.743385" lon="3.2094436">
        <ele>5.5800018310546875</ele>
        <hdop>5.0</hdop>
        <time>2014-06-04T09:06:28Z</time>
        <extensions>
          <speed>1.1199439764022827</speed>
        </extensions>
      </trkpt>
      <trkpt lat="39.7434241" lon="3.2093811">
        <ele>5.5800018310546875</ele>
        <hdop>5.0</hdop>
        <time>2014-06-04T09:06:34Z</time>
        <extensions>
          <speed>1.103305459022522</speed>
        </extensions>
      </trkpt>
      <trkpt lat="39.7434696" lon="3.209342">
        <ele>5.5800018310546875</ele>
        <hdop>5.0</hdop>
        <time>2014-06-04T09:06:39Z</time>
        <extensions>
          <speed>1.1712441444396973</speed>
        </extensions>
      </trkpt>
      <trkpt lat="39.7435185" lon="3.2092877">
        <ele>5.5800018310546875</ele>
        <hdop>5.0</hdop>
        <time>2014-06-04T09:06:45Z</time>
        <extensions>
          <speed>1.2052524089813232</speed>
        </extensions>
      </trkpt>
      <trkpt lat="39.7435635" lon="3.2092373">
        <ele>5.5800018310546875</ele>
        <hdop>5.0</hdop>
        <time>2014-06-04T09:06:51Z</time>
        <extensions>
          <speed>1.1805109977722168</speed>
        </extensions>
      </trkpt>
      <trkpt lat="39.7435998" lon="3.2091985">
        <ele>5.5800018310546875</ele>
        <hdop>5.0</hdop>
        <time>2014-06-04T09:06:56Z</time>
        <extensions>
          <speed>1.1657878160476685</speed>
        </extensions>
      </trkpt>
      <trkpt lat="39.7436449" lon="3.209142">
        <ele>5.5800018310546875</ele>
        <hdop>5.0</hdop>
        <time>2014-06-04T09:07:02Z</time>
        <extensions>
          <speed>1.1812738180160522</speed>
        </extensions>
      </trkpt>
      <trkpt lat="39.7436767" lon="3.2090777">
        <ele>5.5800018310546875</ele>
        <hdop>5.0</hdop>
        <time>2014-06-04T09:07:07Z</time>
        <extensions>
          <speed>1.1703256368637085</speed>
        </extensions>
      </trkpt>
      <trkpt lat="39.7437089" lon="3.209017">
        <ele>5.5800018310546875</ele>
        <hdop>5.0</hdop>
        <time>2014-06-04T09:07:12Z</time>
        <extensions>
          <speed>1.1750831604003906</speed>
        </extensions>
      </trkpt>
      <trkpt lat="39.7437467" lon="3.2089456">
        <ele>5.5800018310546875</ele>
        <hdop>5.0</hdop>
        <time>2014-06-04T09:07:18Z</time>
        <extensions>
          <speed>1.182391881942749</speed>
        </extensions>
      </trkpt>
      <trkpt lat="39.7437795" lon="3.2088591">
        <ele>5.5800018310546875</ele>
        <hdop>5.0</hdop>
        <time>2014-06-04T09:07:24Z</time>
        <extensions>
          <speed>1.2030469179153442</speed>
        </extensions>
      </trkpt>
      <trkpt lat="39.7438046" lon="3.2087617">
        <ele>5.5800018310546875</ele>
        <hdop>5.0</hdop>
        <time>2014-06-04T09:07:30Z</time>
        <extensions>
          <speed>1.1812583208084106</speed>
        </extensions>
      </trkpt>
      <trkpt lat="39.7438445" lon="3.2087041">
        <ele>6.5800018310546875</ele>
        <hdop>5.0</hdop>
        <time>2014-06-04T09:07:36Z</time>
        <extensions>
          <speed>1.1531500816345215</speed>
        </extensions>
      </trkpt>
      <trkpt lat="39.743879" lon="3.2086654">
        <ele>6.5800018310546875</ele>
        <hdop>5.0</hdop>
        <time>2014-06-04T09:07:41Z</time>
        <extensions>
          <speed>1.1498522758483887</speed>
        </extensions>
      </trkpt>
      <trkpt lat="39.7439214" lon="3.2086083">
        <ele>6.5800018310546875</ele>
        <hdop>5.0</hdop>
        <time>2014-06-04T09:07:47Z</time>
        <extensions>
          <speed>1.2003973722457886</speed>
        </extensions>
      </trkpt>
      <trkpt lat="39.7439684" lon="3.2085611">
        <ele>6.5800018310546875</ele>
        <hdop>5.0</hdop>
        <time>2014-06-04T09:07:53Z</time>
        <extensions>
          <speed>1.1706818342208862</speed>
        </extensions>
      </trkpt>
      <trkpt lat="39.7440099" lon="3.2085176">
        <ele>6.5800018310546875</ele>
        <hdop>5.0</hdop>
        <time>2014-06-04T09:07:58Z</time>
        <extensions>
          <speed>1.1682195663452148</speed>
        </extensions>
      </trkpt>
      <trkpt lat="39.7440537" lon="3.2084606">
        <ele>7.5800018310546875</ele>
        <hdop>5.0</hdop>
        <time>2014-06-04T09:08:03Z</time>
        <extensions>
          <speed>1.2571139335632324</speed>
        </extensions>
      </trkpt>
      <trkpt lat="39.7440987" lon="3.2083899">
        <ele>7.5800018310546875</ele>
        <hdop>10.0</hdop>
        <time>2014-06-04T09:08:09Z</time>
        <extensions>
          <speed>1.251840353012085</speed>
        </extensions>
      </trkpt>
      <trkpt lat="39.744121" lon="3.2083258">
        <ele>7.5800018310546875</ele>
        <hdop>5.0</hdop>
        <time>2014-06-04T09:08:14Z</time>
        <extensions>
          <speed>1.2390727996826172</speed>
        </extensions>
      </trkpt>
      <trkpt lat="39.7441469" lon="3.2082366">
        <ele>7.5800018310546875</ele>
        <hdop>5.0</hdop>
        <time>2014-06-04T09:08:20Z</time>
        <extensions>
          <speed>1.2486684322357178</speed>
        </extensions>
      </trkpt>
      <trkpt lat="39.7441818" lon="3.2081675">
        <ele>7.5800018310546875</ele>
        <hdop>5.0</hdop>
        <time>2014-06-04T09:08:25Z</time>
        <extensions>
          <speed>1.277112364768982</speed>
        </extensions>
      </trkpt>
      <trkpt lat="39.7442042" lon="3.2080888">
        <ele>7.5800018310546875</ele>
        <hdop>5.0</hdop>
        <time>2014-06-04T09:08:30Z</time>
        <extensions>
          <speed>1.2736202478408813</speed>
        </extensions>
      </trkpt>
      <trkpt lat="39.7442296" lon="3.2079972">
        <ele>7.5800018310546875</ele>
        <hdop>5.0</hdop>
        <time>2014-06-04T09:08:36Z</time>
        <extensions>
          <speed>1.288689374923706</speed>
        </extensions>
      </trkpt>
      <trkpt lat="39.7442545" lon="3.2079259">
        <ele>7.5800018310546875</ele>
        <hdop>5.0</hdop>
        <time>2014-06-04T09:08:41Z</time>
        <extensions>
          <speed>1.2776052951812744</speed>
        </extensions>
      </trkpt>
      <trkpt lat="39.7442721" lon="3.2078536">
        <ele>7.5800018310546875</ele>
        <hdop>5.0</hdop>
        <time>2014-06-04T09:08:46Z</time>
        <extensions>
          <speed>1.2589924335479736</speed>
        </extensions>
      </trkpt>
      <trkpt lat="39.7442893" lon="3.2077581">
        <ele>7.5800018310546875</ele>
        <hdop>5.0</hdop>
        <time>2014-06-04T09:08:52Z</time>
        <extensions>
          <speed>1.2636878490447998</speed>
        </extensions>
      </trkpt>
      <trkpt lat="39.7443077" lon="3.2076824">
        <ele>7.5800018310546875</ele>
        <hdop>5.0</hdop>
        <time>2014-06-04T09:08:57Z</time>
        <extensions>
          <speed>1.2625311613082886</speed>
        </extensions>
      </trkpt>
      <trkpt lat="39.7443272" lon="3.2076099">
        <ele>7.5800018310546875</ele>
        <hdop>5.0</hdop>
        <time>2014-06-04T09:09:02Z</time>
        <extensions>
          <speed>1.2631731033325195</speed>
        </extensions>
      </trkpt>
      <trkpt lat="39.7443478" lon="3.2075245">
        <ele>7.5800018310546875</ele>
        <hdop>5.0</hdop>
        <time>2014-06-04T09:09:08Z</time>
        <extensions>
          <speed>1.2682284116744995</speed>
        </extensions>
      </trkpt>
      <trkpt lat="39.744365" lon="3.2074582">
        <ele>7.5800018310546875</ele>
        <hdop>5.0</hdop>
        <time>2014-06-04T09:09:13Z</time>
        <extensions>
          <speed>1.241838812828064</speed>
        </extensions>
      </trkpt>
      <trkpt lat="39.7443818" lon="3.2073742">
        <ele>7.5800018310546875</ele>
        <hdop>10.0</hdop>
        <time>2014-06-04T09:09:19Z</time>
        <extensions>
          <speed>1.2357823848724365</speed>
        </extensions>
      </trkpt>
      <trkpt lat="39.7443947" lon="3.2072685">
        <ele>7.5800018310546875</ele>
        <hdop>5.0</hdop>
        <time>2014-06-04T09:09:25Z</time>
        <extensions>
          <speed>1.2637742757797241</speed>
        </extensions>
      </trkpt>
      <trkpt lat="39.7444195" lon="3.2071758">
        <ele>7.5800018310546875</ele>
        <hdop>5.0</hdop>
        <time>2014-06-04T09:09:31Z</time>
        <extensions>
          <speed>1.2943824529647827</speed>
        </extensions>
      </trkpt>
      <trkpt lat="39.7444452" lon="3.2070849">
        <ele>7.5800018310546875</ele>
        <hdop>5.0</hdop>
        <time>2014-06-04T09:09:37Z</time>
        <extensions>
          <speed>1.2985154390335083</speed>
        </extensions>
      </trkpt>
      <trkpt lat="39.7444765" lon="3.2070024">
        <ele>7.5800018310546875</ele>
        <hdop>5.0</hdop>
        <time>2014-06-04T09:09:43Z</time>
        <extensions>
          <speed>1.3109158277511597</speed>
        </extensions>
      </trkpt>
      <trkpt lat="39.7445088" lon="3.2069235">
        <ele>7.5800018310546875</ele>
        <hdop>5.0</hdop>
        <time>2014-06-04T09:09:49Z</time>
        <extensions>
          <speed>1.3146721124649048</speed>
        </extensions>
      </trkpt>
      <trkpt lat="39.7445581" lon="3.2068607">
        <ele>7.5800018310546875</ele>
        <hdop>5.0</hdop>
        <time>2014-06-04T09:09:55Z</time>
        <extensions>
          <speed>1.344957947731018</speed>
        </extensions>
      </trkpt>
      <trkpt lat="39.7446025" lon="3.2068127">
        <ele>7.5800018310546875</ele>
        <hdop>5.0</hdop>
        <time>2014-06-04T09:10:00Z</time>
        <extensions>
          <speed>1.3144978284835815</speed>
        </extensions>
      </trkpt>
      <trkpt lat="39.7446596" lon="3.2067546">
        <ele>7.5800018310546875</ele>
        <hdop>5.0</hdop>
        <time>2014-06-04T09:10:06Z</time>
        <extensions>
          <speed>1.4138717651367188</speed>
        </extensions>
      </trkpt>
      <trkpt lat="39.7447053" lon="3.2067172">
        <ele>7.5800018310546875</ele>
        <hdop>10.0</hdop>
        <time>2014-06-04T09:10:11Z</time>
        <extensions>
          <speed>1.1727443933486938</speed>
        </extensions>
      </trkpt>
      <trkpt lat="39.7447475" lon="3.2067148">
        <ele>7.5800018310546875</ele>
        <hdop>10.0</hdop>
        <time>2014-06-04T09:10:17Z</time>
        <extensions>
          <speed>1.1668457984924316</speed>
        </extensions>
      </trkpt>
      <trkpt lat="39.7448108" lon="3.2067087">
        <ele>7.5800018310546875</ele>
        <hdop>5.0</hdop>
        <time>2014-06-04T09:10:23Z</time>
        <extensions>
          <speed>1.162111520767212</speed>
        </extensions>
      </trkpt>
      <trkpt lat="39.7448602" lon="3.2067">
        <ele>7.5800018310546875</ele>
        <hdop>5.0</hdop>
        <time>2014-06-04T09:10:29Z</time>
        <extensions>
          <speed>1.0672663450241089</speed>
        </extensions>
      </trkpt>
      <trkpt lat="39.7449082" lon="3.2066868">
        <ele>7.5800018310546875</ele>
        <hdop>5.0</hdop>
        <time>2014-06-04T09:10:34Z</time>
        <extensions>
          <speed>1.1029363870620728</speed>
        </extensions>
      </trkpt>
      <trkpt lat="39.7449641" lon="3.206638">
        <ele>7.5800018310546875</ele>
        <hdop>5.0</hdop>
        <time>2014-06-04T09:10:40Z</time>
        <extensions>
          <speed>1.1129355430603027</speed>
        </extensions>
      </trkpt>
      <trkpt lat="39.7450188" lon="3.2065912">
        <ele>7.5800018310546875</ele>
        <hdop>5.0</hdop>
        <time>2014-06-04T09:10:46Z</time>
        <extensions>
          <speed>1.118579387664795</speed>
        </extensions>
      </trkpt>
      <trkpt lat="39.7450667" lon="3.2065221">
        <ele>7.5800018310546875</ele>
        <hdop>5.0</hdop>
        <time>2014-06-04T09:10:52Z</time>
        <extensions>
          <speed>1.1587554216384888</speed>
        </extensions>
      </trkpt>
      <trkpt lat="39.7451048" lon="3.2064675">
        <ele>7.5800018310546875</ele>
        <hdop>5.0</hdop>
        <time>2014-06-04T09:10:57Z</time>
        <extensions>
          <speed>1.168618083000183</speed>
        </extensions>
      </trkpt>
      <trkpt lat="39.7451439" lon="3.2063877">
        <ele>7.5800018310546875</ele>
        <hdop>5.0</hdop>
        <time>2014-06-04T09:11:03Z</time>
        <extensions>
          <speed>1.1908901929855347</speed>
        </extensions>
      </trkpt>
      <trkpt lat="39.7451769" lon="3.2063183">
        <ele>7.5800018310546875</ele>
        <hdop>5.0</hdop>
        <time>2014-06-04T09:11:08Z</time>
        <extensions>
          <speed>1.224293828010559</speed>
        </extensions>
      </trkpt>
      <trkpt lat="39.7452145" lon="3.2062341">
        <ele>7.5800018310546875</ele>
        <hdop>5.0</hdop>
        <time>2014-06-04T09:11:14Z</time>
        <extensions>
          <speed>1.2483223676681519</speed>
        </extensions>
      </trkpt>
      <trkpt lat="39.7452639" lon="3.2061766">
        <ele>7.5800018310546875</ele>
        <hdop>5.0</hdop>
        <time>2014-06-04T09:11:20Z</time>
        <extensions>
          <speed>1.2610268592834473</speed>
        </extensions>
      </trkpt>
      <trkpt lat="39.7453203" lon="3.2061362">
        <ele>7.5800018310546875</ele>
        <hdop>5.0</hdop>
        <time>2014-06-04T09:11:25Z</time>
        <extensions>
          <speed>1.3049482107162476</speed>
        </extensions>
      </trkpt>
      <trkpt lat="39.7453858" lon="3.2060871">
        <ele>7.5800018310546875</ele>
        <hdop>5.0</hdop>
        <time>2014-06-04T09:11:31Z</time>
        <extensions>
          <speed>1.3341103792190552</speed>
        </extensions>
      </trkpt>
      <trkpt lat="39.7454489" lon="3.2060437">
        <ele>7.5800018310546875</ele>
        <hdop>5.0</hdop>
        <time>2014-06-04T09:11:37Z</time>
        <extensions>
          <speed>1.3697293996810913</speed>
        </extensions>
      </trkpt>
      <trkpt lat="39.7455" lon="3.2060057">
        <ele>7.5800018310546875</ele>
        <hdop>5.0</hdop>
        <time>2014-06-04T09:11:42Z</time>
        <extensions>
          <speed>1.3549400568008423</speed>
        </extensions>
      </trkpt>
      <trkpt lat="39.7455593" lon="3.2059545">
        <ele>7.5800018310546875</ele>
        <hdop>5.0</hdop>
        <time>2014-06-04T09:11:48Z</time>
        <extensions>
          <speed>1.3496778011322021</speed>
        </extensions>
      </trkpt>
      <trkpt lat="39.7456241" lon="3.2059257">
        <ele>7.5800018310546875</ele>
        <hdop>5.0</hdop>
        <time>2014-06-04T09:11:54Z</time>
        <extensions>
          <speed>1.3234436511993408</speed>
        </extensions>
      </trkpt>
      <trkpt lat="39.7456789" lon="3.2059061">
        <ele>7.5800018310546875</ele>
        <hdop>5.0</hdop>
        <time>2014-06-04T09:11:59Z</time>
        <extensions>
          <speed>1.3349069356918335</speed>
        </extensions>
      </trkpt>
      <trkpt lat="39.745731" lon="3.2058907">
        <ele>7.5800018310546875</ele>
        <hdop>5.0</hdop>
        <time>2014-06-04T09:12:04Z</time>
        <extensions>
          <speed>1.282837152481079</speed>
        </extensions>
      </trkpt>
      <trkpt lat="39.7457868" lon="3.2058647">
        <ele>8.580001831054688</ele>
        <hdop>5.0</hdop>
        <time>2014-06-04T09:12:10Z</time>
        <extensions>
          <speed>1.229534387588501</speed>
        </extensions>
      </trkpt>
      <trkpt lat="39.7458349" lon="3.2058374">
        <ele>8.580001831054688</ele>
        <hdop>5.0</hdop>
        <time>2014-06-04T09:12:15Z</time>
        <extensions>
          <speed>1.213399052619934</speed>
        </extensions>
      </trkpt>
      <trkpt lat="39.7458889" lon="3.2058075">
        <ele>8.580001831054688</ele>
        <hdop>5.0</hdop>
        <time>2014-06-04T09:12:21Z</time>
        <extensions>
          <speed>1.1768324375152588</speed>
        </extensions>
      </trkpt>
      <trkpt lat="39.7459343" lon="3.2057994">
        <ele>8.580001831054688</ele>
        <hdop>5.0</hdop>
        <time>2014-06-04T09:12:26Z</time>
        <extensions>
          <speed>1.1703225374221802</speed>
        </extensions>
      </trkpt>
      <trkpt lat="39.7459987" lon="3.2058343">
        <ele>8.580001831054688</ele>
        <hdop>10.0</hdop>
        <time>2014-06-04T09:12:32Z</time>
        <extensions>
          <speed>1.2150890827178955</speed>
        </extensions>
      </trkpt>
      <trkpt lat="39.7460472" lon="3.2058322">
        <ele>8.580001831054688</ele>
        <hdop>5.0</hdop>
        <time>2014-06-04T09:12:38Z</time>
        <extensions>
          <speed>1.0026264190673828</speed>
        </extensions>
      </trkpt>
      <trkpt lat="39.7461053" lon="3.2058186">
        <ele>8.580001831054688</ele>
        <hdop>5.0</hdop>
        <time>2014-06-04T09:12:44Z</time>
        <extensions>
          <speed>1.174553632736206</speed>
        </extensions>
      </trkpt>
      <trkpt lat="39.7461431" lon="3.2057582">
        <ele>8.580001831054688</ele>
        <hdop>5.0</hdop>
        <time>2014-06-04T09:12:50Z</time>
        <extensions>
          <speed>1.048446536064148</speed>
        </extensions>
      </trkpt>
      <trkpt lat="39.7461644" lon="3.2057037">
        <ele>8.580001831054688</ele>
        <hdop>10.0</hdop>
        <time>2014-06-04T09:12:56Z</time>
        <extensions>
          <speed>0.878976047039032</speed>
        </extensions>
      </trkpt>
      <trkpt lat="39.746175" lon="3.2056978">
        <ele>8.580001831054688</ele>
        <hdop>10.0</hdop>
        <time>2014-06-04T09:13:01Z</time>
      </trkpt>
      <trkpt lat="39.746168" lon="3.2056437">
        <ele>9.580001831054688</ele>
        <hdop>10.0</hdop>
        <time>2014-06-04T09:13:06Z</time>
        <extensions>
          <speed>0.7203223705291748</speed>
        </extensions>
      </trkpt>
      <trkpt lat="39.7461327" lon="3.2055793">
        <ele>9.580001831054688</ele>
        <hdop>10.0</hdop>
        <time>2014-06-04T09:13:12Z</time>
        <extensions>
          <speed>0.9366025328636169</speed>
        </extensions>
      </trkpt>
      <trkpt lat="39.7461728" lon="3.2055264">
        <ele>9.580001831054688</ele>
        <hdop>10.0</hdop>
        <time>2014-06-04T09:13:17Z</time>
        <extensions>
          <speed>1.0657216310501099</speed>
        </extensions>
      </trkpt>
      <trkpt lat="39.7462169" lon="3.2054602">
        <ele>9.580001831054688</ele>
        <hdop>10.0</hdop>
        <time>2014-06-04T09:13:23Z</time>
        <extensions>
          <speed>1.1653623580932617</speed>
        </extensions>
      </trkpt>
      <trkpt lat="39.7462566" lon="3.2053823">
        <ele>9.580001831054688</ele>
        <hdop>10.0</hdop>
        <time>2014-06-04T09:13:29Z</time>
        <extensions>
          <speed>1.2375175952911377</speed>
        </extensions>
      </trkpt>
      <trkpt lat="39.7462805" lon="3.205333">
        <ele>9.580001831054688</ele>
        <hdop>10.0</hdop>
        <time>2014-06-04T09:13:35Z</time>
        <extensions>
          <speed>1.0752471685409546</speed>
        </extensions>
      </trkpt>
      <trkpt lat="39.7462767" lon="3.2052948">
        <ele>9.580001831054688</ele>
        <hdop>5.0</hdop>
        <time>2014-06-04T09:13:40Z</time>
        <extensions>
          <speed>0.8973186016082764</speed>
        </extensions>
      </trkpt>
      <trkpt lat="39.7462745" lon="3.2052207">
        <ele>9.580001831054688</ele>
        <hdop>5.0</hdop>
        <time>2014-06-04T09:13:46Z</time>
        <extensions>
          <speed>0.9417771100997925</speed>
        </extensions>
      </trkpt>
      <trkpt lat="39.7462958" lon="3.2051469">
        <ele>9.580001831054688</ele>
        <hdop>5.0</hdop>
        <time>2014-06-04T09:13:52Z</time>
        <extensions>
          <speed>1.0187156200408936</speed>
        </extensions>
      </trkpt>
      <trkpt lat="39.7463028" lon="3.2050834">
        <ele>9.580001831054688</ele>
        <hdop>5.0</hdop>
        <time>2014-06-04T09:13:57Z</time>
        <extensions>
          <speed>1.0443291664123535</speed>
        </extensions>
      </trkpt>
      <trkpt lat="39.7463072" lon="3.2050176">
        <ele>9.580001831054688</ele>
        <hdop>5.0</hdop>
        <time>2014-06-04T09:14:02Z</time>
        <extensions>
          <speed>1.0828955173492432</speed>
        </extensions>
      </trkpt>
      <trkpt lat="39.746324" lon="3.2049435">
        <ele>9.580001831054688</ele>
        <hdop>5.0</hdop>
        <time>2014-06-04T09:14:08Z</time>
        <extensions>
          <speed>1.0768567323684692</speed>
        </extensions>
      </trkpt>
      <trkpt lat="39.7463328" lon="3.2048697">
        <ele>9.580001831054688</ele>
        <hdop>5.0</hdop>
        <time>2014-06-04T09:14:14Z</time>
        <extensions>
          <speed>1.0648003816604614</speed>
        </extensions>
      </trkpt>
      <trkpt lat="39.7463465" lon="3.2048211">
        <ele>9.580001831054688</ele>
        <hdop>5.0</hdop>
        <time>2014-06-04T09:14:19Z</time>
        <extensions>
          <speed>1.0227456092834473</speed>
        </extensions>
      </trkpt>
      <trkpt lat="39.7463687" lon="3.204764">
        <ele>9.580001831054688</ele>
        <hdop>5.0</hdop>
        <time>2014-06-04T09:14:24Z</time>
        <extensions>
          <speed>1.0537683963775635</speed>
        </extensions>
      </trkpt>
      <trkpt lat="39.7463902" lon="3.2047137">
        <ele>9.580001831054688</ele>
        <hdop>5.0</hdop>
        <time>2014-06-04T09:14:29Z</time>
        <extensions>
          <speed>1.0213074684143066</speed>
        </extensions>
      </trkpt>
      <trkpt lat="39.7464266" lon="3.2046683">
        <ele>9.580001831054688</ele>
        <hdop>5.0</hdop>
        <time>2014-06-04T09:14:35Z</time>
        <extensions>
          <speed>1.0182528495788574</speed>
        </extensions>
      </trkpt>
      <trkpt lat="39.7464438" lon="3.2046134">
        <ele>9.580001831054688</ele>
        <hdop>5.0</hdop>
        <time>2014-06-04T09:14:41Z</time>
        <extensions>
          <speed>0.9994893670082092</speed>
        </extensions>
      </trkpt>
      <trkpt lat="39.7464594" lon="3.2045476">
        <ele>9.580001831054688</ele>
        <hdop>10.0</hdop>
        <time>2014-06-04T09:14:47Z</time>
        <extensions>
          <speed>0.9985441565513611</speed>
        </extensions>
      </trkpt>
      <trkpt lat="39.7464723" lon="3.204496">
        <ele>9.580001831054688</ele>
        <hdop>5.0</hdop>
        <time>2014-06-04T09:14:52Z</time>
        <extensions>
          <speed>0.9919039607048035</speed>
        </extensions>
      </trkpt>
      <trkpt lat="39.746443" lon="3.2044376">
        <ele>9.580001831054688</ele>
        <hdop>10.0</hdop>
        <time>2014-06-04T09:14:58Z</time>
        <extensions>
          <speed>1.135029911994934</speed>
        </extensions>
      </trkpt>
      <trkpt lat="39.7463759" lon="3.2044175">
        <ele>9.580001831054688</ele>
        <hdop>30.0</hdop>
        <time>2014-06-04T09:15:04Z</time>
        <extensions>
          <speed>0.6718372106552124</speed>
        </extensions>
      </trkpt>
      <trkpt lat="39.7463474" lon="3.2044452">
        <ele>9.580001831054688</ele>
        <hdop>30.0</hdop>
        <time>2014-06-04T09:15:10Z</time>
        <extensions>
          <speed>0.6918584704399109</speed>
        </extensions>
      </trkpt>
      <trkpt lat="39.7463394" lon="3.2044574">
        <ele>9.580001831054688</ele>
        <hdop>30.0</hdop>
        <time>2014-06-04T09:15:15Z</time>
        <extensions>
          <speed>0.44223058223724365</speed>
        </extensions>
      </trkpt>
      <trkpt lat="39.7463419" lon="3.2044688">
        <ele>9.580001831054688</ele>
        <hdop>30.0</hdop>
        <time>2014-06-04T09:15:21Z</time>
        <extensions>
          <speed>0.4890303313732147</speed>
        </extensions>
      </trkpt>
      <trkpt lat="39.7463419" lon="3.2044688">
        <ele>9.580001831054688</ele>
        <hdop>10.0</hdop>
        <time>2014-06-04T09:15:26Z</time>
      </trkpt>
      <trkpt lat="39.7463481" lon="3.2044502">
        <ele>9.580001831054688</ele>
        <hdop>10.0</hdop>
        <time>2014-06-04T09:15:32Z</time>
        <extensions>
          <speed>0.5928284525871277</speed>
        </extensions>
      </trkpt>
      <trkpt lat="39.7463071" lon="3.2043963">
        <ele>9.580001831054688</ele>
        <hdop>10.0</hdop>
        <time>2014-06-04T09:15:37Z</time>
        <extensions>
          <speed>1.155258297920227</speed>
        </extensions>
      </trkpt>
      <trkpt lat="39.7462843" lon="3.2043891">
        <ele>9.580001831054688</ele>
        <hdop>30.0</hdop>
        <time>2014-06-04T09:15:43Z</time>
        <extensions>
          <speed>0.6703929305076599</speed>
        </extensions>
      </trkpt>
      <trkpt lat="39.7462681" lon="3.2043822">
        <ele>9.580001831054688</ele>
        <hdop>10.0</hdop>
        <time>2014-06-04T09:15:49Z</time>
        <extensions>
          <speed>0.512726902961731</speed>
        </extensions>
      </trkpt>
      <trkpt lat="39.7463288" lon="3.2044742">
        <ele>9.580001831054688</ele>
        <hdop>5.0</hdop>
        <time>2014-06-04T09:15:54Z</time>
      </trkpt>
      <trkpt lat="39.7463288" lon="3.2044742">
        <ele>9.580001831054688</ele>
        <hdop>5.0</hdop>
        <time>2014-06-04T09:16:00Z</time>
      </trkpt>
      <trkpt lat="39.7463288" lon="3.2044742">
        <ele>9.580001831054688</ele>
        <hdop>5.0</hdop>
        <time>2014-06-04T09:16:05Z</time>
      </trkpt>
      <trkpt lat="39.7463121" lon="3.2044785">
        <ele>9.580001831054688</ele>
        <hdop>10.0</hdop>
        <time>2014-06-04T09:16:11Z</time>
        <extensions>
          <speed>0.31996873021125793</speed>
        </extensions>
      </trkpt>
      <trkpt lat="39.7462716" lon="3.2044278">
        <ele>9.580001831054688</ele>
        <hdop>10.0</hdop>
        <time>2014-06-04T09:16:17Z</time>
        <extensions>
          <speed>0.5885859131813049</speed>
        </extensions>
      </trkpt>
      <trkpt lat="39.7463129" lon="3.2043938">
        <ele>9.580001831054688</ele>
        <hdop>5.0</hdop>
        <time>2014-06-04T09:16:22Z</time>
        <extensions>
          <speed>0.7343950867652893</speed>
        </extensions>
      </trkpt>
      <trkpt lat="39.7463284" lon="3.2043489">
        <ele>9.580001831054688</ele>
        <hdop>10.0</hdop>
        <time>2014-06-04T09:16:28Z</time>
        <extensions>
          <speed>0.6398023366928101</speed>
        </extensions>
      </trkpt>
      <trkpt lat="39.7463295" lon="3.2042829">
        <ele>9.580001831054688</ele>
        <hdop>5.0</hdop>
        <time>2014-06-04T09:16:34Z</time>
        <extensions>
          <speed>0.8850252032279968</speed>
        </extensions>
      </trkpt>
      <trkpt lat="39.7463276" lon="3.204211">
        <ele>9.580001831054688</ele>
        <hdop>5.0</hdop>
        <time>2014-06-04T09:16:40Z</time>
        <extensions>
          <speed>0.9175212383270264</speed>
        </extensions>
      </trkpt>
      <trkpt lat="39.7463304" lon="3.2041671">
        <ele>9.580001831054688</ele>
        <hdop>5.0</hdop>
        <time>2014-06-04T09:16:45Z</time>
        <extensions>
          <speed>0.817352294921875</speed>
        </extensions>
      </trkpt>
      <trkpt lat="39.7463339" lon="3.2041493">
        <ele>9.580001831054688</ele>
        <hdop>5.0</hdop>
        <time>2014-06-04T09:16:51Z</time>
        <extensions>
          <speed>0.5976585745811462</speed>
        </extensions>
      </trkpt>
      <trkpt lat="39.7463344" lon="3.204122">
        <ele>9.580001831054688</ele>
        <hdop>5.0</hdop>
        <time>2014-06-04T09:16:56Z</time>
        <extensions>
          <speed>0.6476602554321289</speed>
        </extensions>
      </trkpt>
      <trkpt lat="39.7463629" lon="3.2040666">
        <ele>9.580001831054688</ele>
        <hdop>5.0</hdop>
        <time>2014-06-04T09:17:02Z</time>
        <extensions>
          <speed>0.9270676374435425</speed>
        </extensions>
      </trkpt>
      <trkpt lat="39.7464077" lon="3.2040264">
        <ele>9.580001831054688</ele>
        <hdop>5.0</hdop>
        <time>2014-06-04T09:17:08Z</time>
        <extensions>
          <speed>1.009717583656311</speed>
        </extensions>
      </trkpt>
      <trkpt lat="39.7464263" lon="3.2039787">
        <ele>9.580001831054688</ele>
        <hdop>5.0</hdop>
        <time>2014-06-04T09:17:13Z</time>
        <extensions>
          <speed>0.9203178286552429</speed>
        </extensions>
      </trkpt>
      <trkpt lat="39.746444" lon="3.2039324">
        <ele>9.580001831054688</ele>
        <hdop>5.0</hdop>
        <time>2014-06-04T09:17:18Z</time>
        <extensions>
          <speed>0.8766540884971619</speed>
        </extensions>
      </trkpt>
      <trkpt lat="39.7464534" lon="3.2038604">
        <ele>9.580001831054688</ele>
        <hdop>5.0</hdop>
        <time>2014-06-04T09:17:24Z</time>
        <extensions>
          <speed>0.8976782560348511</speed>
        </extensions>
      </trkpt>
      <trkpt lat="39.7464625" lon="3.2038053">
        <ele>9.580001831054688</ele>
        <hdop>5.0</hdop>
        <time>2014-06-04T09:17:29Z</time>
        <extensions>
          <speed>0.9242967367172241</speed>
        </extensions>
      </trkpt>
      <trkpt lat="39.7465089" lon="3.2037495">
        <ele>9.580001831054688</ele>
        <hdop>5.0</hdop>
        <time>2014-06-04T09:17:35Z</time>
        <extensions>
          <speed>1.0054885149002075</speed>
        </extensions>
      </trkpt>
      <trkpt lat="39.7465375" lon="3.203663">
        <ele>9.580001831054688</ele>
        <hdop>30.0</hdop>
        <time>2014-06-04T09:17:41Z</time>
        <extensions>
          <speed>1.9170969724655151</speed>
        </extensions>
      </trkpt>
      <trkpt lat="39.7464982" lon="3.2035512">
        <ele>8.580001831054688</ele>
        <hdop>30.0</hdop>
        <time>2014-06-04T09:17:47Z</time>
        <extensions>
          <speed>1.9962801933288574</speed>
        </extensions>
      </trkpt>
      <trkpt lat="39.7464596" lon="3.2034834">
        <ele>8.580001831054688</ele>
        <hdop>30.0</hdop>
        <time>2014-06-04T09:17:52Z</time>
        <extensions>
          <speed>1.8692954778671265</speed>
        </extensions>
      </trkpt>
      <trkpt lat="39.7464479" lon="3.2034102">
        <ele>8.580001831054688</ele>
        <hdop>30.0</hdop>
        <time>2014-06-04T09:17:57Z</time>
        <extensions>
          <speed>1.9037446975708008</speed>
        </extensions>
      </trkpt>
      <trkpt lat="39.7465042" lon="3.2035075">
        <ele>8.580001831054688</ele>
        <hdop>30.0</hdop>
        <time>2014-06-04T09:18:03Z</time>
      </trkpt>
      <trkpt lat="39.7465403" lon="3.2035589">
        <ele>8.580001831054688</ele>
        <hdop>10.0</hdop>
        <time>2014-06-04T09:18:09Z</time>
        <extensions>
          <speed>0.6217889189720154</speed>
        </extensions>
      </trkpt>
      <trkpt lat="39.7465577" lon="3.2035787">
        <ele>8.580001831054688</ele>
        <hdop>10.0</hdop>
        <time>2014-06-04T09:18:14Z</time>
        <extensions>
          <speed>0.5067810416221619</speed>
        </extensions>
      </trkpt>
      <trkpt lat="39.7465818" lon="3.2036169">
        <ele>8.580001831054688</ele>
        <hdop>10.0</hdop>
        <time>2014-06-04T09:18:19Z</time>
        <extensions>
          <speed>0.5254756808280945</speed>
        </extensions>
      </trkpt>
      <trkpt lat="39.7465836" lon="3.2036444">
        <ele>8.580001831054688</ele>
        <hdop>10.0</hdop>
        <time>2014-06-04T09:18:25Z</time>
      </trkpt>
      <trkpt lat="39.7466047" lon="3.2036538">
        <ele>8.580001831054688</ele>
        <hdop>5.0</hdop>
        <time>2014-06-04T09:18:30Z</time>
        <extensions>
          <speed>1.4725940227508545</speed>
        </extensions>
      </trkpt>
      <trkpt lat="39.7466793" lon="3.2036141">
        <ele>8.580001831054688</ele>
        <hdop>5.0</hdop>
        <time>2014-06-04T09:18:36Z</time>
        <extensions>
          <speed>1.2424145936965942</speed>
        </extensions>
      </trkpt>
      <trkpt lat="39.7467242" lon="3.2035783">
        <ele>9.580001831054688</ele>
        <hdop>5.0</hdop>
        <time>2014-06-04T09:18:41Z</time>
        <extensions>
          <speed>1.2277884483337402</speed>
        </extensions>
      </trkpt>
      <trkpt lat="39.7467734" lon="3.2035067">
        <ele>9.580001831054688</ele>
        <hdop>5.0</hdop>
        <time>2014-06-04T09:18:47Z</time>
        <extensions>
          <speed>1.2564975023269653</speed>
        </extensions>
      </trkpt>
      <trkpt lat="39.7468117" lon="3.203441">
        <ele>9.580001831054688</ele>
        <hdop>5.0</hdop>
        <time>2014-06-04T09:18:52Z</time>
        <extensions>
          <speed>1.2765899896621704</speed>
        </extensions>
      </trkpt>
      <trkpt lat="39.7468474" lon="3.203352">
        <ele>9.580001831054688</ele>
        <hdop>5.0</hdop>
        <time>2014-06-04T09:18:58Z</time>
        <extensions>
          <speed>1.2447419166564941</speed>
        </extensions>
      </trkpt>
      <trkpt lat="39.7468813" lon="3.2032826">
        <ele>10.580001831054688</ele>
        <hdop>5.0</hdop>
        <time>2014-06-04T09:19:03Z</time>
        <extensions>
          <speed>1.236566185951233</speed>
        </extensions>
      </trkpt>
      <trkpt lat="39.7469073" lon="3.2031902">
        <ele>10.580001831054688</ele>
        <hdop>10.0</hdop>
        <time>2014-06-04T09:19:09Z</time>
        <extensions>
          <speed>1.2109488248825073</speed>
        </extensions>
      </trkpt>
      <trkpt lat="39.7469237" lon="3.2030956">
        <ele>10.580001831054688</ele>
        <hdop>5.0</hdop>
        <time>2014-06-04T09:19:15Z</time>
        <extensions>
          <speed>1.2196438312530518</speed>
        </extensions>
      </trkpt>
      <trkpt lat="39.7469424" lon="3.2030215">
        <ele>10.580001831054688</ele>
        <hdop>5.0</hdop>
        <time>2014-06-04T09:19:20Z</time>
        <extensions>
          <speed>1.2086442708969116</speed>
        </extensions>
      </trkpt>
      <trkpt lat="39.7469598" lon="3.2029521">
        <ele>10.580001831054688</ele>
        <hdop>10.0</hdop>
        <time>2014-06-04T09:19:26Z</time>
        <extensions>
          <speed>1.1358903646469116</speed>
        </extensions>
      </trkpt>
      <trkpt lat="39.7469563" lon="3.2028756">
        <ele>11.580001831054688</ele>
        <hdop>10.0</hdop>
        <time>2014-06-04T09:19:32Z</time>
        <extensions>
          <speed>1.1140077114105225</speed>
        </extensions>
      </trkpt>
      <trkpt lat="39.7469461" lon="3.202818">
        <ele>11.580001831054688</ele>
        <hdop>5.0</hdop>
        <time>2014-06-04T09:19:37Z</time>
        <extensions>
          <speed>1.2189840078353882</speed>
        </extensions>
      </trkpt>
      <trkpt lat="39.7469571" lon="3.2027626">
        <ele>11.580001831054688</ele>
        <hdop>5.0</hdop>
        <time>2014-06-04T09:19:43Z</time>
        <extensions>
          <speed>1.2362189292907715</speed>
        </extensions>
      </trkpt>
      <trkpt lat="39.7469749" lon="3.2027156">
        <ele>11.580001831054688</ele>
        <hdop>5.0</hdop>
        <time>2014-06-04T09:19:49Z</time>
        <extensions>
          <speed>1.2235968112945557</speed>
        </extensions>
      </trkpt>
      <trkpt lat="39.7469973" lon="3.2026632">
        <ele>11.580001831054688</ele>
        <hdop>10.0</hdop>
        <time>2014-06-04T09:19:54Z</time>
        <extensions>
          <speed>1.2015928030014038</speed>
        </extensions>
      </trkpt>
      <trkpt lat="39.7470317" lon="3.2026044">
        <ele>11.580001831054688</ele>
        <hdop>5.0</hdop>
        <time>2014-06-04T09:19:59Z</time>
        <extensions>
          <speed>1.2610695362091064</speed>
        </extensions>
      </trkpt>
      <trkpt lat="39.7470686" lon="3.2025305">
        <ele>11.580001831054688</ele>
        <hdop>5.0</hdop>
        <time>2014-06-04T09:20:05Z</time>
        <extensions>
          <speed>1.2575191259384155</speed>
        </extensions>
      </trkpt>
      <trkpt lat="39.7470971" lon="3.202464">
        <ele>11.580001831054688</ele>
        <hdop>5.0</hdop>
        <time>2014-06-04T09:20:10Z</time>
        <extensions>
          <speed>1.2522801160812378</speed>
        </extensions>
      </trkpt>
      <trkpt lat="39.74713" lon="3.2023844">
        <ele>11.580001831054688</ele>
        <hdop>5.0</hdop>
        <time>2014-06-04T09:20:16Z</time>
        <extensions>
          <speed>1.223510503768921</speed>
        </extensions>
      </trkpt>
      <trkpt lat="39.7471658" lon="3.2023138">
        <ele>11.580001831054688</ele>
        <hdop>5.0</hdop>
        <time>2014-06-04T09:20:22Z</time>
        <extensions>
          <speed>1.1998838186264038</speed>
        </extensions>
      </trkpt>
      <trkpt lat="39.7471922" lon="3.2022545">
        <ele>11.580001831054688</ele>
        <hdop>5.0</hdop>
        <time>2014-06-04T09:20:28Z</time>
        <extensions>
          <speed>1.1417433023452759</speed>
        </extensions>
      </trkpt>
      <trkpt lat="39.7472096" lon="3.2021988">
        <ele>11.580001831054688</ele>
        <hdop>5.0</hdop>
        <time>2014-06-04T09:20:34Z</time>
        <extensions>
          <speed>1.0664145946502686</speed>
        </extensions>
      </trkpt>
      <trkpt lat="39.747232" lon="3.2021466">
        <ele>11.580001831054688</ele>
        <hdop>5.0</hdop>
        <time>2014-06-04T09:20:40Z</time>
        <extensions>
          <speed>1.0425797700881958</speed>
        </extensions>
      </trkpt>
      <trkpt lat="39.7472453" lon="3.2021297">
        <ele>11.580001831054688</ele>
        <hdop>5.0</hdop>
        <time>2014-06-04T09:20:45Z</time>
        <extensions>
          <speed>0.6858535408973694</speed>
        </extensions>
      </trkpt>
      <trkpt lat="39.7472623" lon="3.2020773">
        <ele>11.580001831054688</ele>
        <hdop>5.0</hdop>
        <time>2014-06-04T09:20:51Z</time>
        <extensions>
          <speed>0.9211469888687134</speed>
        </extensions>
      </trkpt>
      <trkpt lat="39.7472813" lon="3.2020303">
        <ele>12.580001831054688</ele>
        <hdop>5.0</hdop>
        <time>2014-06-04T09:20:56Z</time>
        <extensions>
          <speed>1.0188624858856201</speed>
        </extensions>
      </trkpt>
      <trkpt lat="39.7473008" lon="3.2019969">
        <ele>12.580001831054688</ele>
        <hdop>5.0</hdop>
        <time>2014-06-04T09:21:01Z</time>
        <extensions>
          <speed>0.8814764022827148</speed>
        </extensions>
      </trkpt>
      <trkpt lat="39.7473005" lon="3.2019471">
        <ele>12.580001831054688</ele>
        <hdop>10.0</hdop>
        <time>2014-06-04T09:21:06Z</time>
        <extensions>
          <speed>0.9444248080253601</speed>
        </extensions>
      </trkpt>
      <trkpt lat="39.747303" lon="3.2018734">
        <ele>12.580001831054688</ele>
        <hdop>10.0</hdop>
        <time>2014-06-04T09:21:12Z</time>
        <extensions>
          <speed>0.9938730597496033</speed>
        </extensions>
      </trkpt>
      <trkpt lat="39.7473013" lon="3.2017893">
        <ele>12.580001831054688</ele>
        <hdop>5.0</hdop>
        <time>2014-06-04T09:21:18Z</time>
        <extensions>
          <speed>0.9832528233528137</speed>
        </extensions>
      </trkpt>
      <trkpt lat="39.7473006" lon="3.2017241">
        <ele>12.580001831054688</ele>
        <hdop>5.0</hdop>
        <time>2014-06-04T09:21:23Z</time>
        <extensions>
          <speed>1.013071060180664</speed>
        </extensions>
      </trkpt>
      <trkpt lat="39.7472895" lon="3.2016548">
        <ele>12.580001831054688</ele>
        <hdop>5.0</hdop>
        <time>2014-06-04T09:21:29Z</time>
        <extensions>
          <speed>1.0273325443267822</speed>
        </extensions>
      </trkpt>
      <trkpt lat="39.7472819" lon="3.2015719">
        <ele>12.580001831054688</ele>
        <hdop>5.0</hdop>
        <time>2014-06-04T09:21:35Z</time>
        <extensions>
          <speed>1.0365670919418335</speed>
        </extensions>
      </trkpt>
      <trkpt lat="39.7472587" lon="3.2015167">
        <ele>12.580001831054688</ele>
        <hdop>10.0</hdop>
        <time>2014-06-04T09:21:40Z</time>
        <extensions>
          <speed>0.8503268957138062</speed>
        </extensions>
      </trkpt>
      <trkpt lat="39.7472585" lon="3.2014416">
        <ele>12.580001831054688</ele>
        <hdop>10.0</hdop>
        <time>2014-06-04T09:21:46Z</time>
        <extensions>
          <speed>1.041653037071228</speed>
        </extensions>
      </trkpt>
      <trkpt lat="39.7472686" lon="3.2013643">
        <ele>12.580001831054688</ele>
        <hdop>5.0</hdop>
        <time>2014-06-04T09:21:52Z</time>
        <extensions>
          <speed>1.093584418296814</speed>
        </extensions>
      </trkpt>
      <trkpt lat="39.7472616" lon="3.2012841">
        <ele>12.580001831054688</ele>
        <hdop>10.0</hdop>
        <time>2014-06-04T09:21:58Z</time>
        <extensions>
          <speed>1.101212739944458</speed>
        </extensions>
      </trkpt>
      <trkpt lat="39.7472371" lon="3.2012175">
        <ele>12.580001831054688</ele>
        <hdop>10.0</hdop>
        <time>2014-06-04T09:22:03Z</time>
        <extensions>
          <speed>1.1159322261810303</speed>
        </extensions>
      </trkpt>
      <trkpt lat="39.7472423" lon="3.2011556">
        <ele>12.580001831054688</ele>
        <hdop>5.0</hdop>
        <time>2014-06-04T09:22:09Z</time>
        <extensions>
          <speed>1.0742356777191162</speed>
        </extensions>
      </trkpt>
      <trkpt lat="39.747249" lon="3.2011095">
        <ele>12.580001831054688</ele>
        <hdop>5.0</hdop>
        <time>2014-06-04T09:22:14Z</time>
        <extensions>
          <speed>0.90733802318573</speed>
        </extensions>
      </trkpt>
      <trkpt lat="39.7472533" lon="3.201051">
        <ele>12.580001831054688</ele>
        <hdop>5.0</hdop>
        <time>2014-06-04T09:22:20Z</time>
        <extensions>
          <speed>0.9301126599311829</speed>
        </extensions>
      </trkpt>
      <trkpt lat="39.7472522" lon="3.2009925">
        <ele>13.580001831054688</ele>
        <hdop>5.0</hdop>
        <time>2014-06-04T09:22:26Z</time>
        <extensions>
          <speed>0.9811397790908813</speed>
        </extensions>
      </trkpt>
      <trkpt lat="39.7472511" lon="3.2009249">
        <ele>13.580001831054688</ele>
        <hdop>10.0</hdop>
        <time>2014-06-04T09:22:31Z</time>
        <extensions>
          <speed>1.0266139507293701</speed>
        </extensions>
      </trkpt>
      <trkpt lat="39.7472518" lon="3.2008495">
        <ele>13.580001831054688</ele>
        <hdop>5.0</hdop>
        <time>2014-06-04T09:22:37Z</time>
        <extensions>
          <speed>0.9909366965293884</speed>
        </extensions>
      </trkpt>
      <trkpt lat="39.7472496" lon="3.2007816">
        <ele>13.580001831054688</ele>
        <hdop>5.0</hdop>
        <time>2014-06-04T09:22:43Z</time>
        <extensions>
          <speed>0.976561427116394</speed>
        </extensions>
      </trkpt>
      <trkpt lat="39.7472339" lon="3.2007194">
        <ele>13.580001831054688</ele>
        <hdop>5.0</hdop>
        <time>2014-06-04T09:22:48Z</time>
        <extensions>
          <speed>0.9955699443817139</speed>
        </extensions>
      </trkpt>
      <trkpt lat="39.7472134" lon="3.2006481">
        <ele>13.580001831054688</ele>
        <hdop>5.0</hdop>
        <time>2014-06-04T09:22:54Z</time>
        <extensions>
          <speed>1.0068914890289307</speed>
        </extensions>
      </trkpt>
      <trkpt lat="39.7472025" lon="3.2005921">
        <ele>13.580001831054688</ele>
        <hdop>5.0</hdop>
        <time>2014-06-04T09:22:59Z</time>
        <extensions>
          <speed>1.0069594383239746</speed>
        </extensions>
      </trkpt>
      <trkpt lat="39.7472083" lon="3.2005383">
        <ele>13.580001831054688</ele>
        <hdop>5.0</hdop>
        <time>2014-06-04T09:23:04Z</time>
        <extensions>
          <speed>1.001174807548523</speed>
        </extensions>
      </trkpt>
      <trkpt lat="39.7471976" lon="3.2004762">
        <ele>13.580001831054688</ele>
        <hdop>5.0</hdop>
        <time>2014-06-04T09:23:10Z</time>
        <extensions>
          <speed>0.9762617945671082</speed>
        </extensions>
      </trkpt>
      <trkpt lat="39.7471879" lon="3.2004189">
        <ele>13.580001831054688</ele>
        <hdop>5.0</hdop>
        <time>2014-06-04T09:23:15Z</time>
        <extensions>
          <speed>0.9885250329971313</speed>
        </extensions>
      </trkpt>
      <trkpt lat="39.7471808" lon="3.2003555">
        <ele>13.580001831054688</ele>
        <hdop>5.0</hdop>
        <time>2014-06-04T09:23:20Z</time>
        <extensions>
          <speed>1.0096782445907593</speed>
        </extensions>
      </trkpt>
      <trkpt lat="39.7471966" lon="3.2002886">
        <ele>13.580001831054688</ele>
        <hdop>5.0</hdop>
        <time>2014-06-04T09:23:25Z</time>
        <extensions>
          <speed>1.058771014213562</speed>
        </extensions>
      </trkpt>
      <trkpt lat="39.7472022" lon="3.2002086">
        <ele>13.580001831054688</ele>
        <hdop>5.0</hdop>
        <time>2014-06-04T09:23:31Z</time>
        <extensions>
          <speed>1.1040337085723877</speed>
        </extensions>
      </trkpt>
      <trkpt lat="39.7472295" lon="3.2001301">
        <ele>13.580001831054688</ele>
        <hdop>10.0</hdop>
        <time>2014-06-04T09:23:37Z</time>
        <extensions>
          <speed>1.1177414655685425</speed>
        </extensions>
      </trkpt>
      <trkpt lat="39.7472581" lon="3.2000753">
        <ele>13.580001831054688</ele>
        <hdop>10.0</hdop>
        <time>2014-06-04T09:23:43Z</time>
        <extensions>
          <speed>1.0974116325378418</speed>
        </extensions>
      </trkpt>
      <trkpt lat="39.7473149" lon="3.2000588">
        <ele>13.580001831054688</ele>
        <hdop>5.0</hdop>
        <time>2014-06-04T09:23:48Z</time>
        <extensions>
          <speed>1.1366500854492188</speed>
        </extensions>
      </trkpt>
      <trkpt lat="39.7473357" lon="3.2000462">
        <ele>13.580001831054688</ele>
        <hdop>10.0</hdop>
        <time>2014-06-04T09:23:53Z</time>
        <extensions>
          <speed>1.073821783065796</speed>
        </extensions>
      </trkpt>
      <trkpt lat="39.7473831" lon="3.2000137">
        <ele>13.580001831054688</ele>
        <hdop>5.0</hdop>
        <time>2014-06-04T09:23:59Z</time>
        <extensions>
          <speed>0.9510405659675598</speed>
        </extensions>
      </trkpt>
      <trkpt lat="39.747406" lon="3.1999914">
        <ele>13.580001831054688</ele>
        <hdop>5.0</hdop>
        <time>2014-06-04T09:24:04Z</time>
        <extensions>
          <speed>0.3060990273952484</speed>
        </extensions>
      </trkpt>
      <trkpt lat="39.7474232" lon="3.1999476">
        <ele>13.580001831054688</ele>
        <hdop>5.0</hdop>
        <time>2014-06-04T09:24:10Z</time>
        <extensions>
          <speed>0.6542602777481079</speed>
        </extensions>
      </trkpt>
      <trkpt lat="39.7474256" lon="3.1999237">
        <ele>13.580001831054688</ele>
        <hdop>5.0</hdop>
        <time>2014-06-04T09:24:16Z</time>
      </trkpt>
      <trkpt lat="39.7474256" lon="3.1999237">
        <ele>13.580001831054688</ele>
        <hdop>5.0</hdop>
        <time>2014-06-04T09:24:22Z</time>
      </trkpt>
      <trkpt lat="39.7474256" lon="3.1999237">
        <ele>13.580001831054688</ele>
        <hdop>5.0</hdop>
        <time>2014-06-04T09:24:27Z</time>
      </trkpt>
      <trkpt lat="39.7474607" lon="3.1998332">
        <ele>13.580001831054688</ele>
        <hdop>5.0</hdop>
        <time>2014-06-04T09:24:33Z</time>
        <extensions>
          <speed>0.8401347994804382</speed>
        </extensions>
      </trkpt>
      <trkpt lat="39.7474683" lon="3.1997672">
        <ele>13.580001831054688</ele>
        <hdop>5.0</hdop>
        <time>2014-06-04T09:24:39Z</time>
        <extensions>
          <speed>0.8637957572937012</speed>
        </extensions>
      </trkpt>
      <trkpt lat="39.7474663" lon="3.1997524">
        <ele>13.580001831054688</ele>
        <hdop>10.0</hdop>
        <time>2014-06-04T09:24:44Z</time>
        <extensions>
          <speed>0.3018600344657898</speed>
        </extensions>
      </trkpt>
      <trkpt lat="39.7474554" lon="3.19975">
        <ele>13.580001831054688</ele>
        <hdop>5.0</hdop>
        <time>2014-06-04T09:24:50Z</time>
        <extensions>
          <speed>0.4294234812259674</speed>
        </extensions>
      </trkpt>
      <trkpt lat="39.7474402" lon="3.1997923">
        <ele>13.580001831054688</ele>
        <hdop>5.0</hdop>
        <time>2014-06-04T09:24:55Z</time>
        <extensions>
          <speed>0.6582688093185425</speed>
        </extensions>
      </trkpt>
      <trkpt lat="39.7474174" lon="3.1998721">
        <ele>13.580001831054688</ele>
        <hdop>5.0</hdop>
        <time>2014-06-04T09:25:01Z</time>
        <extensions>
          <speed>1.043513536453247</speed>
        </extensions>
      </trkpt>
      <trkpt lat="39.7474372" lon="3.1999749">
        <ele>13.580001831054688</ele>
        <hdop>10.0</hdop>
        <time>2014-06-04T09:25:07Z</time>
        <extensions>
          <speed>1.1673738956451416</speed>
        </extensions>
      </trkpt>
      <trkpt lat="39.7474565" lon="3.2000578">
        <ele>13.580001831054688</ele>
        <hdop>10.0</hdop>
        <time>2014-06-04T09:25:13Z</time>
        <extensions>
          <speed>1.114303469657898</speed>
        </extensions>
      </trkpt>
      <trkpt lat="39.7474963" lon="3.2001205">
        <ele>13.580001831054688</ele>
        <hdop>5.0</hdop>
        <time>2014-06-04T09:25:19Z</time>
        <extensions>
          <speed>1.032347559928894</speed>
        </extensions>
      </trkpt>
      <trkpt lat="39.747536" lon="3.2001635">
        <ele>13.580001831054688</ele>
        <hdop>10.0</hdop>
        <time>2014-06-04T09:25:25Z</time>
        <extensions>
          <speed>0.8754597902297974</speed>
        </extensions>
      </trkpt>
      <trkpt lat="39.7475854" lon="3.2002004">
        <ele>13.580001831054688</ele>
        <hdop>10.0</hdop>
        <time>2014-06-04T09:25:31Z</time>
        <extensions>
          <speed>0.844437301158905</speed>
        </extensions>
      </trkpt>
      <trkpt lat="39.7476214" lon="3.2002149">
        <ele>13.580001831054688</ele>
        <hdop>10.0</hdop>
        <time>2014-06-04T09:25:37Z</time>
        <extensions>
          <speed>0.7637205719947815</speed>
        </extensions>
      </trkpt>
      <trkpt lat="39.7476608" lon="3.2001896">
        <ele>13.580001831054688</ele>
        <hdop>10.0</hdop>
        <time>2014-06-04T09:25:42Z</time>
        <extensions>
          <speed>0.7768469452857971</speed>
        </extensions>
      </trkpt>
      <trkpt lat="39.747669" lon="3.2001803">
        <ele>13.580001831054688</ele>
        <hdop>10.0</hdop>
        <time>2014-06-04T09:25:47Z</time>
      </trkpt>
      <trkpt lat="39.747669" lon="3.2001803">
        <ele>13.580001831054688</ele>
        <hdop>10.0</hdop>
        <time>2014-06-04T09:25:53Z</time>
      </trkpt>
      <trkpt lat="39.747669" lon="3.2001803">
        <ele>13.580001831054688</ele>
        <hdop>10.0</hdop>
        <time>2014-06-04T09:25:59Z</time>
      </trkpt>
      <trkpt lat="39.7477462" lon="3.2000755">
        <ele>13.580001831054688</ele>
        <hdop>5.0</hdop>
        <time>2014-06-04T09:26:04Z</time>
        <extensions>
          <speed>0.318202406167984</speed>
        </extensions>
      </trkpt>
      <trkpt lat="39.7478193" lon="3.1999146">
        <ele>13.580001831054688</ele>
        <hdop>10.0</hdop>
        <time>2014-06-04T09:26:10Z</time>
        <extensions>
          <speed>0.3419954478740692</speed>
        </extensions>
      </trkpt>
      <trkpt lat="39.7478439" lon="3.1998384">
        <ele>13.580001831054688</ele>
        <hdop>5.0</hdop>
        <time>2014-06-04T09:26:15Z</time>
        <extensions>
          <speed>0.4060351848602295</speed>
        </extensions>
      </trkpt>
      <trkpt lat="39.7478637" lon="3.1997688">
        <ele>13.580001831054688</ele>
        <hdop>5.0</hdop>
        <time>2014-06-04T09:26:20Z</time>
        <extensions>
          <speed>0.48920556902885437</speed>
        </extensions>
      </trkpt>
      <trkpt lat="39.7478751" lon="3.1996864">
        <ele>13.580001831054688</ele>
        <hdop>5.0</hdop>
        <time>2014-06-04T09:26:26Z</time>
        <extensions>
          <speed>0.6401398777961731</speed>
        </extensions>
      </trkpt>
      <trkpt lat="39.7479145" lon="3.199621">
        <ele>13.580001831054688</ele>
        <hdop>5.0</hdop>
        <time>2014-06-04T09:26:32Z</time>
        <extensions>
          <speed>0.8111795783042908</speed>
        </extensions>
      </trkpt>
      <trkpt lat="39.7479516" lon="3.199561">
        <ele>13.580001831054688</ele>
        <hdop>5.0</hdop>
        <time>2014-06-04T09:26:37Z</time>
        <extensions>
          <speed>0.8796749711036682</speed>
        </extensions>
      </trkpt>
      <trkpt lat="39.7479755" lon="3.199495">
        <ele>13.580001831054688</ele>
        <hdop>10.0</hdop>
        <time>2014-06-04T09:26:43Z</time>
        <extensions>
          <speed>0.8989614248275757</speed>
        </extensions>
      </trkpt>
      <trkpt lat="39.7479873" lon="3.1994284">
        <ele>13.580001831054688</ele>
        <hdop>5.0</hdop>
        <time>2014-06-04T09:26:48Z</time>
        <extensions>
          <speed>0.9165376424789429</speed>
        </extensions>
      </trkpt>
      <trkpt lat="39.7480084" lon="3.1993503">
        <ele>13.580001831054688</ele>
        <hdop>10.0</hdop>
        <time>2014-06-04T09:26:54Z</time>
        <extensions>
          <speed>0.9306839108467102</speed>
        </extensions>
      </trkpt>
      <trkpt lat="39.7480201" lon="3.199279">
        <ele>13.580001831054688</ele>
        <hdop>5.0</hdop>
        <time>2014-06-04T09:26:59Z</time>
        <extensions>
          <speed>0.9311408400535583</speed>
        </extensions>
      </trkpt>
      <trkpt lat="39.7480256" lon="3.1992001">
        <ele>13.580001831054688</ele>
        <hdop>5.0</hdop>
        <time>2014-06-04T09:27:05Z</time>
        <extensions>
          <speed>0.966091513633728</speed>
        </extensions>
      </trkpt>
      <trkpt lat="39.7480406" lon="3.1991355">
        <ele>13.580001831054688</ele>
        <hdop>5.0</hdop>
        <time>2014-06-04T09:27:10Z</time>
        <extensions>
          <speed>0.9768545627593994</speed>
        </extensions>
      </trkpt>
      <trkpt lat="39.7480559" lon="3.1990599">
        <ele>13.580001831054688</ele>
        <hdop>5.0</hdop>
        <time>2014-06-04T09:27:16Z</time>
        <extensions>
          <speed>0.9825137853622437</speed>
        </extensions>
      </trkpt>
      <trkpt lat="39.7480556" lon="3.1989972">
        <ele>12.580001831054688</ele>
        <hdop>5.0</hdop>
        <time>2014-06-04T09:27:22Z</time>
        <extensions>
          <speed>0.9982373714447021</speed>
        </extensions>
      </trkpt>
      <trkpt lat="39.7480728" lon="3.1989443">
        <ele>12.580001831054688</ele>
        <hdop>5.0</hdop>
        <time>2014-06-04T09:27:27Z</time>
        <extensions>
          <speed>1.0291908979415894</speed>
        </extensions>
      </trkpt>
      <trkpt lat="39.7480997" lon="3.1988819">
        <ele>12.580001831054688</ele>
        <hdop>5.0</hdop>
        <time>2014-06-04T09:27:33Z</time>
        <extensions>
          <speed>1.0190091133117676</speed>
        </extensions>
      </trkpt>
      <trkpt lat="39.7481324" lon="3.1988177">
        <ele>12.580001831054688</ele>
        <hdop>5.0</hdop>
        <time>2014-06-04T09:27:39Z</time>
        <extensions>
          <speed>1.0273579359054565</speed>
        </extensions>
      </trkpt>
      <trkpt lat="39.7481769" lon="3.1987554">
        <ele>12.580001831054688</ele>
        <hdop>5.0</hdop>
        <time>2014-06-04T09:27:45Z</time>
        <extensions>
          <speed>1.1024205684661865</speed>
        </extensions>
      </trkpt>
      <trkpt lat="39.7482104" lon="3.1987066">
        <ele>12.580001831054688</ele>
        <hdop>5.0</hdop>
        <time>2014-06-04T09:27:50Z</time>
        <extensions>
          <speed>1.099347472190857</speed>
        </extensions>
      </trkpt>
      <trkpt lat="39.7482429" lon="3.1986615">
        <ele>12.580001831054688</ele>
        <hdop>5.0</hdop>
        <time>2014-06-04T09:27:56Z</time>
        <extensions>
          <speed>1.01036536693573</speed>
        </extensions>
      </trkpt>
      <trkpt lat="39.7482546" lon="3.1985984">
        <ele>12.580001831054688</ele>
        <hdop>5.0</hdop>
        <time>2014-06-04T09:28:02Z</time>
        <extensions>
          <speed>0.9880722165107727</speed>
        </extensions>
      </trkpt>
      <trkpt lat="39.748259" lon="3.1985255">
        <ele>12.580001831054688</ele>
        <hdop>5.0</hdop>
        <time>2014-06-04T09:28:08Z</time>
        <extensions>
          <speed>0.9746723771095276</speed>
        </extensions>
      </trkpt>
      <trkpt lat="39.7482659" lon="3.1984461">
        <ele>11.580001831054688</ele>
        <hdop>5.0</hdop>
        <time>2014-06-04T09:28:14Z</time>
        <extensions>
          <speed>0.9916546940803528</speed>
        </extensions>
      </trkpt>
      <trkpt lat="39.7482685" lon="3.1983805">
        <ele>11.580001831054688</ele>
        <hdop>5.0</hdop>
        <time>2014-06-04T09:28:19Z</time>
        <extensions>
          <speed>0.9981975555419922</speed>
        </extensions>
      </trkpt>
      <trkpt lat="39.7482633" lon="3.198297">
        <ele>11.580001831054688</ele>
        <hdop>5.0</hdop>
        <time>2014-06-04T09:28:25Z</time>
        <extensions>
          <speed>1.025146245956421</speed>
        </extensions>
      </trkpt>
      <trkpt lat="39.7482804" lon="3.1982282">
        <ele>11.580001831054688</ele>
        <hdop>5.0</hdop>
        <time>2014-06-04T09:28:30Z</time>
        <extensions>
          <speed>1.0795360803604126</speed>
        </extensions>
      </trkpt>
      <trkpt lat="39.7482787" lon="3.1981535">
        <ele>11.580001831054688</ele>
        <hdop>5.0</hdop>
        <time>2014-06-04T09:28:36Z</time>
        <extensions>
          <speed>1.0976824760437012</speed>
        </extensions>
      </trkpt>
      <trkpt lat="39.7482919" lon="3.1980953">
        <ele>11.580001831054688</ele>
        <hdop>5.0</hdop>
        <time>2014-06-04T09:28:41Z</time>
        <extensions>
          <speed>1.0946016311645508</speed>
        </extensions>
      </trkpt>
      <trkpt lat="39.7483361" lon="3.198033">
        <ele>11.580001831054688</ele>
        <hdop>5.0</hdop>
        <time>2014-06-04T09:28:47Z</time>
        <extensions>
          <speed>1.0817362070083618</speed>
        </extensions>
      </trkpt>
      <trkpt lat="39.7483538" lon="3.1979618">
        <ele>11.580001831054688</ele>
        <hdop>5.0</hdop>
        <time>2014-06-04T09:28:53Z</time>
        <extensions>
          <speed>1.091951608657837</speed>
        </extensions>
      </trkpt>
      <trkpt lat="39.7483715" lon="3.1978956">
        <ele>11.580001831054688</ele>
        <hdop>5.0</hdop>
        <time>2014-06-04T09:28:58Z</time>
        <extensions>
          <speed>1.1314291954040527</speed>
        </extensions>
      </trkpt>
      <trkpt lat="39.7483845" lon="3.1978219">
        <ele>10.580001831054688</ele>
        <hdop>5.0</hdop>
        <time>2014-06-04T09:29:04Z</time>
        <extensions>
          <speed>1.0574026107788086</speed>
        </extensions>
      </trkpt>
      <trkpt lat="39.7484026" lon="3.1977744">
        <ele>10.580001831054688</ele>
        <hdop>5.0</hdop>
        <time>2014-06-04T09:29:09Z</time>
        <extensions>
          <speed>1.0021388530731201</speed>
        </extensions>
      </trkpt>
      <trkpt lat="39.7484265" lon="3.1977221">
        <ele>10.580001831054688</ele>
        <hdop>5.0</hdop>
        <time>2014-06-04T09:29:14Z</time>
        <extensions>
          <speed>1.0655158758163452</speed>
        </extensions>
      </trkpt>
      <trkpt lat="39.7484452" lon="3.1976602">
        <ele>10.580001831054688</ele>
        <hdop>5.0</hdop>
        <time>2014-06-04T09:29:20Z</time>
        <extensions>
          <speed>1.018934965133667</speed>
        </extensions>
      </trkpt>
      <trkpt lat="39.7484462" lon="3.1976234">
        <ele>10.580001831054688</ele>
        <hdop>5.0</hdop>
        <time>2014-06-04T09:29:25Z</time>
        <extensions>
          <speed>0.34591254591941833</speed>
        </extensions>
      </trkpt>
      <trkpt lat="39.7484405" lon="3.1976228">
        <ele>10.580001831054688</ele>
        <hdop>10.0</hdop>
        <time>2014-06-04T09:29:31Z</time>
      </trkpt>
      <trkpt lat="39.7484405" lon="3.1976228">
        <ele>10.580001831054688</ele>
        <hdop>5.0</hdop>
        <time>2014-06-04T09:29:37Z</time>
      </trkpt>
      <trkpt lat="39.7484405" lon="3.1976228">
        <ele>10.580001831054688</ele>
        <hdop>10.0</hdop>
        <time>2014-06-04T09:29:42Z</time>
      </trkpt>
      <trkpt lat="39.7484381" lon="3.197602">
        <ele>10.580001831054688</ele>
        <hdop>10.0</hdop>
        <time>2014-06-04T09:29:48Z</time>
      </trkpt>
      <trkpt lat="39.7484381" lon="3.197602">
        <ele>10.580001831054688</ele>
        <hdop>10.0</hdop>
        <time>2014-06-04T09:29:53Z</time>
      </trkpt>
      <trkpt lat="39.7484304" lon="3.1976065">
        <ele>10.580001831054688</ele>
        <hdop>10.0</hdop>
        <time>2014-06-04T09:29:59Z</time>
        <extensions>
          <speed>0.6927888989448547</speed>
        </extensions>
      </trkpt>
      <trkpt lat="39.7484359" lon="3.1975759">
        <ele>10.580001831054688</ele>
        <hdop>5.0</hdop>
        <time>2014-06-04T09:30:05Z</time>
        <extensions>
          <speed>0.9041474461555481</speed>
        </extensions>
      </trkpt>
      <trkpt lat="39.7484697" lon="3.1975133">
        <ele>10.580001831054688</ele>
        <hdop>5.0</hdop>
        <time>2014-06-04T09:30:10Z</time>
        <extensions>
          <speed>1.0050925016403198</speed>
        </extensions>
      </trkpt>
      <trkpt lat="39.748518" lon="3.197451">
        <ele>10.580001831054688</ele>
        <hdop>5.0</hdop>
        <time>2014-06-04T09:30:16Z</time>
        <extensions>
          <speed>1.058045744895935</speed>
        </extensions>
      </trkpt>
      <trkpt lat="39.7485354" lon="3.1973991">
        <ele>10.580001831054688</ele>
        <hdop>5.0</hdop>
        <time>2014-06-04T09:30:21Z</time>
        <extensions>
          <speed>1.0031089782714844</speed>
        </extensions>
      </trkpt>
      <trkpt lat="39.7485776" lon="3.1973341">
        <ele>10.580001831054688</ele>
        <hdop>5.0</hdop>
        <time>2014-06-04T09:30:27Z</time>
        <extensions>
          <speed>0.9882358312606812</speed>
        </extensions>
      </trkpt>
      <trkpt lat="39.7486114" lon="3.1972756">
        <ele>10.580001831054688</ele>
        <hdop>5.0</hdop>
        <time>2014-06-04T09:30:33Z</time>
        <extensions>
          <speed>0.9738212823867798</speed>
        </extensions>
      </trkpt>
      <trkpt lat="39.7486518" lon="3.1972174">
        <ele>10.580001831054688</ele>
        <hdop>5.0</hdop>
        <time>2014-06-04T09:30:39Z</time>
        <extensions>
          <speed>1.0092334747314453</speed>
        </extensions>
      </trkpt>
      <trkpt lat="39.7486829" lon="3.1971679">
        <ele>10.580001831054688</ele>
        <hdop>10.0</hdop>
        <time>2014-06-04T09:30:44Z</time>
        <extensions>
          <speed>1.0348594188690186</speed>
        </extensions>
      </trkpt>
      <trkpt lat="39.7487078" lon="3.1971011">
        <ele>10.580001831054688</ele>
        <hdop>5.0</hdop>
        <time>2014-06-04T09:30:50Z</time>
        <extensions>
          <speed>1.0291448831558228</speed>
        </extensions>
      </trkpt>
      <trkpt lat="39.7487284" lon="3.1970255">
        <ele>10.580001831054688</ele>
        <hdop>5.0</hdop>
        <time>2014-06-04T09:30:56Z</time>
        <extensions>
          <speed>1.0177720785140991</speed>
        </extensions>
      </trkpt>
      <trkpt lat="39.74875" lon="3.1969617">
        <ele>10.580001831054688</ele>
        <hdop>5.0</hdop>
        <time>2014-06-04T09:31:01Z</time>
        <extensions>
          <speed>1.0218490362167358</speed>
        </extensions>
      </trkpt>
      <trkpt lat="39.7487699" lon="3.1968886">
        <ele>10.580001831054688</ele>
        <hdop>5.0</hdop>
        <time>2014-06-04T09:31:07Z</time>
        <extensions>
          <speed>0.9891017079353333</speed>
        </extensions>
      </trkpt>
      <trkpt lat="39.748788" lon="3.1968324">
        <ele>10.580001831054688</ele>
        <hdop>5.0</hdop>
        <time>2014-06-04T09:31:13Z</time>
        <extensions>
          <speed>0.9406948685646057</speed>
        </extensions>
      </trkpt>
      <trkpt lat="39.7488161" lon="3.196783">
        <ele>9.580001831054688</ele>
        <hdop>5.0</hdop>
        <time>2014-06-04T09:31:18Z</time>
        <extensions>
          <speed>0.9657520055770874</speed>
        </extensions>
      </trkpt>
      <trkpt lat="39.7488444" lon="3.1967196">
        <ele>9.580001831054688</ele>
        <hdop>5.0</hdop>
        <time>2014-06-04T09:31:24Z</time>
        <extensions>
          <speed>0.9955436587333679</speed>
        </extensions>
      </trkpt>
      <trkpt lat="39.7488632" lon="3.19667">
        <ele>9.580001831054688</ele>
        <hdop>5.0</hdop>
        <time>2014-06-04T09:31:29Z</time>
        <extensions>
          <speed>0.9914324283599854</speed>
        </extensions>
      </trkpt>
      <trkpt lat="39.7488921" lon="3.1966127">
        <ele>9.580001831054688</ele>
        <hdop>5.0</hdop>
        <time>2014-06-04T09:31:35Z</time>
        <extensions>
          <speed>1.0047307014465332</speed>
        </extensions>
      </trkpt>
      <trkpt lat="39.7489206" lon="3.1965636">
        <ele>9.580001831054688</ele>
        <hdop>5.0</hdop>
        <time>2014-06-04T09:31:40Z</time>
        <extensions>
          <speed>1.0421727895736694</speed>
        </extensions>
      </trkpt>
      <trkpt lat="39.7489542" lon="3.1965189">
        <ele>9.580001831054688</ele>
        <hdop>5.0</hdop>
        <time>2014-06-04T09:31:45Z</time>
        <extensions>
          <speed>1.0708435773849487</speed>
        </extensions>
      </trkpt>
      <trkpt lat="39.7489869" lon="3.1964715">
        <ele>9.580001831054688</ele>
        <hdop>5.0</hdop>
        <time>2014-06-04T09:31:50Z</time>
        <extensions>
          <speed>1.0696003437042236</speed>
        </extensions>
      </trkpt>
      <trkpt lat="39.7490214" lon="3.1964198">
        <ele>9.580001831054688</ele>
        <hdop>5.0</hdop>
        <time>2014-06-04T09:31:55Z</time>
        <extensions>
          <speed>1.051175832748413</speed>
        </extensions>
      </trkpt>
      <trkpt lat="39.7490621" lon="3.1963752">
        <ele>9.580001831054688</ele>
        <hdop>5.0</hdop>
        <time>2014-06-04T09:32:00Z</time>
        <extensions>
          <speed>1.0976791381835938</speed>
        </extensions>
      </trkpt>
      <trkpt lat="39.7491122" lon="3.1963241">
        <ele>8.580001831054688</ele>
        <hdop>5.0</hdop>
        <time>2014-06-04T09:32:06Z</time>
        <extensions>
          <speed>1.1281379461288452</speed>
        </extensions>
      </trkpt>
      <trkpt lat="39.7491481" lon="3.196284">
        <ele>8.580001831054688</ele>
        <hdop>5.0</hdop>
        <time>2014-06-04T09:32:11Z</time>
        <extensions>
          <speed>1.0732554197311401</speed>
        </extensions>
      </trkpt>
      <trkpt lat="39.7491795" lon="3.1962072">
        <ele>8.580001831054688</ele>
        <hdop>5.0</hdop>
        <time>2014-06-04T09:32:17Z</time>
        <extensions>
          <speed>1.057037115097046</speed>
        </extensions>
      </trkpt>
      <trkpt lat="39.749188" lon="3.1961314">
        <ele>8.580001831054688</ele>
        <hdop>5.0</hdop>
        <time>2014-06-04T09:32:22Z</time>
        <extensions>
          <speed>1.0458823442459106</speed>
        </extensions>
      </trkpt>
      <trkpt lat="39.7491981" lon="3.1960628">
        <ele>8.580001831054688</ele>
        <hdop>5.0</hdop>
        <time>2014-06-04T09:32:27Z</time>
        <extensions>
          <speed>1.0439164638519287</speed>
        </extensions>
      </trkpt>
      <trkpt lat="39.7492171" lon="3.1959866">
        <ele>8.580001831054688</ele>
        <hdop>5.0</hdop>
        <time>2014-06-04T09:32:33Z</time>
        <extensions>
          <speed>1.0321173667907715</speed>
        </extensions>
      </trkpt>
      <trkpt lat="39.749258" lon="3.1959392">
        <ele>8.580001831054688</ele>
        <hdop>5.0</hdop>
        <time>2014-06-04T09:32:38Z</time>
        <extensions>
          <speed>1.0860174894332886</speed>
        </extensions>
      </trkpt>
      <trkpt lat="39.749289" lon="3.1958904">
        <ele>8.580001831054688</ele>
        <hdop>5.0</hdop>
        <time>2014-06-04T09:32:43Z</time>
        <extensions>
          <speed>1.1197723150253296</speed>
        </extensions>
      </trkpt>
      <trkpt lat="39.7493257" lon="3.195833">
        <ele>8.580001831054688</ele>
        <hdop>5.0</hdop>
        <time>2014-06-04T09:32:49Z</time>
        <extensions>
          <speed>1.1096115112304688</speed>
        </extensions>
      </trkpt>
      <trkpt lat="39.749364" lon="3.1957805">
        <ele>8.580001831054688</ele>
        <hdop>5.0</hdop>
        <time>2014-06-04T09:32:54Z</time>
        <extensions>
          <speed>1.1357518434524536</speed>
        </extensions>
      </trkpt>
      <trkpt lat="39.7494014" lon="3.1957094">
        <ele>8.580001831054688</ele>
        <hdop>5.0</hdop>
        <time>2014-06-04T09:33:00Z</time>
        <extensions>
          <speed>1.1232105493545532</speed>
        </extensions>
      </trkpt>
      <trkpt lat="39.7494414" lon="3.1956443">
        <ele>8.580001831054688</ele>
        <hdop>10.0</hdop>
        <time>2014-06-04T09:33:06Z</time>
        <extensions>
          <speed>1.1196632385253906</speed>
        </extensions>
      </trkpt>
      <trkpt lat="39.7494753" lon="3.1955672">
        <ele>8.580001831054688</ele>
        <hdop>5.0</hdop>
        <time>2014-06-04T09:33:12Z</time>
        <extensions>
          <speed>1.1247737407684326</speed>
        </extensions>
      </trkpt>
      <trkpt lat="39.7495092" lon="3.1954994">
        <ele>8.580001831054688</ele>
        <hdop>5.0</hdop>
        <time>2014-06-04T09:33:17Z</time>
        <extensions>
          <speed>1.1513251066207886</speed>
        </extensions>
      </trkpt>
      <trkpt lat="39.7495351" lon="3.1954377">
        <ele>8.580001831054688</ele>
        <hdop>5.0</hdop>
        <time>2014-06-04T09:33:22Z</time>
        <extensions>
          <speed>1.1564841270446777</speed>
        </extensions>
      </trkpt>
      <trkpt lat="39.7495588" lon="3.1953733">
        <ele>7.5800018310546875</ele>
        <hdop>5.0</hdop>
        <time>2014-06-04T09:33:27Z</time>
        <extensions>
          <speed>1.141366720199585</speed>
        </extensions>
      </trkpt>
      <trkpt lat="39.7495671" lon="3.1953167">
        <ele>7.5800018310546875</ele>
        <hdop>5.0</hdop>
        <time>2014-06-04T09:33:32Z</time>
        <extensions>
          <speed>0.8704125285148621</speed>
        </extensions>
      </trkpt>
      <trkpt lat="39.7495653" lon="3.195309">
        <ele>7.5800018310546875</ele>
        <hdop>5.0</hdop>
        <time>2014-06-04T09:33:38Z</time>
      </trkpt>
      <trkpt lat="39.7495653" lon="3.195309">
        <ele>7.5800018310546875</ele>
        <hdop>5.0</hdop>
        <time>2014-06-04T09:33:43Z</time>
      </trkpt>
      <trkpt lat="39.7495653" lon="3.195309">
        <ele>7.5800018310546875</ele>
        <hdop>5.0</hdop>
        <time>2014-06-04T09:33:49Z</time>
      </trkpt>
      <trkpt lat="39.7495653" lon="3.195309">
        <ele>7.5800018310546875</ele>
        <hdop>5.0</hdop>
        <time>2014-06-04T09:33:54Z</time>
      </trkpt>
      <trkpt lat="39.7495653" lon="3.195309">
        <ele>7.5800018310546875</ele>
        <hdop>5.0</hdop>
        <time>2014-06-04T09:34:00Z</time>
      </trkpt>
      <trkpt lat="39.7495653" lon="3.195309">
        <ele>7.5800018310546875</ele>
        <hdop>5.0</hdop>
        <time>2014-06-04T09:34:06Z</time>
      </trkpt>
      <trkpt lat="39.7495653" lon="3.195309">
        <ele>7.5800018310546875</ele>
        <hdop>5.0</hdop>
        <time>2014-06-04T09:34:12Z</time>
      </trkpt>
      <trkpt lat="39.7495874" lon="3.1952116">
        <ele>7.5800018310546875</ele>
        <hdop>5.0</hdop>
        <time>2014-06-04T09:34:18Z</time>
        <extensions>
          <speed>1.043867588043213</speed>
        </extensions>
      </trkpt>
      <trkpt lat="39.7496317" lon="3.1951557">
        <ele>6.5800018310546875</ele>
        <hdop>5.0</hdop>
        <time>2014-06-04T09:34:24Z</time>
        <extensions>
          <speed>1.1257864236831665</speed>
        </extensions>
      </trkpt>
      <trkpt lat="39.7496692" lon="3.1950915">
        <ele>6.5800018310546875</ele>
        <hdop>5.0</hdop>
        <time>2014-06-04T09:34:30Z</time>
        <extensions>
          <speed>1.1062296628952026</speed>
        </extensions>
      </trkpt>
      <trkpt lat="39.7497054" lon="3.1950283">
        <ele>6.5800018310546875</ele>
        <hdop>5.0</hdop>
        <time>2014-06-04T09:34:36Z</time>
        <extensions>
          <speed>1.1205953359603882</speed>
        </extensions>
      </trkpt>
      <trkpt lat="39.7497304" lon="3.1949762">
        <ele>6.5800018310546875</ele>
        <hdop>5.0</hdop>
        <time>2014-06-04T09:34:41Z</time>
        <extensions>
          <speed>1.096503496170044</speed>
        </extensions>
      </trkpt>
      <trkpt lat="39.7497598" lon="3.1949305">
        <ele>6.5800018310546875</ele>
        <hdop>5.0</hdop>
        <time>2014-06-04T09:34:46Z</time>
        <extensions>
          <speed>1.1000804901123047</speed>
        </extensions>
      </trkpt>
      <trkpt lat="39.7497817" lon="3.194866">
        <ele>6.5800018310546875</ele>
        <hdop>5.0</hdop>
        <time>2014-06-04T09:34:52Z</time>
        <extensions>
          <speed>1.1034460067749023</speed>
        </extensions>
      </trkpt>
      <trkpt lat="39.7498175" lon="3.1948067">
        <ele>6.5800018310546875</ele>
        <hdop>5.0</hdop>
        <time>2014-06-04T09:34:58Z</time>
        <extensions>
          <speed>1.1214275360107422</speed>
        </extensions>
      </trkpt>
      <trkpt lat="39.7498568" lon="3.1947398">
        <ele>6.5800018310546875</ele>
        <hdop>5.0</hdop>
        <time>2014-06-04T09:35:04Z</time>
        <extensions>
          <speed>1.148964524269104</speed>
        </extensions>
      </trkpt>
      <trkpt lat="39.7498884" lon="3.1946542">
        <ele>6.5800018310546875</ele>
        <hdop>5.0</hdop>
        <time>2014-06-04T09:35:10Z</time>
        <extensions>
          <speed>1.170936942100525</speed>
        </extensions>
      </trkpt>
      <trkpt lat="39.7499251" lon="3.1945862">
        <ele>6.5800018310546875</ele>
        <hdop>10.0</hdop>
        <time>2014-06-04T09:35:15Z</time>
        <extensions>
          <speed>1.2117148637771606</speed>
        </extensions>
      </trkpt>
      <trkpt lat="39.7499791" lon="3.1945159">
        <ele>6.5800018310546875</ele>
        <hdop>5.0</hdop>
        <time>2014-06-04T09:35:21Z</time>
        <extensions>
          <speed>1.2474285364151</speed>
        </extensions>
      </trkpt>
      <trkpt lat="39.7500153" lon="3.1944534">
        <ele>7.3600006103515625</ele>
        <hdop>5.0</hdop>
        <time>2014-06-04T09:35:27Z</time>
        <extensions>
          <speed>1.2223151922225952</speed>
        </extensions>
      </trkpt>
      <trkpt lat="39.7500378" lon="3.1944017">
        <ele>7.3600006103515625</ele>
        <hdop>5.0</hdop>
        <time>2014-06-04T09:35:33Z</time>
        <extensions>
          <speed>1.0815482139587402</speed>
        </extensions>
      </trkpt>
      <trkpt lat="39.7500636" lon="3.1943678">
        <ele>7.3600006103515625</ele>
        <hdop>5.0</hdop>
        <time>2014-06-04T09:35:38Z</time>
        <extensions>
          <speed>1.0094389915466309</speed>
        </extensions>
      </trkpt>
      <trkpt lat="39.7500993" lon="3.1943506">
        <ele>7.3600006103515625</ele>
        <hdop>5.0</hdop>
        <time>2014-06-04T09:35:44Z</time>
      </trkpt>
      <trkpt lat="39.7501105" lon="3.1943476">
        <ele>7.3600006103515625</ele>
        <hdop>5.0</hdop>
        <time>2014-06-04T09:35:49Z</time>
        <extensions>
          <speed>0.5185306072235107</speed>
        </extensions>
      </trkpt>
      <trkpt lat="39.7501766" lon="3.194301">
        <ele>8.360000610351563</ele>
        <hdop>10.0</hdop>
        <time>2014-06-04T09:35:55Z</time>
        <extensions>
          <speed>1.1599048376083374</speed>
        </extensions>
      </trkpt>
      <trkpt lat="39.7502045" lon="3.1942444">
        <ele>8.360000610351563</ele>
        <hdop>10.0</hdop>
        <time>2014-06-04T09:36:00Z</time>
        <extensions>
          <speed>1.1118013858795166</speed>
        </extensions>
      </trkpt>
      <trkpt lat="39.7502437" lon="3.1941891">
        <ele>8.360000610351563</ele>
        <hdop>5.0</hdop>
        <time>2014-06-04T09:36:06Z</time>
        <extensions>
          <speed>1.1162965297698975</speed>
        </extensions>
      </trkpt>
      <trkpt lat="39.7502673" lon="3.1941305">
        <ele>8.360000610351563</ele>
        <hdop>5.0</hdop>
        <time>2014-06-04T09:36:11Z</time>
        <extensions>
          <speed>1.0934436321258545</speed>
        </extensions>
      </trkpt>
      <trkpt lat="39.750293" lon="3.1940378">
        <ele>8.360000610351563</ele>
        <hdop>5.0</hdop>
        <time>2014-06-04T09:36:17Z</time>
        <extensions>
          <speed>1.1076887845993042</speed>
        </extensions>
      </trkpt>
      <trkpt lat="39.7503095" lon="3.1939666">
        <ele>8.360000610351563</ele>
        <hdop>5.0</hdop>
        <time>2014-06-04T09:36:23Z</time>
        <extensions>
          <speed>1.0191112756729126</speed>
        </extensions>
      </trkpt>
      <trkpt lat="39.7503165" lon="3.1939012">
        <ele>8.360000610351563</ele>
        <hdop>10.0</hdop>
        <time>2014-06-04T09:36:28Z</time>
        <extensions>
          <speed>1.0504860877990723</speed>
        </extensions>
      </trkpt>
      <trkpt lat="39.7503294" lon="3.1938222">
        <ele>8.360000610351563</ele>
        <hdop>5.0</hdop>
        <time>2014-06-04T09:36:34Z</time>
        <extensions>
          <speed>1.0535813570022583</speed>
        </extensions>
      </trkpt>
      <trkpt lat="39.7503309" lon="3.19375">
        <ele>8.360000610351563</ele>
        <hdop>5.0</hdop>
        <time>2014-06-04T09:36:40Z</time>
        <extensions>
          <speed>1.030379295349121</speed>
        </extensions>
      </trkpt>
      <trkpt lat="39.7503156" lon="3.1936924">
        <ele>8.360000610351563</ele>
        <hdop>5.0</hdop>
        <time>2014-06-04T09:36:45Z</time>
        <extensions>
          <speed>1.0001733303070068</speed>
        </extensions>
      </trkpt>
      <trkpt lat="39.7503115" lon="3.1936165">
        <ele>9.360000610351563</ele>
        <hdop>5.0</hdop>
        <time>2014-06-04T09:36:51Z</time>
        <extensions>
          <speed>0.9944310188293457</speed>
        </extensions>
      </trkpt>
      <trkpt lat="39.7503156" lon="3.193563">
        <ele>9.360000610351563</ele>
        <hdop>5.0</hdop>
        <time>2014-06-04T09:36:56Z</time>
        <extensions>
          <speed>0.7736807465553284</speed>
        </extensions>
      </trkpt>
      <trkpt lat="39.7503129" lon="3.1934865">
        <ele>9.360000610351563</ele>
        <hdop>5.0</hdop>
        <time>2014-06-04T09:37:02Z</time>
        <extensions>
          <speed>0.9600744247436523</speed>
        </extensions>
      </trkpt>
      <trkpt lat="39.7503139" lon="3.1934303">
        <ele>9.360000610351563</ele>
        <hdop>5.0</hdop>
        <time>2014-06-04T09:37:07Z</time>
        <extensions>
          <speed>0.9556131362915039</speed>
        </extensions>
      </trkpt>
      <trkpt lat="39.750334" lon="3.193359">
        <ele>9.360000610351563</ele>
        <hdop>5.0</hdop>
        <time>2014-06-04T09:37:13Z</time>
        <extensions>
          <speed>1.036171793937683</speed>
        </extensions>
      </trkpt>
      <trkpt lat="39.7503492" lon="3.1932918">
        <ele>10.360000610351563</ele>
        <hdop>5.0</hdop>
        <time>2014-06-04T09:37:19Z</time>
        <extensions>
          <speed>1.0260107517242432</speed>
        </extensions>
      </trkpt>
      <trkpt lat="39.7503475" lon="3.1932341">
        <ele>10.360000610351563</ele>
        <hdop>5.0</hdop>
        <time>2014-06-04T09:37:24Z</time>
        <extensions>
          <speed>1.016875982284546</speed>
        </extensions>
      </trkpt>
      <trkpt lat="39.7503531" lon="3.193159">
        <ele>11.360000610351563</ele>
        <hdop>10.0</hdop>
        <time>2014-06-04T09:37:30Z</time>
        <extensions>
          <speed>1.034398078918457</speed>
        </extensions>
      </trkpt>
      <trkpt lat="39.750366" lon="3.1930856">
        <ele>11.360000610351563</ele>
        <hdop>5.0</hdop>
        <time>2014-06-04T09:37:36Z</time>
        <extensions>
          <speed>1.0299338102340698</speed>
        </extensions>
      </trkpt>
      <trkpt lat="39.7503841" lon="3.193024">
        <ele>11.360000610351563</ele>
        <hdop>5.0</hdop>
        <time>2014-06-04T09:37:41Z</time>
        <extensions>
          <speed>1.0426862239837646</speed>
        </extensions>
      </trkpt>
      <trkpt lat="39.7504052" lon="3.1929536">
        <ele>11.360000610351563</ele>
        <hdop>5.0</hdop>
        <time>2014-06-04T09:37:47Z</time>
        <extensions>
          <speed>1.0745584964752197</speed>
        </extensions>
      </trkpt>
      <trkpt lat="39.7504072" lon="3.1928925">
        <ele>12.360000610351563</ele>
        <hdop>5.0</hdop>
        <time>2014-06-04T09:37:53Z</time>
        <extensions>
          <speed>0.956160843372345</speed>
        </extensions>
      </trkpt>
      <trkpt lat="39.7504027" lon="3.1928875">
        <ele>12.360000610351563</ele>
        <hdop>5.0</hdop>
        <time>2014-06-04T09:37:58Z</time>
      </trkpt>
      <trkpt lat="39.7504027" lon="3.1928875">
        <ele>12.360000610351563</ele>
        <hdop>5.0</hdop>
        <time>2014-06-04T09:38:03Z</time>
      </trkpt>
      <trkpt lat="39.7504181" lon="3.192854">
        <ele>12.360000610351563</ele>
        <hdop>5.0</hdop>
        <time>2014-06-04T09:38:09Z</time>
        <extensions>
          <speed>1.016805648803711</speed>
        </extensions>
      </trkpt>
      <trkpt lat="39.7504416" lon="3.1927847">
        <ele>11.360000610351563</ele>
        <hdop>5.0</hdop>
        <time>2014-06-04T09:38:15Z</time>
        <extensions>
          <speed>1.0398484468460083</speed>
        </extensions>
      </trkpt>
      <trkpt lat="39.7504764" lon="3.1927342">
        <ele>11.360000610351563</ele>
        <hdop>5.0</hdop>
        <time>2014-06-04T09:38:20Z</time>
        <extensions>
          <speed>1.1419761180877686</speed>
        </extensions>
      </trkpt>
      <trkpt lat="39.7505137" lon="3.1926692">
        <ele>11.360000610351563</ele>
        <hdop>5.0</hdop>
        <time>2014-06-04T09:38:26Z</time>
        <extensions>
          <speed>1.1504709720611572</speed>
        </extensions>
      </trkpt>
      <trkpt lat="39.750556" lon="3.1926008">
        <ele>12.360000610351563</ele>
        <hdop>5.0</hdop>
        <time>2014-06-04T09:38:32Z</time>
        <extensions>
          <speed>1.2257602214813232</speed>
        </extensions>
      </trkpt>
      <trkpt lat="39.7505963" lon="3.1925195">
        <ele>12.360000610351563</ele>
        <hdop>5.0</hdop>
        <time>2014-06-04T09:38:38Z</time>
        <extensions>
          <speed>1.2786004543304443</speed>
        </extensions>
      </trkpt>
      <trkpt lat="39.7506288" lon="3.192444">
        <ele>12.360000610351563</ele>
        <hdop>5.0</hdop>
        <time>2014-06-04T09:38:44Z</time>
        <extensions>
          <speed>1.247511625289917</speed>
        </extensions>
      </trkpt>
      <trkpt lat="39.7506471" lon="3.1923872">
        <ele>12.360000610351563</ele>
        <hdop>5.0</hdop>
        <time>2014-06-04T09:38:49Z</time>
        <extensions>
          <speed>1.2189794778823853</speed>
        </extensions>
      </trkpt>
      <trkpt lat="39.750669" lon="3.1923042">
        <ele>12.360000610351563</ele>
        <hdop>5.0</hdop>
        <time>2014-06-04T09:38:55Z</time>
        <extensions>
          <speed>1.1188675165176392</speed>
        </extensions>
      </trkpt>
      <trkpt lat="39.7506907" lon="3.1922544">
        <ele>12.360000610351563</ele>
        <hdop>5.0</hdop>
        <time>2014-06-04T09:39:00Z</time>
        <extensions>
          <speed>1.1002997159957886</speed>
        </extensions>
      </trkpt>
      <trkpt lat="39.7507072" lon="3.1921876">
        <ele>12.360000610351563</ele>
        <hdop>5.0</hdop>
        <time>2014-06-04T09:39:06Z</time>
        <extensions>
          <speed>1.0926291942596436</speed>
        </extensions>
      </trkpt>
      <trkpt lat="39.7507305" lon="3.1921247">
        <ele>12.360000610351563</ele>
        <hdop>5.0</hdop>
        <time>2014-06-04T09:39:12Z</time>
        <extensions>
          <speed>1.0690149068832397</speed>
        </extensions>
      </trkpt>
      <trkpt lat="39.7507517" lon="3.1920702">
        <ele>12.360000610351563</ele>
        <hdop>5.0</hdop>
        <time>2014-06-04T09:39:17Z</time>
        <extensions>
          <speed>1.0717661380767822</speed>
        </extensions>
      </trkpt>
      <trkpt lat="39.7507789" lon="3.1919992">
        <ele>12.360000610351563</ele>
        <hdop>5.0</hdop>
        <time>2014-06-04T09:39:23Z</time>
        <extensions>
          <speed>1.0866987705230713</speed>
        </extensions>
      </trkpt>
      <trkpt lat="39.750793" lon="3.1919321">
        <ele>12.360000610351563</ele>
        <hdop>5.0</hdop>
        <time>2014-06-04T09:39:28Z</time>
        <extensions>
          <speed>1.0702706575393677</speed>
        </extensions>
      </trkpt>
      <trkpt lat="39.7508141" lon="3.1918786">
        <ele>12.360000610351563</ele>
        <hdop>5.0</hdop>
        <time>2014-06-04T09:39:33Z</time>
        <extensions>
          <speed>1.0572959184646606</speed>
        </extensions>
      </trkpt>
      <trkpt lat="39.7508373" lon="3.1918222">
        <ele>12.360000610351563</ele>
        <hdop>5.0</hdop>
        <time>2014-06-04T09:39:39Z</time>
        <extensions>
          <speed>1.0538334846496582</speed>
        </extensions>
      </trkpt>
      <trkpt lat="39.7508468" lon="3.1917568">
        <ele>12.360000610351563</ele>
        <hdop>5.0</hdop>
        <time>2014-06-04T09:39:45Z</time>
        <extensions>
          <speed>1.030876874923706</speed>
        </extensions>
      </trkpt>
      <trkpt lat="39.7508702" lon="3.1916967">
        <ele>12.360000610351563</ele>
        <hdop>5.0</hdop>
        <time>2014-06-04T09:39:50Z</time>
        <extensions>
          <speed>1.0549296140670776</speed>
        </extensions>
      </trkpt>
      <trkpt lat="39.7508964" lon="3.1916177">
        <ele>12.360000610351563</ele>
        <hdop>5.0</hdop>
        <time>2014-06-04T09:39:56Z</time>
        <extensions>
          <speed>1.0854238271713257</speed>
        </extensions>
      </trkpt>
      <trkpt lat="39.7509195" lon="3.1915582">
        <ele>12.360000610351563</ele>
        <hdop>5.0</hdop>
        <time>2014-06-04T09:40:02Z</time>
        <extensions>
          <speed>1.0721701383590698</speed>
        </extensions>
      </trkpt>
      <trkpt lat="39.7509364" lon="3.1914942">
        <ele>12.360000610351563</ele>
        <hdop>5.0</hdop>
        <time>2014-06-04T09:40:08Z</time>
        <extensions>
          <speed>1.0444600582122803</speed>
        </extensions>
      </trkpt>
      <trkpt lat="39.7509622" lon="3.1914548">
        <ele>12.360000610351563</ele>
        <hdop>5.0</hdop>
        <time>2014-06-04T09:40:13Z</time>
        <extensions>
          <speed>1.0764514207839966</speed>
        </extensions>
      </trkpt>
      <trkpt lat="39.7509989" lon="3.1914021">
        <ele>13.360000610351563</ele>
        <hdop>5.0</hdop>
        <time>2014-06-04T09:40:19Z</time>
        <extensions>
          <speed>1.1373486518859863</speed>
        </extensions>
      </trkpt>
      <trkpt lat="39.7510234" lon="3.1913543">
        <ele>13.360000610351563</ele>
        <hdop>5.0</hdop>
        <time>2014-06-04T09:40:24Z</time>
        <extensions>
          <speed>1.0749516487121582</speed>
        </extensions>
      </trkpt>
      <trkpt lat="39.7510313" lon="3.1913219">
        <ele>13.360000610351563</ele>
        <hdop>5.0</hdop>
        <time>2014-06-04T09:40:29Z</time>
      </trkpt>
      <trkpt lat="39.7510313" lon="3.1913219">
        <ele>13.360000610351563</ele>
        <hdop>5.0</hdop>
        <time>2014-06-04T09:40:35Z</time>
      </trkpt>
      <trkpt lat="39.7510313" lon="3.1913219">
        <ele>13.360000610351563</ele>
        <hdop>5.0</hdop>
        <time>2014-06-04T09:40:41Z</time>
      </trkpt>
      <trkpt lat="39.7510313" lon="3.1913219">
        <ele>13.360000610351563</ele>
        <hdop>5.0</hdop>
        <time>2014-06-04T09:40:46Z</time>
      </trkpt>
      <trkpt lat="39.7510313" lon="3.1913219">
        <ele>13.360000610351563</ele>
        <hdop>5.0</hdop>
        <time>2014-06-04T09:40:52Z</time>
      </trkpt>
      <trkpt lat="39.7510313" lon="3.1913219">
        <ele>13.360000610351563</ele>
        <hdop>5.0</hdop>
        <time>2014-06-04T09:40:58Z</time>
      </trkpt>
      <trkpt lat="39.7510313" lon="3.1913219">
        <ele>13.360000610351563</ele>
        <hdop>5.0</hdop>
        <time>2014-06-04T09:41:04Z</time>
      </trkpt>
      <trkpt lat="39.7510313" lon="3.1913219">
        <ele>13.360000610351563</ele>
        <hdop>5.0</hdop>
        <time>2014-06-04T09:41:09Z</time>
      </trkpt>
      <trkpt lat="39.7510313" lon="3.1913219">
        <ele>13.360000610351563</ele>
        <hdop>5.0</hdop>
        <time>2014-06-04T09:41:15Z</time>
      </trkpt>
      <trkpt lat="39.7510313" lon="3.1913219">
        <ele>13.360000610351563</ele>
        <hdop>5.0</hdop>
        <time>2014-06-04T09:41:20Z</time>
      </trkpt>
      <trkpt lat="39.7510313" lon="3.1913219">
        <ele>13.360000610351563</ele>
        <hdop>5.0</hdop>
        <time>2014-06-04T09:41:26Z</time>
      </trkpt>
      <trkpt lat="39.7510563" lon="3.1912277">
        <ele>12.360000610351563</ele>
        <hdop>5.0</hdop>
        <time>2014-06-04T09:41:32Z</time>
        <extensions>
          <speed>0.9041369557380676</speed>
        </extensions>
      </trkpt>
      <trkpt lat="39.7511068" lon="3.1911933">
        <ele>12.360000610351563</ele>
        <hdop>5.0</hdop>
        <time>2014-06-04T09:41:37Z</time>
        <extensions>
          <speed>1.2534867525100708</speed>
        </extensions>
      </trkpt>
      <trkpt lat="39.7511627" lon="3.1911433">
        <ele>11.360000610351563</ele>
        <hdop>5.0</hdop>
        <time>2014-06-04T09:41:43Z</time>
        <extensions>
          <speed>1.1583420038223267</speed>
        </extensions>
      </trkpt>
      <trkpt lat="39.7512073" lon="3.1910866">
        <ele>11.360000610351563</ele>
        <hdop>5.0</hdop>
        <time>2014-06-04T09:41:48Z</time>
        <extensions>
          <speed>1.2347668409347534</speed>
        </extensions>
      </trkpt>
      <trkpt lat="39.7512415" lon="3.1910162">
        <ele>11.360000610351563</ele>
        <hdop>10.0</hdop>
        <time>2014-06-04T09:41:53Z</time>
        <extensions>
          <speed>1.2272814512252808</speed>
        </extensions>
      </trkpt>
      <trkpt lat="39.7512816" lon="3.1909344">
        <ele>11.360000610351563</ele>
        <hdop>5.0</hdop>
        <time>2014-06-04T09:41:59Z</time>
        <extensions>
          <speed>1.2136223316192627</speed>
        </extensions>
      </trkpt>
      <trkpt lat="39.7513248" lon="3.1908853">
        <ele>11.360000610351563</ele>
        <hdop>5.0</hdop>
        <time>2014-06-04T09:42:04Z</time>
        <extensions>
          <speed>1.2311129570007324</speed>
        </extensions>
      </trkpt>
      <trkpt lat="39.7513655" lon="3.1908092">
        <ele>11.360000610351563</ele>
        <hdop>5.0</hdop>
        <time>2014-06-04T09:42:10Z</time>
        <extensions>
          <speed>1.2474746704101563</speed>
        </extensions>
      </trkpt>
      <trkpt lat="39.7514082" lon="3.1907527">
        <ele>11.360000610351563</ele>
        <hdop>5.0</hdop>
        <time>2014-06-04T09:42:15Z</time>
        <extensions>
          <speed>1.2770473957061768</speed>
        </extensions>
      </trkpt>
      <trkpt lat="39.751446" lon="3.1906914">
        <ele>11.360000610351563</ele>
        <hdop>10.0</hdop>
        <time>2014-06-04T09:42:20Z</time>
        <extensions>
          <speed>1.2676854133605957</speed>
        </extensions>
      </trkpt>
      <trkpt lat="39.7514688" lon="3.1906131">
        <ele>11.360000610351563</ele>
        <hdop>5.0</hdop>
        <time>2014-06-04T09:42:26Z</time>
        <extensions>
          <speed>1.2196121215820313</speed>
        </extensions>
      </trkpt>
      <trkpt lat="39.7514938" lon="3.1905565">
        <ele>11.360000610351563</ele>
        <hdop>5.0</hdop>
        <time>2014-06-04T09:42:31Z</time>
        <extensions>
          <speed>1.1780059337615967</speed>
        </extensions>
      </trkpt>
      <trkpt lat="39.7515334" lon="3.1905006">
        <ele>11.360000610351563</ele>
        <hdop>5.0</hdop>
        <time>2014-06-04T09:42:37Z</time>
        <extensions>
          <speed>1.1852411031723022</speed>
        </extensions>
      </trkpt>
      <trkpt lat="39.7515638" lon="3.1904578">
        <ele>12.360000610351563</ele>
        <hdop>5.0</hdop>
        <time>2014-06-04T09:42:42Z</time>
        <extensions>
          <speed>1.1914410591125488</speed>
        </extensions>
      </trkpt>
      <trkpt lat="39.7516038" lon="3.1904109">
        <ele>12.360000610351563</ele>
        <hdop>5.0</hdop>
        <time>2014-06-04T09:42:48Z</time>
        <extensions>
          <speed>1.1310502290725708</speed>
        </extensions>
      </trkpt>
      <trkpt lat="39.7516479" lon="3.1903922">
        <ele>12.360000610351563</ele>
        <hdop>5.0</hdop>
        <time>2014-06-04T09:42:53Z</time>
        <extensions>
          <speed>1.1542706489562988</speed>
        </extensions>
      </trkpt>
      <trkpt lat="39.7516906" lon="3.1903694">
        <ele>12.360000610351563</ele>
        <hdop>5.0</hdop>
        <time>2014-06-04T09:42:58Z</time>
        <extensions>
          <speed>1.1291486024856567</speed>
        </extensions>
      </trkpt>
      <trkpt lat="39.7517345" lon="3.1903283">
        <ele>12.360000610351563</ele>
        <hdop>5.0</hdop>
        <time>2014-06-04T09:43:04Z</time>
        <extensions>
          <speed>1.0911941528320313</speed>
        </extensions>
      </trkpt>
      <trkpt lat="39.751774" lon="3.190287">
        <ele>12.360000610351563</ele>
        <hdop>5.0</hdop>
        <time>2014-06-04T09:43:09Z</time>
        <extensions>
          <speed>1.081181526184082</speed>
        </extensions>
      </trkpt>
      <trkpt lat="39.7518234" lon="3.1902347">
        <ele>12.360000610351563</ele>
        <hdop>10.0</hdop>
        <time>2014-06-04T09:43:15Z</time>
        <extensions>
          <speed>1.1021428108215332</speed>
        </extensions>
      </trkpt>
      <trkpt lat="39.7518526" lon="3.1901536">
        <ele>12.360000610351563</ele>
        <hdop>5.0</hdop>
        <time>2014-06-04T09:43:20Z</time>
        <extensions>
          <speed>1.0741629600524902</speed>
        </extensions>
      </trkpt>
      <trkpt lat="39.7518805" lon="3.1900976">
        <ele>12.360000610351563</ele>
        <hdop>5.0</hdop>
        <time>2014-06-04T09:43:25Z</time>
        <extensions>
          <speed>1.0552294254302979</speed>
        </extensions>
      </trkpt>
      <trkpt lat="39.7519182" lon="3.1900346">
        <ele>11.360000610351563</ele>
        <hdop>5.0</hdop>
        <time>2014-06-04T09:43:31Z</time>
        <extensions>
          <speed>1.0735161304473877</speed>
        </extensions>
      </trkpt>
      <trkpt lat="39.7519719" lon="3.1899878">
        <ele>11.360000610351563</ele>
        <hdop>5.0</hdop>
        <time>2014-06-04T09:43:37Z</time>
        <extensions>
          <speed>1.1645479202270508</speed>
        </extensions>
      </trkpt>
      <trkpt lat="39.7520162" lon="3.1899434">
        <ele>11.360000610351563</ele>
        <hdop>5.0</hdop>
        <time>2014-06-04T09:43:43Z</time>
        <extensions>
          <speed>1.0969027280807495</speed>
        </extensions>
      </trkpt>
      <trkpt lat="39.7520571" lon="3.1899142">
        <ele>11.360000610351563</ele>
        <hdop>5.0</hdop>
        <time>2014-06-04T09:43:48Z</time>
        <extensions>
          <speed>1.0917840003967285</speed>
        </extensions>
      </trkpt>
      <trkpt lat="39.7521102" lon="3.189874">
        <ele>11.360000610351563</ele>
        <hdop>5.0</hdop>
        <time>2014-06-04T09:43:54Z</time>
        <extensions>
          <speed>1.1203693151474</speed>
        </extensions>
      </trkpt>
      <trkpt lat="39.7521499" lon="3.1898384">
        <ele>11.360000610351563</ele>
        <hdop>5.0</hdop>
        <time>2014-06-04T09:43:59Z</time>
        <extensions>
          <speed>1.0890482664108276</speed>
        </extensions>
      </trkpt>
      <trkpt lat="39.752201" lon="3.1897961">
        <ele>11.360000610351563</ele>
        <hdop>5.0</hdop>
        <time>2014-06-04T09:44:05Z</time>
        <extensions>
          <speed>1.107516884803772</speed>
        </extensions>
      </trkpt>
      <trkpt lat="39.7522509" lon="3.1897573">
        <ele>11.360000610351563</ele>
        <hdop>5.0</hdop>
        <time>2014-06-04T09:44:11Z</time>
        <extensions>
          <speed>1.0900871753692627</speed>
        </extensions>
      </trkpt>
      <trkpt lat="39.7523006" lon="3.1897395">
        <ele>11.360000610351563</ele>
        <hdop>5.0</hdop>
        <time>2014-06-04T09:44:16Z</time>
        <extensions>
          <speed>1.1085156202316284</speed>
        </extensions>
      </trkpt>
      <trkpt lat="39.7523652" lon="3.1897419">
        <ele>11.360000610351563</ele>
        <hdop>5.0</hdop>
        <time>2014-06-04T09:44:22Z</time>
        <extensions>
          <speed>1.125862717628479</speed>
        </extensions>
      </trkpt>
      <trkpt lat="39.7524142" lon="3.1897264">
        <ele>11.360000610351563</ele>
        <hdop>5.0</hdop>
        <time>2014-06-04T09:44:28Z</time>
        <extensions>
          <speed>1.076758623123169</speed>
        </extensions>
      </trkpt>
      <trkpt lat="39.7524589" lon="3.1897323">
        <ele>11.360000610351563</ele>
        <hdop>5.0</hdop>
        <time>2014-06-04T09:44:33Z</time>
        <extensions>
          <speed>1.0852543115615845</speed>
        </extensions>
      </trkpt>
      <trkpt lat="39.7525098" lon="3.1897531">
        <ele>11.360000610351563</ele>
        <hdop>5.0</hdop>
        <time>2014-06-04T09:44:39Z</time>
        <extensions>
          <speed>1.041634440422058</speed>
        </extensions>
      </trkpt>
      <trkpt lat="39.7525631" lon="3.1897439">
        <ele>11.360000610351563</ele>
        <hdop>5.0</hdop>
        <time>2014-06-04T09:44:44Z</time>
        <extensions>
          <speed>1.0694855451583862</speed>
        </extensions>
      </trkpt>
      <trkpt lat="39.7526132" lon="3.1897239">
        <ele>11.360000610351563</ele>
        <hdop>5.0</hdop>
        <time>2014-06-04T09:44:49Z</time>
        <extensions>
          <speed>1.0485868453979492</speed>
        </extensions>
      </trkpt>
      <trkpt lat="39.752675" lon="3.189696">
        <ele>12.360000610351563</ele>
        <hdop>5.0</hdop>
        <time>2014-06-04T09:44:55Z</time>
        <extensions>
          <speed>1.0480300188064575</speed>
        </extensions>
      </trkpt>
      <trkpt lat="39.7527255" lon="3.1896637">
        <ele>12.360000610351563</ele>
        <hdop>5.0</hdop>
        <time>2014-06-04T09:45:00Z</time>
        <extensions>
          <speed>1.0466547012329102</speed>
        </extensions>
      </trkpt>
      <trkpt lat="39.7527797" lon="3.1896292">
        <ele>12.360000610351563</ele>
        <hdop>5.0</hdop>
        <time>2014-06-04T09:45:06Z</time>
        <extensions>
          <speed>1.0422528982162476</speed>
        </extensions>
      </trkpt>
      <trkpt lat="39.752824" lon="3.1895926">
        <ele>12.360000610351563</ele>
        <hdop>5.0</hdop>
        <time>2014-06-04T09:45:11Z</time>
        <extensions>
          <speed>1.0324150323867798</speed>
        </extensions>
      </trkpt>
      <trkpt lat="39.7528616" lon="3.1895491">
        <ele>12.360000610351563</ele>
        <hdop>5.0</hdop>
        <time>2014-06-04T09:45:16Z</time>
        <extensions>
          <speed>1.0155987739562988</speed>
        </extensions>
      </trkpt>
      <trkpt lat="39.7529044" lon="3.1894936">
        <ele>12.360000610351563</ele>
        <hdop>10.0</hdop>
        <time>2014-06-04T09:45:22Z</time>
        <extensions>
          <speed>0.9999920725822449</speed>
        </extensions>
      </trkpt>
      <trkpt lat="39.7529388" lon="3.18942">
        <ele>12.360000610351563</ele>
        <hdop>5.0</hdop>
        <time>2014-06-04T09:45:28Z</time>
        <extensions>
          <speed>0.9880107641220093</speed>
        </extensions>
      </trkpt>
      <trkpt lat="39.7529599" lon="3.1893315">
        <ele>12.360000610351563</ele>
        <hdop>5.0</hdop>
        <time>2014-06-04T09:45:33Z</time>
        <extensions>
          <speed>0.9876387715339661</speed>
        </extensions>
      </trkpt>
      <trkpt lat="39.752964" lon="3.1892242">
        <ele>12.360000610351563</ele>
        <hdop>5.0</hdop>
        <time>2014-06-04T09:45:39Z</time>
        <extensions>
          <speed>1.012543797492981</speed>
        </extensions>
      </trkpt>
      <trkpt lat="39.7529485" lon="3.1891506">
        <ele>12.360000610351563</ele>
        <hdop>5.0</hdop>
        <time>2014-06-04T09:45:44Z</time>
        <extensions>
          <speed>1.0555115938186646</speed>
        </extensions>
      </trkpt>
      <trkpt lat="39.7529205" lon="3.1890729">
        <ele>12.360000610351563</ele>
        <hdop>10.0</hdop>
        <time>2014-06-04T09:45:50Z</time>
        <extensions>
          <speed>1.088420033454895</speed>
        </extensions>
      </trkpt>
      <trkpt lat="39.7528863" lon="3.1890046">
        <ele>12.360000610351563</ele>
        <hdop>10.0</hdop>
        <time>2014-06-04T09:45:55Z</time>
        <extensions>
          <speed>1.0868451595306396</speed>
        </extensions>
      </trkpt>
      <trkpt lat="39.7528372" lon="3.188932">
        <ele>11.360000610351563</ele>
        <hdop>10.0</hdop>
        <time>2014-06-04T09:46:00Z</time>
        <extensions>
          <speed>1.122294306755066</speed>
        </extensions>
      </trkpt>
      <trkpt lat="39.7527891" lon="3.188849">
        <ele>11.360000610351563</ele>
        <hdop>10.0</hdop>
        <time>2014-06-04T09:46:06Z</time>
        <extensions>
          <speed>1.2705891132354736</speed>
        </extensions>
      </trkpt>
      <trkpt lat="39.7527399" lon="3.1887798">
        <ele>11.360000610351563</ele>
        <hdop>5.0</hdop>
        <time>2014-06-04T09:46:12Z</time>
        <extensions>
          <speed>1.2771919965744019</speed>
        </extensions>
      </trkpt>
      <trkpt lat="39.7527167" lon="3.1887283">
        <ele>11.360000610351563</ele>
        <hdop>5.0</hdop>
        <time>2014-06-04T09:46:17Z</time>
        <extensions>
          <speed>1.1745164394378662</speed>
        </extensions>
      </trkpt>
      <trkpt lat="39.7526899" lon="3.1886597">
        <ele>11.360000610351563</ele>
        <hdop>5.0</hdop>
        <time>2014-06-04T09:46:23Z</time>
        <extensions>
          <speed>1.2052183151245117</speed>
        </extensions>
      </trkpt>
      <trkpt lat="39.7526578" lon="3.1886008">
        <ele>12.360000610351563</ele>
        <hdop>5.0</hdop>
        <time>2014-06-04T09:46:28Z</time>
        <extensions>
          <speed>1.2337231636047363</speed>
        </extensions>
      </trkpt>
      <trkpt lat="39.7526338" lon="3.1885256">
        <ele>12.360000610351563</ele>
        <hdop>5.0</hdop>
        <time>2014-06-04T09:46:34Z</time>
        <extensions>
          <speed>1.2408024072647095</speed>
        </extensions>
      </trkpt>
      <trkpt lat="39.7526125" lon="3.1884674">
        <ele>12.360000610351563</ele>
        <hdop>5.0</hdop>
        <time>2014-06-04T09:46:39Z</time>
        <extensions>
          <speed>1.229008436203003</speed>
        </extensions>
      </trkpt>
      <trkpt lat="39.7525991" lon="3.1883919">
        <ele>12.360000610351563</ele>
        <hdop>5.0</hdop>
        <time>2014-06-04T09:46:45Z</time>
        <extensions>
          <speed>1.2258329391479492</speed>
        </extensions>
      </trkpt>
      <trkpt lat="39.7525711" lon="3.1883179">
        <ele>12.360000610351563</ele>
        <hdop>5.0</hdop>
        <time>2014-06-04T09:46:51Z</time>
        <extensions>
          <speed>1.2090015411376953</speed>
        </extensions>
      </trkpt>
      <trkpt lat="39.7525659" lon="3.1882492">
        <ele>12.360000610351563</ele>
        <hdop>5.0</hdop>
        <time>2014-06-04T09:46:56Z</time>
        <extensions>
          <speed>1.216132402420044</speed>
        </extensions>
      </trkpt>
      <trkpt lat="39.7525499" lon="3.1881743">
        <ele>12.360000610351563</ele>
        <hdop>5.0</hdop>
        <time>2014-06-04T09:47:02Z</time>
        <extensions>
          <speed>1.2114601135253906</speed>
        </extensions>
      </trkpt>
      <trkpt lat="39.7525313" lon="3.1881038">
        <ele>12.360000610351563</ele>
        <hdop>5.0</hdop>
        <time>2014-06-04T09:47:07Z</time>
        <extensions>
          <speed>1.2112325429916382</speed>
        </extensions>
      </trkpt>
      <trkpt lat="39.7525136" lon="3.1880202">
        <ele>12.360000610351563</ele>
        <hdop>5.0</hdop>
        <time>2014-06-04T09:47:13Z</time>
        <extensions>
          <speed>1.2096503973007202</speed>
        </extensions>
      </trkpt>
      <trkpt lat="39.7524846" lon="3.1879487">
        <ele>12.360000610351563</ele>
        <hdop>5.0</hdop>
        <time>2014-06-04T09:47:19Z</time>
        <extensions>
          <speed>1.1616005897521973</speed>
        </extensions>
      </trkpt>
      <trkpt lat="39.7524627" lon="3.1878947">
        <ele>12.360000610351563</ele>
        <hdop>10.0</hdop>
        <time>2014-06-04T09:47:24Z</time>
        <extensions>
          <speed>0.9964739084243774</speed>
        </extensions>
      </trkpt>
      <trkpt lat="39.7524611" lon="3.187864">
        <ele>12.360000610351563</ele>
        <hdop>10.0</hdop>
        <time>2014-06-04T09:47:29Z</time>
      </trkpt>
      <trkpt lat="39.7524611" lon="3.187864">
        <ele>12.360000610351563</ele>
        <hdop>10.0</hdop>
        <time>2014-06-04T09:47:34Z</time>
      </trkpt>
      <trkpt lat="39.7524611" lon="3.187864">
        <ele>12.360000610351563</ele>
        <hdop>10.0</hdop>
        <time>2014-06-04T09:47:39Z</time>
      </trkpt>
      <trkpt lat="39.7524611" lon="3.187864">
        <ele>12.360000610351563</ele>
        <hdop>10.0</hdop>
        <time>2014-06-04T09:47:44Z</time>
      </trkpt>
      <trkpt lat="39.7524611" lon="3.187864">
        <ele>12.360000610351563</ele>
        <hdop>10.0</hdop>
        <time>2014-06-04T09:47:50Z</time>
      </trkpt>
      <trkpt lat="39.7524611" lon="3.187864">
        <ele>12.360000610351563</ele>
        <hdop>10.0</hdop>
        <time>2014-06-04T09:47:56Z</time>
      </trkpt>
      <trkpt lat="39.7524611" lon="3.187864">
        <ele>12.360000610351563</ele>
        <hdop>10.0</hdop>
        <time>2014-06-04T09:48:02Z</time>
      </trkpt>
      <trkpt lat="39.7524611" lon="3.187864">
        <ele>12.360000610351563</ele>
        <hdop>10.0</hdop>
        <time>2014-06-04T09:48:08Z</time>
      </trkpt>
      <trkpt lat="39.7524611" lon="3.187864">
        <ele>12.360000610351563</ele>
        <hdop>10.0</hdop>
        <time>2014-06-04T09:48:13Z</time>
      </trkpt>
      <trkpt lat="39.7524611" lon="3.187864">
        <ele>12.360000610351563</ele>
        <hdop>10.0</hdop>
        <time>2014-06-04T09:48:19Z</time>
      </trkpt>
      <trkpt lat="39.7524611" lon="3.187864">
        <ele>12.360000610351563</ele>
        <hdop>10.0</hdop>
        <time>2014-06-04T09:48:24Z</time>
      </trkpt>
      <trkpt lat="39.7524584" lon="3.1878383">
        <ele>12.360000610351563</ele>
        <hdop>10.0</hdop>
        <time>2014-06-04T09:48:30Z</time>
        <extensions>
          <speed>1.0303348302841187</speed>
        </extensions>
      </trkpt>
      <trkpt lat="39.7524111" lon="3.1878053">
        <ele>12.360000610351563</ele>
        <hdop>10.0</hdop>
        <time>2014-06-04T09:48:35Z</time>
        <extensions>
          <speed>1.154608964920044</speed>
        </extensions>
      </trkpt>
      <trkpt lat="39.7523595" lon="3.1877645">
        <ele>12.360000610351563</ele>
        <hdop>10.0</hdop>
        <time>2014-06-04T09:48:40Z</time>
        <extensions>
          <speed>1.2901597023010254</speed>
        </extensions>
      </trkpt>
      <trkpt lat="39.7523012" lon="3.1877443">
        <ele>12.360000610351563</ele>
        <hdop>10.0</hdop>
        <time>2014-06-04T09:48:46Z</time>
        <extensions>
          <speed>1.2185391187667847</speed>
        </extensions>
      </trkpt>
      <trkpt lat="39.7522423" lon="3.1877336">
        <ele>12.360000610351563</ele>
        <hdop>10.0</hdop>
        <time>2014-06-04T09:48:51Z</time>
        <extensions>
          <speed>1.1837950944900513</speed>
        </extensions>
      </trkpt>
      <trkpt lat="39.7521581" lon="3.1877071">
        <ele>13.360000610351563</ele>
        <hdop>10.0</hdop>
        <time>2014-06-04T09:48:57Z</time>
        <extensions>
          <speed>1.2043565511703491</speed>
        </extensions>
      </trkpt>
      <trkpt lat="39.7520986" lon="3.1876693">
        <ele>13.360000610351563</ele>
        <hdop>10.0</hdop>
        <time>2014-06-04T09:49:03Z</time>
        <extensions>
          <speed>0.4249340295791626</speed>
        </extensions>
      </trkpt>
      <trkpt lat="39.752078" lon="3.1876619">
        <ele>13.360000610351563</ele>
        <hdop>10.0</hdop>
        <time>2014-06-04T09:49:09Z</time>
        <extensions>
          <speed>0.6754501461982727</speed>
        </extensions>
      </trkpt>
      <trkpt lat="39.752038" lon="3.1876109">
        <ele>13.360000610351563</ele>
        <hdop>10.0</hdop>
        <time>2014-06-04T09:49:15Z</time>
        <extensions>
          <speed>0.8345803022384644</speed>
        </extensions>
      </trkpt>
      <trkpt lat="39.7520065" lon="3.1875858">
        <ele>13.360000610351563</ele>
        <hdop>10.0</hdop>
        <time>2014-06-04T09:49:20Z</time>
        <extensions>
          <speed>0.831781268119812</speed>
        </extensions>
      </trkpt>
      <trkpt lat="39.7519545" lon="3.1875976">
        <ele>13.360000610351563</ele>
        <hdop>10.0</hdop>
        <time>2014-06-04T09:49:26Z</time>
        <extensions>
          <speed>0.8530929684638977</speed>
        </extensions>
      </trkpt>
      <trkpt lat="39.7518792" lon="3.1876325">
        <ele>14.360000610351563</ele>
        <hdop>10.0</hdop>
        <time>2014-06-04T09:49:32Z</time>
        <extensions>
          <speed>0.973771333694458</speed>
        </extensions>
      </trkpt>
      <trkpt lat="39.7518439" lon="3.1876732">
        <ele>14.360000610351563</ele>
        <hdop>5.0</hdop>
        <time>2014-06-04T09:49:37Z</time>
        <extensions>
          <speed>0.7034041285514832</speed>
        </extensions>
      </trkpt>
      <trkpt lat="39.7518123" lon="3.1877162">
        <ele>14.360000610351563</ele>
        <hdop>10.0</hdop>
        <time>2014-06-04T09:49:43Z</time>
        <extensions>
          <speed>0.7716387510299683</speed>
        </extensions>
      </trkpt>
      <trkpt lat="39.7517993" lon="3.1877205">
        <ele>14.360000610351563</ele>
        <hdop>10.0</hdop>
        <time>2014-06-04T09:49:48Z</time>
        <extensions>
          <speed>0.3153914213180542</speed>
        </extensions>
      </trkpt>
      <trkpt lat="39.7517944" lon="3.1877208">
        <ele>14.360000610351563</ele>
        <hdop>30.0</hdop>
        <time>2014-06-04T09:49:54Z</time>
      </trkpt>
      <trkpt lat="39.7517866" lon="3.1877202">
        <ele>14.360000610351563</ele>
        <hdop>10.0</hdop>
        <time>2014-06-04T09:49:59Z</time>
        <extensions>
          <speed>0.3620940148830414</speed>
        </extensions>
      </trkpt>
      <trkpt lat="39.7518176" lon="3.1877484">
        <ele>14.360000610351563</ele>
        <hdop>10.0</hdop>
        <time>2014-06-04T09:50:05Z</time>
        <extensions>
          <speed>0.49069419503211975</speed>
        </extensions>
      </trkpt>
      <trkpt lat="39.7518042" lon="3.1877463">
        <ele>14.360000610351563</ele>
        <hdop>10.0</hdop>
        <time>2014-06-04T09:50:10Z</time>
        <extensions>
          <speed>0.664657711982727</speed>
        </extensions>
      </trkpt>
      <trkpt lat="39.7517397" lon="3.1877372">
        <ele>14.360000610351563</ele>
        <hdop>10.0</hdop>
        <time>2014-06-04T09:50:16Z</time>
        <extensions>
          <speed>0.958026111125946</speed>
        </extensions>
      </trkpt>
      <trkpt lat="39.7516863" lon="3.1876989">
        <ele>14.360000610351563</ele>
        <hdop>10.0</hdop>
        <time>2014-06-04T09:50:22Z</time>
        <extensions>
          <speed>1.022295355796814</speed>
        </extensions>
      </trkpt>
      <trkpt lat="39.7516444" lon="3.1876476">
        <ele>14.360000610351563</ele>
        <hdop>10.0</hdop>
        <time>2014-06-04T09:50:27Z</time>
        <extensions>
          <speed>1.1705645322799683</speed>
        </extensions>
      </trkpt>
      <trkpt lat="39.7516153" lon="3.1876024">
        <ele>14.360000610351563</ele>
        <hdop>30.0</hdop>
        <time>2014-06-04T09:50:33Z</time>
        <extensions>
          <speed>0.9336326718330383</speed>
        </extensions>
      </trkpt>
      <trkpt lat="39.7515733" lon="3.1876069">
        <ele>14.360000610351563</ele>
        <hdop>30.0</hdop>
        <time>2014-06-04T09:50:38Z</time>
        <extensions>
          <speed>0.8925905227661133</speed>
        </extensions>
      </trkpt>
      <trkpt lat="39.7515571" lon="3.1876156">
        <ele>14.360000610351563</ele>
        <hdop>30.0</hdop>
        <time>2014-06-04T09:50:44Z</time>
        <extensions>
          <speed>1.0073901414871216</speed>
        </extensions>
      </trkpt>
      <trkpt lat="39.7515877" lon="3.1875774">
        <ele>14.360000610351563</ele>
        <hdop>30.0</hdop>
        <time>2014-06-04T09:50:49Z</time>
        <extensions>
          <speed>1.365625262260437</speed>
        </extensions>
      </trkpt>
      <trkpt lat="39.7516261" lon="3.1875144">
        <ele>14.360000610351563</ele>
        <hdop>30.0</hdop>
        <time>2014-06-04T09:50:55Z</time>
        <extensions>
          <speed>1.518974781036377</speed>
        </extensions>
      </trkpt>
      <trkpt lat="39.7516604" lon="3.187447">
        <ele>14.360000610351563</ele>
        <hdop>30.0</hdop>
        <time>2014-06-04T09:51:00Z</time>
        <extensions>
          <speed>1.7087465524673462</speed>
        </extensions>
      </trkpt>
      <trkpt lat="39.751707" lon="3.1873464">
        <ele>14.360000610351563</ele>
        <hdop>30.0</hdop>
        <time>2014-06-04T09:51:06Z</time>
        <extensions>
          <speed>1.9954562187194824</speed>
        </extensions>
      </trkpt>
      <trkpt lat="39.7516915" lon="3.1873077">
        <ele>14.360000610351563</ele>
        <hdop>30.0</hdop>
        <time>2014-06-04T09:51:11Z</time>
        <extensions>
          <speed>2.1625852584838867</speed>
        </extensions>
      </trkpt>
      <trkpt lat="39.7516944" lon="3.1873053">
        <ele>14.360000610351563</ele>
        <hdop>30.0</hdop>
        <time>2014-06-04T09:51:16Z</time>
        <extensions>
          <speed>0.33714237809181213</speed>
        </extensions>
      </trkpt>
      <trkpt lat="39.7516921" lon="3.1873492">
        <ele>14.360000610351563</ele>
        <hdop>30.0</hdop>
        <time>2014-06-04T09:51:21Z</time>
        <extensions>
          <speed>0.6729256510734558</speed>
        </extensions>
      </trkpt>
      <trkpt lat="39.7516528" lon="3.1874462">
        <ele>14.360000610351563</ele>
        <hdop>30.0</hdop>
        <time>2014-06-04T09:51:27Z</time>
        <extensions>
          <speed>0.87823486328125</speed>
        </extensions>
      </trkpt>
      <trkpt lat="39.7516305" lon="3.1874927">
        <ele>14.360000610351563</ele>
        <hdop>10.0</hdop>
        <time>2014-06-04T09:51:33Z</time>
      </trkpt>
      <trkpt lat="39.751629" lon="3.187518">
        <ele>14.360000610351563</ele>
        <hdop>30.0</hdop>
        <time>2014-06-04T09:51:39Z</time>
        <extensions>
          <speed>0.8248722553253174</speed>
        </extensions>
      </trkpt>
      <trkpt lat="39.7516028" lon="3.1875574">
        <ele>14.360000610351563</ele>
        <hdop>30.0</hdop>
        <time>2014-06-04T09:51:44Z</time>
        <extensions>
          <speed>0.8401364684104919</speed>
        </extensions>
      </trkpt>
      <trkpt lat="39.751584" lon="3.1875675">
        <ele>14.360000610351563</ele>
        <hdop>30.0</hdop>
        <time>2014-06-04T09:51:50Z</time>
        <extensions>
          <speed>1.298440933227539</speed>
        </extensions>
      </trkpt>
      <trkpt lat="39.7515997" lon="3.1875469">
        <ele>14.360000610351563</ele>
        <hdop>30.0</hdop>
        <time>2014-06-04T09:51:55Z</time>
        <extensions>
          <speed>1.180645227432251</speed>
        </extensions>
      </trkpt>
      <trkpt lat="39.7516104" lon="3.1875413">
        <ele>14.360000610351563</ele>
        <hdop>30.0</hdop>
        <time>2014-06-04T09:52:00Z</time>
        <extensions>
          <speed>1.275949478149414</speed>
        </extensions>
      </trkpt>
      <trkpt lat="39.7516497" lon="3.1875929">
        <ele>14.360000610351563</ele>
        <hdop>10.0</hdop>
        <time>2014-06-04T09:52:06Z</time>
        <extensions>
          <speed>1.4136713743209839</speed>
        </extensions>
      </trkpt>
      <trkpt lat="39.751692" lon="3.1876231">
        <ele>14.360000610351563</ele>
        <hdop>10.0</hdop>
        <time>2014-06-04T09:52:11Z</time>
        <extensions>
          <speed>1.136646032333374</speed>
        </extensions>
      </trkpt>
      <trkpt lat="39.7516805" lon="3.1876581">
        <ele>14.360000610351563</ele>
        <hdop>10.0</hdop>
        <time>2014-06-04T09:52:17Z</time>
        <extensions>
          <speed>1.4023545980453491</speed>
        </extensions>
      </trkpt>
      <trkpt lat="39.7516065" lon="3.1877462">
        <ele>14.360000610351563</ele>
        <hdop>10.0</hdop>
        <time>2014-06-04T09:52:23Z</time>
        <extensions>
          <speed>1.2959461212158203</speed>
        </extensions>
      </trkpt>
      <trkpt lat="39.7515705" lon="3.1878171">
        <ele>13.360000610351563</ele>
        <hdop>30.0</hdop>
        <time>2014-06-04T09:52:28Z</time>
        <extensions>
          <speed>1.3559160232543945</speed>
        </extensions>
      </trkpt>
      <trkpt lat="39.751523" lon="3.1877944">
        <ele>14.360000610351563</ele>
        <hdop>30.0</hdop>
        <time>2014-06-04T09:52:33Z</time>
        <extensions>
          <speed>1.2761908769607544</speed>
        </extensions>
      </trkpt>
      <trkpt lat="39.751498" lon="3.1877853">
        <ele>14.360000610351563</ele>
        <hdop>30.0</hdop>
        <time>2014-06-04T09:52:39Z</time>
        <extensions>
          <speed>0.9387901425361633</speed>
        </extensions>
      </trkpt>
      <trkpt lat="39.7515102" lon="3.1877607">
        <ele>14.360000610351563</ele>
        <hdop>30.0</hdop>
        <time>2014-06-04T09:52:45Z</time>
        <extensions>
          <speed>1.1015366315841675</speed>
        </extensions>
      </trkpt>
      <trkpt lat="39.7515219" lon="3.1877505">
        <ele>14.360000610351563</ele>
        <hdop>30.0</hdop>
        <time>2014-06-04T09:52:50Z</time>
        <extensions>
          <speed>1.3666253089904785</speed>
        </extensions>
      </trkpt>
      <trkpt lat="39.7515309" lon="3.1877211">
        <ele>14.360000610351563</ele>
        <hdop>30.0</hdop>
        <time>2014-06-04T09:52:56Z</time>
      </trkpt>
      <trkpt lat="39.7515284" lon="3.1877235">
        <ele>13.360000610351563</ele>
        <hdop>30.0</hdop>
        <time>2014-06-04T09:53:02Z</time>
        <extensions>
          <speed>0.6860036849975586</speed>
        </extensions>
      </trkpt>
      <trkpt lat="39.7515342" lon="3.1877352">
        <ele>13.360000610351563</ele>
        <hdop>30.0</hdop>
        <time>2014-06-04T09:53:07Z</time>
        <extensions>
          <speed>0.9642979502677917</speed>
        </extensions>
      </trkpt>
      <trkpt lat="39.7515317" lon="3.1877081">
        <ele>13.360000610351563</ele>
        <hdop>30.0</hdop>
        <time>2014-06-04T09:53:12Z</time>
        <extensions>
          <speed>0.7556735277175903</speed>
        </extensions>
      </trkpt>
      <trkpt lat="39.7515277" lon="3.1876558">
        <ele>13.360000610351563</ele>
        <hdop>10.0</hdop>
        <time>2014-06-04T09:53:18Z</time>
        <extensions>
          <speed>1.1036301851272583</speed>
        </extensions>
      </trkpt>
      <trkpt lat="39.7515168" lon="3.1876338">
        <ele>13.360000610351563</ele>
        <hdop>10.0</hdop>
        <time>2014-06-04T09:53:24Z</time>
        <extensions>
          <speed>0.9209023714065552</speed>
        </extensions>
      </trkpt>
      <trkpt lat="39.7515151" lon="3.1876376">
        <ele>13.360000610351563</ele>
        <hdop>30.0</hdop>
        <time>2014-06-04T09:53:30Z</time>
        <extensions>
          <speed>1.015625</speed>
        </extensions>
      </trkpt>
      <trkpt lat="39.7515191" lon="3.1876644">
        <ele>13.360000610351563</ele>
        <hdop>30.0</hdop>
        <time>2014-06-04T09:53:36Z</time>
        <extensions>
          <speed>1.7229173183441162</speed>
        </extensions>
      </trkpt>
      <trkpt lat="39.7515151" lon="3.1876815">
        <ele>13.360000610351563</ele>
        <hdop>30.0</hdop>
        <time>2014-06-04T09:53:42Z</time>
        <extensions>
          <speed>1.5488311052322388</speed>
        </extensions>
      </trkpt>
      <trkpt lat="39.7515211" lon="3.1876568">
        <ele>13.360000610351563</ele>
        <hdop>30.0</hdop>
        <time>2014-06-04T09:53:47Z</time>
        <extensions>
          <speed>1.328079342842102</speed>
        </extensions>
      </trkpt>
      <trkpt lat="39.7514951" lon="3.1876436">
        <ele>13.360000610351563</ele>
        <hdop>30.0</hdop>
        <time>2014-06-04T09:53:53Z</time>
        <extensions>
          <speed>1.4475102424621582</speed>
        </extensions>
      </trkpt>
      <trkpt lat="39.75147" lon="3.187687">
        <ele>13.360000610351563</ele>
        <hdop>30.0</hdop>
        <time>2014-06-04T09:53:58Z</time>
        <extensions>
          <speed>1.6662768125534058</speed>
        </extensions>
      </trkpt>
      <trkpt lat="39.7514615" lon="3.1877491">
        <ele>13.360000610351563</ele>
        <hdop>30.0</hdop>
        <time>2014-06-04T09:54:03Z</time>
        <extensions>
          <speed>1.7875988483428955</speed>
        </extensions>
      </trkpt>
      <trkpt lat="39.7514822" lon="3.1878383">
        <ele>13.360000610351563</ele>
        <hdop>30.0</hdop>
        <time>2014-06-04T09:54:08Z</time>
        <extensions>
          <speed>2.2667224407196045</speed>
        </extensions>
      </trkpt>
      <trkpt lat="39.7515438" lon="3.1878302">
        <ele>14.360000610351563</ele>
        <hdop>10.0</hdop>
        <time>2014-06-04T09:54:13Z</time>
        <extensions>
          <speed>1.9820523262023926</speed>
        </extensions>
      </trkpt>
      <trkpt lat="39.7515495" lon="3.1878264">
        <ele>14.360000610351563</ele>
        <hdop>10.0</hdop>
        <time>2014-06-04T09:54:19Z</time>
        <extensions>
          <speed>2.036390542984009</speed>
        </extensions>
      </trkpt>
      <trkpt lat="39.7515862" lon="3.1877337">
        <ele>14.360000610351563</ele>
        <hdop>10.0</hdop>
        <time>2014-06-04T09:54:25Z</time>
      </trkpt>
      <trkpt lat="39.7516086" lon="3.1876866">
        <ele>14.360000610351563</ele>
        <hdop>10.0</hdop>
        <time>2014-06-04T09:54:31Z</time>
        <extensions>
          <speed>0.6343396902084351</speed>
        </extensions>
      </trkpt>
      <trkpt lat="39.7516121" lon="3.1875955">
        <ele>14.360000610351563</ele>
        <hdop>10.0</hdop>
        <time>2014-06-04T09:54:36Z</time>
        <extensions>
          <speed>0.900001585483551</speed>
        </extensions>
      </trkpt>
      <trkpt lat="39.7515891" lon="3.1875371">
        <ele>13.360000610351563</ele>
        <hdop>5.0</hdop>
        <time>2014-06-04T09:54:42Z</time>
        <extensions>
          <speed>0.8848674297332764</speed>
        </extensions>
      </trkpt>
      <trkpt lat="39.7515736" lon="3.1874888">
        <ele>13.360000610351563</ele>
        <hdop>5.0</hdop>
        <time>2014-06-04T09:54:48Z</time>
        <extensions>
          <speed>0.8681090474128723</speed>
        </extensions>
      </trkpt>
      <trkpt lat="39.7515703" lon="3.187483">
        <ele>13.360000610351563</ele>
        <hdop>10.0</hdop>
        <time>2014-06-04T09:54:54Z</time>
      </trkpt>
      <trkpt lat="39.7515703" lon="3.187483">
        <ele>13.360000610351563</ele>
        <hdop>10.0</hdop>
        <time>2014-06-04T09:54:59Z</time>
      </trkpt>
      <trkpt lat="39.7514876" lon="3.187453">
        <ele>13.360000610351563</ele>
        <hdop>5.0</hdop>
        <time>2014-06-04T09:55:05Z</time>
        <extensions>
          <speed>0.7232708930969238</speed>
        </extensions>
      </trkpt>
      <trkpt lat="39.7514354" lon="3.187391">
        <ele>13.360000610351563</ele>
        <hdop>5.0</hdop>
        <time>2014-06-04T09:55:10Z</time>
        <extensions>
          <speed>1.1877697706222534</speed>
        </extensions>
      </trkpt>
      <trkpt lat="39.7513813" lon="3.1873357">
        <ele>13.360000610351563</ele>
        <hdop>10.0</hdop>
        <time>2014-06-04T09:55:16Z</time>
        <extensions>
          <speed>1.349040150642395</speed>
        </extensions>
      </trkpt>
      <trkpt lat="39.7513358" lon="3.1872964">
        <ele>13.360000610351563</ele>
        <hdop>10.0</hdop>
        <time>2014-06-04T09:55:22Z</time>
        <extensions>
          <speed>1.358992099761963</speed>
        </extensions>
      </trkpt>
      <trkpt lat="39.7512885" lon="3.1872363">
        <ele>14.360000610351563</ele>
        <hdop>10.0</hdop>
        <time>2014-06-04T09:55:28Z</time>
        <extensions>
          <speed>1.282151222229004</speed>
        </extensions>
      </trkpt>
      <trkpt lat="39.7512431" lon="3.1871971">
        <ele>14.360000610351563</ele>
        <hdop>10.0</hdop>
        <time>2014-06-04T09:55:33Z</time>
        <extensions>
          <speed>1.268638253211975</speed>
        </extensions>
      </trkpt>
      <trkpt lat="39.7511998" lon="3.1871241">
        <ele>14.360000610351563</ele>
        <hdop>10.0</hdop>
        <time>2014-06-04T09:55:39Z</time>
        <extensions>
          <speed>1.1894584894180298</speed>
        </extensions>
      </trkpt>
      <trkpt lat="39.7511698" lon="3.1870748">
        <ele>14.360000610351563</ele>
        <hdop>10.0</hdop>
        <time>2014-06-04T09:55:44Z</time>
        <extensions>
          <speed>1.1359543800354004</speed>
        </extensions>
      </trkpt>
      <trkpt lat="39.7511394" lon="3.1870147">
        <ele>15.360000610351563</ele>
        <hdop>10.0</hdop>
        <time>2014-06-04T09:55:50Z</time>
        <extensions>
          <speed>1.1713720560073853</speed>
        </extensions>
      </trkpt>
      <trkpt lat="39.7511035" lon="3.1869606">
        <ele>15.360000610351563</ele>
        <hdop>5.0</hdop>
        <time>2014-06-04T09:55:55Z</time>
        <extensions>
          <speed>1.2004830837249756</speed>
        </extensions>
      </trkpt>
      <trkpt lat="39.7510552" lon="3.1868961">
        <ele>15.360000610351563</ele>
        <hdop>5.0</hdop>
        <time>2014-06-04T09:56:00Z</time>
        <extensions>
          <speed>1.3270931243896484</speed>
        </extensions>
      </trkpt>
      <trkpt lat="39.7510207" lon="3.1868206">
        <ele>15.360000610351563</ele>
        <hdop>10.0</hdop>
        <time>2014-06-04T09:56:06Z</time>
        <extensions>
          <speed>1.2519400119781494</speed>
        </extensions>
      </trkpt>
      <trkpt lat="39.7510002" lon="3.186754">
        <ele>16.360000610351563</ele>
        <hdop>5.0</hdop>
        <time>2014-06-04T09:56:11Z</time>
        <extensions>
          <speed>1.2510554790496826</speed>
        </extensions>
      </trkpt>
      <trkpt lat="39.7509835" lon="3.1867135">
        <ele>16.360000610351563</ele>
        <hdop>5.0</hdop>
        <time>2014-06-04T09:56:17Z</time>
      </trkpt>
      <trkpt lat="39.7509484" lon="3.1866549">
        <ele>17.360000610351563</ele>
        <hdop>5.0</hdop>
        <time>2014-06-04T09:56:23Z</time>
        <extensions>
          <speed>0.8915808796882629</speed>
        </extensions>
      </trkpt>
      <trkpt lat="39.7509053" lon="3.1866171">
        <ele>17.360000610351563</ele>
        <hdop>10.0</hdop>
        <time>2014-06-04T09:56:28Z</time>
        <extensions>
          <speed>0.9619170427322388</speed>
        </extensions>
      </trkpt>
      <trkpt lat="39.7508542" lon="3.186577">
        <ele>17.360000610351563</ele>
        <hdop>10.0</hdop>
        <time>2014-06-04T09:56:34Z</time>
        <extensions>
          <speed>0.992124617099762</speed>
        </extensions>
      </trkpt>
      <trkpt lat="39.7507968" lon="3.186537">
        <ele>18.360000610351563</ele>
        <hdop>10.0</hdop>
        <time>2014-06-04T09:56:39Z</time>
        <extensions>
          <speed>0.9730013608932495</speed>
        </extensions>
      </trkpt>
      <trkpt lat="39.7507356" lon="3.1864937">
        <ele>18.360000610351563</ele>
        <hdop>5.0</hdop>
        <time>2014-06-04T09:56:45Z</time>
        <extensions>
          <speed>1.008769154548645</speed>
        </extensions>
      </trkpt>
      <trkpt lat="39.7506707" lon="3.1864507">
        <ele>19.360000610351563</ele>
        <hdop>10.0</hdop>
        <time>2014-06-04T09:56:51Z</time>
        <extensions>
          <speed>1.0270609855651855</speed>
        </extensions>
      </trkpt>
      <trkpt lat="39.7506054" lon="3.1864014">
        <ele>19.360000610351563</ele>
        <hdop>10.0</hdop>
        <time>2014-06-04T09:56:57Z</time>
        <extensions>
          <speed>1.1773362159729004</speed>
        </extensions>
      </trkpt>
      <trkpt lat="39.7505556" lon="3.1863777">
        <ele>20.360000610351563</ele>
        <hdop>10.0</hdop>
        <time>2014-06-04T09:57:02Z</time>
        <extensions>
          <speed>1.0587084293365479</speed>
        </extensions>
      </trkpt>
      <trkpt lat="39.7505219" lon="3.1863546">
        <ele>20.360000610351563</ele>
        <hdop>10.0</hdop>
        <time>2014-06-04T09:57:08Z</time>
        <extensions>
          <speed>0.8182070255279541</speed>
        </extensions>
      </trkpt>
      <trkpt lat="39.7504685" lon="3.1863133">
        <ele>20.360000610351563</ele>
        <hdop>10.0</hdop>
        <time>2014-06-04T09:57:13Z</time>
        <extensions>
          <speed>0.8454985618591309</speed>
        </extensions>
      </trkpt>
      <trkpt lat="39.7503899" lon="3.1862467">
        <ele>21.360000610351563</ele>
        <hdop>10.0</hdop>
        <time>2014-06-04T09:57:19Z</time>
        <extensions>
          <speed>0.8702925443649292</speed>
        </extensions>
      </trkpt>
      <trkpt lat="39.7503235" lon="3.1861997">
        <ele>21.360000610351563</ele>
        <hdop>10.0</hdop>
        <time>2014-06-04T09:57:25Z</time>
        <extensions>
          <speed>1.0273983478546143</speed>
        </extensions>
      </trkpt>
      <trkpt lat="39.7502418" lon="3.1861721">
        <ele>21.360000610351563</ele>
        <hdop>10.0</hdop>
        <time>2014-06-04T09:57:31Z</time>
        <extensions>
          <speed>0.9366628527641296</speed>
        </extensions>
      </trkpt>
      <trkpt lat="39.7501746" lon="3.1861437">
        <ele>21.360000610351563</ele>
        <hdop>10.0</hdop>
        <time>2014-06-04T09:57:37Z</time>
        <extensions>
          <speed>0.9640322923660278</speed>
        </extensions>
      </trkpt>
      <trkpt lat="39.7501072" lon="3.1861202">
        <ele>22.360000610351563</ele>
        <hdop>10.0</hdop>
        <time>2014-06-04T09:57:43Z</time>
        <extensions>
          <speed>0.8650725483894348</speed>
        </extensions>
      </trkpt>
      <trkpt lat="39.7500498" lon="3.1860835">
        <ele>22.360000610351563</ele>
        <hdop>10.0</hdop>
        <time>2014-06-04T09:57:49Z</time>
        <extensions>
          <speed>0.9167835712432861</speed>
        </extensions>
      </trkpt>
      <trkpt lat="39.7500049" lon="3.1860528">
        <ele>23.360000610351563</ele>
        <hdop>10.0</hdop>
        <time>2014-06-04T09:57:54Z</time>
        <extensions>
          <speed>0.8663129210472107</speed>
        </extensions>
      </trkpt>
      <trkpt lat="39.7499494" lon="3.1859955">
        <ele>22.580001831054688</ele>
        <hdop>5.0</hdop>
        <time>2014-06-04T09:58:00Z</time>
        <extensions>
          <speed>0.9168683290481567</speed>
        </extensions>
      </trkpt>
      <trkpt lat="39.7498887" lon="3.1859469">
        <ele>22.580001831054688</ele>
        <hdop>5.0</hdop>
        <time>2014-06-04T09:58:06Z</time>
        <extensions>
          <speed>0.9313085675239563</speed>
        </extensions>
      </trkpt>
      <trkpt lat="39.7498239" lon="3.1859151">
        <ele>23.580001831054688</ele>
        <hdop>10.0</hdop>
        <time>2014-06-04T09:58:11Z</time>
        <extensions>
          <speed>0.917611300945282</speed>
        </extensions>
      </trkpt>
      <trkpt lat="39.7497533" lon="3.1858811">
        <ele>23.580001831054688</ele>
        <hdop>5.0</hdop>
        <time>2014-06-04T09:58:16Z</time>
        <extensions>
          <speed>0.9136407971382141</speed>
        </extensions>
      </trkpt>
      <trkpt lat="39.7496809" lon="3.185852">
        <ele>23.580001831054688</ele>
        <hdop>10.0</hdop>
        <time>2014-06-04T09:58:22Z</time>
        <extensions>
          <speed>0.9379052519798279</speed>
        </extensions>
      </trkpt>
      <trkpt lat="39.7496128" lon="3.1858302">
        <ele>23.580001831054688</ele>
        <hdop>10.0</hdop>
        <time>2014-06-04T09:58:27Z</time>
        <extensions>
          <speed>0.9763174057006836</speed>
        </extensions>
      </trkpt>
      <trkpt lat="39.7495623" lon="3.1858138">
        <ele>23.580001831054688</ele>
        <hdop>10.0</hdop>
        <time>2014-06-04T09:58:32Z</time>
      </trkpt>
      <trkpt lat="39.7495623" lon="3.1858138">
        <ele>23.580001831054688</ele>
        <hdop>10.0</hdop>
        <time>2014-06-04T09:58:38Z</time>
      </trkpt>
      <trkpt lat="39.7494621" lon="3.1857896">
        <ele>23.580001831054688</ele>
        <hdop>10.0</hdop>
        <time>2014-06-04T09:58:43Z</time>
        <extensions>
          <speed>0.7795953154563904</speed>
        </extensions>
      </trkpt>
      <trkpt lat="39.7494018" lon="3.1857373">
        <ele>24.580001831054688</ele>
        <hdop>10.0</hdop>
        <time>2014-06-04T09:58:48Z</time>
        <extensions>
          <speed>0.9309456944465637</speed>
        </extensions>
      </trkpt>
      <trkpt lat="39.7493621" lon="3.1856789">
        <ele>24.580001831054688</ele>
        <hdop>10.0</hdop>
        <time>2014-06-04T09:58:54Z</time>
        <extensions>
          <speed>0.9081209301948547</speed>
        </extensions>
      </trkpt>
      <trkpt lat="39.7493327" lon="3.1856485">
        <ele>25.580001831054688</ele>
        <hdop>10.0</hdop>
        <time>2014-06-04T09:58:59Z</time>
        <extensions>
          <speed>0.8628258109092712</speed>
        </extensions>
      </trkpt>
      <trkpt lat="39.749273" lon="3.1856214">
        <ele>25.580001831054688</ele>
        <hdop>10.0</hdop>
        <time>2014-06-04T09:59:04Z</time>
        <extensions>
          <speed>0.8947302103042603</speed>
        </extensions>
      </trkpt>
      <trkpt lat="39.7491772" lon="3.1855854">
        <ele>25.580001831054688</ele>
        <hdop>10.0</hdop>
        <time>2014-06-04T09:59:10Z</time>
        <extensions>
          <speed>0.8765550851821899</speed>
        </extensions>
      </trkpt>
      <trkpt lat="39.7491072" lon="3.1855489">
        <ele>26.580001831054688</ele>
        <hdop>10.0</hdop>
        <time>2014-06-04T09:59:15Z</time>
        <extensions>
          <speed>0.9237962961196899</speed>
        </extensions>
      </trkpt>
      <trkpt lat="39.7490355" lon="3.1855357">
        <ele>26.580001831054688</ele>
        <hdop>10.0</hdop>
        <time>2014-06-04T09:59:21Z</time>
        <extensions>
          <speed>0.9650655388832092</speed>
        </extensions>
      </trkpt>
      <trkpt lat="39.7489652" lon="3.1855519">
        <ele>26.580001831054688</ele>
        <hdop>10.0</hdop>
        <time>2014-06-04T09:59:27Z</time>
        <extensions>
          <speed>1.0025464296340942</speed>
        </extensions>
      </trkpt>
      <trkpt lat="39.7489009" lon="3.1855675">
        <ele>26.580001831054688</ele>
        <hdop>10.0</hdop>
        <time>2014-06-04T09:59:33Z</time>
        <extensions>
          <speed>0.9871101379394531</speed>
        </extensions>
      </trkpt>
      <trkpt lat="39.748843" lon="3.185571">
        <ele>26.580001831054688</ele>
        <hdop>5.0</hdop>
        <time>2014-06-04T09:59:39Z</time>
        <extensions>
          <speed>0.858449399471283</speed>
        </extensions>
      </trkpt>
      <trkpt lat="39.7487885" lon="3.1855609">
        <ele>26.580001831054688</ele>
        <hdop>10.0</hdop>
        <time>2014-06-04T09:59:44Z</time>
        <extensions>
          <speed>0.8652116656303406</speed>
        </extensions>
      </trkpt>
      <trkpt lat="39.7487257" lon="3.185572">
        <ele>27.580001831054688</ele>
        <hdop>10.0</hdop>
        <time>2014-06-04T09:59:50Z</time>
        <extensions>
          <speed>0.9021629691123962</speed>
        </extensions>
      </trkpt>
      <trkpt lat="39.7486617" lon="3.1855807">
        <ele>27.580001831054688</ele>
        <hdop>10.0</hdop>
        <time>2014-06-04T09:59:56Z</time>
        <extensions>
          <speed>0.9811535477638245</speed>
        </extensions>
      </trkpt>
      <trkpt lat="39.7485939" lon="3.1855903">
        <ele>27.580001831054688</ele>
        <hdop>10.0</hdop>
        <time>2014-06-04T10:00:01Z</time>
        <extensions>
          <speed>0.9789978265762329</speed>
        </extensions>
      </trkpt>
      <trkpt lat="39.7484954" lon="3.1855702">
        <ele>27.580001831054688</ele>
        <hdop>5.0</hdop>
        <time>2014-06-04T10:00:07Z</time>
        <extensions>
          <speed>1.0387104749679565</speed>
        </extensions>
      </trkpt>
      <trkpt lat="39.7484359" lon="3.1855707">
        <ele>27.580001831054688</ele>
        <hdop>10.0</hdop>
        <time>2014-06-04T10:00:12Z</time>
        <extensions>
          <speed>1.0928311347961426</speed>
        </extensions>
      </trkpt>
      <trkpt lat="39.7483816" lon="3.18559">
        <ele>27.580001831054688</ele>
        <hdop>5.0</hdop>
        <time>2014-06-04T10:00:17Z</time>
        <extensions>
          <speed>1.1037981510162354</speed>
        </extensions>
      </trkpt>
      <trkpt lat="39.7483244" lon="3.1856198">
        <ele>27.580001831054688</ele>
        <hdop>10.0</hdop>
        <time>2014-06-04T10:00:22Z</time>
        <extensions>
          <speed>1.1113121509552002</speed>
        </extensions>
      </trkpt>
      <trkpt lat="39.7482609" lon="3.1856165">
        <ele>27.580001831054688</ele>
        <hdop>10.0</hdop>
        <time>2014-06-04T10:00:27Z</time>
        <extensions>
          <speed>1.1251603364944458</speed>
        </extensions>
      </trkpt>
      <trkpt lat="39.7481938" lon="3.1856235">
        <ele>27.580001831054688</ele>
        <hdop>10.0</hdop>
        <time>2014-06-04T10:00:33Z</time>
        <extensions>
          <speed>1.1227890253067017</speed>
        </extensions>
      </trkpt>
      <trkpt lat="39.7481303" lon="3.1856418">
        <ele>27.580001831054688</ele>
        <hdop>10.0</hdop>
        <time>2014-06-04T10:00:39Z</time>
        <extensions>
          <speed>1.1014683246612549</speed>
        </extensions>
      </trkpt>
      <trkpt lat="39.7480697" lon="3.1856515">
        <ele>28.580001831054688</ele>
        <hdop>10.0</hdop>
        <time>2014-06-04T10:00:44Z</time>
        <extensions>
          <speed>1.1427961587905884</speed>
        </extensions>
      </trkpt>
      <trkpt lat="39.7480122" lon="3.1856728">
        <ele>28.580001831054688</ele>
        <hdop>10.0</hdop>
        <time>2014-06-04T10:00:49Z</time>
        <extensions>
          <speed>1.1419621706008911</speed>
        </extensions>
      </trkpt>
      <trkpt lat="39.7479194" lon="3.1856913">
        <ele>28.580001831054688</ele>
        <hdop>10.0</hdop>
        <time>2014-06-04T10:00:55Z</time>
        <extensions>
          <speed>1.184982419013977</speed>
        </extensions>
      </trkpt>
      <trkpt lat="39.7478482" lon="3.1856966">
        <ele>28.580001831054688</ele>
        <hdop>10.0</hdop>
        <time>2014-06-04T10:01:00Z</time>
        <extensions>
          <speed>1.30057692527771</speed>
        </extensions>
      </trkpt>
      <trkpt lat="39.747779" lon="3.1857367">
        <ele>28.580001831054688</ele>
        <hdop>10.0</hdop>
        <time>2014-06-04T10:01:06Z</time>
        <extensions>
          <speed>1.2880431413650513</speed>
        </extensions>
      </trkpt>
      <trkpt lat="39.7477282" lon="3.1857662">
        <ele>28.580001831054688</ele>
        <hdop>10.0</hdop>
        <time>2014-06-04T10:01:11Z</time>
        <extensions>
          <speed>1.240481972694397</speed>
        </extensions>
      </trkpt>
      <trkpt lat="39.7476689" lon="3.185787">
        <ele>29.580001831054688</ele>
        <hdop>5.0</hdop>
        <time>2014-06-04T10:01:17Z</time>
        <extensions>
          <speed>1.1590381860733032</speed>
        </extensions>
      </trkpt>
      <trkpt lat="39.7476163" lon="3.1857934">
        <ele>29.580001831054688</ele>
        <hdop>10.0</hdop>
        <time>2014-06-04T10:01:23Z</time>
        <extensions>
          <speed>1.0222420692443848</speed>
        </extensions>
      </trkpt>
      <trkpt lat="39.7475617" lon="3.1857967">
        <ele>29.580001831054688</ele>
        <hdop>10.0</hdop>
        <time>2014-06-04T10:01:29Z</time>
        <extensions>
          <speed>0.9445152878761292</speed>
        </extensions>
      </trkpt>
      <trkpt lat="39.7475059" lon="3.1858086">
        <ele>29.580001831054688</ele>
        <hdop>5.0</hdop>
        <time>2014-06-04T10:01:35Z</time>
        <extensions>
          <speed>0.8919637203216553</speed>
        </extensions>
      </trkpt>
      <trkpt lat="39.7474678" lon="3.1858327">
        <ele>30.580001831054688</ele>
        <hdop>10.0</hdop>
        <time>2014-06-04T10:01:40Z</time>
        <extensions>
          <speed>0.7484971284866333</speed>
        </extensions>
      </trkpt>
      <trkpt lat="39.7474244" lon="3.1858452">
        <ele>30.580001831054688</ele>
        <hdop>10.0</hdop>
        <time>2014-06-04T10:01:45Z</time>
        <extensions>
          <speed>0.7377666234970093</speed>
        </extensions>
      </trkpt>
      <trkpt lat="39.7473817" lon="3.1858217">
        <ele>30.580001831054688</ele>
        <hdop>10.0</hdop>
        <time>2014-06-04T10:01:51Z</time>
        <extensions>
          <speed>0.6741697192192078</speed>
        </extensions>
      </trkpt>
      <trkpt lat="39.7473609" lon="3.1858155">
        <ele>30.580001831054688</ele>
        <hdop>5.0</hdop>
        <time>2014-06-04T10:01:56Z</time>
      </trkpt>
      <trkpt lat="39.7473609" lon="3.1858155">
        <ele>30.580001831054688</ele>
        <hdop>5.0</hdop>
        <time>2014-06-04T10:02:01Z</time>
      </trkpt>
      <trkpt lat="39.7473407" lon="3.1858144">
        <ele>30.580001831054688</ele>
        <hdop>5.0</hdop>
        <time>2014-06-04T10:02:07Z</time>
        <extensions>
          <speed>0.29733461141586304</speed>
        </extensions>
      </trkpt>
      <trkpt lat="39.7472667" lon="3.1857979">
        <ele>30.580001831054688</ele>
        <hdop>10.0</hdop>
        <time>2014-06-04T10:02:13Z</time>
      </trkpt>
      <trkpt lat="39.7472587" lon="3.1858062">
        <ele>30.580001831054688</ele>
        <hdop>10.0</hdop>
        <time>2014-06-04T10:02:18Z</time>
        <extensions>
          <speed>0.3010299503803253</speed>
        </extensions>
      </trkpt>
      <trkpt lat="39.7472457" lon="3.1858232">
        <ele>30.580001831054688</ele>
        <hdop>10.0</hdop>
        <time>2014-06-04T10:02:24Z</time>
        <extensions>
          <speed>0.3052211105823517</speed>
        </extensions>
      </trkpt>
      <trkpt lat="39.7472419" lon="3.1858367">
        <ele>30.580001831054688</ele>
        <hdop>10.0</hdop>
        <time>2014-06-04T10:02:29Z</time>
        <extensions>
          <speed>0.5954925417900085</speed>
        </extensions>
      </trkpt>
      <trkpt lat="39.7472437" lon="3.1858364">
        <ele>30.580001831054688</ele>
        <hdop>10.0</hdop>
        <time>2014-06-04T10:02:35Z</time>
      </trkpt>
      <trkpt lat="39.7472535" lon="3.1858199">
        <ele>30.580001831054688</ele>
        <hdop>10.0</hdop>
        <time>2014-06-04T10:02:41Z</time>
        <extensions>
          <speed>0.3372826874256134</speed>
        </extensions>
      </trkpt>
      <trkpt lat="39.7472586" lon="3.1858211">
        <ele>30.580001831054688</ele>
        <hdop>30.0</hdop>
        <time>2014-06-04T10:02:47Z</time>
      </trkpt>
      <trkpt lat="39.7472586" lon="3.1858211">
        <ele>30.580001831054688</ele>
        <hdop>30.0</hdop>
        <time>2014-06-04T10:02:52Z</time>
      </trkpt>
      <trkpt lat="39.7472593" lon="3.1858265">
        <ele>30.580001831054688</ele>
        <hdop>10.0</hdop>
        <time>2014-06-04T10:02:58Z</time>
      </trkpt>
      <trkpt lat="39.7472634" lon="3.1858314">
        <ele>29.580001831054688</ele>
        <hdop>10.0</hdop>
        <time>2014-06-04T10:03:03Z</time>
        <extensions>
          <speed>0.5486140251159668</speed>
        </extensions>
      </trkpt>
      <trkpt lat="39.7472314" lon="3.1858143">
        <ele>29.580001831054688</ele>
        <hdop>10.0</hdop>
        <time>2014-06-04T10:03:08Z</time>
        <extensions>
          <speed>0.8022176027297974</speed>
        </extensions>
      </trkpt>
      <trkpt lat="39.7471593" lon="3.185792">
        <ele>29.580001831054688</ele>
        <hdop>10.0</hdop>
        <time>2014-06-04T10:03:14Z</time>
        <extensions>
          <speed>0.8886010646820068</speed>
        </extensions>
      </trkpt>
      <trkpt lat="39.7471022" lon="3.1857615">
        <ele>29.580001831054688</ele>
        <hdop>10.0</hdop>
        <time>2014-06-04T10:03:19Z</time>
        <extensions>
          <speed>0.8859285116195679</speed>
        </extensions>
      </trkpt>
      <trkpt lat="39.7470553" lon="3.1857381">
        <ele>29.580001831054688</ele>
        <hdop>10.0</hdop>
        <time>2014-06-04T10:03:24Z</time>
        <extensions>
          <speed>0.8983688950538635</speed>
        </extensions>
      </trkpt>
      <trkpt lat="39.7470112" lon="3.1857065">
        <ele>28.580001831054688</ele>
        <hdop>10.0</hdop>
        <time>2014-06-04T10:03:29Z</time>
        <extensions>
          <speed>0.8924003839492798</speed>
        </extensions>
      </trkpt>
      <trkpt lat="39.7469678" lon="3.1856848">
        <ele>28.580001831054688</ele>
        <hdop>10.0</hdop>
        <time>2014-06-04T10:03:35Z</time>
      </trkpt>
      <trkpt lat="39.7469141" lon="3.1856639">
        <ele>28.580001831054688</ele>
        <hdop>10.0</hdop>
        <time>2014-06-04T10:03:40Z</time>
        <extensions>
          <speed>0.5911765098571777</speed>
        </extensions>
      </trkpt>
      <trkpt lat="39.7468494" lon="3.1855988">
        <ele>29.580001831054688</ele>
        <hdop>10.0</hdop>
        <time>2014-06-04T10:03:45Z</time>
        <extensions>
          <speed>0.9330527782440186</speed>
        </extensions>
      </trkpt>
      <trkpt lat="39.7467958" lon="3.1855584">
        <ele>29.580001831054688</ele>
        <hdop>10.0</hdop>
        <time>2014-06-04T10:03:50Z</time>
        <extensions>
          <speed>0.9561376571655273</speed>
        </extensions>
      </trkpt>
      <trkpt lat="39.7467342" lon="3.1854841">
        <ele>29.580001831054688</ele>
        <hdop>5.0</hdop>
        <time>2014-06-04T10:03:56Z</time>
        <extensions>
          <speed>0.9786885380744934</speed>
        </extensions>
      </trkpt>
      <trkpt lat="39.7466675" lon="3.1854346">
        <ele>29.580001831054688</ele>
        <hdop>10.0</hdop>
        <time>2014-06-04T10:04:02Z</time>
        <extensions>
          <speed>0.9988369941711426</speed>
        </extensions>
      </trkpt>
      <trkpt lat="39.7466253" lon="3.1853988">
        <ele>29.580001831054688</ele>
        <hdop>5.0</hdop>
        <time>2014-06-04T10:04:07Z</time>
        <extensions>
          <speed>0.9882798194885254</speed>
        </extensions>
      </trkpt>
      <trkpt lat="39.7465899" lon="3.1853678">
        <ele>29.580001831054688</ele>
        <hdop>10.0</hdop>
        <time>2014-06-04T10:04:12Z</time>
        <extensions>
          <speed>0.8136183023452759</speed>
        </extensions>
      </trkpt>
      <trkpt lat="39.7465261" lon="3.1853261">
        <ele>29.580001831054688</ele>
        <hdop>10.0</hdop>
        <time>2014-06-04T10:04:18Z</time>
        <extensions>
          <speed>0.8412304520606995</speed>
        </extensions>
      </trkpt>
      <trkpt lat="39.7464635" lon="3.1852872">
        <ele>29.580001831054688</ele>
        <hdop>10.0</hdop>
        <time>2014-06-04T10:04:23Z</time>
        <extensions>
          <speed>0.9682707190513611</speed>
        </extensions>
      </trkpt>
      <trkpt lat="39.7464027" lon="3.1852739">
        <ele>29.580001831054688</ele>
        <hdop>10.0</hdop>
        <time>2014-06-04T10:04:28Z</time>
        <extensions>
          <speed>0.9780930280685425</speed>
        </extensions>
      </trkpt>
      <trkpt lat="39.7463493" lon="3.1852456">
        <ele>29.580001831054688</ele>
        <hdop>10.0</hdop>
        <time>2014-06-04T10:04:34Z</time>
        <extensions>
          <speed>0.9254800081253052</speed>
        </extensions>
      </trkpt>
      <trkpt lat="39.7462909" lon="3.1852205">
        <ele>29.580001831054688</ele>
        <hdop>10.0</hdop>
        <time>2014-06-04T10:04:39Z</time>
        <extensions>
          <speed>0.8641480803489685</speed>
        </extensions>
      </trkpt>
      <trkpt lat="39.7462371" lon="3.1851834">
        <ele>29.580001831054688</ele>
        <hdop>10.0</hdop>
        <time>2014-06-04T10:04:45Z</time>
        <extensions>
          <speed>0.8559730648994446</speed>
        </extensions>
      </trkpt>
      <trkpt lat="39.7461759" lon="3.1851805">
        <ele>29.580001831054688</ele>
        <hdop>10.0</hdop>
        <time>2014-06-04T10:04:50Z</time>
        <extensions>
          <speed>0.8936090469360352</speed>
        </extensions>
      </trkpt>
      <trkpt lat="39.7461135" lon="3.1851792">
        <ele>29.580001831054688</ele>
        <hdop>10.0</hdop>
        <time>2014-06-04T10:04:56Z</time>
        <extensions>
          <speed>0.8881431221961975</speed>
        </extensions>
      </trkpt>
      <trkpt lat="39.746061" lon="3.1851783">
        <ele>29.580001831054688</ele>
        <hdop>10.0</hdop>
        <time>2014-06-04T10:05:01Z</time>
        <extensions>
          <speed>0.9130374789237976</speed>
        </extensions>
      </trkpt>
      <trkpt lat="39.7459822" lon="3.1851614">
        <ele>30.580001831054688</ele>
        <hdop>10.0</hdop>
        <time>2014-06-04T10:05:07Z</time>
        <extensions>
          <speed>1.0899217128753662</speed>
        </extensions>
      </trkpt>
      <trkpt lat="39.7459024" lon="3.1851621">
        <ele>30.580001831054688</ele>
        <hdop>10.0</hdop>
        <time>2014-06-04T10:05:12Z</time>
        <extensions>
          <speed>1.4493879079818726</speed>
        </extensions>
      </trkpt>
      <trkpt lat="39.7457979" lon="3.185162">
        <ele>30.580001831054688</ele>
        <hdop>10.0</hdop>
        <time>2014-06-04T10:05:18Z</time>
        <extensions>
          <speed>1.4521681070327759</speed>
        </extensions>
      </trkpt>
      <trkpt lat="39.7457182" lon="3.1851784">
        <ele>31.580001831054688</ele>
        <hdop>10.0</hdop>
        <time>2014-06-04T10:05:24Z</time>
        <extensions>
          <speed>1.3862192630767822</speed>
        </extensions>
      </trkpt>
      <trkpt lat="39.7456649" lon="3.1852373">
        <ele>31.580001831054688</ele>
        <hdop>10.0</hdop>
        <time>2014-06-04T10:05:30Z</time>
        <extensions>
          <speed>1.2273060083389282</speed>
        </extensions>
      </trkpt>
      <trkpt lat="39.7456067" lon="3.1852901">
        <ele>31.580001831054688</ele>
        <hdop>10.0</hdop>
        <time>2014-06-04T10:05:35Z</time>
        <extensions>
          <speed>1.396644115447998</speed>
        </extensions>
      </trkpt>
      <trkpt lat="39.7455515" lon="3.1853372">
        <ele>31.580001831054688</ele>
        <hdop>10.0</hdop>
        <time>2014-06-04T10:05:41Z</time>
        <extensions>
          <speed>1.3377376794815063</speed>
        </extensions>
      </trkpt>
      <trkpt lat="39.7454515" lon="3.1853435">
        <ele>31.580001831054688</ele>
        <hdop>10.0</hdop>
        <time>2014-06-04T10:05:47Z</time>
        <extensions>
          <speed>1.3771274089813232</speed>
        </extensions>
      </trkpt>
      <trkpt lat="39.7453892" lon="3.1853578">
        <ele>31.580001831054688</ele>
        <hdop>10.0</hdop>
        <time>2014-06-04T10:05:52Z</time>
        <extensions>
          <speed>1.3090869188308716</speed>
        </extensions>
      </trkpt>
      <trkpt lat="39.7453178" lon="3.1853937">
        <ele>32.58000183105469</ele>
        <hdop>10.0</hdop>
        <time>2014-06-04T10:05:58Z</time>
        <extensions>
          <speed>1.330567479133606</speed>
        </extensions>
      </trkpt>
      <trkpt lat="39.7452492" lon="3.1854165">
        <ele>32.58000183105469</ele>
        <hdop>5.0</hdop>
        <time>2014-06-04T10:06:03Z</time>
        <extensions>
          <speed>1.308959722518921</speed>
        </extensions>
      </trkpt>
      <trkpt lat="39.7451768" lon="3.1854486">
        <ele>32.58000183105469</ele>
        <hdop>5.0</hdop>
        <time>2014-06-04T10:06:09Z</time>
        <extensions>
          <speed>1.3089509010314941</speed>
        </extensions>
      </trkpt>
      <trkpt lat="39.7451251" lon="3.1854891">
        <ele>32.58000183105469</ele>
        <hdop>5.0</hdop>
        <time>2014-06-04T10:06:14Z</time>
        <extensions>
          <speed>1.2965030670166016</speed>
        </extensions>
      </trkpt>
      <trkpt lat="39.7450668" lon="3.185548">
        <ele>33.58000183105469</ele>
        <hdop>10.0</hdop>
        <time>2014-06-04T10:06:20Z</time>
        <extensions>
          <speed>1.2994931936264038</speed>
        </extensions>
      </trkpt>
      <trkpt lat="39.745017" lon="3.1855902">
        <ele>33.58000183105469</ele>
        <hdop>5.0</hdop>
        <time>2014-06-04T10:06:25Z</time>
        <extensions>
          <speed>1.3081287145614624</speed>
        </extensions>
      </trkpt>
      <trkpt lat="39.7449446" lon="3.1856265">
        <ele>34.58000183105469</ele>
        <hdop>10.0</hdop>
        <time>2014-06-04T10:06:31Z</time>
        <extensions>
          <speed>1.3155384063720703</speed>
        </extensions>
      </trkpt>
      <trkpt lat="39.7448829" lon="3.1856592">
        <ele>34.58000183105469</ele>
        <hdop>10.0</hdop>
        <time>2014-06-04T10:06:36Z</time>
        <extensions>
          <speed>1.3149374723434448</speed>
        </extensions>
      </trkpt>
      <trkpt lat="39.7448235" lon="3.1857123">
        <ele>34.58000183105469</ele>
        <hdop>10.0</hdop>
        <time>2014-06-04T10:06:42Z</time>
        <extensions>
          <speed>1.3183670043945313</speed>
        </extensions>
      </trkpt>
      <trkpt lat="39.7447675" lon="3.1857618">
        <ele>34.58000183105469</ele>
        <hdop>5.0</hdop>
        <time>2014-06-04T10:06:48Z</time>
        <extensions>
          <speed>1.2925777435302734</speed>
        </extensions>
      </trkpt>
      <trkpt lat="39.7447192" lon="3.1857889">
        <ele>35.58000183105469</ele>
        <hdop>5.0</hdop>
        <time>2014-06-04T10:06:53Z</time>
        <extensions>
          <speed>1.255643367767334</speed>
        </extensions>
      </trkpt>
      <trkpt lat="39.7446509" lon="3.1858207">
        <ele>35.58000183105469</ele>
        <hdop>10.0</hdop>
        <time>2014-06-04T10:06:59Z</time>
        <extensions>
          <speed>1.252643346786499</speed>
        </extensions>
      </trkpt>
      <trkpt lat="39.7445737" lon="3.1858297">
        <ele>35.58000183105469</ele>
        <hdop>5.0</hdop>
        <time>2014-06-04T10:07:05Z</time>
        <extensions>
          <speed>1.2339065074920654</speed>
        </extensions>
      </trkpt>
      <trkpt lat="39.7445087" lon="3.1858369">
        <ele>36.58000183105469</ele>
        <hdop>5.0</hdop>
        <time>2014-06-04T10:07:10Z</time>
        <extensions>
          <speed>1.2514299154281616</speed>
        </extensions>
      </trkpt>
      <trkpt lat="39.7444341" lon="3.1858479">
        <ele>36.58000183105469</ele>
        <hdop>5.0</hdop>
        <time>2014-06-04T10:07:15Z</time>
        <extensions>
          <speed>1.3142802715301514</speed>
        </extensions>
      </trkpt>
      <trkpt lat="39.7443721" lon="3.185882">
        <ele>37.58000183105469</ele>
        <hdop>10.0</hdop>
        <time>2014-06-04T10:07:20Z</time>
        <extensions>
          <speed>1.365041971206665</speed>
        </extensions>
      </trkpt>
      <trkpt lat="39.7443221" lon="3.1859525">
        <ele>37.58000183105469</ele>
        <hdop>10.0</hdop>
        <time>2014-06-04T10:07:26Z</time>
        <extensions>
          <speed>0.9298398494720459</speed>
        </extensions>
      </trkpt>
      <trkpt lat="39.7442938" lon="3.1860024">
        <ele>37.58000183105469</ele>
        <hdop>10.0</hdop>
        <time>2014-06-04T10:07:31Z</time>
        <extensions>
          <speed>1.0846548080444336</speed>
        </extensions>
      </trkpt>
      <trkpt lat="39.7442505" lon="3.1860218">
        <ele>38.58000183105469</ele>
        <hdop>10.0</hdop>
        <time>2014-06-04T10:07:36Z</time>
        <extensions>
          <speed>1.1075574159622192</speed>
        </extensions>
      </trkpt>
      <trkpt lat="39.7441735" lon="3.186019">
        <ele>39.58000183105469</ele>
        <hdop>10.0</hdop>
        <time>2014-06-04T10:07:42Z</time>
        <extensions>
          <speed>1.1257624626159668</speed>
        </extensions>
      </trkpt>
      <trkpt lat="39.7440972" lon="3.1860182">
        <ele>39.58000183105469</ele>
        <hdop>5.0</hdop>
        <time>2014-06-04T10:07:48Z</time>
        <extensions>
          <speed>1.1326981782913208</speed>
        </extensions>
      </trkpt>
      <trkpt lat="39.744043" lon="3.1860381">
        <ele>39.58000183105469</ele>
        <hdop>10.0</hdop>
        <time>2014-06-04T10:07:53Z</time>
        <extensions>
          <speed>1.149814248085022</speed>
        </extensions>
      </trkpt>
      <trkpt lat="39.7439678" lon="3.1861201">
        <ele>40.58000183105469</ele>
        <hdop>5.0</hdop>
        <time>2014-06-04T10:07:59Z</time>
        <extensions>
          <speed>1.5184834003448486</speed>
        </extensions>
      </trkpt>
      <trkpt lat="39.743875" lon="3.1861006">
        <ele>40.58000183105469</ele>
        <hdop>10.0</hdop>
        <time>2014-06-04T10:08:05Z</time>
        <extensions>
          <speed>2.201547622680664</speed>
        </extensions>
      </trkpt>
      <trkpt lat="39.7438137" lon="3.1861056">
        <ele>40.58000183105469</ele>
        <hdop>10.0</hdop>
        <time>2014-06-04T10:08:10Z</time>
        <extensions>
          <speed>1.131323218345642</speed>
        </extensions>
      </trkpt>
      <trkpt lat="39.7437588" lon="3.1861425">
        <ele>41.58000183105469</ele>
        <hdop>10.0</hdop>
        <time>2014-06-04T10:08:16Z</time>
        <extensions>
          <speed>1.2108824253082275</speed>
        </extensions>
      </trkpt>
      <trkpt lat="39.7436914" lon="3.1861633">
        <ele>41.58000183105469</ele>
        <hdop>5.0</hdop>
        <time>2014-06-04T10:08:22Z</time>
        <extensions>
          <speed>1.2091752290725708</speed>
        </extensions>
      </trkpt>
      <trkpt lat="39.7436274" lon="3.1862049">
        <ele>42.58000183105469</ele>
        <hdop>10.0</hdop>
        <time>2014-06-04T10:08:28Z</time>
        <extensions>
          <speed>1.2090295553207397</speed>
        </extensions>
      </trkpt>
      <trkpt lat="39.7435592" lon="3.1862447">
        <ele>42.58000183105469</ele>
        <hdop>5.0</hdop>
        <time>2014-06-04T10:08:34Z</time>
        <extensions>
          <speed>1.2314664125442505</speed>
        </extensions>
      </trkpt>
      <trkpt lat="39.7435031" lon="3.1862758">
        <ele>43.58000183105469</ele>
        <hdop>10.0</hdop>
        <time>2014-06-04T10:08:39Z</time>
        <extensions>
          <speed>1.2395542860031128</speed>
        </extensions>
      </trkpt>
      <trkpt lat="39.7434345" lon="3.1863144">
        <ele>43.58000183105469</ele>
        <hdop>5.0</hdop>
        <time>2014-06-04T10:08:45Z</time>
        <extensions>
          <speed>1.273801565170288</speed>
        </extensions>
      </trkpt>
      <trkpt lat="39.7433557" lon="3.1863548">
        <ele>43.58000183105469</ele>
        <hdop>10.0</hdop>
        <time>2014-06-04T10:08:51Z</time>
        <extensions>
          <speed>1.283828616142273</speed>
        </extensions>
      </trkpt>
      <trkpt lat="39.7432878" lon="3.1863946">
        <ele>44.58000183105469</ele>
        <hdop>10.0</hdop>
        <time>2014-06-04T10:08:57Z</time>
        <extensions>
          <speed>1.2977228164672852</speed>
        </extensions>
      </trkpt>
      <trkpt lat="39.7432239" lon="3.1864396">
        <ele>44.58000183105469</ele>
        <hdop>10.0</hdop>
        <time>2014-06-04T10:09:03Z</time>
        <extensions>
          <speed>1.316763162612915</speed>
        </extensions>
      </trkpt>
      <trkpt lat="39.7431793" lon="3.1864935">
        <ele>44.58000183105469</ele>
        <hdop>5.0</hdop>
        <time>2014-06-04T10:09:08Z</time>
        <extensions>
          <speed>1.320641279220581</speed>
        </extensions>
      </trkpt>
      <trkpt lat="39.7431257" lon="3.1865155">
        <ele>45.58000183105469</ele>
        <hdop>10.0</hdop>
        <time>2014-06-04T10:09:13Z</time>
        <extensions>
          <speed>1.31447434425354</speed>
        </extensions>
      </trkpt>
      <trkpt lat="39.7430841" lon="3.1865377">
        <ele>45.58000183105469</ele>
        <hdop>5.0</hdop>
        <time>2014-06-04T10:09:18Z</time>
        <extensions>
          <speed>1.2854173183441162</speed>
        </extensions>
      </trkpt>
      <trkpt lat="39.7429946" lon="3.1865525">
        <ele>45.58000183105469</ele>
        <hdop>10.0</hdop>
        <time>2014-06-04T10:09:24Z</time>
        <extensions>
          <speed>1.2739548683166504</speed>
        </extensions>
      </trkpt>
      <trkpt lat="39.7429206" lon="3.186586">
        <ele>45.58000183105469</ele>
        <hdop>10.0</hdop>
        <time>2014-06-04T10:09:30Z</time>
        <extensions>
          <speed>1.1898235082626343</speed>
        </extensions>
      </trkpt>
      <trkpt lat="39.7428667" lon="3.1866219">
        <ele>45.58000183105469</ele>
        <hdop>5.0</hdop>
        <time>2014-06-04T10:09:35Z</time>
        <extensions>
          <speed>1.326682686805725</speed>
        </extensions>
      </trkpt>
      <trkpt lat="39.7427902" lon="3.186633">
        <ele>45.58000183105469</ele>
        <hdop>10.0</hdop>
        <time>2014-06-04T10:09:41Z</time>
        <extensions>
          <speed>1.3488185405731201</speed>
        </extensions>
      </trkpt>
      <trkpt lat="39.7427201" lon="3.1866526">
        <ele>46.58000183105469</ele>
        <hdop>5.0</hdop>
        <time>2014-06-04T10:09:47Z</time>
        <extensions>
          <speed>1.3321938514709473</speed>
        </extensions>
      </trkpt>
      <trkpt lat="39.7426651" lon="3.186659">
        <ele>46.58000183105469</ele>
        <hdop>10.0</hdop>
        <time>2014-06-04T10:09:52Z</time>
        <extensions>
          <speed>1.2601144313812256</speed>
        </extensions>
      </trkpt>
      <trkpt lat="39.7426053" lon="3.1866412">
        <ele>46.58000183105469</ele>
        <hdop>5.0</hdop>
        <time>2014-06-04T10:09:58Z</time>
        <extensions>
          <speed>1.0952394008636475</speed>
        </extensions>
      </trkpt>
      <trkpt lat="39.7425453" lon="3.1866105">
        <ele>46.58000183105469</ele>
        <hdop>5.0</hdop>
        <time>2014-06-04T10:10:04Z</time>
        <extensions>
          <speed>1.0242754220962524</speed>
        </extensions>
      </trkpt>
      <trkpt lat="39.7425034" lon="3.1865766">
        <ele>46.58000183105469</ele>
        <hdop>10.0</hdop>
        <time>2014-06-04T10:10:09Z</time>
        <extensions>
          <speed>0.999876856803894</speed>
        </extensions>
      </trkpt>
      <trkpt lat="39.7424528" lon="3.1865459">
        <ele>47.58000183105469</ele>
        <hdop>10.0</hdop>
        <time>2014-06-04T10:10:14Z</time>
        <extensions>
          <speed>1.0138542652130127</speed>
        </extensions>
      </trkpt>
      <trkpt lat="39.7423966" lon="3.1865069">
        <ele>47.58000183105469</ele>
        <hdop>5.0</hdop>
        <time>2014-06-04T10:10:20Z</time>
        <extensions>
          <speed>1.0188193321228027</speed>
        </extensions>
      </trkpt>
      <trkpt lat="39.7423521" lon="3.1864797">
        <ele>47.58000183105469</ele>
        <hdop>10.0</hdop>
        <time>2014-06-04T10:10:25Z</time>
        <extensions>
          <speed>1.0021131038665771</speed>
        </extensions>
      </trkpt>
      <trkpt lat="39.7422916" lon="3.1864468">
        <ele>47.58000183105469</ele>
        <hdop>10.0</hdop>
        <time>2014-06-04T10:10:31Z</time>
        <extensions>
          <speed>0.8414446711540222</speed>
        </extensions>
      </trkpt>
      <trkpt lat="39.7422501" lon="3.1863979">
        <ele>48.58000183105469</ele>
        <hdop>10.0</hdop>
        <time>2014-06-04T10:10:36Z</time>
        <extensions>
          <speed>0.8582308888435364</speed>
        </extensions>
      </trkpt>
      <trkpt lat="39.7422152" lon="3.1863574">
        <ele>48.58000183105469</ele>
        <hdop>10.0</hdop>
        <time>2014-06-04T10:10:41Z</time>
      </trkpt>
      <trkpt lat="39.7421965" lon="3.1863382">
        <ele>48.58000183105469</ele>
        <hdop>10.0</hdop>
        <time>2014-06-04T10:10:47Z</time>
        <extensions>
          <speed>0.4188706874847412</speed>
        </extensions>
      </trkpt>
      <trkpt lat="39.7421108" lon="3.1862711">
        <ele>48.58000183105469</ele>
        <hdop>10.0</hdop>
        <time>2014-06-04T10:10:53Z</time>
        <extensions>
          <speed>0.5619090795516968</speed>
        </extensions>
      </trkpt>
      <trkpt lat="39.7420169" lon="3.1862154">
        <ele>48.58000183105469</ele>
        <hdop>5.0</hdop>
        <time>2014-06-04T10:10:59Z</time>
        <extensions>
          <speed>0.6999878883361816</speed>
        </extensions>
      </trkpt>
      <trkpt lat="39.7419701" lon="3.1861747">
        <ele>47.58000183105469</ele>
        <hdop>10.0</hdop>
        <time>2014-06-04T10:11:04Z</time>
        <extensions>
          <speed>0.8397661447525024</speed>
        </extensions>
      </trkpt>
      <trkpt lat="39.7419046" lon="3.1861222">
        <ele>47.58000183105469</ele>
        <hdop>5.0</hdop>
        <time>2014-06-04T10:11:10Z</time>
        <extensions>
          <speed>0.8764925599098206</speed>
        </extensions>
      </trkpt>
      <trkpt lat="39.7418488" lon="3.1860853">
        <ele>47.58000183105469</ele>
        <hdop>10.0</hdop>
        <time>2014-06-04T10:11:15Z</time>
        <extensions>
          <speed>0.8918697237968445</speed>
        </extensions>
      </trkpt>
      <trkpt lat="39.7417971" lon="3.1860572">
        <ele>47.58000183105469</ele>
        <hdop>5.0</hdop>
        <time>2014-06-04T10:11:20Z</time>
        <extensions>
          <speed>0.8997802734375</speed>
        </extensions>
      </trkpt>
      <trkpt lat="39.7417403" lon="3.186005">
        <ele>47.58000183105469</ele>
        <hdop>10.0</hdop>
        <time>2014-06-04T10:11:26Z</time>
        <extensions>
          <speed>0.9851701259613037</speed>
        </extensions>
      </trkpt>
      <trkpt lat="39.7416713" lon="3.18596">
        <ele>47.58000183105469</ele>
        <hdop>10.0</hdop>
        <time>2014-06-04T10:11:31Z</time>
        <extensions>
          <speed>1.0376136302947998</speed>
        </extensions>
      </trkpt>
      <trkpt lat="39.7415999" lon="3.1859244">
        <ele>47.58000183105469</ele>
        <hdop>10.0</hdop>
        <time>2014-06-04T10:11:37Z</time>
        <extensions>
          <speed>1.0730171203613281</speed>
        </extensions>
      </trkpt>
      <trkpt lat="39.741552" lon="3.1858992">
        <ele>47.58000183105469</ele>
        <hdop>10.0</hdop>
        <time>2014-06-04T10:11:42Z</time>
        <extensions>
          <speed>1.0603423118591309</speed>
        </extensions>
      </trkpt>
      <trkpt lat="39.7414914" lon="3.1858649">
        <ele>48.58000183105469</ele>
        <hdop>10.0</hdop>
        <time>2014-06-04T10:11:48Z</time>
        <extensions>
          <speed>1.1217501163482666</speed>
        </extensions>
      </trkpt>
      <trkpt lat="39.7414368" lon="3.18584">
        <ele>48.58000183105469</ele>
        <hdop>10.0</hdop>
        <time>2014-06-04T10:11:53Z</time>
        <extensions>
          <speed>1.1224538087844849</speed>
        </extensions>
      </trkpt>
      <trkpt lat="39.7413733" lon="3.1858023">
        <ele>48.58000183105469</ele>
        <hdop>10.0</hdop>
        <time>2014-06-04T10:11:59Z</time>
        <extensions>
          <speed>1.1050505638122559</speed>
        </extensions>
      </trkpt>
      <trkpt lat="39.741351" lon="3.1857907">
        <ele>48.58000183105469</ele>
        <hdop>10.0</hdop>
        <time>2014-06-04T10:12:05Z</time>
      </trkpt>
      <trkpt lat="39.7412432" lon="3.1857262">
        <ele>48.58000183105469</ele>
        <hdop>10.0</hdop>
        <time>2014-06-04T10:12:11Z</time>
        <extensions>
          <speed>0.9216298460960388</speed>
        </extensions>
      </trkpt>
      <trkpt lat="39.7411631" lon="3.185657">
        <ele>48.58000183105469</ele>
        <hdop>10.0</hdop>
        <time>2014-06-04T10:12:16Z</time>
        <extensions>
          <speed>1.0650066137313843</speed>
        </extensions>
      </trkpt>
      <trkpt lat="39.7411021" lon="3.1855967">
        <ele>49.58000183105469</ele>
        <hdop>10.0</hdop>
        <time>2014-06-04T10:12:21Z</time>
        <extensions>
          <speed>1.0848625898361206</speed>
        </extensions>
      </trkpt>
      <trkpt lat="39.7410506" lon="3.1855396">
        <ele>49.58000183105469</ele>
        <hdop>10.0</hdop>
        <time>2014-06-04T10:12:27Z</time>
        <extensions>
          <speed>1.1365692615509033</speed>
        </extensions>
      </trkpt>
      <trkpt lat="39.7409768" lon="3.1854856">
        <ele>49.58000183105469</ele>
        <hdop>10.0</hdop>
        <time>2014-06-04T10:12:33Z</time>
        <extensions>
          <speed>1.1317929029464722</speed>
        </extensions>
      </trkpt>
      <trkpt lat="39.7409204" lon="3.1854654">
        <ele>49.58000183105469</ele>
        <hdop>5.0</hdop>
        <time>2014-06-04T10:12:38Z</time>
        <extensions>
          <speed>1.0882081985473633</speed>
        </extensions>
      </trkpt>
      <trkpt lat="39.7408364" lon="3.1854349">
        <ele>48.58000183105469</ele>
        <hdop>5.0</hdop>
        <time>2014-06-04T10:12:44Z</time>
        <extensions>
          <speed>1.0997651815414429</speed>
        </extensions>
      </trkpt>
      <trkpt lat="39.7407744" lon="3.1854192">
        <ele>48.58000183105469</ele>
        <hdop>5.0</hdop>
        <time>2014-06-04T10:12:49Z</time>
        <extensions>
          <speed>1.095257043838501</speed>
        </extensions>
      </trkpt>
      <trkpt lat="39.7407087" lon="3.1854053">
        <ele>48.58000183105469</ele>
        <hdop>10.0</hdop>
        <time>2014-06-04T10:12:55Z</time>
        <extensions>
          <speed>1.0936179161071777</speed>
        </extensions>
      </trkpt>
      <trkpt lat="39.7406331" lon="3.1854369">
        <ele>48.58000183105469</ele>
        <hdop>10.0</hdop>
        <time>2014-06-04T10:13:00Z</time>
        <extensions>
          <speed>1.100270390510559</speed>
        </extensions>
      </trkpt>
      <trkpt lat="39.7405725" lon="3.1854752">
        <ele>48.58000183105469</ele>
        <hdop>10.0</hdop>
        <time>2014-06-04T10:13:06Z</time>
        <extensions>
          <speed>1.0663660764694214</speed>
        </extensions>
      </trkpt>
      <trkpt lat="39.7405313" lon="3.1854624">
        <ele>48.58000183105469</ele>
        <hdop>5.0</hdop>
        <time>2014-06-04T10:13:11Z</time>
        <extensions>
          <speed>1.0291478633880615</speed>
        </extensions>
      </trkpt>
      <trkpt lat="39.7404962" lon="3.185515">
        <ele>48.58000183105469</ele>
        <hdop>10.0</hdop>
        <time>2014-06-04T10:13:17Z</time>
        <extensions>
          <speed>0.9559898972511292</speed>
        </extensions>
      </trkpt>
      <trkpt lat="39.7404605" lon="3.1855403">
        <ele>47.58000183105469</ele>
        <hdop>30.0</hdop>
        <time>2014-06-04T10:13:22Z</time>
        <extensions>
          <speed>0.9922071695327759</speed>
        </extensions>
      </trkpt>
      <trkpt lat="39.740449" lon="3.185516">
        <ele>47.58000183105469</ele>
        <hdop>30.0</hdop>
        <time>2014-06-04T10:13:28Z</time>
        <extensions>
          <speed>1.2522157430648804</speed>
        </extensions>
      </trkpt>
      <trkpt lat="39.7404683" lon="3.1855177">
        <ele>47.58000183105469</ele>
        <hdop>30.0</hdop>
        <time>2014-06-04T10:13:33Z</time>
        <extensions>
          <speed>0.9307641983032227</speed>
        </extensions>
      </trkpt>
      <trkpt lat="39.7405055" lon="3.1854751">
        <ele>47.58000183105469</ele>
        <hdop>30.0</hdop>
        <time>2014-06-04T10:13:38Z</time>
        <extensions>
          <speed>2.0717413425445557</speed>
        </extensions>
      </trkpt>
      <trkpt lat="39.74054" lon="3.1854133">
        <ele>47.58000183105469</ele>
        <hdop>30.0</hdop>
        <time>2014-06-04T10:13:44Z</time>
        <extensions>
          <speed>2.7708094120025635</speed>
        </extensions>
      </trkpt>
      <trkpt lat="39.7404291" lon="3.1854097">
        <ele>47.58000183105469</ele>
        <hdop>30.0</hdop>
        <time>2014-06-04T10:13:50Z</time>
        <extensions>
          <speed>3.097439765930176</speed>
        </extensions>
      </trkpt>
      <trkpt lat="39.7403934" lon="3.1853775">
        <ele>47.58000183105469</ele>
        <hdop>30.0</hdop>
        <time>2014-06-04T10:13:56Z</time>
        <extensions>
          <speed>2.215024709701538</speed>
        </extensions>
      </trkpt>
      <trkpt lat="39.7404408" lon="3.1854361">
        <ele>47.58000183105469</ele>
        <hdop>30.0</hdop>
        <time>2014-06-04T10:14:01Z</time>
        <extensions>
          <speed>1.3768187761306763</speed>
        </extensions>
      </trkpt>
      <trkpt lat="39.7404509" lon="3.1854657">
        <ele>47.58000183105469</ele>
        <hdop>30.0</hdop>
        <time>2014-06-04T10:14:07Z</time>
      </trkpt>
      <trkpt lat="39.7404523" lon="3.1854676">
        <ele>47.58000183105469</ele>
        <hdop>30.0</hdop>
        <time>2014-06-04T10:14:13Z</time>
        <extensions>
          <speed>0.34931814670562744</speed>
        </extensions>
      </trkpt>
      <trkpt lat="39.7404629" lon="3.1855052">
        <ele>47.58000183105469</ele>
        <hdop>30.0</hdop>
        <time>2014-06-04T10:14:18Z</time>
        <extensions>
          <speed>1.108978509902954</speed>
        </extensions>
      </trkpt>
      <trkpt lat="39.7404679" lon="3.1854453">
        <ele>47.58000183105469</ele>
        <hdop>30.0</hdop>
        <time>2014-06-04T10:14:24Z</time>
        <extensions>
          <speed>2.999290704727173</speed>
        </extensions>
      </trkpt>
      <trkpt lat="39.7404283" lon="3.1853595">
        <ele>48.58000183105469</ele>
        <hdop>30.0</hdop>
        <time>2014-06-04T10:14:30Z</time>
        <extensions>
          <speed>2.5755667686462402</speed>
        </extensions>
      </trkpt>
      <trkpt lat="39.740404" lon="3.1854581">
        <ele>48.58000183105469</ele>
        <hdop>30.0</hdop>
        <time>2014-06-04T10:14:35Z</time>
        <extensions>
          <speed>2.4431240558624268</speed>
        </extensions>
      </trkpt>
      <trkpt lat="39.7404134" lon="3.1855745">
        <ele>48.58000183105469</ele>
        <hdop>30.0</hdop>
        <time>2014-06-04T10:14:41Z</time>
        <extensions>
          <speed>1.5976502895355225</speed>
        </extensions>
      </trkpt>
      <trkpt lat="39.7404031" lon="3.1855731">
        <ele>48.58000183105469</ele>
        <hdop>30.0</hdop>
        <time>2014-06-04T10:14:47Z</time>
        <extensions>
          <speed>1.8452168703079224</speed>
        </extensions>
      </trkpt>
      <trkpt lat="39.7403532" lon="3.1856179">
        <ele>48.58000183105469</ele>
        <hdop>30.0</hdop>
        <time>2014-06-04T10:14:53Z</time>
        <extensions>
          <speed>2.603614330291748</speed>
        </extensions>
      </trkpt>
      <trkpt lat="39.7403316" lon="3.1856932">
        <ele>48.58000183105469</ele>
        <hdop>30.0</hdop>
        <time>2014-06-04T10:14:59Z</time>
        <extensions>
          <speed>2.5193958282470703</speed>
        </extensions>
      </trkpt>
      <trkpt lat="39.7403546" lon="3.18578">
        <ele>48.58000183105469</ele>
        <hdop>30.0</hdop>
        <time>2014-06-04T10:15:04Z</time>
        <extensions>
          <speed>2.1874332427978516</speed>
        </extensions>
      </trkpt>
      <trkpt lat="39.7403945" lon="3.1858694">
        <ele>49.58000183105469</ele>
        <hdop>30.0</hdop>
        <time>2014-06-04T10:15:09Z</time>
        <extensions>
          <speed>1.888791799545288</speed>
        </extensions>
      </trkpt>
      <trkpt lat="39.7404035" lon="3.1858996">
        <ele>49.58000183105469</ele>
        <hdop>30.0</hdop>
        <time>2014-06-04T10:15:15Z</time>
      </trkpt>
      <trkpt lat="39.7404034" lon="3.1859022">
        <ele>49.58000183105469</ele>
        <hdop>30.0</hdop>
        <time>2014-06-04T10:15:20Z</time>
        <extensions>
          <speed>0.3270781338214874</speed>
        </extensions>
      </trkpt>
      <trkpt lat="39.7404193" lon="3.1859109">
        <ele>49.58000183105469</ele>
        <hdop>30.0</hdop>
        <time>2014-06-04T10:15:25Z</time>
        <extensions>
          <speed>0.6009330153465271</speed>
        </extensions>
      </trkpt>
      <trkpt lat="39.7404703" lon="3.1859156">
        <ele>49.58000183105469</ele>
        <hdop>30.0</hdop>
        <time>2014-06-04T10:15:31Z</time>
        <extensions>
          <speed>0.3944332003593445</speed>
        </extensions>
      </trkpt>
      <trkpt lat="39.7404978" lon="3.1859303">
        <ele>49.58000183105469</ele>
        <hdop>50.0</hdop>
        <time>2014-06-04T10:15:36Z</time>
        <extensions>
          <speed>0.8645372986793518</speed>
        </extensions>
      </trkpt>
      <trkpt lat="39.7405122" lon="3.1859732">
        <ele>49.58000183105469</ele>
        <hdop>50.0</hdop>
        <time>2014-06-04T10:15:41Z</time>
        <extensions>
          <speed>0.9928104281425476</speed>
        </extensions>
      </trkpt>
      <trkpt lat="39.7405337" lon="3.1859636">
        <ele>49.58000183105469</ele>
        <hdop>30.0</hdop>
        <time>2014-06-04T10:15:47Z</time>
        <extensions>
          <speed>1.0475541353225708</speed>
        </extensions>
      </trkpt>
      <trkpt lat="39.7405429" lon="3.1859428">
        <ele>49.58000183105469</ele>
        <hdop>30.0</hdop>
        <time>2014-06-04T10:15:52Z</time>
        <extensions>
          <speed>1.091780424118042</speed>
        </extensions>
      </trkpt>
      <trkpt lat="39.7405154" lon="3.18591">
        <ele>49.58000183105469</ele>
        <hdop>30.0</hdop>
        <time>2014-06-04T10:15:57Z</time>
        <extensions>
          <speed>1.017830491065979</speed>
        </extensions>
      </trkpt>
      <trkpt lat="39.7404903" lon="3.18592">
        <ele>49.58000183105469</ele>
        <hdop>30.0</hdop>
        <time>2014-06-04T10:16:03Z</time>
        <extensions>
          <speed>1.1309534311294556</speed>
        </extensions>
      </trkpt>
      <trkpt lat="39.7405234" lon="3.1859491">
        <ele>49.58000183105469</ele>
        <hdop>30.0</hdop>
        <time>2014-06-04T10:16:09Z</time>
        <extensions>
          <speed>1.0938187837600708</speed>
        </extensions>
      </trkpt>
      <trkpt lat="39.7405036" lon="3.1859162">
        <ele>49.58000183105469</ele>
        <hdop>30.0</hdop>
        <time>2014-06-04T10:16:14Z</time>
      </trkpt>
      <trkpt lat="39.7405017" lon="3.1859168">
        <ele>48.58000183105469</ele>
        <hdop>30.0</hdop>
        <time>2014-06-04T10:16:20Z</time>
        <extensions>
          <speed>0.2914959192276001</speed>
        </extensions>
      </trkpt>
      <trkpt lat="39.7404998" lon="3.1858983">
        <ele>48.58000183105469</ele>
        <hdop>10.0</hdop>
        <time>2014-06-04T10:16:26Z</time>
      </trkpt>
      <trkpt lat="39.7405061" lon="3.1858763">
        <ele>48.58000183105469</ele>
        <hdop>10.0</hdop>
        <time>2014-06-04T10:16:31Z</time>
        <extensions>
          <speed>0.8191022276878357</speed>
        </extensions>
      </trkpt>
      <trkpt lat="39.7405089" lon="3.1858329">
        <ele>48.58000183105469</ele>
        <hdop>10.0</hdop>
        <time>2014-06-04T10:16:37Z</time>
        <extensions>
          <speed>0.6749937534332275</speed>
        </extensions>
      </trkpt>
      <trkpt lat="39.7404672" lon="3.1858033">
        <ele>47.58000183105469</ele>
        <hdop>10.0</hdop>
        <time>2014-06-04T10:16:43Z</time>
        <extensions>
          <speed>0.9417276382446289</speed>
        </extensions>
      </trkpt>
      <trkpt lat="39.7404648" lon="3.1857798">
        <ele>47.58000183105469</ele>
        <hdop>10.0</hdop>
        <time>2014-06-04T10:16:48Z</time>
        <extensions>
          <speed>0.5198368430137634</speed>
        </extensions>
      </trkpt>
      <trkpt lat="39.7404648" lon="3.1857798">
        <ele>47.58000183105469</ele>
        <hdop>10.0</hdop>
        <time>2014-06-04T10:16:54Z</time>
      </trkpt>
      <trkpt lat="39.74046" lon="3.1857766">
        <ele>47.58000183105469</ele>
        <hdop>10.0</hdop>
        <time>2014-06-04T10:16:59Z</time>
        <extensions>
          <speed>0.6820091009140015</speed>
        </extensions>
      </trkpt>
      <trkpt lat="39.7404736" lon="3.1857648">
        <ele>47.58000183105469</ele>
        <hdop>10.0</hdop>
        <time>2014-06-04T10:17:04Z</time>
        <extensions>
          <speed>0.7240549921989441</speed>
        </extensions>
      </trkpt>
      <trkpt lat="39.7405135" lon="3.1857375">
        <ele>48.58000183105469</ele>
        <hdop>10.0</hdop>
        <time>2014-06-04T10:17:10Z</time>
        <extensions>
          <speed>0.8155390024185181</speed>
        </extensions>
      </trkpt>
      <trkpt lat="39.7405587" lon="3.1856999">
        <ele>48.58000183105469</ele>
        <hdop>30.0</hdop>
        <time>2014-06-04T10:17:15Z</time>
        <extensions>
          <speed>0.9316368103027344</speed>
        </extensions>
      </trkpt>
      <trkpt lat="39.7405988" lon="3.1856232">
        <ele>48.58000183105469</ele>
        <hdop>30.0</hdop>
        <time>2014-06-04T10:17:21Z</time>
        <extensions>
          <speed>1.085476040840149</speed>
        </extensions>
      </trkpt>
      <trkpt lat="39.7406142" lon="3.185563">
        <ele>48.58000183105469</ele>
        <hdop>30.0</hdop>
        <time>2014-06-04T10:17:27Z</time>
        <extensions>
          <speed>1.339616298675537</speed>
        </extensions>
      </trkpt>
      <trkpt lat="39.7405628" lon="3.1854965">
        <ele>48.58000183105469</ele>
        <hdop>30.0</hdop>
        <time>2014-06-04T10:17:32Z</time>
        <extensions>
          <speed>1.513852834701538</speed>
        </extensions>
      </trkpt>
      <trkpt lat="39.7405141" lon="3.1854228">
        <ele>48.58000183105469</ele>
        <hdop>30.0</hdop>
        <time>2014-06-04T10:17:38Z</time>
        <extensions>
          <speed>1.4129997491836548</speed>
        </extensions>
      </trkpt>
      <trkpt lat="39.740479" lon="3.1853602">
        <ele>48.58000183105469</ele>
        <hdop>30.0</hdop>
        <time>2014-06-04T10:17:43Z</time>
        <extensions>
          <speed>1.8119179010391235</speed>
        </extensions>
      </trkpt>
      <trkpt lat="39.7404436" lon="3.1852686">
        <ele>48.58000183105469</ele>
        <hdop>30.0</hdop>
        <time>2014-06-04T10:17:49Z</time>
        <extensions>
          <speed>1.8968989849090576</speed>
        </extensions>
      </trkpt>
      <trkpt lat="39.7404734" lon="3.1853137">
        <ele>48.58000183105469</ele>
        <hdop>30.0</hdop>
        <time>2014-06-04T10:17:54Z</time>
        <extensions>
          <speed>1.0426141023635864</speed>
        </extensions>
      </trkpt>
      <trkpt lat="39.7404927" lon="3.1853999">
        <ele>48.58000183105469</ele>
        <hdop>10.0</hdop>
        <time>2014-06-04T10:17:59Z</time>
      </trkpt>
      <trkpt lat="39.7405423" lon="3.1855216">
        <ele>48.58000183105469</ele>
        <hdop>10.0</hdop>
        <time>2014-06-04T10:18:05Z</time>
        <extensions>
          <speed>0.5009482502937317</speed>
        </extensions>
      </trkpt>
      <trkpt lat="39.7405665" lon="3.1855611">
        <ele>48.58000183105469</ele>
        <hdop>10.0</hdop>
        <time>2014-06-04T10:18:10Z</time>
        <extensions>
          <speed>0.43012169003486633</speed>
        </extensions>
      </trkpt>
      <trkpt lat="39.7405757" lon="3.1856639">
        <ele>48.58000183105469</ele>
        <hdop>10.0</hdop>
        <time>2014-06-04T10:18:16Z</time>
        <extensions>
          <speed>0.8994695544242859</speed>
        </extensions>
      </trkpt>
      <trkpt lat="39.7405541" lon="3.1857177">
        <ele>48.58000183105469</ele>
        <hdop>30.0</hdop>
        <time>2014-06-04T10:18:21Z</time>
        <extensions>
          <speed>0.6627264618873596</speed>
        </extensions>
      </trkpt>
      <trkpt lat="39.7405592" lon="3.1857257">
        <ele>48.58000183105469</ele>
        <hdop>10.0</hdop>
        <time>2014-06-04T10:18:26Z</time>
        <extensions>
          <speed>0.68328458070755</speed>
        </extensions>
      </trkpt>
      <trkpt lat="39.7405961" lon="3.1856597">
        <ele>48.58000183105469</ele>
        <hdop>10.0</hdop>
        <time>2014-06-04T10:18:32Z</time>
      </trkpt>
      <trkpt lat="39.7406056" lon="3.1856214">
        <ele>48.58000183105469</ele>
        <hdop>10.0</hdop>
        <time>2014-06-04T10:18:38Z</time>
        <extensions>
          <speed>0.6540425419807434</speed>
        </extensions>
      </trkpt>
      <trkpt lat="39.7406077" lon="3.1854895">
        <ele>47.58000183105469</ele>
        <hdop>10.0</hdop>
        <time>2014-06-04T10:18:44Z</time>
        <extensions>
          <speed>1.1165893077850342</speed>
        </extensions>
      </trkpt>
      <trkpt lat="39.7406012" lon="3.1853943">
        <ele>47.58000183105469</ele>
        <hdop>5.0</hdop>
        <time>2014-06-04T10:18:49Z</time>
        <extensions>
          <speed>1.1914952993392944</speed>
        </extensions>
      </trkpt>
      <trkpt lat="39.7405506" lon="3.1853097">
        <ele>47.58000183105469</ele>
        <hdop>10.0</hdop>
        <time>2014-06-04T10:18:55Z</time>
        <extensions>
          <speed>1.1601676940917969</speed>
        </extensions>
      </trkpt>
      <trkpt lat="39.7405102" lon="3.1852506">
        <ele>47.58000183105469</ele>
        <hdop>10.0</hdop>
        <time>2014-06-04T10:19:00Z</time>
        <extensions>
          <speed>1.1337590217590332</speed>
        </extensions>
      </trkpt>
      <trkpt lat="39.7404544" lon="3.1851955">
        <ele>47.58000183105469</ele>
        <hdop>10.0</hdop>
        <time>2014-06-04T10:19:06Z</time>
        <extensions>
          <speed>1.1206417083740234</speed>
        </extensions>
      </trkpt>
      <trkpt lat="39.7404174" lon="3.1851595">
        <ele>47.58000183105469</ele>
        <hdop>5.0</hdop>
        <time>2014-06-04T10:19:11Z</time>
        <extensions>
          <speed>0.9598942399024963</speed>
        </extensions>
      </trkpt>
      <trkpt lat="39.7403693" lon="3.1851093">
        <ele>47.58000183105469</ele>
        <hdop>10.0</hdop>
        <time>2014-06-04T10:19:17Z</time>
        <extensions>
          <speed>1.1065740585327148</speed>
        </extensions>
      </trkpt>
      <trkpt lat="39.740321" lon="3.1850719">
        <ele>47.58000183105469</ele>
        <hdop>10.0</hdop>
        <time>2014-06-04T10:19:22Z</time>
        <extensions>
          <speed>1.0643779039382935</speed>
        </extensions>
      </trkpt>
      <trkpt lat="39.7402513" lon="3.1850416">
        <ele>47.58000183105469</ele>
        <hdop>10.0</hdop>
        <time>2014-06-04T10:19:28Z</time>
        <extensions>
          <speed>0.9455214738845825</speed>
        </extensions>
      </trkpt>
      <trkpt lat="39.7402065" lon="3.185011">
        <ele>47.58000183105469</ele>
        <hdop>10.0</hdop>
        <time>2014-06-04T10:19:33Z</time>
        <extensions>
          <speed>0.9359444379806519</speed>
        </extensions>
      </trkpt>
      <trkpt lat="39.7401865" lon="3.1849942">
        <ele>47.58000183105469</ele>
        <hdop>10.0</hdop>
        <time>2014-06-04T10:19:38Z</time>
      </trkpt>
      <trkpt lat="39.7401785" lon="3.1849873">
        <ele>47.58000183105469</ele>
        <hdop>10.0</hdop>
        <time>2014-06-04T10:19:44Z</time>
        <extensions>
          <speed>0.5265193581581116</speed>
        </extensions>
      </trkpt>
      <trkpt lat="39.7401085" lon="3.1849299">
        <ele>47.58000183105469</ele>
        <hdop>10.0</hdop>
        <time>2014-06-04T10:19:49Z</time>
        <extensions>
          <speed>0.8112847208976746</speed>
        </extensions>
      </trkpt>
      <trkpt lat="39.7400207" lon="3.1848639">
        <ele>47.58000183105469</ele>
        <hdop>10.0</hdop>
        <time>2014-06-04T10:19:55Z</time>
        <extensions>
          <speed>0.9187609553337097</speed>
        </extensions>
      </trkpt>
      <trkpt lat="39.7399532" lon="3.184796">
        <ele>47.58000183105469</ele>
        <hdop>10.0</hdop>
        <time>2014-06-04T10:20:00Z</time>
        <extensions>
          <speed>1.1168030500411987</speed>
        </extensions>
      </trkpt>
      <trkpt lat="39.7398811" lon="3.1847311">
        <ele>47.58000183105469</ele>
        <hdop>10.0</hdop>
        <time>2014-06-04T10:20:06Z</time>
        <extensions>
          <speed>1.1200238466262817</speed>
        </extensions>
      </trkpt>
      <trkpt lat="39.7398217" lon="3.1846907">
        <ele>47.58000183105469</ele>
        <hdop>10.0</hdop>
        <time>2014-06-04T10:20:12Z</time>
        <extensions>
          <speed>1.0215338468551636</speed>
        </extensions>
      </trkpt>
      <trkpt lat="39.739729" lon="3.1846342">
        <ele>47.58000183105469</ele>
        <hdop>10.0</hdop>
        <time>2014-06-04T10:20:18Z</time>
        <extensions>
          <speed>1.059262990951538</speed>
        </extensions>
      </trkpt>
      <trkpt lat="39.7396653" lon="3.1845939">
        <ele>47.58000183105469</ele>
        <hdop>10.0</hdop>
        <time>2014-06-04T10:20:23Z</time>
        <extensions>
          <speed>1.0715270042419434</speed>
        </extensions>
      </trkpt>
      <trkpt lat="39.7395999" lon="3.1845461">
        <ele>47.58000183105469</ele>
        <hdop>10.0</hdop>
        <time>2014-06-04T10:20:29Z</time>
        <extensions>
          <speed>1.0884943008422852</speed>
        </extensions>
      </trkpt>
      <trkpt lat="39.7395307" lon="3.1845144">
        <ele>47.58000183105469</ele>
        <hdop>10.0</hdop>
        <time>2014-06-04T10:20:34Z</time>
        <extensions>
          <speed>1.1170639991760254</speed>
        </extensions>
      </trkpt>
      <trkpt lat="39.7394558" lon="3.1844694">
        <ele>47.58000183105469</ele>
        <hdop>10.0</hdop>
        <time>2014-06-04T10:20:40Z</time>
        <extensions>
          <speed>1.0848835706710815</speed>
        </extensions>
      </trkpt>
      <trkpt lat="39.7393921" lon="3.1844329">
        <ele>47.58000183105469</ele>
        <hdop>10.0</hdop>
        <time>2014-06-04T10:20:46Z</time>
        <extensions>
          <speed>1.0766806602478027</speed>
        </extensions>
      </trkpt>
      <trkpt lat="39.739328" lon="3.1844079">
        <ele>47.58000183105469</ele>
        <hdop>10.0</hdop>
        <time>2014-06-04T10:20:52Z</time>
        <extensions>
          <speed>1.0718356370925903</speed>
        </extensions>
      </trkpt>
      <trkpt lat="39.739257" lon="3.1843768">
        <ele>48.58000183105469</ele>
        <hdop>10.0</hdop>
        <time>2014-06-04T10:20:58Z</time>
        <extensions>
          <speed>1.0698570013046265</speed>
        </extensions>
      </trkpt>
      <trkpt lat="39.7392177" lon="3.1843559">
        <ele>48.58000183105469</ele>
        <hdop>5.0</hdop>
        <time>2014-06-04T10:21:03Z</time>
      </trkpt>
      <trkpt lat="39.7392177" lon="3.1843559">
        <ele>48.58000183105469</ele>
        <hdop>10.0</hdop>
        <time>2014-06-04T10:21:09Z</time>
      </trkpt>
      <trkpt lat="39.7391244" lon="3.1843294">
        <ele>48.58000183105469</ele>
        <hdop>10.0</hdop>
        <time>2014-06-04T10:21:14Z</time>
        <extensions>
          <speed>0.37513619661331177</speed>
        </extensions>
      </trkpt>
      <trkpt lat="39.7391047" lon="3.1843175">
        <ele>48.58000183105469</ele>
        <hdop>10.0</hdop>
        <time>2014-06-04T10:21:20Z</time>
      </trkpt>
      <trkpt lat="39.7391047" lon="3.1843175">
        <ele>48.58000183105469</ele>
        <hdop>10.0</hdop>
        <time>2014-06-04T10:21:26Z</time>
      </trkpt>
      <trkpt lat="39.7391047" lon="3.1843175">
        <ele>48.58000183105469</ele>
        <hdop>10.0</hdop>
        <time>2014-06-04T10:21:32Z</time>
      </trkpt>
      <trkpt lat="39.7389431" lon="3.1842309">
        <ele>48.58000183105469</ele>
        <hdop>10.0</hdop>
        <time>2014-06-04T10:21:38Z</time>
        <extensions>
          <speed>0.7848891019821167</speed>
        </extensions>
      </trkpt>
      <trkpt lat="39.7387995" lon="3.1841393">
        <ele>48.58000183105469</ele>
        <hdop>10.0</hdop>
        <time>2014-06-04T10:21:44Z</time>
        <extensions>
          <speed>0.9823902249336243</speed>
        </extensions>
      </trkpt>
      <trkpt lat="39.738705" lon="3.1840752">
        <ele>48.58000183105469</ele>
        <hdop>10.0</hdop>
        <time>2014-06-04T10:21:49Z</time>
        <extensions>
          <speed>1.027646541595459</speed>
        </extensions>
      </trkpt>
      <trkpt lat="39.7386225" lon="3.1840342">
        <ele>49.58000183105469</ele>
        <hdop>10.0</hdop>
        <time>2014-06-04T10:21:55Z</time>
        <extensions>
          <speed>1.0080195665359497</speed>
        </extensions>
      </trkpt>
      <trkpt lat="39.7385513" lon="3.183996">
        <ele>49.58000183105469</ele>
        <hdop>10.0</hdop>
        <time>2014-06-04T10:22:00Z</time>
        <extensions>
          <speed>1.077391266822815</speed>
        </extensions>
      </trkpt>
      <trkpt lat="39.7384615" lon="3.1839478">
        <ele>49.58000183105469</ele>
        <hdop>10.0</hdop>
        <time>2014-06-04T10:22:06Z</time>
        <extensions>
          <speed>1.0724164247512817</speed>
        </extensions>
      </trkpt>
      <trkpt lat="39.7383787" lon="3.1839068">
        <ele>49.58000183105469</ele>
        <hdop>10.0</hdop>
        <time>2014-06-04T10:22:11Z</time>
        <extensions>
          <speed>1.1032559871673584</speed>
        </extensions>
      </trkpt>
      <trkpt lat="39.7382768" lon="3.1838642">
        <ele>49.58000183105469</ele>
        <hdop>10.0</hdop>
        <time>2014-06-04T10:22:17Z</time>
        <extensions>
          <speed>1.135431170463562</speed>
        </extensions>
      </trkpt>
      <trkpt lat="39.7381844" lon="3.1838393">
        <ele>49.58000183105469</ele>
        <hdop>10.0</hdop>
        <time>2014-06-04T10:22:23Z</time>
        <extensions>
          <speed>1.1569724082946777</speed>
        </extensions>
      </trkpt>
      <trkpt lat="39.7380941" lon="3.183815">
        <ele>49.58000183105469</ele>
        <hdop>10.0</hdop>
        <time>2014-06-04T10:22:28Z</time>
        <extensions>
          <speed>1.1350359916687012</speed>
        </extensions>
      </trkpt>
      <trkpt lat="39.7380256" lon="3.1837731">
        <ele>49.58000183105469</ele>
        <hdop>10.0</hdop>
        <time>2014-06-04T10:22:34Z</time>
        <extensions>
          <speed>1.1637290716171265</speed>
        </extensions>
      </trkpt>
      <trkpt lat="39.7379727" lon="3.183744">
        <ele>49.58000183105469</ele>
        <hdop>5.0</hdop>
        <time>2014-06-04T10:22:39Z</time>
        <extensions>
          <speed>1.1642829179763794</speed>
        </extensions>
      </trkpt>
      <trkpt lat="39.7379242" lon="3.1837057">
        <ele>49.58000183105469</ele>
        <hdop>10.0</hdop>
        <time>2014-06-04T10:22:45Z</time>
        <extensions>
          <speed>1.0630611181259155</speed>
        </extensions>
      </trkpt>
      <trkpt lat="39.7378743" lon="3.1836536">
        <ele>49.58000183105469</ele>
        <hdop>5.0</hdop>
        <time>2014-06-04T10:22:51Z</time>
        <extensions>
          <speed>1.038187026977539</speed>
        </extensions>
      </trkpt>
      <trkpt lat="39.7378298" lon="3.1836116">
        <ele>49.58000183105469</ele>
        <hdop>10.0</hdop>
        <time>2014-06-04T10:22:57Z</time>
        <extensions>
          <speed>0.9934151768684387</speed>
        </extensions>
      </trkpt>
      <trkpt lat="39.7377909" lon="3.1835354">
        <ele>49.58000183105469</ele>
        <hdop>10.0</hdop>
        <time>2014-06-04T10:23:03Z</time>
        <extensions>
          <speed>1.1028382778167725</speed>
        </extensions>
      </trkpt>
      <trkpt lat="39.7377632" lon="3.1834565">
        <ele>49.58000183105469</ele>
        <hdop>10.0</hdop>
        <time>2014-06-04T10:23:09Z</time>
        <extensions>
          <speed>1.282366156578064</speed>
        </extensions>
      </trkpt>
      <trkpt lat="39.7377761" lon="3.1833951">
        <ele>49.58000183105469</ele>
        <hdop>5.0</hdop>
        <time>2014-06-04T10:23:14Z</time>
        <extensions>
          <speed>1.3608347177505493</speed>
        </extensions>
      </trkpt>
      <trkpt lat="39.7377601" lon="3.1833179">
        <ele>49.58000183105469</ele>
        <hdop>10.0</hdop>
        <time>2014-06-04T10:23:19Z</time>
        <extensions>
          <speed>1.3764169216156006</speed>
        </extensions>
      </trkpt>
      <trkpt lat="39.7377271" lon="3.1832203">
        <ele>49.58000183105469</ele>
        <hdop>10.0</hdop>
        <time>2014-06-04T10:23:25Z</time>
        <extensions>
          <speed>1.3367011547088623</speed>
        </extensions>
      </trkpt>
      <trkpt lat="39.7376966" lon="3.1831424">
        <ele>49.58000183105469</ele>
        <hdop>10.0</hdop>
        <time>2014-06-04T10:23:30Z</time>
        <extensions>
          <speed>1.3631078004837036</speed>
        </extensions>
      </trkpt>
      <trkpt lat="39.7376754" lon="3.1830539">
        <ele>49.58000183105469</ele>
        <hdop>10.0</hdop>
        <time>2014-06-04T10:23:35Z</time>
        <extensions>
          <speed>1.375773549079895</speed>
        </extensions>
      </trkpt>
      <trkpt lat="39.7376434" lon="3.1829472">
        <ele>49.58000183105469</ele>
        <hdop>10.0</hdop>
        <time>2014-06-04T10:23:41Z</time>
        <extensions>
          <speed>1.3935834169387817</speed>
        </extensions>
      </trkpt>
      <trkpt lat="39.7376053" lon="3.1828434">
        <ele>49.58000183105469</ele>
        <hdop>10.0</hdop>
        <time>2014-06-04T10:23:47Z</time>
        <extensions>
          <speed>1.424884557723999</speed>
        </extensions>
      </trkpt>
      <trkpt lat="39.7375434" lon="3.1827603">
        <ele>49.58000183105469</ele>
        <hdop>10.0</hdop>
        <time>2014-06-04T10:23:53Z</time>
        <extensions>
          <speed>1.354910969734192</speed>
        </extensions>
      </trkpt>
      <trkpt lat="39.7375019" lon="3.1826883">
        <ele>49.58000183105469</ele>
        <hdop>10.0</hdop>
        <time>2014-06-04T10:23:58Z</time>
        <extensions>
          <speed>1.3487905263900757</speed>
        </extensions>
      </trkpt>
      <trkpt lat="39.7374677" lon="3.1826211">
        <ele>49.58000183105469</ele>
        <hdop>10.0</hdop>
        <time>2014-06-04T10:24:03Z</time>
        <extensions>
          <speed>1.3472691774368286</speed>
        </extensions>
      </trkpt>
      <trkpt lat="39.737438" lon="3.1825492">
        <ele>49.58000183105469</ele>
        <hdop>5.0</hdop>
        <time>2014-06-04T10:24:09Z</time>
        <extensions>
          <speed>1.3124593496322632</speed>
        </extensions>
      </trkpt>
      <trkpt lat="39.7374147" lon="3.1824823">
        <ele>49.58000183105469</ele>
        <hdop>10.0</hdop>
        <time>2014-06-04T10:24:14Z</time>
        <extensions>
          <speed>1.3115860223770142</speed>
        </extensions>
      </trkpt>
      <trkpt lat="39.7373899" lon="3.1824">
        <ele>48.58000183105469</ele>
        <hdop>10.0</hdop>
        <time>2014-06-04T10:24:20Z</time>
        <extensions>
          <speed>1.2997113466262817</speed>
        </extensions>
      </trkpt>
      <trkpt lat="39.737372" lon="3.1823587">
        <ele>48.58000183105469</ele>
        <hdop>5.0</hdop>
        <time>2014-06-04T10:24:26Z</time>
        <extensions>
          <speed>0.8436533212661743</speed>
        </extensions>
      </trkpt>
      <trkpt lat="39.7373721" lon="3.1823587">
        <ele>48.58000183105469</ele>
        <hdop>10.0</hdop>
        <time>2014-06-04T10:24:31Z</time>
      </trkpt>
      <trkpt lat="39.7373721" lon="3.1823587">
        <ele>48.58000183105469</ele>
        <hdop>5.0</hdop>
        <time>2014-06-04T10:24:36Z</time>
      </trkpt>
      <trkpt lat="39.7373721" lon="3.1823587">
        <ele>48.58000183105469</ele>
        <hdop>5.0</hdop>
        <time>2014-06-04T10:24:42Z</time>
      </trkpt>
      <trkpt lat="39.7373721" lon="3.1823587">
        <ele>48.58000183105469</ele>
        <hdop>5.0</hdop>
        <time>2014-06-04T10:24:47Z</time>
      </trkpt>
      <trkpt lat="39.7373721" lon="3.1823587">
        <ele>48.58000183105469</ele>
        <hdop>5.0</hdop>
        <time>2014-06-04T10:24:53Z</time>
      </trkpt>
      <trkpt lat="39.7373517" lon="3.1823439">
        <ele>48.58000183105469</ele>
        <hdop>10.0</hdop>
        <time>2014-06-04T10:24:58Z</time>
        <extensions>
          <speed>1.4575879573822021</speed>
        </extensions>
      </trkpt>
      <trkpt lat="39.7372863" lon="3.1823073">
        <ele>48.58000183105469</ele>
        <hdop>10.0</hdop>
        <time>2014-06-04T10:25:04Z</time>
        <extensions>
          <speed>0.8882009983062744</speed>
        </extensions>
      </trkpt>
      <trkpt lat="39.7372351" lon="3.182299">
        <ele>48.58000183105469</ele>
        <hdop>10.0</hdop>
        <time>2014-06-04T10:25:09Z</time>
      </trkpt>
      <trkpt lat="39.7372001" lon="3.1823082">
        <ele>48.58000183105469</ele>
        <hdop>10.0</hdop>
        <time>2014-06-04T10:25:15Z</time>
        <extensions>
          <speed>0.7038937211036682</speed>
        </extensions>
      </trkpt>
      <trkpt lat="39.7371633" lon="3.1823424">
        <ele>48.58000183105469</ele>
        <hdop>10.0</hdop>
        <time>2014-06-04T10:25:20Z</time>
        <extensions>
          <speed>0.905714750289917</speed>
        </extensions>
      </trkpt>
      <trkpt lat="39.7371132" lon="3.1823357">
        <ele>48.58000183105469</ele>
        <hdop>10.0</hdop>
        <time>2014-06-04T10:25:26Z</time>
        <extensions>
          <speed>0.9557851552963257</speed>
        </extensions>
      </trkpt>
      <trkpt lat="39.737072" lon="3.1823166">
        <ele>48.58000183105469</ele>
        <hdop>10.0</hdop>
        <time>2014-06-04T10:25:31Z</time>
        <extensions>
          <speed>0.9229400157928467</speed>
        </extensions>
      </trkpt>
      <trkpt lat="39.7370224" lon="3.1823002">
        <ele>48.58000183105469</ele>
        <hdop>10.0</hdop>
        <time>2014-06-04T10:25:37Z</time>
        <extensions>
          <speed>0.9215834140777588</speed>
        </extensions>
      </trkpt>
      <trkpt lat="39.7369848" lon="3.1822937">
        <ele>48.58000183105469</ele>
        <hdop>10.0</hdop>
        <time>2014-06-04T10:25:42Z</time>
        <extensions>
          <speed>0.9092301726341248</speed>
        </extensions>
      </trkpt>
      <trkpt lat="39.7369605" lon="3.1822974">
        <ele>48.58000183105469</ele>
        <hdop>10.0</hdop>
        <time>2014-06-04T10:25:47Z</time>
        <extensions>
          <speed>0.4787050187587738</speed>
        </extensions>
      </trkpt>
      <trkpt lat="39.7369605" lon="3.1822974">
        <ele>48.58000183105469</ele>
        <hdop>10.0</hdop>
        <time>2014-06-04T10:25:52Z</time>
      </trkpt>
      <trkpt lat="39.7369478" lon="3.1822746">
        <ele>48.58000183105469</ele>
        <hdop>30.0</hdop>
        <time>2014-06-04T10:25:58Z</time>
      </trkpt>
      <trkpt lat="39.7369435" lon="3.1822822">
        <ele>48.58000183105469</ele>
        <hdop>10.0</hdop>
        <time>2014-06-04T10:26:03Z</time>
        <extensions>
          <speed>1.1777104139328003</speed>
        </extensions>
      </trkpt>
      <trkpt lat="39.7369548" lon="3.1823297">
        <ele>48.58000183105469</ele>
        <hdop>30.0</hdop>
        <time>2014-06-04T10:26:09Z</time>
        <extensions>
          <speed>1.0596317052841187</speed>
        </extensions>
      </trkpt>
      <trkpt lat="39.7369539" lon="3.1823423">
        <ele>48.58000183105469</ele>
        <hdop>30.0</hdop>
        <time>2014-06-04T10:26:15Z</time>
        <extensions>
          <speed>1.0596317052841187</speed>
        </extensions>
      </trkpt>
      <trkpt lat="39.7369539" lon="3.1823423">
        <ele>48.58000183105469</ele>
        <hdop>30.0</hdop>
        <time>2014-06-04T10:26:20Z</time>
        <extensions>
          <speed>1.0596317052841187</speed>
        </extensions>
      </trkpt>
      <trkpt lat="39.7369539" lon="3.1823423">
        <ele>48.58000183105469</ele>
        <hdop>50.0</hdop>
        <time>2014-06-04T10:26:26Z</time>
        <extensions>
          <speed>1.0596317052841187</speed>
        </extensions>
      </trkpt>
      <trkpt lat="39.7367773" lon="3.1826549">
        <ele>48.58000183105469</ele>
        <hdop>30.0</hdop>
        <time>2014-06-04T10:26:35Z</time>
      </trkpt>
      <trkpt lat="39.7367827" lon="3.1825799">
        <ele>49.58000183105469</ele>
        <hdop>30.0</hdop>
        <time>2014-06-04T10:26:40Z</time>
      </trkpt>
      <trkpt lat="39.7367849" lon="3.182565">
        <ele>49.58000183105469</ele>
        <hdop>10.0</hdop>
        <time>2014-06-04T10:26:45Z</time>
      </trkpt>
      <trkpt lat="39.7367849" lon="3.182565">
        <ele>49.58000183105469</ele>
        <hdop>10.0</hdop>
        <time>2014-06-04T10:26:51Z</time>
      </trkpt>
      <trkpt lat="39.7367849" lon="3.182565">
        <ele>49.58000183105469</ele>
        <hdop>10.0</hdop>
        <time>2014-06-04T10:26:56Z</time>
      </trkpt>
      <trkpt lat="39.7367849" lon="3.182565">
        <ele>49.58000183105469</ele>
        <hdop>30.0</hdop>
        <time>2014-06-04T10:27:02Z</time>
      </trkpt>
      <trkpt lat="39.7367878" lon="3.1825181">
        <ele>49.58000183105469</ele>
        <hdop>30.0</hdop>
        <time>2014-06-04T10:27:07Z</time>
        <extensions>
          <speed>0.305846631526947</speed>
        </extensions>
      </trkpt>
      <trkpt lat="39.7367878" lon="3.1825178">
        <ele>49.58000183105469</ele>
        <hdop>30.0</hdop>
        <time>2014-06-04T10:27:12Z</time>
      </trkpt>
      <trkpt lat="39.7367933" lon="3.1823705">
        <ele>49.58000183105469</ele>
        <hdop>30.0</hdop>
        <time>2014-06-04T10:27:18Z</time>
        <extensions>
          <speed>0.762621283531189</speed>
        </extensions>
      </trkpt>
      <trkpt lat="39.7367848" lon="3.182298">
        <ele>48.58000183105469</ele>
        <hdop>30.0</hdop>
        <time>2014-06-04T10:27:23Z</time>
        <extensions>
          <speed>1.616926670074463</speed>
        </extensions>
      </trkpt>
      <trkpt lat="39.7367534" lon="3.1822866">
        <ele>48.58000183105469</ele>
        <hdop>30.0</hdop>
        <time>2014-06-04T10:27:28Z</time>
        <extensions>
          <speed>1.3717135190963745</speed>
        </extensions>
      </trkpt>
      <trkpt lat="39.7367111" lon="3.1822842">
        <ele>48.58000183105469</ele>
        <hdop>30.0</hdop>
        <time>2014-06-04T10:27:34Z</time>
        <extensions>
          <speed>1.1656947135925293</speed>
        </extensions>
      </trkpt>
      <trkpt lat="39.7367054" lon="3.1823034">
        <ele>48.58000183105469</ele>
        <hdop>30.0</hdop>
        <time>2014-06-04T10:27:40Z</time>
        <extensions>
          <speed>0.8551726341247559</speed>
        </extensions>
      </trkpt>
      <trkpt lat="39.7367141" lon="3.1823174">
        <ele>48.58000183105469</ele>
        <hdop>30.0</hdop>
        <time>2014-06-04T10:27:46Z</time>
        <extensions>
          <speed>0.4192564785480499</speed>
        </extensions>
      </trkpt>
      <trkpt lat="39.7368018" lon="3.182352">
        <ele>48.58000183105469</ele>
        <hdop>10.0</hdop>
        <time>2014-06-04T10:27:51Z</time>
        <extensions>
          <speed>0.6455212235450745</speed>
        </extensions>
      </trkpt>
      <trkpt lat="39.7369882" lon="3.1823169">
        <ele>48.58000183105469</ele>
        <hdop>5.0</hdop>
        <time>2014-06-04T10:27:57Z</time>
        <extensions>
          <speed>1.0099952220916748</speed>
        </extensions>
      </trkpt>
      <trkpt lat="39.7370866" lon="3.1822962">
        <ele>48.58000183105469</ele>
        <hdop>5.0</hdop>
        <time>2014-06-04T10:28:03Z</time>
        <extensions>
          <speed>1.000204086303711</speed>
        </extensions>
      </trkpt>
      <trkpt lat="39.7371192" lon="3.1822723">
        <ele>48.58000183105469</ele>
        <hdop>10.0</hdop>
        <time>2014-06-04T10:28:09Z</time>
      </trkpt>
      <trkpt lat="39.7371207" lon="3.1822623">
        <ele>48.58000183105469</ele>
        <hdop>5.0</hdop>
        <time>2014-06-04T10:28:14Z</time>
        <extensions>
          <speed>0.43628978729248047</speed>
        </extensions>
      </trkpt>
      <trkpt lat="39.7371235" lon="3.1821818">
        <ele>48.58000183105469</ele>
        <hdop>10.0</hdop>
        <time>2014-06-04T10:28:19Z</time>
      </trkpt>
      <trkpt lat="39.7371235" lon="3.1821818">
        <ele>48.58000183105469</ele>
        <hdop>10.0</hdop>
        <time>2014-06-04T10:28:25Z</time>
      </trkpt>
      <trkpt lat="39.737113" lon="3.1820609">
        <ele>48.58000183105469</ele>
        <hdop>5.0</hdop>
        <time>2014-06-04T10:28:31Z</time>
        <extensions>
          <speed>0.9260398745536804</speed>
        </extensions>
      </trkpt>
      <trkpt lat="39.7371311" lon="3.1819986">
        <ele>48.58000183105469</ele>
        <hdop>5.0</hdop>
        <time>2014-06-04T10:28:37Z</time>
        <extensions>
          <speed>1.0420056581497192</speed>
        </extensions>
      </trkpt>
      <trkpt lat="39.7371353" lon="3.1819679">
        <ele>48.58000183105469</ele>
        <hdop>5.0</hdop>
        <time>2014-06-04T10:28:43Z</time>
      </trkpt>
      <trkpt lat="39.7371227" lon="3.1819223">
        <ele>48.58000183105469</ele>
        <hdop>5.0</hdop>
        <time>2014-06-04T10:28:48Z</time>
        <extensions>
          <speed>0.834652304649353</speed>
        </extensions>
      </trkpt>
      <trkpt lat="39.7370975" lon="3.1818727">
        <ele>47.58000183105469</ele>
        <hdop>10.0</hdop>
        <time>2014-06-04T10:28:53Z</time>
        <extensions>
          <speed>0.9365841150283813</speed>
        </extensions>
      </trkpt>
      <trkpt lat="39.7370511" lon="3.181833">
        <ele>47.58000183105469</ele>
        <hdop>5.0</hdop>
        <time>2014-06-04T10:28:59Z</time>
        <extensions>
          <speed>0.903897225856781</speed>
        </extensions>
      </trkpt>
      <trkpt lat="39.7370077" lon="3.1817982">
        <ele>47.58000183105469</ele>
        <hdop>5.0</hdop>
        <time>2014-06-04T10:29:04Z</time>
        <extensions>
          <speed>0.9396061301231384</speed>
        </extensions>
      </trkpt>
      <trkpt lat="39.7370008" lon="3.1817882">
        <ele>47.58000183105469</ele>
        <hdop>5.0</hdop>
        <time>2014-06-04T10:29:10Z</time>
      </trkpt>
      <trkpt lat="39.7369882" lon="3.1818209">
        <ele>47.58000183105469</ele>
        <hdop>5.0</hdop>
        <time>2014-06-04T10:29:16Z</time>
        <extensions>
          <speed>0.5644502639770508</speed>
        </extensions>
      </trkpt>
      <trkpt lat="39.7370282" lon="3.1818639">
        <ele>47.58000183105469</ele>
        <hdop>5.0</hdop>
        <time>2014-06-04T10:29:22Z</time>
        <extensions>
          <speed>0.7641270160675049</speed>
        </extensions>
      </trkpt>
      <trkpt lat="39.7370405" lon="3.1819106">
        <ele>47.58000183105469</ele>
        <hdop>10.0</hdop>
        <time>2014-06-04T10:29:27Z</time>
        <extensions>
          <speed>0.7960472106933594</speed>
        </extensions>
      </trkpt>
      <trkpt lat="39.7370653" lon="3.1819649">
        <ele>46.58000183105469</ele>
        <hdop>5.0</hdop>
        <time>2014-06-04T10:29:33Z</time>
        <extensions>
          <speed>0.782346785068512</speed>
        </extensions>
      </trkpt>
      <trkpt lat="39.737069" lon="3.1819732">
        <ele>46.58000183105469</ele>
        <hdop>5.0</hdop>
        <time>2014-06-04T10:29:38Z</time>
      </trkpt>
      <trkpt lat="39.7371032" lon="3.1820129">
        <ele>46.58000183105469</ele>
        <hdop>10.0</hdop>
        <time>2014-06-04T10:29:44Z</time>
        <extensions>
          <speed>0.9499437808990479</speed>
        </extensions>
      </trkpt>
      <trkpt lat="39.7371794" lon="3.1820571">
        <ele>46.58000183105469</ele>
        <hdop>10.0</hdop>
        <time>2014-06-04T10:29:50Z</time>
        <extensions>
          <speed>0.9972209930419922</speed>
        </extensions>
      </trkpt>
      <trkpt lat="39.7372327" lon="3.1820724">
        <ele>46.58000183105469</ele>
        <hdop>10.0</hdop>
        <time>2014-06-04T10:29:55Z</time>
        <extensions>
          <speed>1.0301945209503174</speed>
        </extensions>
      </trkpt>
      <trkpt lat="39.7372601" lon="3.1820681">
        <ele>46.58000183105469</ele>
        <hdop>30.0</hdop>
        <time>2014-06-04T10:30:00Z</time>
        <extensions>
          <speed>0.6875588893890381</speed>
        </extensions>
      </trkpt>
      <trkpt lat="39.737272" lon="3.1820657">
        <ele>46.58000183105469</ele>
        <hdop>30.0</hdop>
        <time>2014-06-04T10:30:06Z</time>
        <extensions>
          <speed>0.832783579826355</speed>
        </extensions>
      </trkpt>
      <trkpt lat="39.7372982" lon="3.181996">
        <ele>45.58000183105469</ele>
        <hdop>10.0</hdop>
        <time>2014-06-04T10:30:12Z</time>
        <extensions>
          <speed>0.630223274230957</speed>
        </extensions>
      </trkpt>
      <trkpt lat="39.7373024" lon="3.1819843">
        <ele>45.58000183105469</ele>
        <hdop>10.0</hdop>
        <time>2014-06-04T10:30:17Z</time>
        <extensions>
          <speed>0.4800986051559448</speed>
        </extensions>
      </trkpt>
      <trkpt lat="39.7373027" lon="3.1819861">
        <ele>45.58000183105469</ele>
        <hdop>30.0</hdop>
        <time>2014-06-04T10:30:23Z</time>
        <extensions>
          <speed>0.8111518621444702</speed>
        </extensions>
      </trkpt>
      <trkpt lat="39.7373115" lon="3.1819742">
        <ele>44.58000183105469</ele>
        <hdop>10.0</hdop>
        <time>2014-06-04T10:30:29Z</time>
      </trkpt>
      <trkpt lat="39.7373115" lon="3.1819742">
        <ele>44.58000183105469</ele>
        <hdop>10.0</hdop>
        <time>2014-06-04T10:30:35Z</time>
      </trkpt>
      <trkpt lat="39.7372897" lon="3.181974">
        <ele>44.58000183105469</ele>
        <hdop>10.0</hdop>
        <time>2014-06-04T10:30:40Z</time>
        <extensions>
          <speed>0.33270490169525146</speed>
        </extensions>
      </trkpt>
      <trkpt lat="39.7372752" lon="3.1819858">
        <ele>44.58000183105469</ele>
        <hdop>10.0</hdop>
        <time>2014-06-04T10:30:46Z</time>
      </trkpt>
      <trkpt lat="39.7372786" lon="3.1819892">
        <ele>44.58000183105469</ele>
        <hdop>10.0</hdop>
        <time>2014-06-04T10:30:51Z</time>
        <extensions>
          <speed>0.41270068287849426</speed>
        </extensions>
      </trkpt>
      <trkpt lat="39.7372709" lon="3.1819822">
        <ele>44.58000183105469</ele>
        <hdop>10.0</hdop>
        <time>2014-06-04T10:30:57Z</time>
        <extensions>
          <speed>0.9928064942359924</speed>
        </extensions>
      </trkpt>
      <trkpt lat="39.7371913" lon="3.1819865">
        <ele>44.58000183105469</ele>
        <hdop>5.0</hdop>
        <time>2014-06-04T10:31:03Z</time>
        <extensions>
          <speed>0.8420262932777405</speed>
        </extensions>
      </trkpt>
      <trkpt lat="39.737175" lon="3.1819316">
        <ele>44.58000183105469</ele>
        <hdop>5.0</hdop>
        <time>2014-06-04T10:31:09Z</time>
        <extensions>
          <speed>0.809846043586731</speed>
        </extensions>
      </trkpt>
      <trkpt lat="39.7371465" lon="3.1818976">
        <ele>44.58000183105469</ele>
        <hdop>10.0</hdop>
        <time>2014-06-04T10:31:14Z</time>
        <extensions>
          <speed>0.8466570973396301</speed>
        </extensions>
      </trkpt>
      <trkpt lat="39.7370937" lon="3.1818526">
        <ele>44.58000183105469</ele>
        <hdop>5.0</hdop>
        <time>2014-06-04T10:31:20Z</time>
        <extensions>
          <speed>1.054006576538086</speed>
        </extensions>
      </trkpt>
      <trkpt lat="39.7370442" lon="3.1818196">
        <ele>44.58000183105469</ele>
        <hdop>5.0</hdop>
        <time>2014-06-04T10:31:25Z</time>
        <extensions>
          <speed>1.052762746810913</speed>
        </extensions>
      </trkpt>
      <trkpt lat="39.7369892" lon="3.1817815">
        <ele>44.58000183105469</ele>
        <hdop>5.0</hdop>
        <time>2014-06-04T10:31:31Z</time>
        <extensions>
          <speed>1.0030711889266968</speed>
        </extensions>
      </trkpt>
      <trkpt lat="39.7369511" lon="3.1817547">
        <ele>45.58000183105469</ele>
        <hdop>10.0</hdop>
        <time>2014-06-04T10:31:36Z</time>
        <extensions>
          <speed>0.9658169746398926</speed>
        </extensions>
      </trkpt>
      <trkpt lat="39.7369033" lon="3.1817336">
        <ele>45.58000183105469</ele>
        <hdop>5.0</hdop>
        <time>2014-06-04T10:31:41Z</time>
        <extensions>
          <speed>0.963921308517456</speed>
        </extensions>
      </trkpt>
      <trkpt lat="39.7368475" lon="3.1816921">
        <ele>45.58000183105469</ele>
        <hdop>5.0</hdop>
        <time>2014-06-04T10:31:47Z</time>
        <extensions>
          <speed>1.0086839199066162</speed>
        </extensions>
      </trkpt>
      <trkpt lat="39.7367952" lon="3.1816691">
        <ele>45.58000183105469</ele>
        <hdop>5.0</hdop>
        <time>2014-06-04T10:31:53Z</time>
        <extensions>
          <speed>0.9755282402038574</speed>
        </extensions>
      </trkpt>
      <trkpt lat="39.7367378" lon="3.1816314">
        <ele>45.58000183105469</ele>
        <hdop>5.0</hdop>
        <time>2014-06-04T10:31:59Z</time>
        <extensions>
          <speed>1.002831220626831</speed>
        </extensions>
      </trkpt>
      <trkpt lat="39.7366808" lon="3.1816017">
        <ele>46.58000183105469</ele>
        <hdop>5.0</hdop>
        <time>2014-06-04T10:32:05Z</time>
        <extensions>
          <speed>1.0294111967086792</speed>
        </extensions>
      </trkpt>
      <trkpt lat="39.7366363" lon="3.1815671">
        <ele>46.58000183105469</ele>
        <hdop>10.0</hdop>
        <time>2014-06-04T10:32:10Z</time>
        <extensions>
          <speed>1.0411362648010254</speed>
        </extensions>
      </trkpt>
      <trkpt lat="39.7365793" lon="3.1815264">
        <ele>46.58000183105469</ele>
        <hdop>10.0</hdop>
        <time>2014-06-04T10:32:16Z</time>
        <extensions>
          <speed>1.0494517087936401</speed>
        </extensions>
      </trkpt>
      <trkpt lat="39.7365251" lon="3.181499">
        <ele>46.58000183105469</ele>
        <hdop>10.0</hdop>
        <time>2014-06-04T10:32:22Z</time>
        <extensions>
          <speed>1.0554866790771484</speed>
        </extensions>
      </trkpt>
      <trkpt lat="39.7364581" lon="3.1814728">
        <ele>46.58000183105469</ele>
        <hdop>5.0</hdop>
        <time>2014-06-04T10:32:28Z</time>
        <extensions>
          <speed>1.088200569152832</speed>
        </extensions>
      </trkpt>
      <trkpt lat="39.7364122" lon="3.181439">
        <ele>46.58000183105469</ele>
        <hdop>10.0</hdop>
        <time>2014-06-04T10:32:33Z</time>
        <extensions>
          <speed>1.0843110084533691</speed>
        </extensions>
      </trkpt>
      <trkpt lat="39.7363633" lon="3.1814011">
        <ele>47.58000183105469</ele>
        <hdop>10.0</hdop>
        <time>2014-06-04T10:32:38Z</time>
        <extensions>
          <speed>1.0840399265289307</speed>
        </extensions>
      </trkpt>
      <trkpt lat="39.7362856" lon="3.1813529">
        <ele>47.58000183105469</ele>
        <hdop>10.0</hdop>
        <time>2014-06-04T10:32:43Z</time>
        <extensions>
          <speed>1.0895887613296509</speed>
        </extensions>
      </trkpt>
      <trkpt lat="39.7362482" lon="3.1813214">
        <ele>47.58000183105469</ele>
        <hdop>5.0</hdop>
        <time>2014-06-04T10:32:48Z</time>
      </trkpt>
      <trkpt lat="39.7362482" lon="3.1813214">
        <ele>47.58000183105469</ele>
        <hdop>10.0</hdop>
        <time>2014-06-04T10:32:54Z</time>
      </trkpt>
      <trkpt lat="39.7362482" lon="3.1813214">
        <ele>47.58000183105469</ele>
        <hdop>10.0</hdop>
        <time>2014-06-04T10:33:00Z</time>
      </trkpt>
      <trkpt lat="39.7362482" lon="3.1813214">
        <ele>47.58000183105469</ele>
        <hdop>10.0</hdop>
        <time>2014-06-04T10:33:06Z</time>
      </trkpt>
      <trkpt lat="39.7362482" lon="3.1813214">
        <ele>47.58000183105469</ele>
        <hdop>10.0</hdop>
        <time>2014-06-04T10:33:11Z</time>
      </trkpt>
      <trkpt lat="39.7361237" lon="3.1812597">
        <ele>47.58000183105469</ele>
        <hdop>5.0</hdop>
        <time>2014-06-04T10:33:17Z</time>
        <extensions>
          <speed>1.0288153886795044</speed>
        </extensions>
      </trkpt>
      <trkpt lat="39.7360586" lon="3.1811607">
        <ele>47.58000183105469</ele>
        <hdop>5.0</hdop>
        <time>2014-06-04T10:33:23Z</time>
        <extensions>
          <speed>1.143345594406128</speed>
        </extensions>
      </trkpt>
      <trkpt lat="39.7360023" lon="3.1811152">
        <ele>47.58000183105469</ele>
        <hdop>10.0</hdop>
        <time>2014-06-04T10:33:29Z</time>
        <extensions>
          <speed>1.1100547313690186</speed>
        </extensions>
      </trkpt>
      <trkpt lat="39.7359551" lon="3.1810844">
        <ele>47.58000183105469</ele>
        <hdop>10.0</hdop>
        <time>2014-06-04T10:33:34Z</time>
        <extensions>
          <speed>1.160881757736206</speed>
        </extensions>
      </trkpt>
      <trkpt lat="39.7358994" lon="3.1810481">
        <ele>47.58000183105469</ele>
        <hdop>10.0</hdop>
        <time>2014-06-04T10:33:40Z</time>
        <extensions>
          <speed>1.196358323097229</speed>
        </extensions>
      </trkpt>
      <trkpt lat="39.7358431" lon="3.1810168">
        <ele>48.58000183105469</ele>
        <hdop>5.0</hdop>
        <time>2014-06-04T10:33:46Z</time>
        <extensions>
          <speed>1.1866929531097412</speed>
        </extensions>
      </trkpt>
      <trkpt lat="39.7358019" lon="3.1809934">
        <ele>48.58000183105469</ele>
        <hdop>5.0</hdop>
        <time>2014-06-04T10:33:51Z</time>
        <extensions>
          <speed>1.164196491241455</speed>
        </extensions>
      </trkpt>
      <trkpt lat="39.7357933" lon="3.1810123">
        <ele>48.58000183105469</ele>
        <hdop>5.0</hdop>
        <time>2014-06-04T10:33:56Z</time>
        <extensions>
          <speed>0.6658617854118347</speed>
        </extensions>
      </trkpt>
      <trkpt lat="39.7358348" lon="3.1810707">
        <ele>48.58000183105469</ele>
        <hdop>10.0</hdop>
        <time>2014-06-04T10:34:02Z</time>
        <extensions>
          <speed>0.7933713793754578</speed>
        </extensions>
      </trkpt>
      <trkpt lat="39.735887" lon="3.1811113">
        <ele>48.58000183105469</ele>
        <hdop>5.0</hdop>
        <time>2014-06-04T10:34:08Z</time>
        <extensions>
          <speed>0.8814401030540466</speed>
        </extensions>
      </trkpt>
      <trkpt lat="39.7359281" lon="3.1811543">
        <ele>48.58000183105469</ele>
        <hdop>5.0</hdop>
        <time>2014-06-04T10:34:13Z</time>
        <extensions>
          <speed>0.9154632091522217</speed>
        </extensions>
      </trkpt>
      <trkpt lat="39.7359934" lon="3.1811781">
        <ele>48.58000183105469</ele>
        <hdop>5.0</hdop>
        <time>2014-06-04T10:34:19Z</time>
        <extensions>
          <speed>0.9675110578536987</speed>
        </extensions>
      </trkpt>
      <trkpt lat="39.7360466" lon="3.1812108">
        <ele>48.58000183105469</ele>
        <hdop>10.0</hdop>
        <time>2014-06-04T10:34:25Z</time>
        <extensions>
          <speed>0.9962875843048096</speed>
        </extensions>
      </trkpt>
      <trkpt lat="39.7360947" lon="3.1812536">
        <ele>48.58000183105469</ele>
        <hdop>10.0</hdop>
        <time>2014-06-04T10:34:30Z</time>
        <extensions>
          <speed>1.0093165636062622</speed>
        </extensions>
      </trkpt>
      <trkpt lat="39.7361467" lon="3.1812993">
        <ele>48.58000183105469</ele>
        <hdop>10.0</hdop>
        <time>2014-06-04T10:34:36Z</time>
        <extensions>
          <speed>0.9905574917793274</speed>
        </extensions>
      </trkpt>
      <trkpt lat="39.7361958" lon="3.1813289">
        <ele>48.58000183105469</ele>
        <hdop>10.0</hdop>
        <time>2014-06-04T10:34:42Z</time>
        <extensions>
          <speed>0.9926997423171997</speed>
        </extensions>
      </trkpt>
      <trkpt lat="39.7362417" lon="3.1813657">
        <ele>48.58000183105469</ele>
        <hdop>5.0</hdop>
        <time>2014-06-04T10:34:47Z</time>
        <extensions>
          <speed>0.9788514375686646</speed>
        </extensions>
      </trkpt>
      <trkpt lat="39.7362974" lon="3.1813988">
        <ele>48.58000183105469</ele>
        <hdop>10.0</hdop>
        <time>2014-06-04T10:34:52Z</time>
        <extensions>
          <speed>1.0175070762634277</speed>
        </extensions>
      </trkpt>
      <trkpt lat="39.736355" lon="3.1814367">
        <ele>48.58000183105469</ele>
        <hdop>5.0</hdop>
        <time>2014-06-04T10:34:58Z</time>
        <extensions>
          <speed>1.0277212858200073</speed>
        </extensions>
      </trkpt>
      <trkpt lat="39.7364163" lon="3.1814637">
        <ele>48.58000183105469</ele>
        <hdop>10.0</hdop>
        <time>2014-06-04T10:35:04Z</time>
        <extensions>
          <speed>1.0430957078933716</speed>
        </extensions>
      </trkpt>
      <trkpt lat="39.7364732" lon="3.1814966">
        <ele>48.58000183105469</ele>
        <hdop>10.0</hdop>
        <time>2014-06-04T10:35:10Z</time>
        <extensions>
          <speed>1.1137199401855469</speed>
        </extensions>
      </trkpt>
      <trkpt lat="39.7365253" lon="3.181538">
        <ele>48.58000183105469</ele>
        <hdop>5.0</hdop>
        <time>2014-06-04T10:35:16Z</time>
        <extensions>
          <speed>1.1410956382751465</speed>
        </extensions>
      </trkpt>
      <trkpt lat="39.7365801" lon="3.1815711">
        <ele>48.58000183105469</ele>
        <hdop>10.0</hdop>
        <time>2014-06-04T10:35:21Z</time>
        <extensions>
          <speed>1.1386955976486206</speed>
        </extensions>
      </trkpt>
      <trkpt lat="39.736631" lon="3.181596">
        <ele>48.58000183105469</ele>
        <hdop>5.0</hdop>
        <time>2014-06-04T10:35:26Z</time>
        <extensions>
          <speed>1.1799092292785645</speed>
        </extensions>
      </trkpt>
      <trkpt lat="39.7366946" lon="3.1816274">
        <ele>48.58000183105469</ele>
        <hdop>10.0</hdop>
        <time>2014-06-04T10:35:32Z</time>
        <extensions>
          <speed>1.003183364868164</speed>
        </extensions>
      </trkpt>
      <trkpt lat="39.7367622" lon="3.1816585">
        <ele>48.58000183105469</ele>
        <hdop>10.0</hdop>
        <time>2014-06-04T10:35:38Z</time>
        <extensions>
          <speed>1.1117262840270996</speed>
        </extensions>
      </trkpt>
      <trkpt lat="39.7368647" lon="3.1817312">
        <ele>48.58000183105469</ele>
        <hdop>10.0</hdop>
        <time>2014-06-04T10:35:44Z</time>
        <extensions>
          <speed>1.1220721006393433</speed>
        </extensions>
      </trkpt>
      <trkpt lat="39.7369353" lon="3.1817799">
        <ele>48.58000183105469</ele>
        <hdop>5.0</hdop>
        <time>2014-06-04T10:35:49Z</time>
        <extensions>
          <speed>1.101770043373108</speed>
        </extensions>
      </trkpt>
      <trkpt lat="39.7369808" lon="3.1818434">
        <ele>48.58000183105469</ele>
        <hdop>5.0</hdop>
        <time>2014-06-04T10:35:55Z</time>
        <extensions>
          <speed>1.1101198196411133</speed>
        </extensions>
      </trkpt>
      <trkpt lat="39.7370079" lon="3.1818983">
        <ele>48.58000183105469</ele>
        <hdop>10.0</hdop>
        <time>2014-06-04T10:36:00Z</time>
        <extensions>
          <speed>1.0708800554275513</speed>
        </extensions>
      </trkpt>
      <trkpt lat="39.7370379" lon="3.1819681">
        <ele>48.58000183105469</ele>
        <hdop>10.0</hdop>
        <time>2014-06-04T10:36:06Z</time>
        <extensions>
          <speed>1.097172498703003</speed>
        </extensions>
      </trkpt>
      <trkpt lat="39.737066" lon="3.1820139">
        <ele>48.58000183105469</ele>
        <hdop>10.0</hdop>
        <time>2014-06-04T10:36:11Z</time>
        <extensions>
          <speed>1.0913286209106445</speed>
        </extensions>
      </trkpt>
      <trkpt lat="39.7370676" lon="3.1820752">
        <ele>48.58000183105469</ele>
        <hdop>5.0</hdop>
        <time>2014-06-04T10:36:17Z</time>
        <extensions>
          <speed>1.093099594116211</speed>
        </extensions>
      </trkpt>
      <trkpt lat="39.7370577" lon="3.1821323">
        <ele>48.58000183105469</ele>
        <hdop>5.0</hdop>
        <time>2014-06-04T10:36:22Z</time>
        <extensions>
          <speed>1.1007956266403198</speed>
        </extensions>
      </trkpt>
      <trkpt lat="39.7370173" lon="3.1821946">
        <ele>49.58000183105469</ele>
        <hdop>5.0</hdop>
        <time>2014-06-04T10:36:27Z</time>
        <extensions>
          <speed>1.1150028705596924</speed>
        </extensions>
      </trkpt>
      <trkpt lat="39.7369788" lon="3.1822478">
        <ele>49.58000183105469</ele>
        <hdop>5.0</hdop>
        <time>2014-06-04T10:36:33Z</time>
        <extensions>
          <speed>1.1714497804641724</speed>
        </extensions>
      </trkpt>
      <trkpt lat="39.7369644" lon="3.1822565">
        <ele>49.58000183105469</ele>
        <hdop>10.0</hdop>
        <time>2014-06-04T10:36:39Z</time>
      </trkpt>
      <trkpt lat="39.7369582" lon="3.1822594">
        <ele>49.58000183105469</ele>
        <hdop>10.0</hdop>
        <time>2014-06-04T10:36:45Z</time>
        <extensions>
          <speed>0.400013267993927</speed>
        </extensions>
      </trkpt>
      <trkpt lat="39.7369276" lon="3.1822554">
        <ele>49.58000183105469</ele>
        <hdop>10.0</hdop>
        <time>2014-06-04T10:36:50Z</time>
      </trkpt>
      <trkpt lat="39.7369276" lon="3.1822554">
        <ele>49.58000183105469</ele>
        <hdop>10.0</hdop>
        <time>2014-06-04T10:36:56Z</time>
      </trkpt>
      <trkpt lat="39.736928" lon="3.182267">
        <ele>49.58000183105469</ele>
        <hdop>10.0</hdop>
        <time>2014-06-04T10:37:01Z</time>
        <extensions>
          <speed>0.28219470381736755</speed>
        </extensions>
      </trkpt>
      <trkpt lat="39.7369104" lon="3.182302">
        <ele>48.58000183105469</ele>
        <hdop>10.0</hdop>
        <time>2014-06-04T10:37:07Z</time>
        <extensions>
          <speed>0.7998932003974915</speed>
        </extensions>
      </trkpt>
      <trkpt lat="39.7368928" lon="3.1822761">
        <ele>48.58000183105469</ele>
        <hdop>10.0</hdop>
        <time>2014-06-04T10:37:13Z</time>
        <extensions>
          <speed>0.884732186794281</speed>
        </extensions>
      </trkpt>
      <trkpt lat="39.736872" lon="3.1822563">
        <ele>48.58000183105469</ele>
        <hdop>30.0</hdop>
        <time>2014-06-04T10:37:19Z</time>
        <extensions>
          <speed>0.6932440400123596</speed>
        </extensions>
      </trkpt>
      <trkpt lat="39.736883" lon="3.182279">
        <ele>48.58000183105469</ele>
        <hdop>30.0</hdop>
        <time>2014-06-04T10:37:24Z</time>
        <extensions>
          <speed>0.8202049732208252</speed>
        </extensions>
      </trkpt>
      <trkpt lat="39.7369635" lon="3.1822518">
        <ele>48.58000183105469</ele>
        <hdop>10.0</hdop>
        <time>2014-06-04T10:37:30Z</time>
        <extensions>
          <speed>1.2832175493240356</speed>
        </extensions>
      </trkpt>
      <trkpt lat="39.7370323" lon="3.1823055">
        <ele>48.58000183105469</ele>
        <hdop>10.0</hdop>
        <time>2014-06-04T10:37:35Z</time>
        <extensions>
          <speed>0.9437416195869446</speed>
        </extensions>
      </trkpt>
      <trkpt lat="39.7370927" lon="3.1823585">
        <ele>48.58000183105469</ele>
        <hdop>5.0</hdop>
        <time>2014-06-04T10:37:40Z</time>
        <extensions>
          <speed>1.1813883781433105</speed>
        </extensions>
      </trkpt>
      <trkpt lat="39.7371565" lon="3.1823953">
        <ele>48.58000183105469</ele>
        <hdop>5.0</hdop>
        <time>2014-06-04T10:37:46Z</time>
        <extensions>
          <speed>1.1817660331726074</speed>
        </extensions>
      </trkpt>
      <trkpt lat="39.7372049" lon="3.1824131">
        <ele>48.58000183105469</ele>
        <hdop>5.0</hdop>
        <time>2014-06-04T10:37:51Z</time>
        <extensions>
          <speed>1.2026005983352661</speed>
        </extensions>
      </trkpt>
      <trkpt lat="39.737264" lon="3.1824331">
        <ele>48.58000183105469</ele>
        <hdop>10.0</hdop>
        <time>2014-06-04T10:37:57Z</time>
        <extensions>
          <speed>1.197511911392212</speed>
        </extensions>
      </trkpt>
      <trkpt lat="39.737293" lon="3.1824348">
        <ele>48.58000183105469</ele>
        <hdop>10.0</hdop>
        <time>2014-06-04T10:38:03Z</time>
      </trkpt>
      <trkpt lat="39.737293" lon="3.1824348">
        <ele>48.58000183105469</ele>
        <hdop>10.0</hdop>
        <time>2014-06-04T10:38:08Z</time>
      </trkpt>
      <trkpt lat="39.7373132" lon="3.1824367">
        <ele>48.58000183105469</ele>
        <hdop>10.0</hdop>
        <time>2014-06-04T10:38:14Z</time>
        <extensions>
          <speed>0.7708916068077087</speed>
        </extensions>
      </trkpt>
      <trkpt lat="39.7373303" lon="3.1823904">
        <ele>48.58000183105469</ele>
        <hdop>30.0</hdop>
        <time>2014-06-04T10:38:20Z</time>
        <extensions>
          <speed>0.9886489510536194</speed>
        </extensions>
      </trkpt>
      <trkpt lat="39.7373537" lon="3.1823802">
        <ele>48.58000183105469</ele>
        <hdop>5.0</hdop>
        <time>2014-06-04T10:38:26Z</time>
        <extensions>
          <speed>0.7100036144256592</speed>
        </extensions>
      </trkpt>
      <trkpt lat="39.7373566" lon="3.1823737">
        <ele>48.58000183105469</ele>
        <hdop>5.0</hdop>
        <time>2014-06-04T10:38:31Z</time>
      </trkpt>
      <trkpt lat="39.7373566" lon="3.1823737">
        <ele>48.58000183105469</ele>
        <hdop>5.0</hdop>
        <time>2014-06-04T10:38:36Z</time>
      </trkpt>
      <trkpt lat="39.7373566" lon="3.1823737">
        <ele>48.58000183105469</ele>
        <hdop>5.0</hdop>
        <time>2014-06-04T10:38:41Z</time>
      </trkpt>
      <trkpt lat="39.7373566" lon="3.1823737">
        <ele>48.58000183105469</ele>
        <hdop>5.0</hdop>
        <time>2014-06-04T10:38:47Z</time>
      </trkpt>
      <trkpt lat="39.7373566" lon="3.1823737">
        <ele>48.58000183105469</ele>
        <hdop>5.0</hdop>
        <time>2014-06-04T10:38:53Z</time>
      </trkpt>
      <trkpt lat="39.7373569" lon="3.1823745">
        <ele>48.58000183105469</ele>
        <hdop>10.0</hdop>
        <time>2014-06-04T10:38:59Z</time>
        <extensions>
          <speed>0.27837228775024414</speed>
        </extensions>
      </trkpt>
      <trkpt lat="39.7373683" lon="3.1824474">
        <ele>47.58000183105469</ele>
        <hdop>5.0</hdop>
        <time>2014-06-04T10:39:05Z</time>
        <extensions>
          <speed>1.096625566482544</speed>
        </extensions>
      </trkpt>
      <trkpt lat="39.7373602" lon="3.1825339">
        <ele>47.58000183105469</ele>
        <hdop>10.0</hdop>
        <time>2014-06-04T10:39:11Z</time>
        <extensions>
          <speed>1.1614147424697876</speed>
        </extensions>
      </trkpt>
      <trkpt lat="39.7373723" lon="3.1826138">
        <ele>47.58000183105469</ele>
        <hdop>5.0</hdop>
        <time>2014-06-04T10:39:17Z</time>
        <extensions>
          <speed>1.1731480360031128</speed>
        </extensions>
      </trkpt>
      <trkpt lat="39.7373824" lon="3.1826871">
        <ele>46.58000183105469</ele>
        <hdop>10.0</hdop>
        <time>2014-06-04T10:39:22Z</time>
        <extensions>
          <speed>1.1938793659210205</speed>
        </extensions>
      </trkpt>
      <trkpt lat="39.7374052" lon="3.1827646">
        <ele>46.58000183105469</ele>
        <hdop>10.0</hdop>
        <time>2014-06-04T10:39:28Z</time>
        <extensions>
          <speed>1.253067135810852</speed>
        </extensions>
      </trkpt>
      <trkpt lat="39.737421" lon="3.182849">
        <ele>46.58000183105469</ele>
        <hdop>10.0</hdop>
        <time>2014-06-04T10:39:34Z</time>
        <extensions>
          <speed>1.2784934043884277</speed>
        </extensions>
      </trkpt>
      <trkpt lat="39.7374424" lon="3.1829273">
        <ele>46.58000183105469</ele>
        <hdop>10.0</hdop>
        <time>2014-06-04T10:39:40Z</time>
        <extensions>
          <speed>1.2785166501998901</speed>
        </extensions>
      </trkpt>
      <trkpt lat="39.73746" lon="3.182994">
        <ele>46.58000183105469</ele>
        <hdop>5.0</hdop>
        <time>2014-06-04T10:39:45Z</time>
        <extensions>
          <speed>1.2774585485458374</speed>
        </extensions>
      </trkpt>
      <trkpt lat="39.7374761" lon="3.1830775">
        <ele>46.58000183105469</ele>
        <hdop>5.0</hdop>
        <time>2014-06-04T10:39:51Z</time>
        <extensions>
          <speed>1.29176926612854</speed>
        </extensions>
      </trkpt>
      <trkpt lat="39.7374948" lon="3.1831469">
        <ele>46.58000183105469</ele>
        <hdop>10.0</hdop>
        <time>2014-06-04T10:39:56Z</time>
        <extensions>
          <speed>1.2983143329620361</speed>
        </extensions>
      </trkpt>
      <trkpt lat="39.7375226" lon="3.1832306">
        <ele>46.58000183105469</ele>
        <hdop>10.0</hdop>
        <time>2014-06-04T10:40:02Z</time>
        <extensions>
          <speed>1.301029920578003</speed>
        </extensions>
      </trkpt>
      <trkpt lat="39.7375568" lon="3.1833082">
        <ele>46.58000183105469</ele>
        <hdop>10.0</hdop>
        <time>2014-06-04T10:40:08Z</time>
        <extensions>
          <speed>1.3094121217727661</speed>
        </extensions>
      </trkpt>
      <trkpt lat="39.7375518" lon="3.1834048">
        <ele>46.58000183105469</ele>
        <hdop>10.0</hdop>
        <time>2014-06-04T10:40:14Z</time>
        <extensions>
          <speed>1.3036348819732666</speed>
        </extensions>
      </trkpt>
      <trkpt lat="39.7375567" lon="3.1834737">
        <ele>46.58000183105469</ele>
        <hdop>10.0</hdop>
        <time>2014-06-04T10:40:19Z</time>
        <extensions>
          <speed>1.308058261871338</speed>
        </extensions>
      </trkpt>
      <trkpt lat="39.7375767" lon="3.1835372">
        <ele>46.58000183105469</ele>
        <hdop>10.0</hdop>
        <time>2014-06-04T10:40:24Z</time>
        <extensions>
          <speed>1.263045072555542</speed>
        </extensions>
      </trkpt>
      <trkpt lat="39.737605" lon="3.183623">
        <ele>46.58000183105469</ele>
        <hdop>10.0</hdop>
        <time>2014-06-04T10:40:30Z</time>
        <extensions>
          <speed>1.1375458240509033</speed>
        </extensions>
      </trkpt>
      <trkpt lat="39.737633" lon="3.1837187">
        <ele>46.58000183105469</ele>
        <hdop>10.0</hdop>
        <time>2014-06-04T10:40:36Z</time>
        <extensions>
          <speed>1.3344601392745972</speed>
        </extensions>
      </trkpt>
      <trkpt lat="39.7376646" lon="3.1837961">
        <ele>46.58000183105469</ele>
        <hdop>10.0</hdop>
        <time>2014-06-04T10:40:41Z</time>
        <extensions>
          <speed>1.3745592832565308</speed>
        </extensions>
      </trkpt>
      <trkpt lat="39.7377013" lon="3.1838884">
        <ele>46.58000183105469</ele>
        <hdop>10.0</hdop>
        <time>2014-06-04T10:40:47Z</time>
        <extensions>
          <speed>1.2821173667907715</speed>
        </extensions>
      </trkpt>
      <trkpt lat="39.7377698" lon="3.1839623">
        <ele>46.58000183105469</ele>
        <hdop>10.0</hdop>
        <time>2014-06-04T10:40:53Z</time>
        <extensions>
          <speed>1.3238301277160645</speed>
        </extensions>
      </trkpt>
      <trkpt lat="39.7378377" lon="3.1840015">
        <ele>46.58000183105469</ele>
        <hdop>10.0</hdop>
        <time>2014-06-04T10:40:58Z</time>
        <extensions>
          <speed>1.5306886434555054</speed>
        </extensions>
      </trkpt>
      <trkpt lat="39.7379286" lon="3.184003">
        <ele>46.58000183105469</ele>
        <hdop>10.0</hdop>
        <time>2014-06-04T10:41:04Z</time>
        <extensions>
          <speed>1.5729483366012573</speed>
        </extensions>
      </trkpt>
      <trkpt lat="39.7380087" lon="3.1839722">
        <ele>46.58000183105469</ele>
        <hdop>10.0</hdop>
        <time>2014-06-04T10:41:10Z</time>
        <extensions>
          <speed>1.4782344102859497</speed>
        </extensions>
      </trkpt>
      <trkpt lat="39.7380754" lon="3.1839616">
        <ele>46.58000183105469</ele>
        <hdop>5.0</hdop>
        <time>2014-06-04T10:41:15Z</time>
        <extensions>
          <speed>1.4880832433700562</speed>
        </extensions>
      </trkpt>
      <trkpt lat="39.7381439" lon="3.1839543">
        <ele>46.58000183105469</ele>
        <hdop>10.0</hdop>
        <time>2014-06-04T10:41:20Z</time>
        <extensions>
          <speed>1.4253259897232056</speed>
        </extensions>
      </trkpt>
      <trkpt lat="39.738208" lon="3.1839532">
        <ele>46.58000183105469</ele>
        <hdop>10.0</hdop>
        <time>2014-06-04T10:41:26Z</time>
        <extensions>
          <speed>1.2535985708236694</speed>
        </extensions>
      </trkpt>
      <trkpt lat="39.7382612" lon="3.1839713">
        <ele>46.58000183105469</ele>
        <hdop>10.0</hdop>
        <time>2014-06-04T10:41:31Z</time>
        <extensions>
          <speed>1.2206584215164185</speed>
        </extensions>
      </trkpt>
      <trkpt lat="39.7383276" lon="3.1840016">
        <ele>47.58000183105469</ele>
        <hdop>10.0</hdop>
        <time>2014-06-04T10:41:37Z</time>
        <extensions>
          <speed>1.4051965475082397</speed>
        </extensions>
      </trkpt>
      <trkpt lat="39.7383896" lon="3.1840088">
        <ele>47.58000183105469</ele>
        <hdop>10.0</hdop>
        <time>2014-06-04T10:41:42Z</time>
        <extensions>
          <speed>1.0753427743911743</speed>
        </extensions>
      </trkpt>
      <trkpt lat="39.7384341" lon="3.1840315">
        <ele>47.58000183105469</ele>
        <hdop>10.0</hdop>
        <time>2014-06-04T10:41:47Z</time>
        <extensions>
          <speed>1.091739535331726</speed>
        </extensions>
      </trkpt>
      <trkpt lat="39.7384949" lon="3.1840645">
        <ele>47.58000183105469</ele>
        <hdop>10.0</hdop>
        <time>2014-06-04T10:41:53Z</time>
        <extensions>
          <speed>0.8234062790870667</speed>
        </extensions>
      </trkpt>
      <trkpt lat="39.7385397" lon="3.1840998">
        <ele>47.58000183105469</ele>
        <hdop>10.0</hdop>
        <time>2014-06-04T10:41:58Z</time>
        <extensions>
          <speed>0.8576943278312683</speed>
        </extensions>
      </trkpt>
      <trkpt lat="39.738598" lon="3.1841485">
        <ele>47.58000183105469</ele>
        <hdop>10.0</hdop>
        <time>2014-06-04T10:42:03Z</time>
        <extensions>
          <speed>1.112313985824585</speed>
        </extensions>
      </trkpt>
      <trkpt lat="39.7386184" lon="3.1841732">
        <ele>47.58000183105469</ele>
        <hdop>10.0</hdop>
        <time>2014-06-04T10:42:08Z</time>
      </trkpt>
      <trkpt lat="39.7386333" lon="3.1841852">
        <ele>47.58000183105469</ele>
        <hdop>10.0</hdop>
        <time>2014-06-04T10:42:14Z</time>
        <extensions>
          <speed>0.445159912109375</speed>
        </extensions>
      </trkpt>
      <trkpt lat="39.7387284" lon="3.1842477">
        <ele>47.58000183105469</ele>
        <hdop>30.0</hdop>
        <time>2014-06-04T10:42:20Z</time>
        <extensions>
          <speed>0.8006270527839661</speed>
        </extensions>
      </trkpt>
      <trkpt lat="39.7387612" lon="3.1842739">
        <ele>47.58000183105469</ele>
        <hdop>10.0</hdop>
        <time>2014-06-04T10:42:25Z</time>
      </trkpt>
      <trkpt lat="39.7388375" lon="3.184305">
        <ele>47.58000183105469</ele>
        <hdop>10.0</hdop>
        <time>2014-06-04T10:42:31Z</time>
        <extensions>
          <speed>0.9112934470176697</speed>
        </extensions>
      </trkpt>
      <trkpt lat="39.7388972" lon="3.1843364">
        <ele>48.58000183105469</ele>
        <hdop>10.0</hdop>
        <time>2014-06-04T10:42:36Z</time>
        <extensions>
          <speed>0.9525539875030518</speed>
        </extensions>
      </trkpt>
      <trkpt lat="39.7389655" lon="3.184385">
        <ele>48.58000183105469</ele>
        <hdop>10.0</hdop>
        <time>2014-06-04T10:42:42Z</time>
        <extensions>
          <speed>0.8160658478736877</speed>
        </extensions>
      </trkpt>
      <trkpt lat="39.7390254" lon="3.1844157">
        <ele>48.58000183105469</ele>
        <hdop>10.0</hdop>
        <time>2014-06-04T10:42:47Z</time>
      </trkpt>
      <trkpt lat="39.7391006" lon="3.1844478">
        <ele>48.58000183105469</ele>
        <hdop>10.0</hdop>
        <time>2014-06-04T10:42:53Z</time>
        <extensions>
          <speed>1.452785611152649</speed>
        </extensions>
      </trkpt>
      <trkpt lat="39.7391717" lon="3.1844677">
        <ele>48.58000183105469</ele>
        <hdop>10.0</hdop>
        <time>2014-06-04T10:42:58Z</time>
        <extensions>
          <speed>1.438162922859192</speed>
        </extensions>
      </trkpt>
      <trkpt lat="39.7392399" lon="3.1845046">
        <ele>48.58000183105469</ele>
        <hdop>10.0</hdop>
        <time>2014-06-04T10:43:03Z</time>
        <extensions>
          <speed>1.2969454526901245</speed>
        </extensions>
      </trkpt>
      <trkpt lat="39.7392963" lon="3.1845387">
        <ele>48.58000183105469</ele>
        <hdop>10.0</hdop>
        <time>2014-06-04T10:43:09Z</time>
        <extensions>
          <speed>1.3171021938323975</speed>
        </extensions>
      </trkpt>
      <trkpt lat="39.7393645" lon="3.1845714">
        <ele>48.58000183105469</ele>
        <hdop>10.0</hdop>
        <time>2014-06-04T10:43:15Z</time>
        <extensions>
          <speed>1.6016919612884521</speed>
        </extensions>
      </trkpt>
      <trkpt lat="39.7394406" lon="3.1846282">
        <ele>48.58000183105469</ele>
        <hdop>10.0</hdop>
        <time>2014-06-04T10:43:21Z</time>
        <extensions>
          <speed>1.4371516704559326</speed>
        </extensions>
      </trkpt>
      <trkpt lat="39.739504" lon="3.1846647">
        <ele>49.58000183105469</ele>
        <hdop>10.0</hdop>
        <time>2014-06-04T10:43:26Z</time>
        <extensions>
          <speed>1.3398559093475342</speed>
        </extensions>
      </trkpt>
      <trkpt lat="39.7395459" lon="3.1846862">
        <ele>49.58000183105469</ele>
        <hdop>10.0</hdop>
        <time>2014-06-04T10:43:31Z</time>
        <extensions>
          <speed>1.0694712400436401</speed>
        </extensions>
      </trkpt>
      <trkpt lat="39.7395459" lon="3.1846862">
        <ele>49.58000183105469</ele>
        <hdop>10.0</hdop>
        <time>2014-06-04T10:43:37Z</time>
      </trkpt>
      <trkpt lat="39.7395905" lon="3.1847434">
        <ele>49.58000183105469</ele>
        <hdop>10.0</hdop>
        <time>2014-06-04T10:43:42Z</time>
        <extensions>
          <speed>0.735878586769104</speed>
        </extensions>
      </trkpt>
      <trkpt lat="39.7397104" lon="3.1848329">
        <ele>49.58000183105469</ele>
        <hdop>10.0</hdop>
        <time>2014-06-04T10:43:48Z</time>
        <extensions>
          <speed>0.9128057956695557</speed>
        </extensions>
      </trkpt>
      <trkpt lat="39.7397842" lon="3.1848665">
        <ele>50.58000183105469</ele>
        <hdop>10.0</hdop>
        <time>2014-06-04T10:43:54Z</time>
        <extensions>
          <speed>1.1091058254241943</speed>
        </extensions>
      </trkpt>
      <trkpt lat="39.7398475" lon="3.1848934">
        <ele>50.58000183105469</ele>
        <hdop>10.0</hdop>
        <time>2014-06-04T10:43:59Z</time>
        <extensions>
          <speed>1.1157130002975464</speed>
        </extensions>
      </trkpt>
      <trkpt lat="39.7399048" lon="3.1849229">
        <ele>50.58000183105469</ele>
        <hdop>10.0</hdop>
        <time>2014-06-04T10:44:04Z</time>
        <extensions>
          <speed>1.0210814476013184</speed>
        </extensions>
      </trkpt>
      <trkpt lat="39.7399702" lon="3.1849673">
        <ele>50.58000183105469</ele>
        <hdop>10.0</hdop>
        <time>2014-06-04T10:44:10Z</time>
        <extensions>
          <speed>0.9719783067703247</speed>
        </extensions>
      </trkpt>
      <trkpt lat="39.7400128" lon="3.184998">
        <ele>51.58000183105469</ele>
        <hdop>10.0</hdop>
        <time>2014-06-04T10:44:15Z</time>
        <extensions>
          <speed>1.0133370161056519</speed>
        </extensions>
      </trkpt>
      <trkpt lat="39.7400474" lon="3.1850269">
        <ele>51.58000183105469</ele>
        <hdop>10.0</hdop>
        <time>2014-06-04T10:44:20Z</time>
        <extensions>
          <speed>0.8167294859886169</speed>
        </extensions>
      </trkpt>
      <trkpt lat="39.7400606" lon="3.1850377">
        <ele>51.58000183105469</ele>
        <hdop>10.0</hdop>
        <time>2014-06-04T10:44:26Z</time>
        <extensions>
          <speed>0.6950176954269409</speed>
        </extensions>
      </trkpt>
      <trkpt lat="39.7400798" lon="3.1850505">
        <ele>51.58000183105469</ele>
        <hdop>10.0</hdop>
        <time>2014-06-04T10:44:31Z</time>
      </trkpt>
      <trkpt lat="39.7401277" lon="3.1850924">
        <ele>51.58000183105469</ele>
        <hdop>10.0</hdop>
        <time>2014-06-04T10:44:36Z</time>
        <extensions>
          <speed>0.6546007990837097</speed>
        </extensions>
      </trkpt>
      <trkpt lat="39.7401506" lon="3.1851108">
        <ele>51.58000183105469</ele>
        <hdop>10.0</hdop>
        <time>2014-06-04T10:44:42Z</time>
      </trkpt>
      <trkpt lat="39.7402932" lon="3.1852274">
        <ele>51.58000183105469</ele>
        <hdop>10.0</hdop>
        <time>2014-06-04T10:44:48Z</time>
        <extensions>
          <speed>0.6859559416770935</speed>
        </extensions>
      </trkpt>
      <trkpt lat="39.7403961" lon="3.1853077">
        <ele>51.58000183105469</ele>
        <hdop>10.0</hdop>
        <time>2014-06-04T10:44:53Z</time>
        <extensions>
          <speed>0.8892754912376404</speed>
        </extensions>
      </trkpt>
      <trkpt lat="39.7404501" lon="3.1853675">
        <ele>51.58000183105469</ele>
        <hdop>10.0</hdop>
        <time>2014-06-04T10:44:58Z</time>
        <extensions>
          <speed>0.9841542840003967</speed>
        </extensions>
      </trkpt>
      <trkpt lat="39.7404869" lon="3.1854105">
        <ele>51.58000183105469</ele>
        <hdop>5.0</hdop>
        <time>2014-06-04T10:45:03Z</time>
        <extensions>
          <speed>0.9525653719902039</speed>
        </extensions>
      </trkpt>
      <trkpt lat="39.7405342" lon="3.1854379">
        <ele>51.58000183105469</ele>
        <hdop>10.0</hdop>
        <time>2014-06-04T10:45:09Z</time>
        <extensions>
          <speed>0.9708840250968933</speed>
        </extensions>
      </trkpt>
      <trkpt lat="39.7405689" lon="3.185478">
        <ele>51.58000183105469</ele>
        <hdop>10.0</hdop>
        <time>2014-06-04T10:45:15Z</time>
        <extensions>
          <speed>0.9785179495811462</speed>
        </extensions>
      </trkpt>
      <trkpt lat="39.7405778" lon="3.1854719">
        <ele>51.58000183105469</ele>
        <hdop>10.0</hdop>
        <time>2014-06-04T10:45:21Z</time>
      </trkpt>
      <trkpt lat="39.7405778" lon="3.1854719">
        <ele>51.58000183105469</ele>
        <hdop>10.0</hdop>
        <time>2014-06-04T10:45:27Z</time>
      </trkpt>
      <trkpt lat="39.7406753" lon="3.1854905">
        <ele>51.58000183105469</ele>
        <hdop>10.0</hdop>
        <time>2014-06-04T10:45:33Z</time>
        <extensions>
          <speed>0.7463576197624207</speed>
        </extensions>
      </trkpt>
      <trkpt lat="39.7407725" lon="3.1854701">
        <ele>51.58000183105469</ele>
        <hdop>10.0</hdop>
        <time>2014-06-04T10:45:38Z</time>
        <extensions>
          <speed>0.9842414855957031</speed>
        </extensions>
      </trkpt>
      <trkpt lat="39.7408471" lon="3.1854763">
        <ele>51.58000183105469</ele>
        <hdop>5.0</hdop>
        <time>2014-06-04T10:45:44Z</time>
        <extensions>
          <speed>0.8149362802505493</speed>
        </extensions>
      </trkpt>
      <trkpt lat="39.7408832" lon="3.1855429">
        <ele>51.58000183105469</ele>
        <hdop>5.0</hdop>
        <time>2014-06-04T10:45:50Z</time>
        <extensions>
          <speed>0.8381288647651672</speed>
        </extensions>
      </trkpt>
      <trkpt lat="39.7409187" lon="3.1855991">
        <ele>51.58000183105469</ele>
        <hdop>10.0</hdop>
        <time>2014-06-04T10:45:55Z</time>
        <extensions>
          <speed>0.914932131767273</speed>
        </extensions>
      </trkpt>
      <trkpt lat="39.7409571" lon="3.1856402">
        <ele>51.58000183105469</ele>
        <hdop>10.0</hdop>
        <time>2014-06-04T10:46:00Z</time>
        <extensions>
          <speed>0.9694749712944031</speed>
        </extensions>
      </trkpt>
      <trkpt lat="39.7409938" lon="3.1856935">
        <ele>51.58000183105469</ele>
        <hdop>5.0</hdop>
        <time>2014-06-04T10:46:06Z</time>
        <extensions>
          <speed>0.9901428818702698</speed>
        </extensions>
      </trkpt>
      <trkpt lat="39.7410313" lon="3.1857311">
        <ele>51.58000183105469</ele>
        <hdop>10.0</hdop>
        <time>2014-06-04T10:46:11Z</time>
        <extensions>
          <speed>1.0047811269760132</speed>
        </extensions>
      </trkpt>
      <trkpt lat="39.7410805" lon="3.1857796">
        <ele>51.58000183105469</ele>
        <hdop>10.0</hdop>
        <time>2014-06-04T10:46:17Z</time>
        <extensions>
          <speed>1.016729474067688</speed>
        </extensions>
      </trkpt>
      <trkpt lat="39.7411419" lon="3.185819">
        <ele>51.58000183105469</ele>
        <hdop>10.0</hdop>
        <time>2014-06-04T10:46:22Z</time>
        <extensions>
          <speed>1.0136902332305908</speed>
        </extensions>
      </trkpt>
      <trkpt lat="39.7412075" lon="3.1858602">
        <ele>51.58000183105469</ele>
        <hdop>10.0</hdop>
        <time>2014-06-04T10:46:28Z</time>
        <extensions>
          <speed>1.0374953746795654</speed>
        </extensions>
      </trkpt>
      <trkpt lat="39.7412659" lon="3.1859065">
        <ele>51.58000183105469</ele>
        <hdop>10.0</hdop>
        <time>2014-06-04T10:46:34Z</time>
        <extensions>
          <speed>1.0498325824737549</speed>
        </extensions>
      </trkpt>
      <trkpt lat="39.7413453" lon="3.1859548">
        <ele>51.58000183105469</ele>
        <hdop>10.0</hdop>
        <time>2014-06-04T10:46:40Z</time>
        <extensions>
          <speed>1.0636664628982544</speed>
        </extensions>
      </trkpt>
      <trkpt lat="39.7414254" lon="3.1860021">
        <ele>52.58000183105469</ele>
        <hdop>10.0</hdop>
        <time>2014-06-04T10:46:46Z</time>
        <extensions>
          <speed>1.0897915363311768</speed>
        </extensions>
      </trkpt>
      <trkpt lat="39.7414727" lon="3.186027">
        <ele>52.58000183105469</ele>
        <hdop>10.0</hdop>
        <time>2014-06-04T10:46:51Z</time>
        <extensions>
          <speed>1.08535635471344</speed>
        </extensions>
      </trkpt>
      <trkpt lat="39.7415269" lon="3.1860577">
        <ele>52.58000183105469</ele>
        <hdop>10.0</hdop>
        <time>2014-06-04T10:46:57Z</time>
        <extensions>
          <speed>1.08303701877594</speed>
        </extensions>
      </trkpt>
      <trkpt lat="39.7415931" lon="3.1860801">
        <ele>52.58000183105469</ele>
        <hdop>10.0</hdop>
        <time>2014-06-04T10:47:03Z</time>
        <extensions>
          <speed>1.1103978157043457</speed>
        </extensions>
      </trkpt>
      <trkpt lat="39.7416522" lon="3.1861016">
        <ele>52.58000183105469</ele>
        <hdop>10.0</hdop>
        <time>2014-06-04T10:47:08Z</time>
        <extensions>
          <speed>1.1139206886291504</speed>
        </extensions>
      </trkpt>
      <trkpt lat="39.7417147" lon="3.186146">
        <ele>52.58000183105469</ele>
        <hdop>10.0</hdop>
        <time>2014-06-04T10:47:13Z</time>
        <extensions>
          <speed>1.1073518991470337</speed>
        </extensions>
      </trkpt>
      <trkpt lat="39.7417714" lon="3.1862078">
        <ele>52.58000183105469</ele>
        <hdop>5.0</hdop>
        <time>2014-06-04T10:47:19Z</time>
        <extensions>
          <speed>1.1285356283187866</speed>
        </extensions>
      </trkpt>
      <trkpt lat="39.7418153" lon="3.1862492">
        <ele>52.58000183105469</ele>
        <hdop>10.0</hdop>
        <time>2014-06-04T10:47:24Z</time>
        <extensions>
          <speed>1.1019279956817627</speed>
        </extensions>
      </trkpt>
      <trkpt lat="39.7418617" lon="3.1862885">
        <ele>52.58000183105469</ele>
        <hdop>10.0</hdop>
        <time>2014-06-04T10:47:30Z</time>
        <extensions>
          <speed>1.0769948959350586</speed>
        </extensions>
      </trkpt>
      <trkpt lat="39.7419106" lon="3.1863319">
        <ele>52.58000183105469</ele>
        <hdop>10.0</hdop>
        <time>2014-06-04T10:47:36Z</time>
        <extensions>
          <speed>1.0734269618988037</speed>
        </extensions>
      </trkpt>
      <trkpt lat="39.7419867" lon="3.1863968">
        <ele>52.58000183105469</ele>
        <hdop>10.0</hdop>
        <time>2014-06-04T10:47:41Z</time>
        <extensions>
          <speed>1.4436404705047607</speed>
        </extensions>
      </trkpt>
      <trkpt lat="39.742071" lon="3.1864617">
        <ele>52.58000183105469</ele>
        <hdop>10.0</hdop>
        <time>2014-06-04T10:47:47Z</time>
        <extensions>
          <speed>1.418583631515503</speed>
        </extensions>
      </trkpt>
      <trkpt lat="39.7421354" lon="3.1865267">
        <ele>52.58000183105469</ele>
        <hdop>10.0</hdop>
        <time>2014-06-04T10:47:53Z</time>
        <extensions>
          <speed>1.2295341491699219</speed>
        </extensions>
      </trkpt>
      <trkpt lat="39.7421818" lon="3.1865666">
        <ele>52.58000183105469</ele>
        <hdop>10.0</hdop>
        <time>2014-06-04T10:47:58Z</time>
        <extensions>
          <speed>1.3207234144210815</speed>
        </extensions>
      </trkpt>
      <trkpt lat="39.7422451" lon="3.1866184">
        <ele>52.58000183105469</ele>
        <hdop>10.0</hdop>
        <time>2014-06-04T10:48:04Z</time>
        <extensions>
          <speed>1.2867687940597534</speed>
        </extensions>
      </trkpt>
      <trkpt lat="39.7422992" lon="3.1866344">
        <ele>52.58000183105469</ele>
        <hdop>10.0</hdop>
        <time>2014-06-04T10:48:09Z</time>
        <extensions>
          <speed>1.2954732179641724</speed>
        </extensions>
      </trkpt>
      <trkpt lat="39.7423635" lon="3.1866439">
        <ele>52.58000183105469</ele>
        <hdop>10.0</hdop>
        <time>2014-06-04T10:48:15Z</time>
        <extensions>
          <speed>1.159080982208252</speed>
        </extensions>
      </trkpt>
      <trkpt lat="39.7424149" lon="3.1866791">
        <ele>52.58000183105469</ele>
        <hdop>10.0</hdop>
        <time>2014-06-04T10:48:20Z</time>
        <extensions>
          <speed>1.1712868213653564</speed>
        </extensions>
      </trkpt>
      <trkpt lat="39.7424714" lon="3.1866861">
        <ele>52.58000183105469</ele>
        <hdop>10.0</hdop>
        <time>2014-06-04T10:48:25Z</time>
        <extensions>
          <speed>1.2395745515823364</speed>
        </extensions>
      </trkpt>
      <trkpt lat="39.7425512" lon="3.1867205">
        <ele>52.58000183105469</ele>
        <hdop>10.0</hdop>
        <time>2014-06-04T10:48:31Z</time>
        <extensions>
          <speed>1.2386714220046997</speed>
        </extensions>
      </trkpt>
      <trkpt lat="39.7426372" lon="3.1867578">
        <ele>52.58000183105469</ele>
        <hdop>30.0</hdop>
        <time>2014-06-04T10:48:37Z</time>
        <extensions>
          <speed>0.7823256850242615</speed>
        </extensions>
      </trkpt>
      <trkpt lat="39.742645" lon="3.1867558">
        <ele>52.58000183105469</ele>
        <hdop>5.0</hdop>
        <time>2014-06-04T10:48:43Z</time>
      </trkpt>
      <trkpt lat="39.742645" lon="3.1867558">
        <ele>52.58000183105469</ele>
        <hdop>10.0</hdop>
        <time>2014-06-04T10:48:49Z</time>
      </trkpt>
      <trkpt lat="39.742645" lon="3.1867558">
        <ele>52.58000183105469</ele>
        <hdop>10.0</hdop>
        <time>2014-06-04T10:48:54Z</time>
      </trkpt>
      <trkpt lat="39.742645" lon="3.1867558">
        <ele>52.58000183105469</ele>
        <hdop>10.0</hdop>
        <time>2014-06-04T10:48:59Z</time>
      </trkpt>
      <trkpt lat="39.742645" lon="3.1867558">
        <ele>52.58000183105469</ele>
        <hdop>10.0</hdop>
        <time>2014-06-04T10:49:05Z</time>
      </trkpt>
      <trkpt lat="39.742645" lon="3.1867558">
        <ele>52.58000183105469</ele>
        <hdop>10.0</hdop>
        <time>2014-06-04T10:49:10Z</time>
      </trkpt>
      <trkpt lat="39.742645" lon="3.1867558">
        <ele>51.58000183105469</ele>
        <hdop>30.0</hdop>
        <time>2014-06-04T10:49:16Z</time>
      </trkpt>
      <trkpt lat="39.7427214" lon="3.1867373">
        <ele>51.58000183105469</ele>
        <hdop>10.0</hdop>
        <time>2014-06-04T10:49:22Z</time>
        <extensions>
          <speed>1.2300293445587158</speed>
        </extensions>
      </trkpt>
      <trkpt lat="39.7428083" lon="3.1867845">
        <ele>50.58000183105469</ele>
        <hdop>5.0</hdop>
        <time>2014-06-04T10:49:28Z</time>
        <extensions>
          <speed>1.3110535144805908</speed>
        </extensions>
      </trkpt>
      <trkpt lat="39.7428693" lon="3.1867802">
        <ele>50.58000183105469</ele>
        <hdop>5.0</hdop>
        <time>2014-06-04T10:49:33Z</time>
        <extensions>
          <speed>1.4452674388885498</speed>
        </extensions>
      </trkpt>
      <trkpt lat="39.742949" lon="3.1867372">
        <ele>50.58000183105469</ele>
        <hdop>5.0</hdop>
        <time>2014-06-04T10:49:39Z</time>
        <extensions>
          <speed>1.4723178148269653</speed>
        </extensions>
      </trkpt>
      <trkpt lat="39.7430226" lon="3.1867021">
        <ele>50.58000183105469</ele>
        <hdop>10.0</hdop>
        <time>2014-06-04T10:49:45Z</time>
        <extensions>
          <speed>1.3451595306396484</speed>
        </extensions>
      </trkpt>
      <trkpt lat="39.7430862" lon="3.1866926">
        <ele>50.58000183105469</ele>
        <hdop>5.0</hdop>
        <time>2014-06-04T10:49:50Z</time>
        <extensions>
          <speed>1.4616622924804688</speed>
        </extensions>
      </trkpt>
      <trkpt lat="39.743148" lon="3.1866977">
        <ele>50.58000183105469</ele>
        <hdop>5.0</hdop>
        <time>2014-06-04T10:49:55Z</time>
        <extensions>
          <speed>1.5195609331130981</speed>
        </extensions>
      </trkpt>
      <trkpt lat="39.7432099" lon="3.1866993">
        <ele>50.58000183105469</ele>
        <hdop>10.0</hdop>
        <time>2014-06-04T10:50:00Z</time>
        <extensions>
          <speed>1.402601957321167</speed>
        </extensions>
      </trkpt>
      <trkpt lat="39.7432846" lon="3.186672">
        <ele>50.58000183105469</ele>
        <hdop>10.0</hdop>
        <time>2014-06-04T10:50:06Z</time>
        <extensions>
          <speed>1.4059842824935913</speed>
        </extensions>
      </trkpt>
      <trkpt lat="39.7433671" lon="3.1866082">
        <ele>51.58000183105469</ele>
        <hdop>10.0</hdop>
        <time>2014-06-04T10:50:12Z</time>
        <extensions>
          <speed>1.4249048233032227</speed>
        </extensions>
      </trkpt>
      <trkpt lat="39.7434279" lon="3.1865543">
        <ele>51.58000183105469</ele>
        <hdop>10.0</hdop>
        <time>2014-06-04T10:50:17Z</time>
        <extensions>
          <speed>1.4182052612304688</speed>
        </extensions>
      </trkpt>
      <trkpt lat="39.743482" lon="3.1865105">
        <ele>51.58000183105469</ele>
        <hdop>10.0</hdop>
        <time>2014-06-04T10:50:23Z</time>
        <extensions>
          <speed>1.3615732192993164</speed>
        </extensions>
      </trkpt>
      <trkpt lat="39.7435234" lon="3.1864672">
        <ele>51.58000183105469</ele>
        <hdop>10.0</hdop>
        <time>2014-06-04T10:50:28Z</time>
        <extensions>
          <speed>1.3315269947052002</speed>
        </extensions>
      </trkpt>
      <trkpt lat="39.743596" lon="3.1864154">
        <ele>51.58000183105469</ele>
        <hdop>10.0</hdop>
        <time>2014-06-04T10:50:34Z</time>
        <extensions>
          <speed>1.316374659538269</speed>
        </extensions>
      </trkpt>
      <trkpt lat="39.7436679" lon="3.1863807">
        <ele>51.58000183105469</ele>
        <hdop>10.0</hdop>
        <time>2014-06-04T10:50:40Z</time>
        <extensions>
          <speed>1.2927190065383911</speed>
        </extensions>
      </trkpt>
      <trkpt lat="39.7437308" lon="3.1863491">
        <ele>51.58000183105469</ele>
        <hdop>10.0</hdop>
        <time>2014-06-04T10:50:46Z</time>
        <extensions>
          <speed>1.2375001907348633</speed>
        </extensions>
      </trkpt>
      <trkpt lat="39.7437912" lon="3.1863287">
        <ele>51.58000183105469</ele>
        <hdop>10.0</hdop>
        <time>2014-06-04T10:50:51Z</time>
        <extensions>
          <speed>1.2509400844573975</speed>
        </extensions>
      </trkpt>
      <trkpt lat="39.743862" lon="3.1863055">
        <ele>51.58000183105469</ele>
        <hdop>10.0</hdop>
        <time>2014-06-04T10:50:57Z</time>
        <extensions>
          <speed>1.2538471221923828</speed>
        </extensions>
      </trkpt>
      <trkpt lat="39.7439194" lon="3.1862815">
        <ele>51.58000183105469</ele>
        <hdop>10.0</hdop>
        <time>2014-06-04T10:51:02Z</time>
        <extensions>
          <speed>1.2561755180358887</speed>
        </extensions>
      </trkpt>
      <trkpt lat="39.7439932" lon="3.1862452">
        <ele>51.58000183105469</ele>
        <hdop>10.0</hdop>
        <time>2014-06-04T10:51:08Z</time>
        <extensions>
          <speed>1.2657822370529175</speed>
        </extensions>
      </trkpt>
      <trkpt lat="39.7440675" lon="3.1862118">
        <ele>51.58000183105469</ele>
        <hdop>10.0</hdop>
        <time>2014-06-04T10:51:14Z</time>
        <extensions>
          <speed>1.2686582803726196</speed>
        </extensions>
      </trkpt>
      <trkpt lat="39.7441348" lon="3.1861968">
        <ele>51.58000183105469</ele>
        <hdop>10.0</hdop>
        <time>2014-06-04T10:51:20Z</time>
        <extensions>
          <speed>1.2593919038772583</speed>
        </extensions>
      </trkpt>
      <trkpt lat="39.7442116" lon="3.1861665">
        <ele>51.58000183105469</ele>
        <hdop>10.0</hdop>
        <time>2014-06-04T10:51:26Z</time>
        <extensions>
          <speed>1.2778496742248535</speed>
        </extensions>
      </trkpt>
      <trkpt lat="39.7442876" lon="3.1861333">
        <ele>51.58000183105469</ele>
        <hdop>10.0</hdop>
        <time>2014-06-04T10:51:32Z</time>
        <extensions>
          <speed>1.32221257686615</speed>
        </extensions>
      </trkpt>
      <trkpt lat="39.7443513" lon="3.1861286">
        <ele>51.58000183105469</ele>
        <hdop>10.0</hdop>
        <time>2014-06-04T10:51:38Z</time>
        <extensions>
          <speed>1.3064922094345093</speed>
        </extensions>
      </trkpt>
      <trkpt lat="39.7444071" lon="3.1860893">
        <ele>51.58000183105469</ele>
        <hdop>10.0</hdop>
        <time>2014-06-04T10:51:43Z</time>
        <extensions>
          <speed>1.310282826423645</speed>
        </extensions>
      </trkpt>
      <trkpt lat="39.7444787" lon="3.1860504">
        <ele>51.58000183105469</ele>
        <hdop>10.0</hdop>
        <time>2014-06-04T10:51:49Z</time>
        <extensions>
          <speed>1.3109450340270996</speed>
        </extensions>
      </trkpt>
      <trkpt lat="39.744565" lon="3.186029">
        <ele>51.58000183105469</ele>
        <hdop>10.0</hdop>
        <time>2014-06-04T10:51:55Z</time>
        <extensions>
          <speed>1.3204262256622314</speed>
        </extensions>
      </trkpt>
      <trkpt lat="39.7446313" lon="3.1860048">
        <ele>51.58000183105469</ele>
        <hdop>10.0</hdop>
        <time>2014-06-04T10:52:00Z</time>
        <extensions>
          <speed>1.633942723274231</speed>
        </extensions>
      </trkpt>
      <trkpt lat="39.7446943" lon="3.185981">
        <ele>51.58000183105469</ele>
        <hdop>10.0</hdop>
        <time>2014-06-04T10:52:06Z</time>
        <extensions>
          <speed>1.2725834846496582</speed>
        </extensions>
      </trkpt>
      <trkpt lat="39.7447579" lon="3.1859867">
        <ele>51.58000183105469</ele>
        <hdop>10.0</hdop>
        <time>2014-06-04T10:52:12Z</time>
        <extensions>
          <speed>1.2989068031311035</speed>
        </extensions>
      </trkpt>
      <trkpt lat="39.7448157" lon="3.1859653">
        <ele>51.58000183105469</ele>
        <hdop>10.0</hdop>
        <time>2014-06-04T10:52:17Z</time>
        <extensions>
          <speed>1.3236740827560425</speed>
        </extensions>
      </trkpt>
      <trkpt lat="39.7448691" lon="3.1859037">
        <ele>51.58000183105469</ele>
        <hdop>10.0</hdop>
        <time>2014-06-04T10:52:22Z</time>
        <extensions>
          <speed>1.1626052856445313</speed>
        </extensions>
      </trkpt>
      <trkpt lat="39.7449323" lon="3.1858169">
        <ele>52.58000183105469</ele>
        <hdop>10.0</hdop>
        <time>2014-06-04T10:52:28Z</time>
        <extensions>
          <speed>1.196197271347046</speed>
        </extensions>
      </trkpt>
      <trkpt lat="39.7449813" lon="3.1857599">
        <ele>52.58000183105469</ele>
        <hdop>10.0</hdop>
        <time>2014-06-04T10:52:33Z</time>
        <extensions>
          <speed>1.1643913984298706</speed>
        </extensions>
      </trkpt>
      <trkpt lat="39.7450485" lon="3.1857074">
        <ele>52.58000183105469</ele>
        <hdop>10.0</hdop>
        <time>2014-06-04T10:52:39Z</time>
        <extensions>
          <speed>1.1801215410232544</speed>
        </extensions>
      </trkpt>
      <trkpt lat="39.7451116" lon="3.1856695">
        <ele>52.58000183105469</ele>
        <hdop>10.0</hdop>
        <time>2014-06-04T10:52:44Z</time>
        <extensions>
          <speed>1.1827665567398071</speed>
        </extensions>
      </trkpt>
      <trkpt lat="39.745168" lon="3.1856306">
        <ele>52.58000183105469</ele>
        <hdop>10.0</hdop>
        <time>2014-06-04T10:52:49Z</time>
        <extensions>
          <speed>1.1910489797592163</speed>
        </extensions>
      </trkpt>
      <trkpt lat="39.7452236" lon="3.1855891">
        <ele>52.58000183105469</ele>
        <hdop>10.0</hdop>
        <time>2014-06-04T10:52:54Z</time>
        <extensions>
          <speed>1.2037172317504883</speed>
        </extensions>
      </trkpt>
      <trkpt lat="39.7452886" lon="3.1855415">
        <ele>52.58000183105469</ele>
        <hdop>10.0</hdop>
        <time>2014-06-04T10:53:00Z</time>
        <extensions>
          <speed>1.2276127338409424</speed>
        </extensions>
      </trkpt>
      <trkpt lat="39.7453599" lon="3.1855043">
        <ele>52.58000183105469</ele>
        <hdop>10.0</hdop>
        <time>2014-06-04T10:53:06Z</time>
        <extensions>
          <speed>1.2909371852874756</speed>
        </extensions>
      </trkpt>
      <trkpt lat="39.7454012" lon="3.1854728">
        <ele>52.58000183105469</ele>
        <hdop>10.0</hdop>
        <time>2014-06-04T10:53:12Z</time>
      </trkpt>
      <trkpt lat="39.7454012" lon="3.1854728">
        <ele>52.58000183105469</ele>
        <hdop>10.0</hdop>
        <time>2014-06-04T10:53:18Z</time>
      </trkpt>
      <trkpt lat="39.7454683" lon="3.1854443">
        <ele>52.58000183105469</ele>
        <hdop>10.0</hdop>
        <time>2014-06-04T10:53:23Z</time>
        <extensions>
          <speed>0.5796352624893188</speed>
        </extensions>
      </trkpt>
      <trkpt lat="39.745594" lon="3.185352">
        <ele>52.58000183105469</ele>
        <hdop>5.0</hdop>
        <time>2014-06-04T10:53:29Z</time>
        <extensions>
          <speed>0.9553852081298828</speed>
        </extensions>
      </trkpt>
      <trkpt lat="39.7456658" lon="3.1853083">
        <ele>52.58000183105469</ele>
        <hdop>10.0</hdop>
        <time>2014-06-04T10:53:34Z</time>
        <extensions>
          <speed>1.0809621810913086</speed>
        </extensions>
      </trkpt>
      <trkpt lat="39.7457376" lon="3.185268">
        <ele>52.58000183105469</ele>
        <hdop>10.0</hdop>
        <time>2014-06-04T10:53:40Z</time>
        <extensions>
          <speed>1.1360656023025513</speed>
        </extensions>
      </trkpt>
      <trkpt lat="39.7458066" lon="3.1852304">
        <ele>52.58000183105469</ele>
        <hdop>10.0</hdop>
        <time>2014-06-04T10:53:46Z</time>
        <extensions>
          <speed>1.1792988777160645</speed>
        </extensions>
      </trkpt>
      <trkpt lat="39.745863" lon="3.1852135">
        <ele>52.58000183105469</ele>
        <hdop>10.0</hdop>
        <time>2014-06-04T10:53:51Z</time>
        <extensions>
          <speed>1.2089754343032837</speed>
        </extensions>
      </trkpt>
      <trkpt lat="39.7459307" lon="3.1851941">
        <ele>52.58000183105469</ele>
        <hdop>10.0</hdop>
        <time>2014-06-04T10:53:57Z</time>
        <extensions>
          <speed>1.2481673955917358</speed>
        </extensions>
      </trkpt>
      <trkpt lat="39.7459924" lon="3.1851853">
        <ele>52.58000183105469</ele>
        <hdop>10.0</hdop>
        <time>2014-06-04T10:54:02Z</time>
        <extensions>
          <speed>1.2851009368896484</speed>
        </extensions>
      </trkpt>
      <trkpt lat="39.746055" lon="3.1851914">
        <ele>52.58000183105469</ele>
        <hdop>10.0</hdop>
        <time>2014-06-04T10:54:07Z</time>
        <extensions>
          <speed>1.32333505153656</speed>
        </extensions>
      </trkpt>
      <trkpt lat="39.7461169" lon="3.1852289">
        <ele>52.58000183105469</ele>
        <hdop>10.0</hdop>
        <time>2014-06-04T10:54:13Z</time>
        <extensions>
          <speed>1.1621590852737427</speed>
        </extensions>
      </trkpt>
      <trkpt lat="39.7461592" lon="3.1852773">
        <ele>52.58000183105469</ele>
        <hdop>10.0</hdop>
        <time>2014-06-04T10:54:19Z</time>
        <extensions>
          <speed>1.090517520904541</speed>
        </extensions>
      </trkpt>
      <trkpt lat="39.7462173" lon="3.1853425">
        <ele>52.58000183105469</ele>
        <hdop>10.0</hdop>
        <time>2014-06-04T10:54:24Z</time>
        <extensions>
          <speed>1.1602210998535156</speed>
        </extensions>
      </trkpt>
      <trkpt lat="39.746283" lon="3.1853816">
        <ele>53.58000183105469</ele>
        <hdop>30.0</hdop>
        <time>2014-06-04T10:54:30Z</time>
        <extensions>
          <speed>1.1913182735443115</speed>
        </extensions>
      </trkpt>
      <trkpt lat="39.7463457" lon="3.1854017">
        <ele>53.58000183105469</ele>
        <hdop>10.0</hdop>
        <time>2014-06-04T10:54:35Z</time>
        <extensions>
          <speed>1.2534834146499634</speed>
        </extensions>
      </trkpt>
      <trkpt lat="39.7464022" lon="3.1854446">
        <ele>53.58000183105469</ele>
        <hdop>10.0</hdop>
        <time>2014-06-04T10:54:41Z</time>
        <extensions>
          <speed>1.3189444541931152</speed>
        </extensions>
      </trkpt>
      <trkpt lat="39.746454" lon="3.1854729">
        <ele>53.58000183105469</ele>
        <hdop>10.0</hdop>
        <time>2014-06-04T10:54:46Z</time>
        <extensions>
          <speed>1.2939660549163818</speed>
        </extensions>
      </trkpt>
      <trkpt lat="39.746521" lon="3.1855171">
        <ele>53.58000183105469</ele>
        <hdop>10.0</hdop>
        <time>2014-06-04T10:54:52Z</time>
        <extensions>
          <speed>1.2842226028442383</speed>
        </extensions>
      </trkpt>
      <trkpt lat="39.7465808" lon="3.1855698">
        <ele>52.58000183105469</ele>
        <hdop>10.0</hdop>
        <time>2014-06-04T10:54:57Z</time>
        <extensions>
          <speed>1.285502314567566</speed>
        </extensions>
      </trkpt>
      <trkpt lat="39.7466399" lon="3.1856071">
        <ele>52.58000183105469</ele>
        <hdop>10.0</hdop>
        <time>2014-06-04T10:55:02Z</time>
        <extensions>
          <speed>1.0481888055801392</speed>
        </extensions>
      </trkpt>
      <trkpt lat="39.7467004" lon="3.1856456">
        <ele>52.58000183105469</ele>
        <hdop>10.0</hdop>
        <time>2014-06-04T10:55:08Z</time>
        <extensions>
          <speed>1.1223621368408203</speed>
        </extensions>
      </trkpt>
      <trkpt lat="39.7467655" lon="3.1856982">
        <ele>52.58000183105469</ele>
        <hdop>10.0</hdop>
        <time>2014-06-04T10:55:14Z</time>
        <extensions>
          <speed>0.869569718837738</speed>
        </extensions>
      </trkpt>
      <trkpt lat="39.746828" lon="3.1857415">
        <ele>52.58000183105469</ele>
        <hdop>10.0</hdop>
        <time>2014-06-04T10:55:19Z</time>
        <extensions>
          <speed>1.3673255443572998</speed>
        </extensions>
      </trkpt>
      <trkpt lat="39.7468961" lon="3.1857659">
        <ele>52.58000183105469</ele>
        <hdop>10.0</hdop>
        <time>2014-06-04T10:55:25Z</time>
        <extensions>
          <speed>1.03315007686615</speed>
        </extensions>
      </trkpt>
      <trkpt lat="39.7469474" lon="3.1858001">
        <ele>52.58000183105469</ele>
        <hdop>10.0</hdop>
        <time>2014-06-04T10:55:31Z</time>
        <extensions>
          <speed>1.1540043354034424</speed>
        </extensions>
      </trkpt>
      <trkpt lat="39.7470299" lon="3.1858483">
        <ele>52.58000183105469</ele>
        <hdop>10.0</hdop>
        <time>2014-06-04T10:55:37Z</time>
        <extensions>
          <speed>1.1082212924957275</speed>
        </extensions>
      </trkpt>
      <trkpt lat="39.7470767" lon="3.1858838">
        <ele>52.58000183105469</ele>
        <hdop>10.0</hdop>
        <time>2014-06-04T10:55:42Z</time>
        <extensions>
          <speed>1.0907033681869507</speed>
        </extensions>
      </trkpt>
      <trkpt lat="39.7471256" lon="3.185919">
        <ele>51.58000183105469</ele>
        <hdop>10.0</hdop>
        <time>2014-06-04T10:55:48Z</time>
        <extensions>
          <speed>1.0482374429702759</speed>
        </extensions>
      </trkpt>
      <trkpt lat="39.7472017" lon="3.1859842">
        <ele>51.58000183105469</ele>
        <hdop>10.0</hdop>
        <time>2014-06-04T10:55:54Z</time>
        <extensions>
          <speed>1.1657241582870483</speed>
        </extensions>
      </trkpt>
      <trkpt lat="39.7472794" lon="3.1860315">
        <ele>51.58000183105469</ele>
        <hdop>10.0</hdop>
        <time>2014-06-04T10:56:00Z</time>
        <extensions>
          <speed>1.3082910776138306</speed>
        </extensions>
      </trkpt>
      <trkpt lat="39.7473752" lon="3.186077">
        <ele>51.58000183105469</ele>
        <hdop>10.0</hdop>
        <time>2014-06-04T10:56:06Z</time>
        <extensions>
          <speed>1.420699119567871</speed>
        </extensions>
      </trkpt>
      <trkpt lat="39.7474826" lon="3.186115">
        <ele>51.58000183105469</ele>
        <hdop>10.0</hdop>
        <time>2014-06-04T10:56:12Z</time>
        <extensions>
          <speed>1.481987714767456</speed>
        </extensions>
      </trkpt>
      <trkpt lat="39.7475635" lon="3.1861257">
        <ele>51.58000183105469</ele>
        <hdop>10.0</hdop>
        <time>2014-06-04T10:56:18Z</time>
        <extensions>
          <speed>1.1300922632217407</speed>
        </extensions>
      </trkpt>
      <trkpt lat="39.7476197" lon="3.1861526">
        <ele>51.58000183105469</ele>
        <hdop>10.0</hdop>
        <time>2014-06-04T10:56:23Z</time>
        <extensions>
          <speed>1.2475215196609497</speed>
        </extensions>
      </trkpt>
      <trkpt lat="39.7476817" lon="3.1861594">
        <ele>51.58000183105469</ele>
        <hdop>10.0</hdop>
        <time>2014-06-04T10:56:28Z</time>
        <extensions>
          <speed>1.2776343822479248</speed>
        </extensions>
      </trkpt>
      <trkpt lat="39.7477434" lon="3.1861518">
        <ele>51.58000183105469</ele>
        <hdop>30.0</hdop>
        <time>2014-06-04T10:56:33Z</time>
        <extensions>
          <speed>1.271620750427246</speed>
        </extensions>
      </trkpt>
      <trkpt lat="39.7478263" lon="3.1860862">
        <ele>51.58000183105469</ele>
        <hdop>10.0</hdop>
        <time>2014-06-04T10:56:39Z</time>
        <extensions>
          <speed>1.2737144231796265</speed>
        </extensions>
      </trkpt>
      <trkpt lat="39.747907" lon="3.1859919">
        <ele>51.58000183105469</ele>
        <hdop>10.0</hdop>
        <time>2014-06-04T10:56:45Z</time>
        <extensions>
          <speed>1.2600598335266113</speed>
        </extensions>
      </trkpt>
      <trkpt lat="39.7479675" lon="3.1859508">
        <ele>51.58000183105469</ele>
        <hdop>5.0</hdop>
        <time>2014-06-04T10:56:50Z</time>
        <extensions>
          <speed>1.263216257095337</speed>
        </extensions>
      </trkpt>
      <trkpt lat="39.7480463" lon="3.1859246">
        <ele>51.58000183105469</ele>
        <hdop>10.0</hdop>
        <time>2014-06-04T10:56:56Z</time>
        <extensions>
          <speed>1.2899894714355469</speed>
        </extensions>
      </trkpt>
      <trkpt lat="39.7481286" lon="3.1859033">
        <ele>51.58000183105469</ele>
        <hdop>10.0</hdop>
        <time>2014-06-04T10:57:02Z</time>
        <extensions>
          <speed>1.3667317628860474</speed>
        </extensions>
      </trkpt>
      <trkpt lat="39.7481981" lon="3.1858919">
        <ele>51.58000183105469</ele>
        <hdop>10.0</hdop>
        <time>2014-06-04T10:57:07Z</time>
        <extensions>
          <speed>1.3323237895965576</speed>
        </extensions>
      </trkpt>
      <trkpt lat="39.7482595" lon="3.1858837">
        <ele>51.58000183105469</ele>
        <hdop>10.0</hdop>
        <time>2014-06-04T10:57:12Z</time>
        <extensions>
          <speed>1.3177416324615479</speed>
        </extensions>
      </trkpt>
      <trkpt lat="39.748323" lon="3.1858698">
        <ele>51.58000183105469</ele>
        <hdop>10.0</hdop>
        <time>2014-06-04T10:57:17Z</time>
        <extensions>
          <speed>1.3288753032684326</speed>
        </extensions>
      </trkpt>
      <trkpt lat="39.7483998" lon="3.1858458">
        <ele>50.58000183105469</ele>
        <hdop>10.0</hdop>
        <time>2014-06-04T10:57:23Z</time>
        <extensions>
          <speed>1.337422251701355</speed>
        </extensions>
      </trkpt>
      <trkpt lat="39.7484773" lon="3.1858177">
        <ele>50.58000183105469</ele>
        <hdop>10.0</hdop>
        <time>2014-06-04T10:57:29Z</time>
        <extensions>
          <speed>1.3317451477050781</speed>
        </extensions>
      </trkpt>
      <trkpt lat="39.7485357" lon="3.1858008">
        <ele>50.58000183105469</ele>
        <hdop>10.0</hdop>
        <time>2014-06-04T10:57:34Z</time>
        <extensions>
          <speed>1.3332267999649048</speed>
        </extensions>
      </trkpt>
      <trkpt lat="39.7486039" lon="3.1857996">
        <ele>50.58000183105469</ele>
        <hdop>10.0</hdop>
        <time>2014-06-04T10:57:40Z</time>
        <extensions>
          <speed>1.3069298267364502</speed>
        </extensions>
      </trkpt>
      <trkpt lat="39.7486735" lon="3.1857886">
        <ele>50.58000183105469</ele>
        <hdop>10.0</hdop>
        <time>2014-06-04T10:57:46Z</time>
        <extensions>
          <speed>1.3066946268081665</speed>
        </extensions>
      </trkpt>
      <trkpt lat="39.7487376" lon="3.1857694">
        <ele>50.58000183105469</ele>
        <hdop>10.0</hdop>
        <time>2014-06-04T10:57:52Z</time>
        <extensions>
          <speed>1.2961530685424805</speed>
        </extensions>
      </trkpt>
      <trkpt lat="39.7488331" lon="3.1857711">
        <ele>50.58000183105469</ele>
        <hdop>10.0</hdop>
        <time>2014-06-04T10:57:58Z</time>
        <extensions>
          <speed>1.3371013402938843</speed>
        </extensions>
      </trkpt>
      <trkpt lat="39.748927" lon="3.1857706">
        <ele>50.58000183105469</ele>
        <hdop>10.0</hdop>
        <time>2014-06-04T10:58:04Z</time>
        <extensions>
          <speed>1.4998884201049805</speed>
        </extensions>
      </trkpt>
      <trkpt lat="39.7490026" lon="3.1857514">
        <ele>50.58000183105469</ele>
        <hdop>10.0</hdop>
        <time>2014-06-04T10:58:10Z</time>
        <extensions>
          <speed>1.3913779258728027</speed>
        </extensions>
      </trkpt>
      <trkpt lat="39.7490593" lon="3.1857456">
        <ele>50.58000183105469</ele>
        <hdop>10.0</hdop>
        <time>2014-06-04T10:58:15Z</time>
        <extensions>
          <speed>1.4310355186462402</speed>
        </extensions>
      </trkpt>
      <trkpt lat="39.7491265" lon="3.1857592">
        <ele>50.58000183105469</ele>
        <hdop>10.0</hdop>
        <time>2014-06-04T10:58:21Z</time>
        <extensions>
          <speed>1.3858944177627563</speed>
        </extensions>
      </trkpt>
      <trkpt lat="39.7491799" lon="3.1857997">
        <ele>50.58000183105469</ele>
        <hdop>10.0</hdop>
        <time>2014-06-04T10:58:27Z</time>
        <extensions>
          <speed>1.2297353744506836</speed>
        </extensions>
      </trkpt>
      <trkpt lat="39.7492214" lon="3.1858616">
        <ele>50.58000183105469</ele>
        <hdop>10.0</hdop>
        <time>2014-06-04T10:58:33Z</time>
        <extensions>
          <speed>1.168548583984375</speed>
        </extensions>
      </trkpt>
      <trkpt lat="39.7492542" lon="3.1859165">
        <ele>50.58000183105469</ele>
        <hdop>10.0</hdop>
        <time>2014-06-04T10:58:38Z</time>
        <extensions>
          <speed>1.1307867765426636</speed>
        </extensions>
      </trkpt>
      <trkpt lat="39.7493186" lon="3.1859933">
        <ele>50.58000183105469</ele>
        <hdop>10.0</hdop>
        <time>2014-06-04T10:58:44Z</time>
        <extensions>
          <speed>1.209973931312561</speed>
        </extensions>
      </trkpt>
      <trkpt lat="39.7494404" lon="3.1860253">
        <ele>50.58000183105469</ele>
        <hdop>10.0</hdop>
        <time>2014-06-04T10:58:50Z</time>
        <extensions>
          <speed>1.4003145694732666</speed>
        </extensions>
      </trkpt>
      <trkpt lat="39.7495141" lon="3.1860178">
        <ele>50.58000183105469</ele>
        <hdop>10.0</hdop>
        <time>2014-06-04T10:58:55Z</time>
        <extensions>
          <speed>1.3890315294265747</speed>
        </extensions>
      </trkpt>
      <trkpt lat="39.7495776" lon="3.1860389">
        <ele>50.58000183105469</ele>
        <hdop>10.0</hdop>
        <time>2014-06-04T10:59:01Z</time>
        <extensions>
          <speed>1.266925573348999</speed>
        </extensions>
      </trkpt>
      <trkpt lat="39.7496341" lon="3.1860636">
        <ele>50.58000183105469</ele>
        <hdop>10.0</hdop>
        <time>2014-06-04T10:59:06Z</time>
        <extensions>
          <speed>1.2945400476455688</speed>
        </extensions>
      </trkpt>
      <trkpt lat="39.7496781" lon="3.1861112">
        <ele>50.58000183105469</ele>
        <hdop>10.0</hdop>
        <time>2014-06-04T10:59:11Z</time>
        <extensions>
          <speed>1.0283615589141846</speed>
        </extensions>
      </trkpt>
      <trkpt lat="39.7497303" lon="3.186151">
        <ele>50.58000183105469</ele>
        <hdop>10.0</hdop>
        <time>2014-06-04T10:59:17Z</time>
        <extensions>
          <speed>1.0454415082931519</speed>
        </extensions>
      </trkpt>
      <trkpt lat="39.749798" lon="3.1861732">
        <ele>49.58000183105469</ele>
        <hdop>10.0</hdop>
        <time>2014-06-04T10:59:23Z</time>
        <extensions>
          <speed>1.1685446500778198</speed>
        </extensions>
      </trkpt>
      <trkpt lat="39.7498636" lon="3.1861976">
        <ele>49.58000183105469</ele>
        <hdop>10.0</hdop>
        <time>2014-06-04T10:59:29Z</time>
        <extensions>
          <speed>1.2077324390411377</speed>
        </extensions>
      </trkpt>
      <trkpt lat="39.7499363" lon="3.1862443">
        <ele>49.58000183105469</ele>
        <hdop>10.0</hdop>
        <time>2014-06-04T10:59:35Z</time>
        <extensions>
          <speed>1.0429846048355103</speed>
        </extensions>
      </trkpt>
      <trkpt lat="39.7499615" lon="3.1862693">
        <ele>48.58000183105469</ele>
        <hdop>10.0</hdop>
        <time>2014-06-04T10:59:41Z</time>
      </trkpt>
      <trkpt lat="39.7499939" lon="3.186298">
        <ele>48.58000183105469</ele>
        <hdop>10.0</hdop>
        <time>2014-06-04T10:59:46Z</time>
      </trkpt>
      <trkpt lat="39.7499939" lon="3.186298">
        <ele>48.58000183105469</ele>
        <hdop>10.0</hdop>
        <time>2014-06-04T10:59:52Z</time>
      </trkpt>
      <trkpt lat="39.7500719" lon="3.1863337">
        <ele>48.36000061035156</ele>
        <hdop>10.0</hdop>
        <time>2014-06-04T10:59:57Z</time>
        <extensions>
          <speed>0.6110948920249939</speed>
        </extensions>
      </trkpt>
      <trkpt lat="39.750185" lon="3.1863951">
        <ele>48.36000061035156</ele>
        <hdop>10.0</hdop>
        <time>2014-06-04T11:00:03Z</time>
        <extensions>
          <speed>0.7301997542381287</speed>
        </extensions>
      </trkpt>
      <trkpt lat="39.7502612" lon="3.1864319">
        <ele>47.36000061035156</ele>
        <hdop>10.0</hdop>
        <time>2014-06-04T11:00:09Z</time>
        <extensions>
          <speed>0.8578540682792664</speed>
        </extensions>
      </trkpt>
      <trkpt lat="39.7503414" lon="3.1864698">
        <ele>47.36000061035156</ele>
        <hdop>10.0</hdop>
        <time>2014-06-04T11:00:15Z</time>
        <extensions>
          <speed>1.2410743236541748</speed>
        </extensions>
      </trkpt>
      <trkpt lat="39.7504214" lon="3.1865181">
        <ele>47.36000061035156</ele>
        <hdop>10.0</hdop>
        <time>2014-06-04T11:00:20Z</time>
        <extensions>
          <speed>1.0951738357543945</speed>
        </extensions>
      </trkpt>
      <trkpt lat="39.750524" lon="3.1865733">
        <ele>47.36000061035156</ele>
        <hdop>10.0</hdop>
        <time>2014-06-04T11:00:25Z</time>
        <extensions>
          <speed>1.1834213733673096</speed>
        </extensions>
      </trkpt>
      <trkpt lat="39.7505967" lon="3.1866099">
        <ele>47.36000061035156</ele>
        <hdop>10.0</hdop>
        <time>2014-06-04T11:00:31Z</time>
        <extensions>
          <speed>1.144805908203125</speed>
        </extensions>
      </trkpt>
      <trkpt lat="39.7506626" lon="3.1866414">
        <ele>47.36000061035156</ele>
        <hdop>10.0</hdop>
        <time>2014-06-04T11:00:36Z</time>
        <extensions>
          <speed>1.1795790195465088</speed>
        </extensions>
      </trkpt>
      <trkpt lat="39.7507314" lon="3.1866963">
        <ele>46.36000061035156</ele>
        <hdop>10.0</hdop>
        <time>2014-06-04T11:00:42Z</time>
        <extensions>
          <speed>1.16775643825531</speed>
        </extensions>
      </trkpt>
      <trkpt lat="39.7507855" lon="3.1867414">
        <ele>46.36000061035156</ele>
        <hdop>10.0</hdop>
        <time>2014-06-04T11:00:48Z</time>
        <extensions>
          <speed>1.1520936489105225</speed>
        </extensions>
      </trkpt>
      <trkpt lat="39.7508399" lon="3.1867817">
        <ele>46.36000061035156</ele>
        <hdop>10.0</hdop>
        <time>2014-06-04T11:00:54Z</time>
        <extensions>
          <speed>1.1169434785842896</speed>
        </extensions>
      </trkpt>
      <trkpt lat="39.7508779" lon="3.1868364">
        <ele>45.36000061035156</ele>
        <hdop>10.0</hdop>
        <time>2014-06-04T11:01:00Z</time>
        <extensions>
          <speed>1.144065260887146</speed>
        </extensions>
      </trkpt>
      <trkpt lat="39.7509321" lon="3.1869309">
        <ele>45.36000061035156</ele>
        <hdop>10.0</hdop>
        <time>2014-06-04T11:01:06Z</time>
        <extensions>
          <speed>1.1841204166412354</speed>
        </extensions>
      </trkpt>
      <trkpt lat="39.7509633" lon="3.1870097">
        <ele>44.36000061035156</ele>
        <hdop>10.0</hdop>
        <time>2014-06-04T11:01:11Z</time>
        <extensions>
          <speed>1.2238032817840576</speed>
        </extensions>
      </trkpt>
      <trkpt lat="39.7509982" lon="3.1870754">
        <ele>44.36000061035156</ele>
        <hdop>10.0</hdop>
        <time>2014-06-04T11:01:16Z</time>
        <extensions>
          <speed>1.2265888452529907</speed>
        </extensions>
      </trkpt>
      <trkpt lat="39.7510298" lon="3.1871239">
        <ele>43.36000061035156</ele>
        <hdop>10.0</hdop>
        <time>2014-06-04T11:01:22Z</time>
        <extensions>
          <speed>1.23434579372406</speed>
        </extensions>
      </trkpt>
      <trkpt lat="39.751057" lon="3.1871792">
        <ele>43.36000061035156</ele>
        <hdop>10.0</hdop>
        <time>2014-06-04T11:01:27Z</time>
        <extensions>
          <speed>1.2358051538467407</speed>
        </extensions>
      </trkpt>
      <trkpt lat="39.7511016" lon="3.187258">
        <ele>43.36000061035156</ele>
        <hdop>10.0</hdop>
        <time>2014-06-04T11:01:33Z</time>
        <extensions>
          <speed>1.230514645576477</speed>
        </extensions>
      </trkpt>
      <trkpt lat="39.7511665" lon="3.1873372">
        <ele>42.36000061035156</ele>
        <hdop>10.0</hdop>
        <time>2014-06-04T11:01:39Z</time>
        <extensions>
          <speed>1.2199783325195313</speed>
        </extensions>
      </trkpt>
      <trkpt lat="39.7512171" lon="3.1874102">
        <ele>42.36000061035156</ele>
        <hdop>10.0</hdop>
        <time>2014-06-04T11:01:44Z</time>
        <extensions>
          <speed>1.2279421091079712</speed>
        </extensions>
      </trkpt>
      <trkpt lat="39.7512715" lon="3.1874595">
        <ele>42.36000061035156</ele>
        <hdop>10.0</hdop>
        <time>2014-06-04T11:01:50Z</time>
        <extensions>
          <speed>1.2048330307006836</speed>
        </extensions>
      </trkpt>
      <trkpt lat="39.7513115" lon="3.1875185">
        <ele>41.36000061035156</ele>
        <hdop>10.0</hdop>
        <time>2014-06-04T11:01:55Z</time>
        <extensions>
          <speed>1.2256991863250732</speed>
        </extensions>
      </trkpt>
      <trkpt lat="39.7513625" lon="3.1876007">
        <ele>41.36000061035156</ele>
        <hdop>10.0</hdop>
        <time>2014-06-04T11:02:01Z</time>
        <extensions>
          <speed>1.2275584936141968</speed>
        </extensions>
      </trkpt>
      <trkpt lat="39.7514106" lon="3.1876687">
        <ele>41.36000061035156</ele>
        <hdop>10.0</hdop>
        <time>2014-06-04T11:02:07Z</time>
        <extensions>
          <speed>0.9746251702308655</speed>
        </extensions>
      </trkpt>
      <trkpt lat="39.7514136" lon="3.1876117">
        <ele>40.36000061035156</ele>
        <hdop>10.0</hdop>
        <time>2014-06-04T11:02:13Z</time>
        <extensions>
          <speed>1.0810778141021729</speed>
        </extensions>
      </trkpt>
      <trkpt lat="39.7514343" lon="3.1875878">
        <ele>39.36000061035156</ele>
        <hdop>10.0</hdop>
        <time>2014-06-04T11:02:19Z</time>
        <extensions>
          <speed>0.4924468994140625</speed>
        </extensions>
      </trkpt>
      <trkpt lat="39.7514634" lon="3.1875741">
        <ele>38.36000061035156</ele>
        <hdop>30.0</hdop>
        <time>2014-06-04T11:02:25Z</time>
        <extensions>
          <speed>0.6347963213920593</speed>
        </extensions>
      </trkpt>
      <trkpt lat="39.751509" lon="3.1875982">
        <ele>38.36000061035156</ele>
        <hdop>10.0</hdop>
        <time>2014-06-04T11:02:30Z</time>
        <extensions>
          <speed>0.8396309614181519</speed>
        </extensions>
      </trkpt>
      <trkpt lat="39.7515261" lon="3.1876404">
        <ele>37.36000061035156</ele>
        <hdop>10.0</hdop>
        <time>2014-06-04T11:02:35Z</time>
        <extensions>
          <speed>0.8269464373588562</speed>
        </extensions>
      </trkpt>
      <trkpt lat="39.7515296" lon="3.1876522">
        <ele>37.36000061035156</ele>
        <hdop>10.0</hdop>
        <time>2014-06-04T11:02:40Z</time>
        <extensions>
          <speed>0.5224968194961548</speed>
        </extensions>
      </trkpt>
      <trkpt lat="39.7515463" lon="3.1877374">
        <ele>37.36000061035156</ele>
        <hdop>10.0</hdop>
        <time>2014-06-04T11:02:46Z</time>
        <extensions>
          <speed>1.0675560235977173</speed>
        </extensions>
      </trkpt>
      <trkpt lat="39.7515454" lon="3.18775">
        <ele>37.36000061035156</ele>
        <hdop>10.0</hdop>
        <time>2014-06-04T11:02:51Z</time>
        <extensions>
          <speed>0.4183470904827118</speed>
        </extensions>
      </trkpt>
      <trkpt lat="39.7515685" lon="3.1877628">
        <ele>37.36000061035156</ele>
        <hdop>10.0</hdop>
        <time>2014-06-04T11:02:56Z</time>
        <extensions>
          <speed>0.5789309144020081</speed>
        </extensions>
      </trkpt>
      <trkpt lat="39.7515814" lon="3.1877763">
        <ele>37.36000061035156</ele>
        <hdop>10.0</hdop>
        <time>2014-06-04T11:03:01Z</time>
        <extensions>
          <speed>0.8145006895065308</speed>
        </extensions>
      </trkpt>
      <trkpt lat="39.7515814" lon="3.1877762">
        <ele>37.36000061035156</ele>
        <hdop>10.0</hdop>
        <time>2014-06-04T11:03:07Z</time>
      </trkpt>
      <trkpt lat="39.7515814" lon="3.1877762">
        <ele>37.36000061035156</ele>
        <hdop>10.0</hdop>
        <time>2014-06-04T11:03:12Z</time>
      </trkpt>
      <trkpt lat="39.7515805" lon="3.1877757">
        <ele>37.36000061035156</ele>
        <hdop>10.0</hdop>
        <time>2014-06-04T11:03:18Z</time>
      </trkpt>
      <trkpt lat="39.7515805" lon="3.1877757">
        <ele>37.36000061035156</ele>
        <hdop>10.0</hdop>
        <time>2014-06-04T11:03:23Z</time>
      </trkpt>
      <trkpt lat="39.7515874" lon="3.1877272">
        <ele>37.36000061035156</ele>
        <hdop>10.0</hdop>
        <time>2014-06-04T11:03:29Z</time>
        <extensions>
          <speed>0.6051725149154663</speed>
        </extensions>
      </trkpt>
      <trkpt lat="39.7516172" lon="3.1876757">
        <ele>37.36000061035156</ele>
        <hdop>10.0</hdop>
        <time>2014-06-04T11:03:35Z</time>
      </trkpt>
      <trkpt lat="39.7516172" lon="3.1876757">
        <ele>37.36000061035156</ele>
        <hdop>10.0</hdop>
        <time>2014-06-04T11:03:40Z</time>
      </trkpt>
      <trkpt lat="39.7516452" lon="3.1876939">
        <ele>37.36000061035156</ele>
        <hdop>10.0</hdop>
        <time>2014-06-04T11:03:45Z</time>
        <extensions>
          <speed>0.7026002407073975</speed>
        </extensions>
      </trkpt>
      <trkpt lat="39.7516802" lon="3.1876809">
        <ele>36.36000061035156</ele>
        <hdop>30.0</hdop>
        <time>2014-06-04T11:03:51Z</time>
        <extensions>
          <speed>0.6041536927223206</speed>
        </extensions>
      </trkpt>
      <trkpt lat="39.7516807" lon="3.1876805">
        <ele>36.36000061035156</ele>
        <hdop>30.0</hdop>
        <time>2014-06-04T11:03:57Z</time>
      </trkpt>
      <trkpt lat="39.7516778" lon="3.1876672">
        <ele>35.36000061035156</ele>
        <hdop>10.0</hdop>
        <time>2014-06-04T11:04:03Z</time>
        <extensions>
          <speed>0.469944566488266</speed>
        </extensions>
      </trkpt>
      <trkpt lat="39.7516571" lon="3.1876347">
        <ele>35.36000061035156</ele>
        <hdop>10.0</hdop>
        <time>2014-06-04T11:04:09Z</time>
        <extensions>
          <speed>0.9360071420669556</speed>
        </extensions>
      </trkpt>
      <trkpt lat="39.7516674" lon="3.1877497">
        <ele>35.36000061035156</ele>
        <hdop>10.0</hdop>
        <time>2014-06-04T11:04:15Z</time>
        <extensions>
          <speed>1.0582066774368286</speed>
        </extensions>
      </trkpt>
      <trkpt lat="39.7517056" lon="3.1878154">
        <ele>35.36000061035156</ele>
        <hdop>10.0</hdop>
        <time>2014-06-04T11:04:20Z</time>
        <extensions>
          <speed>1.10665762424469</speed>
        </extensions>
      </trkpt>
      <trkpt lat="39.7517158" lon="3.1878244">
        <ele>35.36000061035156</ele>
        <hdop>30.0</hdop>
        <time>2014-06-04T11:04:25Z</time>
      </trkpt>
      <trkpt lat="39.7517514" lon="3.1878364">
        <ele>35.36000061035156</ele>
        <hdop>10.0</hdop>
        <time>2014-06-04T11:04:31Z</time>
        <extensions>
          <speed>0.7781264185905457</speed>
        </extensions>
      </trkpt>
      <trkpt lat="39.7517397" lon="3.1878961">
        <ele>35.36000061035156</ele>
        <hdop>10.0</hdop>
        <time>2014-06-04T11:04:37Z</time>
        <extensions>
          <speed>1.5070534944534302</speed>
        </extensions>
      </trkpt>
      <trkpt lat="39.7517737" lon="3.1879567">
        <ele>35.36000061035156</ele>
        <hdop>10.0</hdop>
        <time>2014-06-04T11:04:42Z</time>
        <extensions>
          <speed>1.6994549036026</speed>
        </extensions>
      </trkpt>
      <trkpt lat="39.751796" lon="3.1880498">
        <ele>35.36000061035156</ele>
        <hdop>10.0</hdop>
        <time>2014-06-04T11:04:48Z</time>
        <extensions>
          <speed>1.3992884159088135</speed>
        </extensions>
      </trkpt>
      <trkpt lat="39.7517771" lon="3.1881367">
        <ele>35.36000061035156</ele>
        <hdop>10.0</hdop>
        <time>2014-06-04T11:04:53Z</time>
        <extensions>
          <speed>1.149416208267212</speed>
        </extensions>
      </trkpt>
      <trkpt lat="39.751762" lon="3.1882313">
        <ele>34.36000061035156</ele>
        <hdop>10.0</hdop>
        <time>2014-06-04T11:04:59Z</time>
        <extensions>
          <speed>1.5008381605148315</speed>
        </extensions>
      </trkpt>
      <trkpt lat="39.7518059" lon="3.1883">
        <ele>34.36000061035156</ele>
        <hdop>10.0</hdop>
        <time>2014-06-04T11:05:04Z</time>
        <extensions>
          <speed>1.667875051498413</speed>
        </extensions>
      </trkpt>
      <trkpt lat="39.7517955" lon="3.1883682">
        <ele>33.36000061035156</ele>
        <hdop>10.0</hdop>
        <time>2014-06-04T11:05:09Z</time>
        <extensions>
          <speed>1.0074750185012817</speed>
        </extensions>
      </trkpt>
      <trkpt lat="39.751839" lon="3.1884868">
        <ele>33.36000061035156</ele>
        <hdop>10.0</hdop>
        <time>2014-06-04T11:05:15Z</time>
        <extensions>
          <speed>1.5317201614379883</speed>
        </extensions>
      </trkpt>
      <trkpt lat="39.7518503" lon="3.1885936">
        <ele>33.36000061035156</ele>
        <hdop>10.0</hdop>
        <time>2014-06-04T11:05:21Z</time>
        <extensions>
          <speed>1.5226472616195679</speed>
        </extensions>
      </trkpt>
      <trkpt lat="39.75186" lon="3.1886652">
        <ele>33.36000061035156</ele>
        <hdop>10.0</hdop>
        <time>2014-06-04T11:05:26Z</time>
        <extensions>
          <speed>1.288705587387085</speed>
        </extensions>
      </trkpt>
      <trkpt lat="39.751898" lon="3.1887394">
        <ele>33.36000061035156</ele>
        <hdop>10.0</hdop>
        <time>2014-06-04T11:05:32Z</time>
        <extensions>
          <speed>1.0204076766967773</speed>
        </extensions>
      </trkpt>
      <trkpt lat="39.7519457" lon="3.1888145">
        <ele>33.36000061035156</ele>
        <hdop>10.0</hdop>
        <time>2014-06-04T11:05:38Z</time>
        <extensions>
          <speed>1.5049521923065186</speed>
        </extensions>
      </trkpt>
      <trkpt lat="39.7519686" lon="3.1888879">
        <ele>33.36000061035156</ele>
        <hdop>10.0</hdop>
        <time>2014-06-04T11:05:44Z</time>
        <extensions>
          <speed>1.68043851852417</speed>
        </extensions>
      </trkpt>
      <trkpt lat="39.7519577" lon="3.1889631">
        <ele>34.36000061035156</ele>
        <hdop>10.0</hdop>
        <time>2014-06-04T11:05:49Z</time>
        <extensions>
          <speed>1.977017879486084</speed>
        </extensions>
      </trkpt>
      <trkpt lat="39.7519747" lon="3.1890147">
        <ele>34.36000061035156</ele>
        <hdop>10.0</hdop>
        <time>2014-06-04T11:05:55Z</time>
        <extensions>
          <speed>1.3928766250610352</speed>
        </extensions>
      </trkpt>
      <trkpt lat="39.751995" lon="3.189046">
        <ele>34.36000061035156</ele>
        <hdop>10.0</hdop>
        <time>2014-06-04T11:06:00Z</time>
        <extensions>
          <speed>1.1185922622680664</speed>
        </extensions>
      </trkpt>
      <trkpt lat="39.7520396" lon="3.1891058">
        <ele>34.36000061035156</ele>
        <hdop>10.0</hdop>
        <time>2014-06-04T11:06:06Z</time>
        <extensions>
          <speed>0.7833764553070068</speed>
        </extensions>
      </trkpt>
      <trkpt lat="39.7520508" lon="3.1891556">
        <ele>34.36000061035156</ele>
        <hdop>30.0</hdop>
        <time>2014-06-04T11:06:11Z</time>
        <extensions>
          <speed>0.9877281188964844</speed>
        </extensions>
      </trkpt>
      <trkpt lat="39.7519604" lon="3.189215">
        <ele>34.36000061035156</ele>
        <hdop>10.0</hdop>
        <time>2014-06-04T11:06:17Z</time>
        <extensions>
          <speed>1.0901682376861572</speed>
        </extensions>
      </trkpt>
      <trkpt lat="39.7519026" lon="3.1892588">
        <ele>34.36000061035156</ele>
        <hdop>10.0</hdop>
        <time>2014-06-04T11:06:23Z</time>
        <extensions>
          <speed>1.0255577564239502</speed>
        </extensions>
      </trkpt>
      <trkpt lat="39.7518945" lon="3.1893238">
        <ele>34.36000061035156</ele>
        <hdop>10.0</hdop>
        <time>2014-06-04T11:06:28Z</time>
        <extensions>
          <speed>1.1286026239395142</speed>
        </extensions>
      </trkpt>
      <trkpt lat="39.751886" lon="3.1893931">
        <ele>34.36000061035156</ele>
        <hdop>10.0</hdop>
        <time>2014-06-04T11:06:33Z</time>
        <extensions>
          <speed>1.19843327999115</speed>
        </extensions>
      </trkpt>
      <trkpt lat="39.75183" lon="3.1894283">
        <ele>34.36000061035156</ele>
        <hdop>10.0</hdop>
        <time>2014-06-04T11:06:39Z</time>
        <extensions>
          <speed>1.1558133363723755</speed>
        </extensions>
      </trkpt>
      <trkpt lat="39.7517774" lon="3.1894879">
        <ele>34.36000061035156</ele>
        <hdop>10.0</hdop>
        <time>2014-06-04T11:06:45Z</time>
        <extensions>
          <speed>1.2183959484100342</speed>
        </extensions>
      </trkpt>
      <trkpt lat="39.7517456" lon="3.1895589">
        <ele>33.36000061035156</ele>
        <hdop>10.0</hdop>
        <time>2014-06-04T11:06:50Z</time>
        <extensions>
          <speed>1.1919622421264648</speed>
        </extensions>
      </trkpt>
      <trkpt lat="39.7517083" lon="3.1896038">
        <ele>33.36000061035156</ele>
        <hdop>10.0</hdop>
        <time>2014-06-04T11:06:55Z</time>
        <extensions>
          <speed>1.2964907884597778</speed>
        </extensions>
      </trkpt>
      <trkpt lat="39.7516628" lon="3.1896671">
        <ele>33.36000061035156</ele>
        <hdop>10.0</hdop>
        <time>2014-06-04T11:07:01Z</time>
        <extensions>
          <speed>1.237799882888794</speed>
        </extensions>
      </trkpt>
      <trkpt lat="39.7516272" lon="3.1897544">
        <ele>33.36000061035156</ele>
        <hdop>10.0</hdop>
        <time>2014-06-04T11:07:07Z</time>
        <extensions>
          <speed>1.2040075063705444</speed>
        </extensions>
      </trkpt>
      <trkpt lat="39.751593" lon="3.189833">
        <ele>33.36000061035156</ele>
        <hdop>10.0</hdop>
        <time>2014-06-04T11:07:13Z</time>
        <extensions>
          <speed>1.2235255241394043</speed>
        </extensions>
      </trkpt>
      <trkpt lat="39.7515516" lon="3.1899525">
        <ele>32.36000061035156</ele>
        <hdop>10.0</hdop>
        <time>2014-06-04T11:07:19Z</time>
        <extensions>
          <speed>1.3123247623443604</speed>
        </extensions>
      </trkpt>
      <trkpt lat="39.7514978" lon="3.1900343">
        <ele>32.36000061035156</ele>
        <hdop>30.0</hdop>
        <time>2014-06-04T11:07:25Z</time>
        <extensions>
          <speed>1.329359531402588</speed>
        </extensions>
      </trkpt>
      <trkpt lat="39.7515029" lon="3.1903683">
        <ele>32.36000061035156</ele>
        <hdop>30.0</hdop>
        <time>2014-06-04T11:07:30Z</time>
      </trkpt>
      <trkpt lat="39.7515348" lon="3.1902932">
        <ele>32.36000061035156</ele>
        <hdop>10.0</hdop>
        <time>2014-06-04T11:07:36Z</time>
      </trkpt>
      <trkpt lat="39.7514758" lon="3.1902979">
        <ele>32.36000061035156</ele>
        <hdop>5.0</hdop>
        <time>2014-06-04T11:07:42Z</time>
      </trkpt>
      <trkpt lat="39.7514407" lon="3.1903673">
        <ele>32.36000061035156</ele>
        <hdop>10.0</hdop>
        <time>2014-06-04T11:07:47Z</time>
        <extensions>
          <speed>1.5057862997055054</speed>
        </extensions>
      </trkpt>
      <trkpt lat="39.7514056" lon="3.190446">
        <ele>32.36000061035156</ele>
        <hdop>10.0</hdop>
        <time>2014-06-04T11:07:53Z</time>
        <extensions>
          <speed>1.3361589908599854</speed>
        </extensions>
      </trkpt>
      <trkpt lat="39.7513711" lon="3.1905104">
        <ele>32.36000061035156</ele>
        <hdop>5.0</hdop>
        <time>2014-06-04T11:07:58Z</time>
        <extensions>
          <speed>1.489582896232605</speed>
        </extensions>
      </trkpt>
      <trkpt lat="39.7513363" lon="3.190577">
        <ele>32.36000061035156</ele>
        <hdop>10.0</hdop>
        <time>2014-06-04T11:08:03Z</time>
        <extensions>
          <speed>1.2697125673294067</speed>
        </extensions>
      </trkpt>
      <trkpt lat="39.7512749" lon="3.1906294">
        <ele>31.360000610351563</ele>
        <hdop>10.0</hdop>
        <time>2014-06-04T11:08:09Z</time>
        <extensions>
          <speed>1.2637566328048706</speed>
        </extensions>
      </trkpt>
      <trkpt lat="39.7512268" lon="3.1906963">
        <ele>31.360000610351563</ele>
        <hdop>10.0</hdop>
        <time>2014-06-04T11:08:15Z</time>
        <extensions>
          <speed>1.4780757427215576</speed>
        </extensions>
      </trkpt>
      <trkpt lat="39.7511695" lon="3.1907607">
        <ele>31.360000610351563</ele>
        <hdop>10.0</hdop>
        <time>2014-06-04T11:08:21Z</time>
        <extensions>
          <speed>1.1589760780334473</speed>
        </extensions>
      </trkpt>
      <trkpt lat="39.7511165" lon="3.1908153">
        <ele>31.360000610351563</ele>
        <hdop>5.0</hdop>
        <time>2014-06-04T11:08:26Z</time>
        <extensions>
          <speed>1.5743720531463623</speed>
        </extensions>
      </trkpt>
      <trkpt lat="39.751075" lon="3.190886">
        <ele>31.360000610351563</ele>
        <hdop>5.0</hdop>
        <time>2014-06-04T11:08:31Z</time>
        <extensions>
          <speed>1.3990525007247925</speed>
        </extensions>
      </trkpt>
      <trkpt lat="39.7510306" lon="3.1909802">
        <ele>30.360000610351563</ele>
        <hdop>10.0</hdop>
        <time>2014-06-04T11:08:37Z</time>
        <extensions>
          <speed>1.4465994834899902</speed>
        </extensions>
      </trkpt>
      <trkpt lat="39.7510054" lon="3.1910616">
        <ele>30.360000610351563</ele>
        <hdop>5.0</hdop>
        <time>2014-06-04T11:08:42Z</time>
        <extensions>
          <speed>1.3943005800247192</speed>
        </extensions>
      </trkpt>
      <trkpt lat="39.7509503" lon="3.1911296">
        <ele>30.360000610351563</ele>
        <hdop>5.0</hdop>
        <time>2014-06-04T11:08:48Z</time>
        <extensions>
          <speed>1.4237499237060547</speed>
        </extensions>
      </trkpt>
      <trkpt lat="39.7509012" lon="3.1911635">
        <ele>30.360000610351563</ele>
        <hdop>5.0</hdop>
        <time>2014-06-04T11:08:53Z</time>
        <extensions>
          <speed>1.12449312210083</speed>
        </extensions>
      </trkpt>
      <trkpt lat="39.7508468" lon="3.1911985">
        <ele>30.360000610351563</ele>
        <hdop>10.0</hdop>
        <time>2014-06-04T11:08:59Z</time>
      </trkpt>
      <trkpt lat="39.7507827" lon="3.1912306">
        <ele>30.360000610351563</ele>
        <hdop>5.0</hdop>
        <time>2014-06-04T11:09:04Z</time>
      </trkpt>
      <trkpt lat="39.7507077" lon="3.1912707">
        <ele>30.360000610351563</ele>
        <hdop>10.0</hdop>
        <time>2014-06-04T11:09:10Z</time>
        <extensions>
          <speed>1.2764925956726074</speed>
        </extensions>
      </trkpt>
      <trkpt lat="39.7506367" lon="3.1913195">
        <ele>29.360000610351563</ele>
        <hdop>10.0</hdop>
        <time>2014-06-04T11:09:16Z</time>
        <extensions>
          <speed>1.3434399366378784</speed>
        </extensions>
      </trkpt>
      <trkpt lat="39.7505763" lon="3.1913643">
        <ele>29.360000610351563</ele>
        <hdop>5.0</hdop>
        <time>2014-06-04T11:09:22Z</time>
        <extensions>
          <speed>1.1861788034439087</speed>
        </extensions>
      </trkpt>
      <trkpt lat="39.750533" lon="3.1914142">
        <ele>29.360000610351563</ele>
        <hdop>5.0</hdop>
        <time>2014-06-04T11:09:27Z</time>
        <extensions>
          <speed>1.3021667003631592</speed>
        </extensions>
      </trkpt>
      <trkpt lat="39.7505021" lon="3.1914807">
        <ele>29.360000610351563</ele>
        <hdop>5.0</hdop>
        <time>2014-06-04T11:09:32Z</time>
        <extensions>
          <speed>1.1872912645339966</speed>
        </extensions>
      </trkpt>
      <trkpt lat="39.7504593" lon="3.1915586">
        <ele>28.360000610351563</ele>
        <hdop>5.0</hdop>
        <time>2014-06-04T11:09:38Z</time>
        <extensions>
          <speed>1.3167104721069336</speed>
        </extensions>
      </trkpt>
      <trkpt lat="39.7504456" lon="3.19161">
        <ele>28.360000610351563</ele>
        <hdop>10.0</hdop>
        <time>2014-06-04T11:09:44Z</time>
      </trkpt>
      <trkpt lat="39.750452" lon="3.1917575">
        <ele>27.360000610351563</ele>
        <hdop>5.0</hdop>
        <time>2014-06-04T11:09:49Z</time>
        <extensions>
          <speed>1.6179343461990356</speed>
        </extensions>
      </trkpt>
      <trkpt lat="39.7504497" lon="3.1918889">
        <ele>27.360000610351563</ele>
        <hdop>5.0</hdop>
        <time>2014-06-04T11:09:55Z</time>
      </trkpt>
      <trkpt lat="39.7504442" lon="3.1919235">
        <ele>26.360000610351563</ele>
        <hdop>10.0</hdop>
        <time>2014-06-04T11:10:00Z</time>
      </trkpt>
      <trkpt lat="39.7504365" lon="3.1920168">
        <ele>26.360000610351563</ele>
        <hdop>5.0</hdop>
        <time>2014-06-04T11:10:06Z</time>
      </trkpt>
      <trkpt lat="39.7504172" lon="3.1921675">
        <ele>25.360000610351563</ele>
        <hdop>5.0</hdop>
        <time>2014-06-04T11:10:12Z</time>
        <extensions>
          <speed>1.4659475088119507</speed>
        </extensions>
      </trkpt>
      <trkpt lat="39.7504223" lon="3.1922028">
        <ele>25.360000610351563</ele>
        <hdop>10.0</hdop>
        <time>2014-06-04T11:10:17Z</time>
      </trkpt>
      <trkpt lat="39.7504346" lon="3.1923222">
        <ele>25.360000610351563</ele>
        <hdop>10.0</hdop>
        <time>2014-06-04T11:10:23Z</time>
      </trkpt>
      <trkpt lat="39.7504454" lon="3.1924075">
        <ele>24.360000610351563</ele>
        <hdop>10.0</hdop>
        <time>2014-06-04T11:10:29Z</time>
      </trkpt>
      <trkpt lat="39.7504509" lon="3.1924724">
        <ele>24.360000610351563</ele>
        <hdop>10.0</hdop>
        <time>2014-06-04T11:10:34Z</time>
      </trkpt>
      <trkpt lat="39.7504259" lon="3.1925594">
        <ele>24.360000610351563</ele>
        <hdop>5.0</hdop>
        <time>2014-06-04T11:10:39Z</time>
      </trkpt>
      <trkpt lat="39.7503675" lon="3.1926552">
        <ele>23.360000610351563</ele>
        <hdop>5.0</hdop>
        <time>2014-06-04T11:10:45Z</time>
        <extensions>
          <speed>1.2538559436798096</speed>
        </extensions>
      </trkpt>
      <trkpt lat="39.7503345" lon="3.1927127">
        <ele>23.360000610351563</ele>
        <hdop>5.0</hdop>
        <time>2014-06-04T11:10:50Z</time>
        <extensions>
          <speed>1.334702730178833</speed>
        </extensions>
      </trkpt>
      <trkpt lat="39.7502912" lon="3.1927876">
        <ele>23.360000610351563</ele>
        <hdop>5.0</hdop>
        <time>2014-06-04T11:10:56Z</time>
        <extensions>
          <speed>1.3510102033615112</speed>
        </extensions>
      </trkpt>
      <trkpt lat="39.7502351" lon="3.1928501">
        <ele>23.360000610351563</ele>
        <hdop>5.0</hdop>
        <time>2014-06-04T11:11:02Z</time>
        <extensions>
          <speed>1.2604719400405884</speed>
        </extensions>
      </trkpt>
      <trkpt lat="39.7501938" lon="3.1929025">
        <ele>23.360000610351563</ele>
        <hdop>5.0</hdop>
        <time>2014-06-04T11:11:07Z</time>
        <extensions>
          <speed>1.2033993005752563</speed>
        </extensions>
      </trkpt>
      <trkpt lat="39.7501585" lon="3.1929372">
        <ele>23.360000610351563</ele>
        <hdop>5.0</hdop>
        <time>2014-06-04T11:11:13Z</time>
      </trkpt>
      <trkpt lat="39.7500962" lon="3.1930158">
        <ele>23.360000610351563</ele>
        <hdop>5.0</hdop>
        <time>2014-06-04T11:11:18Z</time>
        <extensions>
          <speed>1.4495124816894531</speed>
        </extensions>
      </trkpt>
      <trkpt lat="39.7500357" lon="3.193081">
        <ele>23.360000610351563</ele>
        <hdop>5.0</hdop>
        <time>2014-06-04T11:11:24Z</time>
        <extensions>
          <speed>1.435147762298584</speed>
        </extensions>
      </trkpt>
      <trkpt lat="39.749966" lon="3.1930979">
        <ele>22.580001831054688</ele>
        <hdop>5.0</hdop>
        <time>2014-06-04T11:11:30Z</time>
        <extensions>
          <speed>1.210227131843567</speed>
        </extensions>
      </trkpt>
      <trkpt lat="39.7499144" lon="3.1931283">
        <ele>22.580001831054688</ele>
        <hdop>5.0</hdop>
        <time>2014-06-04T11:11:35Z</time>
        <extensions>
          <speed>1.1201579570770264</speed>
        </extensions>
      </trkpt>
      <trkpt lat="39.7499006" lon="3.1931504">
        <ele>22.580001831054688</ele>
        <hdop>10.0</hdop>
        <time>2014-06-04T11:11:40Z</time>
      </trkpt>
      <trkpt lat="39.7499006" lon="3.1931504">
        <ele>22.580001831054688</ele>
        <hdop>10.0</hdop>
        <time>2014-06-04T11:11:45Z</time>
      </trkpt>
      <trkpt lat="39.7499006" lon="3.1931504">
        <ele>22.580001831054688</ele>
        <hdop>30.0</hdop>
        <time>2014-06-04T11:11:51Z</time>
      </trkpt>
      <trkpt lat="39.7498473" lon="3.1932785">
        <ele>21.580001831054688</ele>
        <hdop>5.0</hdop>
        <time>2014-06-04T11:11:57Z</time>
        <extensions>
          <speed>1.2157903909683228</speed>
        </extensions>
      </trkpt>
      <trkpt lat="39.7498221" lon="3.1933027">
        <ele>20.580001831054688</ele>
        <hdop>5.0</hdop>
        <time>2014-06-04T11:12:02Z</time>
      </trkpt>
      <trkpt lat="39.7497554" lon="3.1933603">
        <ele>20.580001831054688</ele>
        <hdop>5.0</hdop>
        <time>2014-06-04T11:12:08Z</time>
        <extensions>
          <speed>1.2061914205551147</speed>
        </extensions>
      </trkpt>
      <trkpt lat="39.7497473" lon="3.1933723">
        <ele>20.580001831054688</ele>
        <hdop>5.0</hdop>
        <time>2014-06-04T11:12:13Z</time>
      </trkpt>
      <trkpt lat="39.7497059" lon="3.1934801">
        <ele>19.580001831054688</ele>
        <hdop>5.0</hdop>
        <time>2014-06-04T11:12:18Z</time>
      </trkpt>
      <trkpt lat="39.7496852" lon="3.19358">
        <ele>19.580001831054688</ele>
        <hdop>5.0</hdop>
        <time>2014-06-04T11:12:24Z</time>
      </trkpt>
      <trkpt lat="39.7496321" lon="3.1936502">
        <ele>19.580001831054688</ele>
        <hdop>5.0</hdop>
        <time>2014-06-04T11:12:30Z</time>
        <extensions>
          <speed>1.1898638010025024</speed>
        </extensions>
      </trkpt>
      <trkpt lat="39.7495624" lon="3.1936833">
        <ele>18.580001831054688</ele>
        <hdop>5.0</hdop>
        <time>2014-06-04T11:12:36Z</time>
        <extensions>
          <speed>1.1884483098983765</speed>
        </extensions>
      </trkpt>
      <trkpt lat="39.7494951" lon="3.1937145">
        <ele>18.580001831054688</ele>
        <hdop>5.0</hdop>
        <time>2014-06-04T11:12:42Z</time>
        <extensions>
          <speed>1.1772865056991577</speed>
        </extensions>
      </trkpt>
      <trkpt lat="39.7494493" lon="3.1937817">
        <ele>18.580001831054688</ele>
        <hdop>5.0</hdop>
        <time>2014-06-04T11:12:48Z</time>
        <extensions>
          <speed>1.1825138330459595</speed>
        </extensions>
      </trkpt>
      <trkpt lat="39.7494081" lon="3.1938344">
        <ele>18.580001831054688</ele>
        <hdop>5.0</hdop>
        <time>2014-06-04T11:12:53Z</time>
        <extensions>
          <speed>1.1897714138031006</speed>
        </extensions>
      </trkpt>
      <trkpt lat="39.7493825" lon="3.1938894">
        <ele>18.580001831054688</ele>
        <hdop>10.0</hdop>
        <time>2014-06-04T11:12:59Z</time>
        <extensions>
          <speed>0.9713594317436218</speed>
        </extensions>
      </trkpt>
      <trkpt lat="39.7493642" lon="3.193957">
        <ele>18.580001831054688</ele>
        <hdop>5.0</hdop>
        <time>2014-06-04T11:13:04Z</time>
        <extensions>
          <speed>1.1653486490249634</speed>
        </extensions>
      </trkpt>
      <trkpt lat="39.749334" lon="3.1940421">
        <ele>18.580001831054688</ele>
        <hdop>10.0</hdop>
        <time>2014-06-04T11:13:10Z</time>
        <extensions>
          <speed>1.1536102294921875</speed>
        </extensions>
      </trkpt>
      <trkpt lat="39.7492942" lon="3.1941206">
        <ele>18.580001831054688</ele>
        <hdop>5.0</hdop>
        <time>2014-06-04T11:13:16Z</time>
        <extensions>
          <speed>1.2553256750106812</speed>
        </extensions>
      </trkpt>
      <trkpt lat="39.7492617" lon="3.1941907">
        <ele>18.580001831054688</ele>
        <hdop>5.0</hdop>
        <time>2014-06-04T11:13:21Z</time>
        <extensions>
          <speed>1.3325085639953613</speed>
        </extensions>
      </trkpt>
      <trkpt lat="39.7492103" lon="3.1942557">
        <ele>18.580001831054688</ele>
        <hdop>5.0</hdop>
        <time>2014-06-04T11:13:27Z</time>
        <extensions>
          <speed>1.3370814323425293</speed>
        </extensions>
      </trkpt>
      <trkpt lat="39.7491811" lon="3.1943283">
        <ele>18.580001831054688</ele>
        <hdop>5.0</hdop>
        <time>2014-06-04T11:13:32Z</time>
        <extensions>
          <speed>1.372397780418396</speed>
        </extensions>
      </trkpt>
      <trkpt lat="39.7491587" lon="3.1944203">
        <ele>18.580001831054688</ele>
        <hdop>5.0</hdop>
        <time>2014-06-04T11:13:38Z</time>
        <extensions>
          <speed>1.3481842279434204</speed>
        </extensions>
      </trkpt>
      <trkpt lat="39.7491376" lon="3.1944968">
        <ele>18.580001831054688</ele>
        <hdop>5.0</hdop>
        <time>2014-06-04T11:13:44Z</time>
        <extensions>
          <speed>1.3187694549560547</speed>
        </extensions>
      </trkpt>
      <trkpt lat="39.7491158" lon="3.1945874">
        <ele>18.580001831054688</ele>
        <hdop>5.0</hdop>
        <time>2014-06-04T11:13:50Z</time>
        <extensions>
          <speed>1.3224775791168213</speed>
        </extensions>
      </trkpt>
      <trkpt lat="39.7491033" lon="3.1946557">
        <ele>18.580001831054688</ele>
        <hdop>5.0</hdop>
        <time>2014-06-04T11:13:55Z</time>
        <extensions>
          <speed>1.3317396640777588</speed>
        </extensions>
      </trkpt>
      <trkpt lat="39.7490891" lon="3.1947188">
        <ele>17.580001831054688</ele>
        <hdop>5.0</hdop>
        <time>2014-06-04T11:14:00Z</time>
        <extensions>
          <speed>1.263384222984314</speed>
        </extensions>
      </trkpt>
      <trkpt lat="39.749066" lon="3.1947985">
        <ele>17.580001831054688</ele>
        <hdop>5.0</hdop>
        <time>2014-06-04T11:14:06Z</time>
        <extensions>
          <speed>1.2294445037841797</speed>
        </extensions>
      </trkpt>
      <trkpt lat="39.7490459" lon="3.1948691">
        <ele>17.580001831054688</ele>
        <hdop>5.0</hdop>
        <time>2014-06-04T11:14:11Z</time>
        <extensions>
          <speed>1.3009597063064575</speed>
        </extensions>
      </trkpt>
      <trkpt lat="39.7490099" lon="3.1949543">
        <ele>17.580001831054688</ele>
        <hdop>10.0</hdop>
        <time>2014-06-04T11:14:17Z</time>
        <extensions>
          <speed>1.3728657960891724</speed>
        </extensions>
      </trkpt>
      <trkpt lat="39.7489347" lon="3.1950169">
        <ele>17.580001831054688</ele>
        <hdop>5.0</hdop>
        <time>2014-06-04T11:14:23Z</time>
        <extensions>
          <speed>1.4553382396697998</speed>
        </extensions>
      </trkpt>
      <trkpt lat="39.7488677" lon="3.1950539">
        <ele>17.580001831054688</ele>
        <hdop>5.0</hdop>
        <time>2014-06-04T11:14:28Z</time>
        <extensions>
          <speed>1.4246653318405151</speed>
        </extensions>
      </trkpt>
      <trkpt lat="39.7488135" lon="3.1950923">
        <ele>17.580001831054688</ele>
        <hdop>5.0</hdop>
        <time>2014-06-04T11:14:33Z</time>
        <extensions>
          <speed>1.4846081733703613</speed>
        </extensions>
      </trkpt>
      <trkpt lat="39.7487565" lon="3.1951525">
        <ele>17.580001831054688</ele>
        <hdop>10.0</hdop>
        <time>2014-06-04T11:14:39Z</time>
        <extensions>
          <speed>1.4481524229049683</speed>
        </extensions>
      </trkpt>
      <trkpt lat="39.7487233" lon="3.195208">
        <ele>17.580001831054688</ele>
        <hdop>5.0</hdop>
        <time>2014-06-04T11:14:44Z</time>
        <extensions>
          <speed>1.3868072032928467</speed>
        </extensions>
      </trkpt>
      <trkpt lat="39.7486826" lon="3.1952725">
        <ele>17.580001831054688</ele>
        <hdop>5.0</hdop>
        <time>2014-06-04T11:14:50Z</time>
        <extensions>
          <speed>1.2750229835510254</speed>
        </extensions>
      </trkpt>
      <trkpt lat="39.7486562" lon="3.1953437">
        <ele>18.580001831054688</ele>
        <hdop>5.0</hdop>
        <time>2014-06-04T11:14:55Z</time>
        <extensions>
          <speed>1.2831699848175049</speed>
        </extensions>
      </trkpt>
      <trkpt lat="39.7486298" lon="3.1954464">
        <ele>18.580001831054688</ele>
        <hdop>5.0</hdop>
        <time>2014-06-04T11:15:01Z</time>
        <extensions>
          <speed>1.3025569915771484</speed>
        </extensions>
      </trkpt>
      <trkpt lat="39.7486103" lon="3.1955324">
        <ele>18.580001831054688</ele>
        <hdop>5.0</hdop>
        <time>2014-06-04T11:15:06Z</time>
        <extensions>
          <speed>1.3240704536437988</speed>
        </extensions>
      </trkpt>
      <trkpt lat="39.7485814" lon="3.1956254">
        <ele>18.580001831054688</ele>
        <hdop>10.0</hdop>
        <time>2014-06-04T11:15:12Z</time>
        <extensions>
          <speed>1.3136578798294067</speed>
        </extensions>
      </trkpt>
      <trkpt lat="39.748549" lon="3.1957053">
        <ele>18.580001831054688</ele>
        <hdop>5.0</hdop>
        <time>2014-06-04T11:15:18Z</time>
        <extensions>
          <speed>1.32478666305542</speed>
        </extensions>
      </trkpt>
      <trkpt lat="39.748503" lon="3.1957762">
        <ele>18.580001831054688</ele>
        <hdop>5.0</hdop>
        <time>2014-06-04T11:15:24Z</time>
        <extensions>
          <speed>1.3648592233657837</speed>
        </extensions>
      </trkpt>
      <trkpt lat="39.74844" lon="3.1958433">
        <ele>18.580001831054688</ele>
        <hdop>5.0</hdop>
        <time>2014-06-04T11:15:30Z</time>
        <extensions>
          <speed>1.4291746616363525</speed>
        </extensions>
      </trkpt>
      <trkpt lat="39.7484114" lon="3.1959013">
        <ele>18.580001831054688</ele>
        <hdop>5.0</hdop>
        <time>2014-06-04T11:15:35Z</time>
        <extensions>
          <speed>1.298889398574829</speed>
        </extensions>
      </trkpt>
      <trkpt lat="39.7483876" lon="3.1959725">
        <ele>18.580001831054688</ele>
        <hdop>5.0</hdop>
        <time>2014-06-04T11:15:40Z</time>
        <extensions>
          <speed>1.2935559749603271</speed>
        </extensions>
      </trkpt>
      <trkpt lat="39.7483662" lon="3.196056">
        <ele>18.580001831054688</ele>
        <hdop>5.0</hdop>
        <time>2014-06-04T11:15:45Z</time>
        <extensions>
          <speed>1.3623548746109009</speed>
        </extensions>
      </trkpt>
      <trkpt lat="39.7483391" lon="3.1961436">
        <ele>18.580001831054688</ele>
        <hdop>5.0</hdop>
        <time>2014-06-04T11:15:51Z</time>
        <extensions>
          <speed>1.3497731685638428</speed>
        </extensions>
      </trkpt>
      <trkpt lat="39.7483241" lon="3.196244">
        <ele>18.580001831054688</ele>
        <hdop>5.0</hdop>
        <time>2014-06-04T11:15:57Z</time>
        <extensions>
          <speed>1.3358099460601807</speed>
        </extensions>
      </trkpt>
      <trkpt lat="39.7483456" lon="3.1963454">
        <ele>18.580001831054688</ele>
        <hdop>10.0</hdop>
        <time>2014-06-04T11:16:03Z</time>
        <extensions>
          <speed>0.4235094487667084</speed>
        </extensions>
      </trkpt>
      <trkpt lat="39.7483456" lon="3.1963454">
        <ele>18.580001831054688</ele>
        <hdop>10.0</hdop>
        <time>2014-06-04T11:16:09Z</time>
      </trkpt>
      <trkpt lat="39.7483485" lon="3.1963522">
        <ele>18.580001831054688</ele>
        <hdop>10.0</hdop>
        <time>2014-06-04T11:16:14Z</time>
        <extensions>
          <speed>0.2924574911594391</speed>
        </extensions>
      </trkpt>
      <trkpt lat="39.7483557" lon="3.1963298">
        <ele>17.580001831054688</ele>
        <hdop>30.0</hdop>
        <time>2014-06-04T11:16:20Z</time>
        <extensions>
          <speed>0.6423889398574829</speed>
        </extensions>
      </trkpt>
      <trkpt lat="39.7483486" lon="3.1963102">
        <ele>17.580001831054688</ele>
        <hdop>10.0</hdop>
        <time>2014-06-04T11:16:25Z</time>
      </trkpt>
      <trkpt lat="39.7483486" lon="3.1963102">
        <ele>17.580001831054688</ele>
        <hdop>10.0</hdop>
        <time>2014-06-04T11:16:31Z</time>
      </trkpt>
      <trkpt lat="39.7483486" lon="3.1963102">
        <ele>17.580001831054688</ele>
        <hdop>10.0</hdop>
        <time>2014-06-04T11:16:36Z</time>
      </trkpt>
      <trkpt lat="39.7483486" lon="3.1963102">
        <ele>17.580001831054688</ele>
        <hdop>10.0</hdop>
        <time>2014-06-04T11:16:41Z</time>
      </trkpt>
      <trkpt lat="39.7483486" lon="3.1963102">
        <ele>17.580001831054688</ele>
        <hdop>10.0</hdop>
        <time>2014-06-04T11:16:47Z</time>
      </trkpt>
      <trkpt lat="39.7483486" lon="3.1963102">
        <ele>17.580001831054688</ele>
        <hdop>30.0</hdop>
        <time>2014-06-04T11:16:53Z</time>
      </trkpt>
      <trkpt lat="39.7483486" lon="3.1963102">
        <ele>17.580001831054688</ele>
        <hdop>10.0</hdop>
        <time>2014-06-04T11:16:58Z</time>
      </trkpt>
      <trkpt lat="39.7483486" lon="3.1963102">
        <ele>17.580001831054688</ele>
        <hdop>10.0</hdop>
        <time>2014-06-04T11:17:03Z</time>
      </trkpt>
      <trkpt lat="39.7483208" lon="3.1963588">
        <ele>17.580001831054688</ele>
        <hdop>5.0</hdop>
        <time>2014-06-04T11:17:09Z</time>
        <extensions>
          <speed>1.0884982347488403</speed>
        </extensions>
      </trkpt>
      <trkpt lat="39.7483045" lon="3.1964413">
        <ele>17.580001831054688</ele>
        <hdop>5.0</hdop>
        <time>2014-06-04T11:17:14Z</time>
        <extensions>
          <speed>1.3768426179885864</speed>
        </extensions>
      </trkpt>
      <trkpt lat="39.74827" lon="3.1965313">
        <ele>16.580001831054688</ele>
        <hdop>5.0</hdop>
        <time>2014-06-04T11:17:20Z</time>
        <extensions>
          <speed>1.4961966276168823</speed>
        </extensions>
      </trkpt>
      <trkpt lat="39.7482375" lon="3.1965988">
        <ele>16.580001831054688</ele>
        <hdop>5.0</hdop>
        <time>2014-06-04T11:17:25Z</time>
        <extensions>
          <speed>1.4703079462051392</speed>
        </extensions>
      </trkpt>
      <trkpt lat="39.7481892" lon="3.1966572">
        <ele>16.580001831054688</ele>
        <hdop>5.0</hdop>
        <time>2014-06-04T11:17:30Z</time>
        <extensions>
          <speed>1.4810354709625244</speed>
        </extensions>
      </trkpt>
      <trkpt lat="39.7481393" lon="3.1967212">
        <ele>16.580001831054688</ele>
        <hdop>5.0</hdop>
        <time>2014-06-04T11:17:36Z</time>
        <extensions>
          <speed>1.505313754081726</speed>
        </extensions>
      </trkpt>
      <trkpt lat="39.7480927" lon="3.1967806">
        <ele>16.580001831054688</ele>
        <hdop>5.0</hdop>
        <time>2014-06-04T11:17:41Z</time>
        <extensions>
          <speed>1.4872055053710938</speed>
        </extensions>
      </trkpt>
      <trkpt lat="39.7480402" lon="3.1968449">
        <ele>16.580001831054688</ele>
        <hdop>5.0</hdop>
        <time>2014-06-04T11:17:47Z</time>
        <extensions>
          <speed>1.4719470739364624</speed>
        </extensions>
      </trkpt>
      <trkpt lat="39.7479983" lon="3.1969105">
        <ele>15.580001831054688</ele>
        <hdop>5.0</hdop>
        <time>2014-06-04T11:17:53Z</time>
        <extensions>
          <speed>1.4360315799713135</speed>
        </extensions>
      </trkpt>
      <trkpt lat="39.7479641" lon="3.1969786">
        <ele>15.580001831054688</ele>
        <hdop>10.0</hdop>
        <time>2014-06-04T11:17:59Z</time>
        <extensions>
          <speed>1.3326032161712646</speed>
        </extensions>
      </trkpt>
      <trkpt lat="39.7479334" lon="3.1970422">
        <ele>15.580001831054688</ele>
        <hdop>5.0</hdop>
        <time>2014-06-04T11:18:04Z</time>
        <extensions>
          <speed>1.2684324979782104</speed>
        </extensions>
      </trkpt>
      <trkpt lat="39.7478997" lon="3.1971155">
        <ele>16.580001831054688</ele>
        <hdop>5.0</hdop>
        <time>2014-06-04T11:18:09Z</time>
        <extensions>
          <speed>1.346047282218933</speed>
        </extensions>
      </trkpt>
      <trkpt lat="39.7478616" lon="3.1972009">
        <ele>16.580001831054688</ele>
        <hdop>5.0</hdop>
        <time>2014-06-04T11:18:15Z</time>
        <extensions>
          <speed>1.3376083374023438</speed>
        </extensions>
      </trkpt>
      <trkpt lat="39.7478384" lon="3.1972849">
        <ele>16.580001831054688</ele>
        <hdop>5.0</hdop>
        <time>2014-06-04T11:18:20Z</time>
        <extensions>
          <speed>1.3589216470718384</speed>
        </extensions>
      </trkpt>
      <trkpt lat="39.7477932" lon="3.1973616">
        <ele>16.580001831054688</ele>
        <hdop>5.0</hdop>
        <time>2014-06-04T11:18:26Z</time>
        <extensions>
          <speed>1.4048402309417725</speed>
        </extensions>
      </trkpt>
      <trkpt lat="39.7477516" lon="3.1974495">
        <ele>16.580001831054688</ele>
        <hdop>5.0</hdop>
        <time>2014-06-04T11:18:32Z</time>
        <extensions>
          <speed>1.4366270303726196</speed>
        </extensions>
      </trkpt>
      <trkpt lat="39.7477225" lon="3.1975243">
        <ele>16.580001831054688</ele>
        <hdop>5.0</hdop>
        <time>2014-06-04T11:18:38Z</time>
        <extensions>
          <speed>1.3465863466262817</speed>
        </extensions>
      </trkpt>
      <trkpt lat="39.7477036" lon="3.1975941">
        <ele>16.580001831054688</ele>
        <hdop>5.0</hdop>
        <time>2014-06-04T11:18:43Z</time>
        <extensions>
          <speed>1.3311842679977417</speed>
        </extensions>
      </trkpt>
      <trkpt lat="39.7476865" lon="3.1976884">
        <ele>16.580001831054688</ele>
        <hdop>5.0</hdop>
        <time>2014-06-04T11:18:49Z</time>
        <extensions>
          <speed>1.3108185529708862</speed>
        </extensions>
      </trkpt>
      <trkpt lat="39.7476746" lon="3.1977594">
        <ele>16.580001831054688</ele>
        <hdop>5.0</hdop>
        <time>2014-06-04T11:18:54Z</time>
        <extensions>
          <speed>1.2345927953720093</speed>
        </extensions>
      </trkpt>
      <trkpt lat="39.7476469" lon="3.197852">
        <ele>16.580001831054688</ele>
        <hdop>5.0</hdop>
        <time>2014-06-04T11:19:00Z</time>
        <extensions>
          <speed>1.2796626091003418</speed>
        </extensions>
      </trkpt>
      <trkpt lat="39.7476345" lon="3.1979285">
        <ele>17.580001831054688</ele>
        <hdop>5.0</hdop>
        <time>2014-06-04T11:19:05Z</time>
        <extensions>
          <speed>1.2731038331985474</speed>
        </extensions>
      </trkpt>
      <trkpt lat="39.7476192" lon="3.1980201">
        <ele>17.580001831054688</ele>
        <hdop>5.0</hdop>
        <time>2014-06-04T11:19:10Z</time>
        <extensions>
          <speed>1.3061119318008423</speed>
        </extensions>
      </trkpt>
      <trkpt lat="39.7475996" lon="3.1981377">
        <ele>17.580001831054688</ele>
        <hdop>5.0</hdop>
        <time>2014-06-04T11:19:16Z</time>
        <extensions>
          <speed>1.3611445426940918</speed>
        </extensions>
      </trkpt>
      <trkpt lat="39.7475866" lon="3.1982202">
        <ele>16.580001831054688</ele>
        <hdop>5.0</hdop>
        <time>2014-06-04T11:19:21Z</time>
        <extensions>
          <speed>1.3596420288085938</speed>
        </extensions>
      </trkpt>
      <trkpt lat="39.7475516" lon="3.1983093">
        <ele>16.580001831054688</ele>
        <hdop>5.0</hdop>
        <time>2014-06-04T11:19:27Z</time>
        <extensions>
          <speed>1.3629586696624756</speed>
        </extensions>
      </trkpt>
      <trkpt lat="39.7475086" lon="3.1983778">
        <ele>16.580001831054688</ele>
        <hdop>5.0</hdop>
        <time>2014-06-04T11:19:32Z</time>
        <extensions>
          <speed>1.373901605606079</speed>
        </extensions>
      </trkpt>
      <trkpt lat="39.7474663" lon="3.1984539">
        <ele>16.580001831054688</ele>
        <hdop>5.0</hdop>
        <time>2014-06-04T11:19:38Z</time>
        <extensions>
          <speed>1.3468358516693115</speed>
        </extensions>
      </trkpt>
      <trkpt lat="39.7474385" lon="3.1985328">
        <ele>17.580001831054688</ele>
        <hdop>5.0</hdop>
        <time>2014-06-04T11:19:44Z</time>
        <extensions>
          <speed>1.3025333881378174</speed>
        </extensions>
      </trkpt>
      <trkpt lat="39.747425" lon="3.198625">
        <ele>17.580001831054688</ele>
        <hdop>5.0</hdop>
        <time>2014-06-04T11:19:50Z</time>
        <extensions>
          <speed>1.3006247282028198</speed>
        </extensions>
      </trkpt>
      <trkpt lat="39.7474125" lon="3.1987151">
        <ele>17.580001831054688</ele>
        <hdop>5.0</hdop>
        <time>2014-06-04T11:19:55Z</time>
        <extensions>
          <speed>1.3048572540283203</speed>
        </extensions>
      </trkpt>
      <trkpt lat="39.7473871" lon="3.1987924">
        <ele>17.580001831054688</ele>
        <hdop>5.0</hdop>
        <time>2014-06-04T11:20:00Z</time>
        <extensions>
          <speed>1.3918778896331787</speed>
        </extensions>
      </trkpt>
      <trkpt lat="39.747356" lon="3.1989006">
        <ele>17.580001831054688</ele>
        <hdop>10.0</hdop>
        <time>2014-06-04T11:20:06Z</time>
        <extensions>
          <speed>1.4814692735671997</speed>
        </extensions>
      </trkpt>
      <trkpt lat="39.7473113" lon="3.1989872">
        <ele>17.580001831054688</ele>
        <hdop>10.0</hdop>
        <time>2014-06-04T11:20:12Z</time>
        <extensions>
          <speed>1.475193738937378</speed>
        </extensions>
      </trkpt>
      <trkpt lat="39.7472857" lon="3.199062">
        <ele>17.580001831054688</ele>
        <hdop>5.0</hdop>
        <time>2014-06-04T11:20:17Z</time>
        <extensions>
          <speed>1.4667694568634033</speed>
        </extensions>
      </trkpt>
      <trkpt lat="39.7472681" lon="3.1991729">
        <ele>17.580001831054688</ele>
        <hdop>5.0</hdop>
        <time>2014-06-04T11:20:23Z</time>
        <extensions>
          <speed>1.415191411972046</speed>
        </extensions>
      </trkpt>
      <trkpt lat="39.7472571" lon="3.1992442">
        <ele>17.580001831054688</ele>
        <hdop>5.0</hdop>
        <time>2014-06-04T11:20:28Z</time>
        <extensions>
          <speed>1.381259560585022</speed>
        </extensions>
      </trkpt>
      <trkpt lat="39.7472465" lon="3.199336">
        <ele>17.580001831054688</ele>
        <hdop>5.0</hdop>
        <time>2014-06-04T11:20:34Z</time>
        <extensions>
          <speed>1.3953157663345337</speed>
        </extensions>
      </trkpt>
      <trkpt lat="39.7472297" lon="3.199412">
        <ele>17.580001831054688</ele>
        <hdop>10.0</hdop>
        <time>2014-06-04T11:20:39Z</time>
        <extensions>
          <speed>1.3883264064788818</speed>
        </extensions>
      </trkpt>
      <trkpt lat="39.7472174" lon="3.1995013">
        <ele>17.580001831054688</ele>
        <hdop>5.0</hdop>
        <time>2014-06-04T11:20:45Z</time>
        <extensions>
          <speed>1.387207269668579</speed>
        </extensions>
      </trkpt>
      <trkpt lat="39.7472083" lon="3.1995692">
        <ele>17.580001831054688</ele>
        <hdop>10.0</hdop>
        <time>2014-06-04T11:20:50Z</time>
        <extensions>
          <speed>1.3238455057144165</speed>
        </extensions>
      </trkpt>
      <trkpt lat="39.7472002" lon="3.1996371">
        <ele>16.580001831054688</ele>
        <hdop>5.0</hdop>
        <time>2014-06-04T11:20:55Z</time>
        <extensions>
          <speed>1.3259004354476929</speed>
        </extensions>
      </trkpt>
      <trkpt lat="39.7471929" lon="3.1997378">
        <ele>16.580001831054688</ele>
        <hdop>5.0</hdop>
        <time>2014-06-04T11:21:01Z</time>
        <extensions>
          <speed>1.3417844772338867</speed>
        </extensions>
      </trkpt>
      <trkpt lat="39.7472092" lon="3.1998629">
        <ele>16.580001831054688</ele>
        <hdop>10.0</hdop>
        <time>2014-06-04T11:21:07Z</time>
        <extensions>
          <speed>1.3584167957305908</speed>
        </extensions>
      </trkpt>
      <trkpt lat="39.7472066" lon="3.1999458">
        <ele>16.580001831054688</ele>
        <hdop>10.0</hdop>
        <time>2014-06-04T11:21:12Z</time>
        <extensions>
          <speed>1.3643324375152588</speed>
        </extensions>
      </trkpt>
      <trkpt lat="39.7471798" lon="3.2000045">
        <ele>16.580001831054688</ele>
        <hdop>5.0</hdop>
        <time>2014-06-04T11:21:17Z</time>
        <extensions>
          <speed>1.3652669191360474</speed>
        </extensions>
      </trkpt>
      <trkpt lat="39.7471342" lon="3.2000782">
        <ele>16.580001831054688</ele>
        <hdop>5.0</hdop>
        <time>2014-06-04T11:21:23Z</time>
        <extensions>
          <speed>1.3957247734069824</speed>
        </extensions>
      </trkpt>
      <trkpt lat="39.7471121" lon="3.2001667">
        <ele>16.580001831054688</ele>
        <hdop>5.0</hdop>
        <time>2014-06-04T11:21:29Z</time>
        <extensions>
          <speed>1.4158382415771484</speed>
        </extensions>
      </trkpt>
      <trkpt lat="39.7470961" lon="3.2002531">
        <ele>16.580001831054688</ele>
        <hdop>5.0</hdop>
        <time>2014-06-04T11:21:34Z</time>
        <extensions>
          <speed>1.428710699081421</speed>
        </extensions>
      </trkpt>
      <trkpt lat="39.7471005" lon="3.2003685">
        <ele>16.580001831054688</ele>
        <hdop>10.0</hdop>
        <time>2014-06-04T11:21:40Z</time>
        <extensions>
          <speed>1.3962351083755493</speed>
        </extensions>
      </trkpt>
      <trkpt lat="39.7471115" lon="3.2004628">
        <ele>16.580001831054688</ele>
        <hdop>10.0</hdop>
        <time>2014-06-04T11:21:45Z</time>
        <extensions>
          <speed>1.3834329843521118</speed>
        </extensions>
      </trkpt>
      <trkpt lat="39.747111" lon="3.200556">
        <ele>16.580001831054688</ele>
        <hdop>5.0</hdop>
        <time>2014-06-04T11:21:51Z</time>
        <extensions>
          <speed>1.3424676656723022</speed>
        </extensions>
      </trkpt>
      <trkpt lat="39.7471029" lon="3.2006491">
        <ele>16.580001831054688</ele>
        <hdop>5.0</hdop>
        <time>2014-06-04T11:21:57Z</time>
        <extensions>
          <speed>1.3397198915481567</speed>
        </extensions>
      </trkpt>
      <trkpt lat="39.7471037" lon="3.2007266">
        <ele>15.580001831054688</ele>
        <hdop>5.0</hdop>
        <time>2014-06-04T11:22:02Z</time>
        <extensions>
          <speed>1.3306293487548828</speed>
        </extensions>
      </trkpt>
      <trkpt lat="39.7471145" lon="3.2008146">
        <ele>15.580001831054688</ele>
        <hdop>10.0</hdop>
        <time>2014-06-04T11:22:08Z</time>
        <extensions>
          <speed>1.2977670431137085</speed>
        </extensions>
      </trkpt>
      <trkpt lat="39.7471196" lon="3.2008867">
        <ele>15.580001831054688</ele>
        <hdop>10.0</hdop>
        <time>2014-06-04T11:22:13Z</time>
        <extensions>
          <speed>1.2903257608413696</speed>
        </extensions>
      </trkpt>
      <trkpt lat="39.7471254" lon="3.2009598">
        <ele>15.580001831054688</ele>
        <hdop>10.0</hdop>
        <time>2014-06-04T11:22:18Z</time>
        <extensions>
          <speed>1.2434546947479248</speed>
        </extensions>
      </trkpt>
      <trkpt lat="39.7471129" lon="3.2010335">
        <ele>15.580001831054688</ele>
        <hdop>10.0</hdop>
        <time>2014-06-04T11:22:24Z</time>
        <extensions>
          <speed>1.2186003923416138</speed>
        </extensions>
      </trkpt>
      <trkpt lat="39.7471258" lon="3.2011174">
        <ele>15.580001831054688</ele>
        <hdop>5.0</hdop>
        <time>2014-06-04T11:22:30Z</time>
        <extensions>
          <speed>1.3492037057876587</speed>
        </extensions>
      </trkpt>
      <trkpt lat="39.7471321" lon="3.2011982">
        <ele>15.580001831054688</ele>
        <hdop>5.0</hdop>
        <time>2014-06-04T11:22:36Z</time>
        <extensions>
          <speed>1.3385303020477295</speed>
        </extensions>
      </trkpt>
      <trkpt lat="39.7471328" lon="3.2012818">
        <ele>15.580001831054688</ele>
        <hdop>5.0</hdop>
        <time>2014-06-04T11:22:41Z</time>
        <extensions>
          <speed>1.2967238426208496</speed>
        </extensions>
      </trkpt>
      <trkpt lat="39.7471422" lon="3.2013651">
        <ele>15.580001831054688</ele>
        <hdop>10.0</hdop>
        <time>2014-06-04T11:22:46Z</time>
        <extensions>
          <speed>1.309181571006775</speed>
        </extensions>
      </trkpt>
      <trkpt lat="39.7471711" lon="3.2014555">
        <ele>15.580001831054688</ele>
        <hdop>10.0</hdop>
        <time>2014-06-04T11:22:52Z</time>
        <extensions>
          <speed>1.1556299924850464</speed>
        </extensions>
      </trkpt>
      <trkpt lat="39.747189" lon="3.2015006">
        <ele>15.580001831054688</ele>
        <hdop>10.0</hdop>
        <time>2014-06-04T11:22:58Z</time>
        <extensions>
          <speed>0.431545615196228</speed>
        </extensions>
      </trkpt>
      <trkpt lat="39.7472044" lon="3.2016026">
        <ele>15.580001831054688</ele>
        <hdop>5.0</hdop>
        <time>2014-06-04T11:23:03Z</time>
        <extensions>
          <speed>0.7321414947509766</speed>
        </extensions>
      </trkpt>
      <trkpt lat="39.7471977" lon="3.2017014">
        <ele>15.580001831054688</ele>
        <hdop>5.0</hdop>
        <time>2014-06-04T11:23:09Z</time>
        <extensions>
          <speed>1.1699018478393555</speed>
        </extensions>
      </trkpt>
      <trkpt lat="39.7471852" lon="3.2017778">
        <ele>15.580001831054688</ele>
        <hdop>10.0</hdop>
        <time>2014-06-04T11:23:14Z</time>
        <extensions>
          <speed>1.3484421968460083</speed>
        </extensions>
      </trkpt>
      <trkpt lat="39.7471638" lon="3.2018719">
        <ele>15.580001831054688</ele>
        <hdop>10.0</hdop>
        <time>2014-06-04T11:23:20Z</time>
        <extensions>
          <speed>1.4400279521942139</speed>
        </extensions>
      </trkpt>
      <trkpt lat="39.7471717" lon="3.2019582">
        <ele>15.580001831054688</ele>
        <hdop>10.0</hdop>
        <time>2014-06-04T11:23:26Z</time>
        <extensions>
          <speed>1.4036072492599487</speed>
        </extensions>
      </trkpt>
      <trkpt lat="39.7471759" lon="3.2020297">
        <ele>15.580001831054688</ele>
        <hdop>10.0</hdop>
        <time>2014-06-04T11:23:31Z</time>
        <extensions>
          <speed>1.3230022192001343</speed>
        </extensions>
      </trkpt>
      <trkpt lat="39.7471698" lon="3.2020733">
        <ele>15.580001831054688</ele>
        <hdop>5.0</hdop>
        <time>2014-06-04T11:23:37Z</time>
        <extensions>
          <speed>0.38301122188568115</speed>
        </extensions>
      </trkpt>
      <trkpt lat="39.7471502" lon="3.2021757">
        <ele>15.580001831054688</ele>
        <hdop>5.0</hdop>
        <time>2014-06-04T11:23:43Z</time>
        <extensions>
          <speed>0.9764755964279175</speed>
        </extensions>
      </trkpt>
      <trkpt lat="39.7471237" lon="3.2022295">
        <ele>15.580001831054688</ele>
        <hdop>5.0</hdop>
        <time>2014-06-04T11:23:48Z</time>
        <extensions>
          <speed>1.1494749784469604</speed>
        </extensions>
      </trkpt>
      <trkpt lat="39.7470798" lon="3.2022609">
        <ele>15.580001831054688</ele>
        <hdop>5.0</hdop>
        <time>2014-06-04T11:23:53Z</time>
        <extensions>
          <speed>1.2298389673233032</speed>
        </extensions>
      </trkpt>
      <trkpt lat="39.7470408" lon="3.2023195">
        <ele>15.580001831054688</ele>
        <hdop>5.0</hdop>
        <time>2014-06-04T11:23:59Z</time>
        <extensions>
          <speed>1.1678261756896973</speed>
        </extensions>
      </trkpt>
      <trkpt lat="39.7470017" lon="3.2023821">
        <ele>15.580001831054688</ele>
        <hdop>5.0</hdop>
        <time>2014-06-04T11:24:04Z</time>
        <extensions>
          <speed>1.21531343460083</speed>
        </extensions>
      </trkpt>
      <trkpt lat="39.7469676" lon="3.2024509">
        <ele>14.580001831054688</ele>
        <hdop>5.0</hdop>
        <time>2014-06-04T11:24:10Z</time>
        <extensions>
          <speed>1.1430543661117554</speed>
        </extensions>
      </trkpt>
      <trkpt lat="39.7469217" lon="3.202521">
        <ele>14.580001831054688</ele>
        <hdop>5.0</hdop>
        <time>2014-06-04T11:24:16Z</time>
        <extensions>
          <speed>1.1685580015182495</speed>
        </extensions>
      </trkpt>
      <trkpt lat="39.7468949" lon="3.2025626">
        <ele>14.580001831054688</ele>
        <hdop>10.0</hdop>
        <time>2014-06-04T11:24:22Z</time>
      </trkpt>
      <trkpt lat="39.746867" lon="3.2026347">
        <ele>14.580001831054688</ele>
        <hdop>10.0</hdop>
        <time>2014-06-04T11:24:27Z</time>
        <extensions>
          <speed>1.5223197937011719</speed>
        </extensions>
      </trkpt>
      <trkpt lat="39.7468338" lon="3.2027012">
        <ele>13.580001831054688</ele>
        <hdop>5.0</hdop>
        <time>2014-06-04T11:24:32Z</time>
        <extensions>
          <speed>1.3624041080474854</speed>
        </extensions>
      </trkpt>
      <trkpt lat="39.7467972" lon="3.2027707">
        <ele>13.580001831054688</ele>
        <hdop>5.0</hdop>
        <time>2014-06-04T11:24:37Z</time>
        <extensions>
          <speed>1.3152433633804321</speed>
        </extensions>
      </trkpt>
      <trkpt lat="39.746744" lon="3.2028367">
        <ele>13.580001831054688</ele>
        <hdop>5.0</hdop>
        <time>2014-06-04T11:24:43Z</time>
        <extensions>
          <speed>1.3179614543914795</speed>
        </extensions>
      </trkpt>
      <trkpt lat="39.7467024" lon="3.202912">
        <ele>12.580001831054688</ele>
        <hdop>5.0</hdop>
        <time>2014-06-04T11:24:49Z</time>
        <extensions>
          <speed>1.310066819190979</speed>
        </extensions>
      </trkpt>
      <trkpt lat="39.7466583" lon="3.2029886">
        <ele>12.580001831054688</ele>
        <hdop>5.0</hdop>
        <time>2014-06-04T11:24:55Z</time>
        <extensions>
          <speed>1.3024433851242065</speed>
        </extensions>
      </trkpt>
      <trkpt lat="39.7466329" lon="3.2030623">
        <ele>12.580001831054688</ele>
        <hdop>5.0</hdop>
        <time>2014-06-04T11:25:00Z</time>
        <extensions>
          <speed>1.2856972217559814</speed>
        </extensions>
      </trkpt>
      <trkpt lat="39.7465907" lon="3.2031339">
        <ele>12.580001831054688</ele>
        <hdop>10.0</hdop>
        <time>2014-06-04T11:25:06Z</time>
        <extensions>
          <speed>1.2986236810684204</speed>
        </extensions>
      </trkpt>
      <trkpt lat="39.7465699" lon="3.2031961">
        <ele>12.580001831054688</ele>
        <hdop>5.0</hdop>
        <time>2014-06-04T11:25:11Z</time>
        <extensions>
          <speed>1.2983866930007935</speed>
        </extensions>
      </trkpt>
      <trkpt lat="39.7465428" lon="3.2032848">
        <ele>12.580001831054688</ele>
        <hdop>5.0</hdop>
        <time>2014-06-04T11:25:17Z</time>
        <extensions>
          <speed>1.2920894622802734</speed>
        </extensions>
      </trkpt>
      <trkpt lat="39.7465254" lon="3.2033514">
        <ele>12.580001831054688</ele>
        <hdop>5.0</hdop>
        <time>2014-06-04T11:25:22Z</time>
        <extensions>
          <speed>1.2659701108932495</speed>
        </extensions>
      </trkpt>
      <trkpt lat="39.7464979" lon="3.2034196">
        <ele>12.580001831054688</ele>
        <hdop>5.0</hdop>
        <time>2014-06-04T11:25:27Z</time>
        <extensions>
          <speed>1.2741719484329224</speed>
        </extensions>
      </trkpt>
      <trkpt lat="39.7464671" lon="3.2034817">
        <ele>12.580001831054688</ele>
        <hdop>5.0</hdop>
        <time>2014-06-04T11:25:32Z</time>
        <extensions>
          <speed>1.2735182046890259</speed>
        </extensions>
      </trkpt>
      <trkpt lat="39.746421" lon="3.2035464">
        <ele>12.580001831054688</ele>
        <hdop>5.0</hdop>
        <time>2014-06-04T11:25:38Z</time>
        <extensions>
          <speed>1.2748361825942993</speed>
        </extensions>
      </trkpt>
      <trkpt lat="39.7463777" lon="3.203597">
        <ele>12.580001831054688</ele>
        <hdop>5.0</hdop>
        <time>2014-06-04T11:25:43Z</time>
        <extensions>
          <speed>1.2655490636825562</speed>
        </extensions>
      </trkpt>
      <trkpt lat="39.7463218" lon="3.2036556">
        <ele>12.580001831054688</ele>
        <hdop>5.0</hdop>
        <time>2014-06-04T11:25:49Z</time>
        <extensions>
          <speed>1.2979546785354614</speed>
        </extensions>
      </trkpt>
      <trkpt lat="39.7462669" lon="3.2037202">
        <ele>12.580001831054688</ele>
        <hdop>5.0</hdop>
        <time>2014-06-04T11:25:55Z</time>
        <extensions>
          <speed>1.301590919494629</speed>
        </extensions>
      </trkpt>
      <trkpt lat="39.7462226" lon="3.2037786">
        <ele>12.580001831054688</ele>
        <hdop>5.0</hdop>
        <time>2014-06-04T11:26:00Z</time>
        <extensions>
          <speed>1.2998392581939697</speed>
        </extensions>
      </trkpt>
      <trkpt lat="39.7461774" lon="3.2038522">
        <ele>12.580001831054688</ele>
        <hdop>5.0</hdop>
        <time>2014-06-04T11:26:06Z</time>
        <extensions>
          <speed>1.280331015586853</speed>
        </extensions>
      </trkpt>
      <trkpt lat="39.746139" lon="3.2039016">
        <ele>12.580001831054688</ele>
        <hdop>5.0</hdop>
        <time>2014-06-04T11:26:11Z</time>
        <extensions>
          <speed>1.259114384651184</speed>
        </extensions>
      </trkpt>
      <trkpt lat="39.7460958" lon="3.2039666">
        <ele>12.580001831054688</ele>
        <hdop>5.0</hdop>
        <time>2014-06-04T11:26:17Z</time>
        <extensions>
          <speed>1.2023723125457764</speed>
        </extensions>
      </trkpt>
      <trkpt lat="39.746055" lon="3.2040219">
        <ele>12.580001831054688</ele>
        <hdop>5.0</hdop>
        <time>2014-06-04T11:26:22Z</time>
        <extensions>
          <speed>1.2153035402297974</speed>
        </extensions>
      </trkpt>
      <trkpt lat="39.7460235" lon="3.2040774">
        <ele>12.580001831054688</ele>
        <hdop>5.0</hdop>
        <time>2014-06-04T11:26:27Z</time>
        <extensions>
          <speed>1.182227611541748</speed>
        </extensions>
      </trkpt>
      <trkpt lat="39.7460082" lon="3.2041784">
        <ele>12.580001831054688</ele>
        <hdop>5.0</hdop>
        <time>2014-06-04T11:26:33Z</time>
        <extensions>
          <speed>1.184009313583374</speed>
        </extensions>
      </trkpt>
      <trkpt lat="39.7460272" lon="3.2042828">
        <ele>12.580001831054688</ele>
        <hdop>10.0</hdop>
        <time>2014-06-04T11:26:39Z</time>
        <extensions>
          <speed>1.173292636871338</speed>
        </extensions>
      </trkpt>
      <trkpt lat="39.7460108" lon="3.2043624">
        <ele>12.580001831054688</ele>
        <hdop>10.0</hdop>
        <time>2014-06-04T11:26:44Z</time>
        <extensions>
          <speed>1.210167407989502</speed>
        </extensions>
      </trkpt>
      <trkpt lat="39.7459972" lon="3.2044521">
        <ele>12.580001831054688</ele>
        <hdop>10.0</hdop>
        <time>2014-06-04T11:26:50Z</time>
        <extensions>
          <speed>1.2194881439208984</speed>
        </extensions>
      </trkpt>
      <trkpt lat="39.7459951" lon="3.2045354">
        <ele>12.580001831054688</ele>
        <hdop>5.0</hdop>
        <time>2014-06-04T11:26:55Z</time>
        <extensions>
          <speed>1.292949914932251</speed>
        </extensions>
      </trkpt>
      <trkpt lat="39.7459843" lon="3.2046058">
        <ele>12.580001831054688</ele>
        <hdop>5.0</hdop>
        <time>2014-06-04T11:27:00Z</time>
        <extensions>
          <speed>1.2443137168884277</speed>
        </extensions>
      </trkpt>
      <trkpt lat="39.7459752" lon="3.20469">
        <ele>12.580001831054688</ele>
        <hdop>5.0</hdop>
        <time>2014-06-04T11:27:06Z</time>
        <extensions>
          <speed>1.2362614870071411</speed>
        </extensions>
      </trkpt>
      <trkpt lat="39.7459672" lon="3.2047819">
        <ele>12.580001831054688</ele>
        <hdop>5.0</hdop>
        <time>2014-06-04T11:27:12Z</time>
        <extensions>
          <speed>1.213253378868103</speed>
        </extensions>
      </trkpt>
      <trkpt lat="39.7459632" lon="3.2048764">
        <ele>12.580001831054688</ele>
        <hdop>5.0</hdop>
        <time>2014-06-04T11:27:18Z</time>
        <extensions>
          <speed>1.2197893857955933</speed>
        </extensions>
      </trkpt>
      <trkpt lat="39.7459626" lon="3.204964">
        <ele>12.580001831054688</ele>
        <hdop>5.0</hdop>
        <time>2014-06-04T11:27:23Z</time>
        <extensions>
          <speed>1.243310570716858</speed>
        </extensions>
      </trkpt>
      <trkpt lat="39.7459623" lon="3.2050609">
        <ele>13.580001831054688</ele>
        <hdop>5.0</hdop>
        <time>2014-06-04T11:27:29Z</time>
        <extensions>
          <speed>1.2407941818237305</speed>
        </extensions>
      </trkpt>
      <trkpt lat="39.7459594" lon="3.2051401">
        <ele>13.580001831054688</ele>
        <hdop>5.0</hdop>
        <time>2014-06-04T11:27:34Z</time>
        <extensions>
          <speed>1.246307373046875</speed>
        </extensions>
      </trkpt>
      <trkpt lat="39.7459353" lon="3.2052218">
        <ele>13.580001831054688</ele>
        <hdop>5.0</hdop>
        <time>2014-06-04T11:27:40Z</time>
        <extensions>
          <speed>1.244455337524414</speed>
        </extensions>
      </trkpt>
      <trkpt lat="39.7459137" lon="3.2053017">
        <ele>13.580001831054688</ele>
        <hdop>5.0</hdop>
        <time>2014-06-04T11:27:46Z</time>
        <extensions>
          <speed>1.232975959777832</speed>
        </extensions>
      </trkpt>
      <trkpt lat="39.7458919" lon="3.2053727">
        <ele>13.580001831054688</ele>
        <hdop>5.0</hdop>
        <time>2014-06-04T11:27:51Z</time>
        <extensions>
          <speed>1.2507840394973755</speed>
        </extensions>
      </trkpt>
      <trkpt lat="39.7458693" lon="3.2054608">
        <ele>13.580001831054688</ele>
        <hdop>5.0</hdop>
        <time>2014-06-04T11:27:57Z</time>
        <extensions>
          <speed>1.2684648036956787</speed>
        </extensions>
      </trkpt>
      <trkpt lat="39.7458427" lon="3.2055469">
        <ele>13.580001831054688</ele>
        <hdop>5.0</hdop>
        <time>2014-06-04T11:28:03Z</time>
        <extensions>
          <speed>1.282605767250061</speed>
        </extensions>
      </trkpt>
      <trkpt lat="39.7457931" lon="3.2056185">
        <ele>13.580001831054688</ele>
        <hdop>5.0</hdop>
        <time>2014-06-04T11:28:09Z</time>
        <extensions>
          <speed>1.2076058387756348</speed>
        </extensions>
      </trkpt>
      <trkpt lat="39.7457431" lon="3.2056612">
        <ele>13.580001831054688</ele>
        <hdop>5.0</hdop>
        <time>2014-06-04T11:28:14Z</time>
        <extensions>
          <speed>1.2798351049423218</speed>
        </extensions>
      </trkpt>
      <trkpt lat="39.7456941" lon="3.2056965">
        <ele>13.580001831054688</ele>
        <hdop>5.0</hdop>
        <time>2014-06-04T11:28:20Z</time>
        <extensions>
          <speed>1.2400869131088257</speed>
        </extensions>
      </trkpt>
      <trkpt lat="39.7456577" lon="3.2057248">
        <ele>13.580001831054688</ele>
        <hdop>5.0</hdop>
        <time>2014-06-04T11:28:25Z</time>
        <extensions>
          <speed>1.1287717819213867</speed>
        </extensions>
      </trkpt>
      <trkpt lat="39.7456208" lon="3.205761">
        <ele>13.580001831054688</ele>
        <hdop>5.0</hdop>
        <time>2014-06-04T11:28:30Z</time>
        <extensions>
          <speed>1.145223617553711</speed>
        </extensions>
      </trkpt>
      <trkpt lat="39.7455557" lon="3.2058006">
        <ele>13.580001831054688</ele>
        <hdop>5.0</hdop>
        <time>2014-06-04T11:28:36Z</time>
        <extensions>
          <speed>1.2414671182632446</speed>
        </extensions>
      </trkpt>
      <trkpt lat="39.7455143" lon="3.205843">
        <ele>14.580001831054688</ele>
        <hdop>5.0</hdop>
        <time>2014-06-04T11:28:42Z</time>
        <extensions>
          <speed>1.1262998580932617</speed>
        </extensions>
      </trkpt>
      <trkpt lat="39.7454669" lon="3.2058804">
        <ele>14.580001831054688</ele>
        <hdop>5.0</hdop>
        <time>2014-06-04T11:28:47Z</time>
        <extensions>
          <speed>1.1822965145111084</speed>
        </extensions>
      </trkpt>
      <trkpt lat="39.7454355" lon="3.2059523">
        <ele>14.580001831054688</ele>
        <hdop>10.0</hdop>
        <time>2014-06-04T11:28:53Z</time>
        <extensions>
          <speed>1.14549720287323</speed>
        </extensions>
      </trkpt>
      <trkpt lat="39.7453911" lon="3.2060193">
        <ele>14.580001831054688</ele>
        <hdop>5.0</hdop>
        <time>2014-06-04T11:28:59Z</time>
        <extensions>
          <speed>1.3738189935684204</speed>
        </extensions>
      </trkpt>
      <trkpt lat="39.7453366" lon="3.2060599">
        <ele>14.580001831054688</ele>
        <hdop>5.0</hdop>
        <time>2014-06-04T11:29:04Z</time>
        <extensions>
          <speed>1.3527811765670776</speed>
        </extensions>
      </trkpt>
      <trkpt lat="39.745271" lon="3.2061099">
        <ele>14.580001831054688</ele>
        <hdop>5.0</hdop>
        <time>2014-06-04T11:29:10Z</time>
        <extensions>
          <speed>1.3910245895385742</speed>
        </extensions>
      </trkpt>
      <trkpt lat="39.7452152" lon="3.2061442">
        <ele>14.580001831054688</ele>
        <hdop>5.0</hdop>
        <time>2014-06-04T11:29:15Z</time>
        <extensions>
          <speed>1.3843603134155273</speed>
        </extensions>
      </trkpt>
      <trkpt lat="39.7451571" lon="3.206231">
        <ele>14.580001831054688</ele>
        <hdop>5.0</hdop>
        <time>2014-06-04T11:29:21Z</time>
        <extensions>
          <speed>1.3818944692611694</speed>
        </extensions>
      </trkpt>
      <trkpt lat="39.7451114" lon="3.2063082">
        <ele>14.580001831054688</ele>
        <hdop>5.0</hdop>
        <time>2014-06-04T11:29:26Z</time>
        <extensions>
          <speed>1.3982787132263184</speed>
        </extensions>
      </trkpt>
      <trkpt lat="39.7450629" lon="3.2063976">
        <ele>14.580001831054688</ele>
        <hdop>5.0</hdop>
        <time>2014-06-04T11:29:32Z</time>
        <extensions>
          <speed>1.3988580703735352</speed>
        </extensions>
      </trkpt>
      <trkpt lat="39.7450288" lon="3.2064727">
        <ele>14.580001831054688</ele>
        <hdop>5.0</hdop>
        <time>2014-06-04T11:29:37Z</time>
        <extensions>
          <speed>1.4029666185379028</speed>
        </extensions>
      </trkpt>
      <trkpt lat="39.7449791" lon="3.2065543">
        <ele>14.580001831054688</ele>
        <hdop>5.0</hdop>
        <time>2014-06-04T11:29:43Z</time>
        <extensions>
          <speed>1.4132024049758911</speed>
        </extensions>
      </trkpt>
      <trkpt lat="39.7449279" lon="3.2066224">
        <ele>14.580001831054688</ele>
        <hdop>10.0</hdop>
        <time>2014-06-04T11:29:49Z</time>
        <extensions>
          <speed>1.4200807809829712</speed>
        </extensions>
      </trkpt>
      <trkpt lat="39.7448863" lon="3.2066741">
        <ele>13.580001831054688</ele>
        <hdop>5.0</hdop>
        <time>2014-06-04T11:29:54Z</time>
        <extensions>
          <speed>1.4163416624069214</speed>
        </extensions>
      </trkpt>
      <trkpt lat="39.7448183" lon="3.2067153">
        <ele>13.580001831054688</ele>
        <hdop>5.0</hdop>
        <time>2014-06-04T11:30:00Z</time>
        <extensions>
          <speed>1.454314947128296</speed>
        </extensions>
      </trkpt>
      <trkpt lat="39.7447458" lon="3.2067356">
        <ele>13.580001831054688</ele>
        <hdop>5.0</hdop>
        <time>2014-06-04T11:30:06Z</time>
        <extensions>
          <speed>1.4762094020843506</speed>
        </extensions>
      </trkpt>
      <trkpt lat="39.7446838" lon="3.2067513">
        <ele>13.580001831054688</ele>
        <hdop>5.0</hdop>
        <time>2014-06-04T11:30:11Z</time>
        <extensions>
          <speed>1.4770729541778564</speed>
        </extensions>
      </trkpt>
      <trkpt lat="39.7446078" lon="3.2067702">
        <ele>13.580001831054688</ele>
        <hdop>5.0</hdop>
        <time>2014-06-04T11:30:17Z</time>
        <extensions>
          <speed>1.4665777683258057</speed>
        </extensions>
      </trkpt>
      <trkpt lat="39.7445444" lon="3.2067846">
        <ele>13.580001831054688</ele>
        <hdop>5.0</hdop>
        <time>2014-06-04T11:30:22Z</time>
        <extensions>
          <speed>1.4644609689712524</speed>
        </extensions>
      </trkpt>
      <trkpt lat="39.7444774" lon="3.2068321">
        <ele>13.580001831054688</ele>
        <hdop>5.0</hdop>
        <time>2014-06-04T11:30:27Z</time>
        <extensions>
          <speed>1.4594180583953857</speed>
        </extensions>
      </trkpt>
      <trkpt lat="39.7444216" lon="3.2069069">
        <ele>12.580001831054688</ele>
        <hdop>5.0</hdop>
        <time>2014-06-04T11:30:33Z</time>
        <extensions>
          <speed>1.4110674858093262</speed>
        </extensions>
      </trkpt>
      <trkpt lat="39.744376" lon="3.2069833">
        <ele>12.580001831054688</ele>
        <hdop>5.0</hdop>
        <time>2014-06-04T11:30:39Z</time>
        <extensions>
          <speed>1.393365740776062</speed>
        </extensions>
      </trkpt>
      <trkpt lat="39.7443371" lon="3.2070526">
        <ele>12.580001831054688</ele>
        <hdop>5.0</hdop>
        <time>2014-06-04T11:30:44Z</time>
        <extensions>
          <speed>1.4178285598754883</speed>
        </extensions>
      </trkpt>
      <trkpt lat="39.7442929" lon="3.2071482">
        <ele>12.580001831054688</ele>
        <hdop>5.0</hdop>
        <time>2014-06-04T11:30:50Z</time>
        <extensions>
          <speed>1.432831048965454</speed>
        </extensions>
      </trkpt>
      <trkpt lat="39.7442643" lon="3.2072262">
        <ele>12.580001831054688</ele>
        <hdop>10.0</hdop>
        <time>2014-06-04T11:30:55Z</time>
        <extensions>
          <speed>1.4098197221755981</speed>
        </extensions>
      </trkpt>
      <trkpt lat="39.7442412" lon="3.2073046">
        <ele>12.580001831054688</ele>
        <hdop>5.0</hdop>
        <time>2014-06-04T11:31:00Z</time>
        <extensions>
          <speed>1.3971563577651978</speed>
        </extensions>
      </trkpt>
      <trkpt lat="39.7442282" lon="3.2074043">
        <ele>12.580001831054688</ele>
        <hdop>10.0</hdop>
        <time>2014-06-04T11:31:06Z</time>
        <extensions>
          <speed>1.381691575050354</speed>
        </extensions>
      </trkpt>
      <trkpt lat="39.744218" lon="3.2074944">
        <ele>12.580001831054688</ele>
        <hdop>10.0</hdop>
        <time>2014-06-04T11:31:11Z</time>
        <extensions>
          <speed>1.3786534070968628</speed>
        </extensions>
      </trkpt>
      <trkpt lat="39.7442098" lon="3.207601">
        <ele>12.580001831054688</ele>
        <hdop>5.0</hdop>
        <time>2014-06-04T11:31:17Z</time>
        <extensions>
          <speed>1.3849687576293945</speed>
        </extensions>
      </trkpt>
      <trkpt lat="39.7441999" lon="3.2077031">
        <ele>12.580001831054688</ele>
        <hdop>5.0</hdop>
        <time>2014-06-04T11:31:23Z</time>
        <extensions>
          <speed>1.393265962600708</speed>
        </extensions>
      </trkpt>
      <trkpt lat="39.744175" lon="3.2078022">
        <ele>12.580001831054688</ele>
        <hdop>5.0</hdop>
        <time>2014-06-04T11:31:29Z</time>
        <extensions>
          <speed>1.4272314310073853</speed>
        </extensions>
      </trkpt>
      <trkpt lat="39.7441504" lon="3.2078869">
        <ele>12.580001831054688</ele>
        <hdop>5.0</hdop>
        <time>2014-06-04T11:31:34Z</time>
        <extensions>
          <speed>1.4426236152648926</speed>
        </extensions>
      </trkpt>
      <trkpt lat="39.7441304" lon="3.2079919">
        <ele>12.580001831054688</ele>
        <hdop>5.0</hdop>
        <time>2014-06-04T11:31:40Z</time>
        <extensions>
          <speed>1.4740419387817383</speed>
        </extensions>
      </trkpt>
      <trkpt lat="39.7441058" lon="3.2080754">
        <ele>12.580001831054688</ele>
        <hdop>5.0</hdop>
        <time>2014-06-04T11:31:45Z</time>
        <extensions>
          <speed>1.517263412475586</speed>
        </extensions>
      </trkpt>
      <trkpt lat="39.7440714" lon="3.2081698">
        <ele>12.580001831054688</ele>
        <hdop>10.0</hdop>
        <time>2014-06-04T11:31:51Z</time>
        <extensions>
          <speed>1.4920532703399658</speed>
        </extensions>
      </trkpt>
      <trkpt lat="39.744046" lon="3.2082509">
        <ele>12.580001831054688</ele>
        <hdop>5.0</hdop>
        <time>2014-06-04T11:31:56Z</time>
        <extensions>
          <speed>1.510947585105896</speed>
        </extensions>
      </trkpt>
      <trkpt lat="39.7440256" lon="3.2083239">
        <ele>12.580001831054688</ele>
        <hdop>5.0</hdop>
        <time>2014-06-04T11:32:01Z</time>
        <extensions>
          <speed>1.4799329042434692</speed>
        </extensions>
      </trkpt>
      <trkpt lat="39.7440003" lon="3.2083975">
        <ele>12.580001831054688</ele>
        <hdop>5.0</hdop>
        <time>2014-06-04T11:32:07Z</time>
        <extensions>
          <speed>1.3393816947937012</speed>
        </extensions>
      </trkpt>
      <trkpt lat="39.7439465" lon="3.2084617">
        <ele>12.580001831054688</ele>
        <hdop>5.0</hdop>
        <time>2014-06-04T11:32:13Z</time>
        <extensions>
          <speed>1.3082342147827148</speed>
        </extensions>
      </trkpt>
      <trkpt lat="39.743898" lon="3.2085006">
        <ele>12.580001831054688</ele>
        <hdop>5.0</hdop>
        <time>2014-06-04T11:32:18Z</time>
        <extensions>
          <speed>1.2880514860153198</speed>
        </extensions>
      </trkpt>
      <trkpt lat="39.7438383" lon="3.2085497">
        <ele>12.580001831054688</ele>
        <hdop>5.0</hdop>
        <time>2014-06-04T11:32:23Z</time>
        <extensions>
          <speed>1.321268081665039</speed>
        </extensions>
      </trkpt>
      <trkpt lat="39.7437804" lon="3.2086006">
        <ele>12.580001831054688</ele>
        <hdop>5.0</hdop>
        <time>2014-06-04T11:32:28Z</time>
        <extensions>
          <speed>1.2995812892913818</speed>
        </extensions>
      </trkpt>
      <trkpt lat="39.7437117" lon="3.2086593">
        <ele>12.580001831054688</ele>
        <hdop>5.0</hdop>
        <time>2014-06-04T11:32:34Z</time>
        <extensions>
          <speed>1.364885687828064</speed>
        </extensions>
      </trkpt>
      <trkpt lat="39.7436359" lon="3.208718">
        <ele>12.580001831054688</ele>
        <hdop>5.0</hdop>
        <time>2014-06-04T11:32:40Z</time>
        <extensions>
          <speed>1.4369961023330688</speed>
        </extensions>
      </trkpt>
      <trkpt lat="39.7435679" lon="3.2087702">
        <ele>12.580001831054688</ele>
        <hdop>5.0</hdop>
        <time>2014-06-04T11:32:46Z</time>
        <extensions>
          <speed>1.4508384466171265</speed>
        </extensions>
      </trkpt>
      <trkpt lat="39.7435067" lon="3.2088066">
        <ele>12.580001831054688</ele>
        <hdop>10.0</hdop>
        <time>2014-06-04T11:32:51Z</time>
        <extensions>
          <speed>1.4244242906570435</speed>
        </extensions>
      </trkpt>
      <trkpt lat="39.7434463" lon="3.2088505">
        <ele>12.580001831054688</ele>
        <hdop>5.0</hdop>
        <time>2014-06-04T11:32:57Z</time>
        <extensions>
          <speed>1.407086730003357</speed>
        </extensions>
      </trkpt>
      <trkpt lat="39.7433914" lon="3.2089405">
        <ele>12.580001831054688</ele>
        <hdop>5.0</hdop>
        <time>2014-06-04T11:33:03Z</time>
        <extensions>
          <speed>1.4451192617416382</speed>
        </extensions>
      </trkpt>
      <trkpt lat="39.743341" lon="3.209016">
        <ele>12.580001831054688</ele>
        <hdop>5.0</hdop>
        <time>2014-06-04T11:33:08Z</time>
        <extensions>
          <speed>1.506290078163147</speed>
        </extensions>
      </trkpt>
      <trkpt lat="39.7432803" lon="3.2090827">
        <ele>12.580001831054688</ele>
        <hdop>5.0</hdop>
        <time>2014-06-04T11:33:14Z</time>
        <extensions>
          <speed>1.4921290874481201</speed>
        </extensions>
      </trkpt>
      <trkpt lat="39.7432214" lon="3.2091342">
        <ele>12.580001831054688</ele>
        <hdop>5.0</hdop>
        <time>2014-06-04T11:33:19Z</time>
        <extensions>
          <speed>1.5232598781585693</speed>
        </extensions>
      </trkpt>
      <trkpt lat="39.7431521" lon="3.2091962">
        <ele>12.580001831054688</ele>
        <hdop>5.0</hdop>
        <time>2014-06-04T11:33:25Z</time>
        <extensions>
          <speed>1.5312963724136353</speed>
        </extensions>
      </trkpt>
      <trkpt lat="39.7430878" lon="3.2092682">
        <ele>12.580001831054688</ele>
        <hdop>5.0</hdop>
        <time>2014-06-04T11:33:31Z</time>
        <extensions>
          <speed>1.5408833026885986</speed>
        </extensions>
      </trkpt>
      <trkpt lat="39.7430282" lon="3.209343">
        <ele>12.580001831054688</ele>
        <hdop>5.0</hdop>
        <time>2014-06-04T11:33:37Z</time>
        <extensions>
          <speed>1.542056918144226</speed>
        </extensions>
      </trkpt>
      <trkpt lat="39.7429835" lon="3.2093991">
        <ele>12.580001831054688</ele>
        <hdop>5.0</hdop>
        <time>2014-06-04T11:33:42Z</time>
        <extensions>
          <speed>1.4931658506393433</speed>
        </extensions>
      </trkpt>
      <trkpt lat="39.7429286" lon="3.2094803">
        <ele>12.580001831054688</ele>
        <hdop>5.0</hdop>
        <time>2014-06-04T11:33:48Z</time>
        <extensions>
          <speed>1.4742095470428467</speed>
        </extensions>
      </trkpt>
      <trkpt lat="39.7428818" lon="3.2095466">
        <ele>11.580001831054688</ele>
        <hdop>5.0</hdop>
        <time>2014-06-04T11:33:54Z</time>
        <extensions>
          <speed>1.3349051475524902</speed>
        </extensions>
      </trkpt>
      <trkpt lat="39.7428276" lon="3.2096098">
        <ele>11.580001831054688</ele>
        <hdop>5.0</hdop>
        <time>2014-06-04T11:34:00Z</time>
        <extensions>
          <speed>1.366853952407837</speed>
        </extensions>
      </trkpt>
      <trkpt lat="39.7427724" lon="3.2096692">
        <ele>11.580001831054688</ele>
        <hdop>5.0</hdop>
        <time>2014-06-04T11:34:06Z</time>
        <extensions>
          <speed>1.3607594966888428</speed>
        </extensions>
      </trkpt>
      <trkpt lat="39.7427146" lon="3.2097167">
        <ele>11.580001831054688</ele>
        <hdop>5.0</hdop>
        <time>2014-06-04T11:34:12Z</time>
        <extensions>
          <speed>1.3645458221435547</speed>
        </extensions>
      </trkpt>
      <trkpt lat="39.7426551" lon="3.2097767">
        <ele>11.580001831054688</ele>
        <hdop>5.0</hdop>
        <time>2014-06-04T11:34:18Z</time>
        <extensions>
          <speed>1.3682053089141846</speed>
        </extensions>
      </trkpt>
      <trkpt lat="39.7426107" lon="3.2098217">
        <ele>11.580001831054688</ele>
        <hdop>5.0</hdop>
        <time>2014-06-04T11:34:23Z</time>
        <extensions>
          <speed>1.313858151435852</speed>
        </extensions>
      </trkpt>
      <trkpt lat="39.7425603" lon="3.2098826">
        <ele>11.580001831054688</ele>
        <hdop>5.0</hdop>
        <time>2014-06-04T11:34:29Z</time>
        <extensions>
          <speed>1.2902823686599731</speed>
        </extensions>
      </trkpt>
      <trkpt lat="39.7425165" lon="3.2099267">
        <ele>11.580001831054688</ele>
        <hdop>5.0</hdop>
        <time>2014-06-04T11:34:34Z</time>
        <extensions>
          <speed>1.2817527055740356</speed>
        </extensions>
      </trkpt>
      <trkpt lat="39.742459" lon="3.2099867">
        <ele>11.580001831054688</ele>
        <hdop>5.0</hdop>
        <time>2014-06-04T11:34:40Z</time>
        <extensions>
          <speed>1.3012055158615112</speed>
        </extensions>
      </trkpt>
      <trkpt lat="39.7424018" lon="3.2100459">
        <ele>11.580001831054688</ele>
        <hdop>10.0</hdop>
        <time>2014-06-04T11:34:46Z</time>
        <extensions>
          <speed>1.2905702590942383</speed>
        </extensions>
      </trkpt>
      <trkpt lat="39.7423656" lon="3.2101173">
        <ele>11.580001831054688</ele>
        <hdop>5.0</hdop>
        <time>2014-06-04T11:34:51Z</time>
        <extensions>
          <speed>1.269034504890442</speed>
        </extensions>
      </trkpt>
      <trkpt lat="39.7423272" lon="3.2101877">
        <ele>11.580001831054688</ele>
        <hdop>5.0</hdop>
        <time>2014-06-04T11:34:56Z</time>
        <extensions>
          <speed>1.2999625205993652</speed>
        </extensions>
      </trkpt>
      <trkpt lat="39.7422886" lon="3.2102621">
        <ele>11.580001831054688</ele>
        <hdop>5.0</hdop>
        <time>2014-06-04T11:35:02Z</time>
        <extensions>
          <speed>1.3162963390350342</speed>
        </extensions>
      </trkpt>
      <trkpt lat="39.7422514" lon="3.2103182">
        <ele>11.580001831054688</ele>
        <hdop>5.0</hdop>
        <time>2014-06-04T11:35:07Z</time>
        <extensions>
          <speed>1.2026177644729614</speed>
        </extensions>
      </trkpt>
      <trkpt lat="39.7422141" lon="3.2103977">
        <ele>11.580001831054688</ele>
        <hdop>5.0</hdop>
        <time>2014-06-04T11:35:13Z</time>
        <extensions>
          <speed>1.1907248497009277</speed>
        </extensions>
      </trkpt>
      <trkpt lat="39.7421866" lon="3.2104585">
        <ele>11.580001831054688</ele>
        <hdop>5.0</hdop>
        <time>2014-06-04T11:35:18Z</time>
        <extensions>
          <speed>1.1685469150543213</speed>
        </extensions>
      </trkpt>
      <trkpt lat="39.7421683" lon="3.2105213">
        <ele>10.580001831054688</ele>
        <hdop>5.0</hdop>
        <time>2014-06-04T11:35:23Z</time>
        <extensions>
          <speed>1.1627094745635986</speed>
        </extensions>
      </trkpt>
      <trkpt lat="39.7421419" lon="3.2106061">
        <ele>10.580001831054688</ele>
        <hdop>5.0</hdop>
        <time>2014-06-04T11:35:29Z</time>
        <extensions>
          <speed>1.1493664979934692</speed>
        </extensions>
      </trkpt>
      <trkpt lat="39.742119" lon="3.2106965">
        <ele>10.580001831054688</ele>
        <hdop>5.0</hdop>
        <time>2014-06-04T11:35:35Z</time>
        <extensions>
          <speed>1.164871096611023</speed>
        </extensions>
      </trkpt>
      <trkpt lat="39.742106" lon="3.2107585">
        <ele>10.580001831054688</ele>
        <hdop>5.0</hdop>
        <time>2014-06-04T11:35:40Z</time>
        <extensions>
          <speed>1.1439130306243896</speed>
        </extensions>
      </trkpt>
      <trkpt lat="39.7420853" lon="3.2108289">
        <ele>10.580001831054688</ele>
        <hdop>5.0</hdop>
        <time>2014-06-04T11:35:46Z</time>
        <extensions>
          <speed>1.1183820962905884</speed>
        </extensions>
      </trkpt>
      <trkpt lat="39.7420683" lon="3.2108809">
        <ele>10.580001831054688</ele>
        <hdop>10.0</hdop>
        <time>2014-06-04T11:35:51Z</time>
        <extensions>
          <speed>1.0828005075454712</speed>
        </extensions>
      </trkpt>
      <trkpt lat="39.7420467" lon="3.2109442">
        <ele>10.580001831054688</ele>
        <hdop>5.0</hdop>
        <time>2014-06-04T11:35:57Z</time>
        <extensions>
          <speed>1.052808403968811</speed>
        </extensions>
      </trkpt>
      <trkpt lat="39.7420283" lon="3.2109994">
        <ele>10.580001831054688</ele>
        <hdop>5.0</hdop>
        <time>2014-06-04T11:36:02Z</time>
        <extensions>
          <speed>1.0450905561447144</speed>
        </extensions>
      </trkpt>
      <trkpt lat="39.7420086" lon="3.2110689">
        <ele>10.580001831054688</ele>
        <hdop>10.0</hdop>
        <time>2014-06-04T11:36:08Z</time>
        <extensions>
          <speed>1.0565881729125977</speed>
        </extensions>
      </trkpt>
      <trkpt lat="39.7419857" lon="3.2111369">
        <ele>10.580001831054688</ele>
        <hdop>10.0</hdop>
        <time>2014-06-04T11:36:14Z</time>
        <extensions>
          <speed>1.0719826221466064</speed>
        </extensions>
      </trkpt>
      <trkpt lat="39.7419587" lon="3.2112025">
        <ele>9.580001831054688</ele>
        <hdop>10.0</hdop>
        <time>2014-06-04T11:36:20Z</time>
        <extensions>
          <speed>1.05161452293396</speed>
        </extensions>
      </trkpt>
      <trkpt lat="39.7419376" lon="3.2112693">
        <ele>10.580001831054688</ele>
        <hdop>10.0</hdop>
        <time>2014-06-04T11:36:26Z</time>
        <extensions>
          <speed>1.0506845712661743</speed>
        </extensions>
      </trkpt>
      <trkpt lat="39.7419233" lon="3.2113259">
        <ele>10.580001831054688</ele>
        <hdop>10.0</hdop>
        <time>2014-06-04T11:36:31Z</time>
        <extensions>
          <speed>1.0501868724822998</speed>
        </extensions>
      </trkpt>
      <trkpt lat="39.7419" lon="3.2113961">
        <ele>10.580001831054688</ele>
        <hdop>5.0</hdop>
        <time>2014-06-04T11:36:37Z</time>
        <extensions>
          <speed>1.0886379480361938</speed>
        </extensions>
      </trkpt>
      <trkpt lat="39.7418673" lon="3.2114613">
        <ele>10.580001831054688</ele>
        <hdop>5.0</hdop>
        <time>2014-06-04T11:36:43Z</time>
        <extensions>
          <speed>1.1066710948944092</speed>
        </extensions>
      </trkpt>
      <trkpt lat="39.7418401" lon="3.2115168">
        <ele>10.580001831054688</ele>
        <hdop>5.0</hdop>
        <time>2014-06-04T11:36:48Z</time>
        <extensions>
          <speed>1.1106923818588257</speed>
        </extensions>
      </trkpt>
      <trkpt lat="39.7418181" lon="3.2116057">
        <ele>10.580001831054688</ele>
        <hdop>5.0</hdop>
        <time>2014-06-04T11:36:54Z</time>
        <extensions>
          <speed>1.1247144937515259</speed>
        </extensions>
      </trkpt>
      <trkpt lat="39.7417985" lon="3.2116751">
        <ele>10.580001831054688</ele>
        <hdop>5.0</hdop>
        <time>2014-06-04T11:37:00Z</time>
        <extensions>
          <speed>1.1080771684646606</speed>
        </extensions>
      </trkpt>
      <trkpt lat="39.7417629" lon="3.2117289">
        <ele>10.580001831054688</ele>
        <hdop>5.0</hdop>
        <time>2014-06-04T11:37:06Z</time>
        <extensions>
          <speed>1.1216373443603516</speed>
        </extensions>
      </trkpt>
      <trkpt lat="39.7417368" lon="3.2117799">
        <ele>10.580001831054688</ele>
        <hdop>5.0</hdop>
        <time>2014-06-04T11:37:12Z</time>
        <extensions>
          <speed>1.0891540050506592</speed>
        </extensions>
      </trkpt>
      <trkpt lat="39.7417062" lon="3.211822">
        <ele>10.580001831054688</ele>
        <hdop>5.0</hdop>
        <time>2014-06-04T11:37:17Z</time>
        <extensions>
          <speed>1.0847247838974</speed>
        </extensions>
      </trkpt>
      <trkpt lat="39.7416681" lon="3.2118756">
        <ele>10.580001831054688</ele>
        <hdop>5.0</hdop>
        <time>2014-06-04T11:37:23Z</time>
        <extensions>
          <speed>1.0763121843338013</speed>
        </extensions>
      </trkpt>
      <trkpt lat="39.7416271" lon="3.21194">
        <ele>10.580001831054688</ele>
        <hdop>5.0</hdop>
        <time>2014-06-04T11:37:29Z</time>
        <extensions>
          <speed>1.1037462949752808</speed>
        </extensions>
      </trkpt>
      <trkpt lat="39.7415941" lon="3.2120048">
        <ele>10.580001831054688</ele>
        <hdop>5.0</hdop>
        <time>2014-06-04T11:37:35Z</time>
        <extensions>
          <speed>1.0697174072265625</speed>
        </extensions>
      </trkpt>
      <trkpt lat="39.7415565" lon="3.2120792">
        <ele>10.580001831054688</ele>
        <hdop>10.0</hdop>
        <time>2014-06-04T11:37:41Z</time>
        <extensions>
          <speed>1.1052706241607666</speed>
        </extensions>
      </trkpt>
      <trkpt lat="39.7415151" lon="3.2121626">
        <ele>9.580001831054688</ele>
        <hdop>5.0</hdop>
        <time>2014-06-04T11:37:47Z</time>
        <extensions>
          <speed>1.1395654678344727</speed>
        </extensions>
      </trkpt>
      <trkpt lat="39.7414759" lon="3.2122244">
        <ele>9.580001831054688</ele>
        <hdop>10.0</hdop>
        <time>2014-06-04T11:37:53Z</time>
        <extensions>
          <speed>1.1087250709533691</speed>
        </extensions>
      </trkpt>
      <trkpt lat="39.7414275" lon="3.2122894">
        <ele>9.580001831054688</ele>
        <hdop>5.0</hdop>
        <time>2014-06-04T11:37:59Z</time>
        <extensions>
          <speed>1.0964587926864624</speed>
        </extensions>
      </trkpt>
      <trkpt lat="39.7413903" lon="3.212358">
        <ele>9.580001831054688</ele>
        <hdop>5.0</hdop>
        <time>2014-06-04T11:38:05Z</time>
        <extensions>
          <speed>1.0710762739181519</speed>
        </extensions>
      </trkpt>
      <trkpt lat="39.7413799" lon="3.2123754">
        <ele>9.580001831054688</ele>
        <hdop>5.0</hdop>
        <time>2014-06-04T11:38:11Z</time>
      </trkpt>
      <trkpt lat="39.7413349" lon="3.2124533">
        <ele>9.580001831054688</ele>
        <hdop>5.0</hdop>
        <time>2014-06-04T11:38:17Z</time>
        <extensions>
          <speed>1.3010714054107666</speed>
        </extensions>
      </trkpt>
      <trkpt lat="39.7413118" lon="3.2125222">
        <ele>9.580001831054688</ele>
        <hdop>5.0</hdop>
        <time>2014-06-04T11:38:22Z</time>
        <extensions>
          <speed>1.233381986618042</speed>
        </extensions>
      </trkpt>
      <trkpt lat="39.7412893" lon="3.2125933">
        <ele>8.580001831054688</ele>
        <hdop>5.0</hdop>
        <time>2014-06-04T11:38:28Z</time>
        <extensions>
          <speed>1.18563973903656</speed>
        </extensions>
      </trkpt>
      <trkpt lat="39.7412488" lon="3.212649">
        <ele>8.580001831054688</ele>
        <hdop>5.0</hdop>
        <time>2014-06-04T11:38:34Z</time>
        <extensions>
          <speed>1.1277031898498535</speed>
        </extensions>
      </trkpt>
      <trkpt lat="39.741212" lon="3.2127083">
        <ele>8.580001831054688</ele>
        <hdop>5.0</hdop>
        <time>2014-06-04T11:38:40Z</time>
        <extensions>
          <speed>1.0923500061035156</speed>
        </extensions>
      </trkpt>
      <trkpt lat="39.7411758" lon="3.2127624">
        <ele>8.580001831054688</ele>
        <hdop>5.0</hdop>
        <time>2014-06-04T11:38:45Z</time>
        <extensions>
          <speed>1.148698329925537</speed>
        </extensions>
      </trkpt>
      <trkpt lat="39.7411342" lon="3.2128263">
        <ele>9.580001831054688</ele>
        <hdop>5.0</hdop>
        <time>2014-06-04T11:38:51Z</time>
        <extensions>
          <speed>1.1429933309555054</speed>
        </extensions>
      </trkpt>
      <trkpt lat="39.7411035" lon="3.2128693">
        <ele>9.580001831054688</ele>
        <hdop>5.0</hdop>
        <time>2014-06-04T11:38:56Z</time>
        <extensions>
          <speed>1.0734387636184692</speed>
        </extensions>
      </trkpt>
      <trkpt lat="39.7410855" lon="3.2129425">
        <ele>9.580001831054688</ele>
        <hdop>30.0</hdop>
        <time>2014-06-04T11:39:02Z</time>
        <extensions>
          <speed>0.9636406302452087</speed>
        </extensions>
      </trkpt>
      <trkpt lat="39.7410855" lon="3.2129426">
        <ele>9.580001831054688</ele>
        <hdop>10.0</hdop>
        <time>2014-06-04T11:39:07Z</time>
      </trkpt>
      <trkpt lat="39.741108" lon="3.2130632">
        <ele>9.580001831054688</ele>
        <hdop>10.0</hdop>
        <time>2014-06-04T11:39:13Z</time>
        <extensions>
          <speed>1.199421763420105</speed>
        </extensions>
      </trkpt>
      <trkpt lat="39.7411122" lon="3.2131243">
        <ele>9.580001831054688</ele>
        <hdop>5.0</hdop>
        <time>2014-06-04T11:39:18Z</time>
        <extensions>
          <speed>1.0402750968933105</speed>
        </extensions>
      </trkpt>
      <trkpt lat="39.741119" lon="3.2131858">
        <ele>9.580001831054688</ele>
        <hdop>5.0</hdop>
        <time>2014-06-04T11:39:23Z</time>
        <extensions>
          <speed>1.0569472312927246</speed>
        </extensions>
      </trkpt>
      <trkpt lat="39.7411297" lon="3.2132622">
        <ele>9.580001831054688</ele>
        <hdop>10.0</hdop>
        <time>2014-06-04T11:39:29Z</time>
        <extensions>
          <speed>1.0670911073684692</speed>
        </extensions>
      </trkpt>
      <trkpt lat="39.741133" lon="3.2133383">
        <ele>9.580001831054688</ele>
        <hdop>10.0</hdop>
        <time>2014-06-04T11:39:35Z</time>
        <extensions>
          <speed>1.0828454494476318</speed>
        </extensions>
      </trkpt>
      <trkpt lat="39.7411353" lon="3.2134037">
        <ele>9.580001831054688</ele>
        <hdop>5.0</hdop>
        <time>2014-06-04T11:39:40Z</time>
        <extensions>
          <speed>1.1072218418121338</speed>
        </extensions>
      </trkpt>
      <trkpt lat="39.7411285" lon="3.2134659">
        <ele>9.580001831054688</ele>
        <hdop>5.0</hdop>
        <time>2014-06-04T11:39:46Z</time>
        <extensions>
          <speed>1.0578761100769043</speed>
        </extensions>
      </trkpt>
      <trkpt lat="39.7411141" lon="3.213534">
        <ele>9.580001831054688</ele>
        <hdop>5.0</hdop>
        <time>2014-06-04T11:39:52Z</time>
        <extensions>
          <speed>1.0627652406692505</speed>
        </extensions>
      </trkpt>
      <trkpt lat="39.741109" lon="3.2136174">
        <ele>9.580001831054688</ele>
        <hdop>10.0</hdop>
        <time>2014-06-04T11:39:58Z</time>
        <extensions>
          <speed>1.080060601234436</speed>
        </extensions>
      </trkpt>
      <trkpt lat="39.7411102" lon="3.2136846">
        <ele>9.580001831054688</ele>
        <hdop>10.0</hdop>
        <time>2014-06-04T11:40:03Z</time>
        <extensions>
          <speed>1.0717132091522217</speed>
        </extensions>
      </trkpt>
      <trkpt lat="39.7411138" lon="3.2137672">
        <ele>9.580001831054688</ele>
        <hdop>10.0</hdop>
        <time>2014-06-04T11:40:09Z</time>
        <extensions>
          <speed>1.0891633033752441</speed>
        </extensions>
      </trkpt>
      <trkpt lat="39.7411158" lon="3.2138444">
        <ele>9.580001831054688</ele>
        <hdop>5.0</hdop>
        <time>2014-06-04T11:40:14Z</time>
        <extensions>
          <speed>1.1135231256484985</speed>
        </extensions>
      </trkpt>
      <trkpt lat="39.7411093" lon="3.2139125">
        <ele>9.580001831054688</ele>
        <hdop>5.0</hdop>
        <time>2014-06-04T11:40:19Z</time>
        <extensions>
          <speed>1.0926353931427002</speed>
        </extensions>
      </trkpt>
      <trkpt lat="39.7411007" lon="3.2139834">
        <ele>9.580001831054688</ele>
        <hdop>10.0</hdop>
        <time>2014-06-04T11:40:25Z</time>
        <extensions>
          <speed>1.0991405248641968</speed>
        </extensions>
      </trkpt>
      <trkpt lat="39.7410858" lon="3.2140612">
        <ele>9.580001831054688</ele>
        <hdop>5.0</hdop>
        <time>2014-06-04T11:40:31Z</time>
        <extensions>
          <speed>1.136077880859375</speed>
        </extensions>
      </trkpt>
      <trkpt lat="39.741074" lon="3.2141236">
        <ele>9.580001831054688</ele>
        <hdop>5.0</hdop>
        <time>2014-06-04T11:40:36Z</time>
        <extensions>
          <speed>1.1357998847961426</speed>
        </extensions>
      </trkpt>
      <trkpt lat="39.7410721" lon="3.2142017">
        <ele>9.580001831054688</ele>
        <hdop>5.0</hdop>
        <time>2014-06-04T11:40:42Z</time>
        <extensions>
          <speed>1.1343241930007935</speed>
        </extensions>
      </trkpt>
      <trkpt lat="39.7410814" lon="3.2142619">
        <ele>9.580001831054688</ele>
        <hdop>5.0</hdop>
        <time>2014-06-04T11:40:47Z</time>
        <extensions>
          <speed>1.0945053100585938</speed>
        </extensions>
      </trkpt>
      <trkpt lat="39.7410728" lon="3.2143325">
        <ele>9.580001831054688</ele>
        <hdop>5.0</hdop>
        <time>2014-06-04T11:40:53Z</time>
        <extensions>
          <speed>1.0695444345474243</speed>
        </extensions>
      </trkpt>
      <trkpt lat="39.741036" lon="3.2143769">
        <ele>9.580001831054688</ele>
        <hdop>5.0</hdop>
        <time>2014-06-04T11:40:59Z</time>
        <extensions>
          <speed>0.9557741284370422</speed>
        </extensions>
      </trkpt>
      <trkpt lat="39.7410322" lon="3.214424">
        <ele>9.580001831054688</ele>
        <hdop>5.0</hdop>
        <time>2014-06-04T11:41:04Z</time>
        <extensions>
          <speed>0.8897122144699097</speed>
        </extensions>
      </trkpt>
      <trkpt lat="39.7410145" lon="3.2144693">
        <ele>9.580001831054688</ele>
        <hdop>5.0</hdop>
        <time>2014-06-04T11:41:09Z</time>
        <extensions>
          <speed>0.8915027379989624</speed>
        </extensions>
      </trkpt>
      <trkpt lat="39.7409664" lon="3.214501">
        <ele>9.580001831054688</ele>
        <hdop>5.0</hdop>
        <time>2014-06-04T11:41:15Z</time>
        <extensions>
          <speed>0.9315875172615051</speed>
        </extensions>
      </trkpt>
      <trkpt lat="39.74093" lon="3.2145348">
        <ele>9.580001831054688</ele>
        <hdop>5.0</hdop>
        <time>2014-06-04T11:41:20Z</time>
        <extensions>
          <speed>0.9658185243606567</speed>
        </extensions>
      </trkpt>
      <trkpt lat="39.7409031" lon="3.2145736">
        <ele>9.580001831054688</ele>
        <hdop>5.0</hdop>
        <time>2014-06-04T11:41:25Z</time>
        <extensions>
          <speed>0.9327616095542908</speed>
        </extensions>
      </trkpt>
      <trkpt lat="39.7408768" lon="3.2146255">
        <ele>9.580001831054688</ele>
        <hdop>5.0</hdop>
        <time>2014-06-04T11:41:31Z</time>
        <extensions>
          <speed>0.8998651504516602</speed>
        </extensions>
      </trkpt>
      <trkpt lat="39.7408498" lon="3.2146559">
        <ele>9.580001831054688</ele>
        <hdop>5.0</hdop>
        <time>2014-06-04T11:41:36Z</time>
        <extensions>
          <speed>0.8819077610969543</speed>
        </extensions>
      </trkpt>
      <trkpt lat="39.7407924" lon="3.2146781">
        <ele>10.580001831054688</ele>
        <hdop>5.0</hdop>
        <time>2014-06-04T11:41:42Z</time>
        <extensions>
          <speed>0.9977148771286011</speed>
        </extensions>
      </trkpt>
      <trkpt lat="39.7407367" lon="3.2147024">
        <ele>10.580001831054688</ele>
        <hdop>5.0</hdop>
        <time>2014-06-04T11:41:47Z</time>
        <extensions>
          <speed>1.2117178440093994</speed>
        </extensions>
      </trkpt>
      <trkpt lat="39.740668" lon="3.2147196">
        <ele>10.580001831054688</ele>
        <hdop>5.0</hdop>
        <time>2014-06-04T11:41:53Z</time>
        <extensions>
          <speed>1.2764805555343628</speed>
        </extensions>
      </trkpt>
      <trkpt lat="39.7405959" lon="3.2147349">
        <ele>10.580001831054688</ele>
        <hdop>5.0</hdop>
        <time>2014-06-04T11:41:59Z</time>
        <extensions>
          <speed>1.2722402811050415</speed>
        </extensions>
      </trkpt>
      <trkpt lat="39.7405337" lon="3.2147508">
        <ele>10.580001831054688</ele>
        <hdop>5.0</hdop>
        <time>2014-06-04T11:42:04Z</time>
        <extensions>
          <speed>1.303881287574768</speed>
        </extensions>
      </trkpt>
      <trkpt lat="39.7404683" lon="3.2147928">
        <ele>10.580001831054688</ele>
        <hdop>5.0</hdop>
        <time>2014-06-04T11:42:10Z</time>
        <extensions>
          <speed>1.2752269506454468</speed>
        </extensions>
      </trkpt>
      <trkpt lat="39.7404192" lon="3.214848">
        <ele>10.580001831054688</ele>
        <hdop>5.0</hdop>
        <time>2014-06-04T11:42:15Z</time>
        <extensions>
          <speed>1.2370398044586182</speed>
        </extensions>
      </trkpt>
      <trkpt lat="39.7403581" lon="3.2148952">
        <ele>10.580001831054688</ele>
        <hdop>5.0</hdop>
        <time>2014-06-04T11:42:21Z</time>
        <extensions>
          <speed>1.243829369544983</speed>
        </extensions>
      </trkpt>
      <trkpt lat="39.7402979" lon="3.2149529">
        <ele>10.580001831054688</ele>
        <hdop>5.0</hdop>
        <time>2014-06-04T11:42:27Z</time>
        <extensions>
          <speed>1.234605312347412</speed>
        </extensions>
      </trkpt>
      <trkpt lat="39.7402519" lon="3.2149992">
        <ele>10.580001831054688</ele>
        <hdop>5.0</hdop>
        <time>2014-06-04T11:42:32Z</time>
        <extensions>
          <speed>1.2288119792938232</speed>
        </extensions>
      </trkpt>
      <trkpt lat="39.7401988" lon="3.2150712">
        <ele>10.580001831054688</ele>
        <hdop>5.0</hdop>
        <time>2014-06-04T11:42:38Z</time>
        <extensions>
          <speed>1.2525792121887207</speed>
        </extensions>
      </trkpt>
      <trkpt lat="39.7401518" lon="3.2151572">
        <ele>10.580001831054688</ele>
        <hdop>5.0</hdop>
        <time>2014-06-04T11:42:44Z</time>
        <extensions>
          <speed>1.2692649364471436</speed>
        </extensions>
      </trkpt>
      <trkpt lat="39.7401119" lon="3.2152279">
        <ele>10.580001831054688</ele>
        <hdop>10.0</hdop>
        <time>2014-06-04T11:42:49Z</time>
        <extensions>
          <speed>1.2742161750793457</speed>
        </extensions>
      </trkpt>
      <trkpt lat="39.7400725" lon="3.2153105">
        <ele>11.580001831054688</ele>
        <hdop>5.0</hdop>
        <time>2014-06-04T11:42:54Z</time>
        <extensions>
          <speed>1.2841291427612305</speed>
        </extensions>
      </trkpt>
      <trkpt lat="39.7400273" lon="3.2154224">
        <ele>10.580001831054688</ele>
        <hdop>5.0</hdop>
        <time>2014-06-04T11:43:00Z</time>
        <extensions>
          <speed>1.291916847229004</speed>
        </extensions>
      </trkpt>
      <trkpt lat="39.7399953" lon="3.2155352">
        <ele>10.580001831054688</ele>
        <hdop>5.0</hdop>
        <time>2014-06-04T11:43:06Z</time>
        <extensions>
          <speed>1.2994383573532104</speed>
        </extensions>
      </trkpt>
      <trkpt lat="39.7399631" lon="3.2156294">
        <ele>11.580001831054688</ele>
        <hdop>10.0</hdop>
        <time>2014-06-04T11:43:12Z</time>
        <extensions>
          <speed>1.2909109592437744</speed>
        </extensions>
      </trkpt>
      <trkpt lat="39.7399358" lon="3.2157112">
        <ele>11.580001831054688</ele>
        <hdop>10.0</hdop>
        <time>2014-06-04T11:43:17Z</time>
        <extensions>
          <speed>1.2987878322601318</speed>
        </extensions>
      </trkpt>
      <trkpt lat="39.7399615" lon="3.2158178">
        <ele>11.580001831054688</ele>
        <hdop>10.0</hdop>
        <time>2014-06-04T11:43:23Z</time>
        <extensions>
          <speed>1.2934107780456543</speed>
        </extensions>
      </trkpt>
      <trkpt lat="39.7400051" lon="3.215915">
        <ele>11.580001831054688</ele>
        <hdop>5.0</hdop>
        <time>2014-06-04T11:43:28Z</time>
        <extensions>
          <speed>1.2850103378295898</speed>
        </extensions>
      </trkpt>
      <trkpt lat="39.740056" lon="3.2160036">
        <ele>11.580001831054688</ele>
        <hdop>10.0</hdop>
        <time>2014-06-04T11:43:34Z</time>
        <extensions>
          <speed>1.327128529548645</speed>
        </extensions>
      </trkpt>
      <trkpt lat="39.7401035" lon="3.2160927">
        <ele>11.580001831054688</ele>
        <hdop>5.0</hdop>
        <time>2014-06-04T11:43:40Z</time>
        <extensions>
          <speed>1.3160464763641357</speed>
        </extensions>
      </trkpt>
      <trkpt lat="39.7401321" lon="3.2161551">
        <ele>11.580001831054688</ele>
        <hdop>10.0</hdop>
        <time>2014-06-04T11:43:45Z</time>
        <extensions>
          <speed>1.281956434249878</speed>
        </extensions>
      </trkpt>
      <trkpt lat="39.7401506" lon="3.2162352">
        <ele>11.580001831054688</ele>
        <hdop>5.0</hdop>
        <time>2014-06-04T11:43:51Z</time>
        <extensions>
          <speed>1.2930324077606201</speed>
        </extensions>
      </trkpt>
      <trkpt lat="39.7401496" lon="3.2163081">
        <ele>11.580001831054688</ele>
        <hdop>5.0</hdop>
        <time>2014-06-04T11:43:57Z</time>
        <extensions>
          <speed>1.4382824897766113</speed>
        </extensions>
      </trkpt>
      <trkpt lat="39.7401148" lon="3.2163544">
        <ele>11.580001831054688</ele>
        <hdop>10.0</hdop>
        <time>2014-06-04T11:44:02Z</time>
        <extensions>
          <speed>1.3615643978118896</speed>
        </extensions>
      </trkpt>
      <trkpt lat="39.7400691" lon="3.2164082">
        <ele>12.580001831054688</ele>
        <hdop>5.0</hdop>
        <time>2014-06-04T11:44:08Z</time>
        <extensions>
          <speed>1.422008752822876</speed>
        </extensions>
      </trkpt>
      <trkpt lat="39.7400366" lon="3.2164548">
        <ele>12.580001831054688</ele>
        <hdop>5.0</hdop>
        <time>2014-06-04T11:44:13Z</time>
        <extensions>
          <speed>1.277087926864624</speed>
        </extensions>
      </trkpt>
      <trkpt lat="39.7400009" lon="3.2165314">
        <ele>12.580001831054688</ele>
        <hdop>10.0</hdop>
        <time>2014-06-04T11:44:19Z</time>
        <extensions>
          <speed>1.2494550943374634</speed>
        </extensions>
      </trkpt>
      <trkpt lat="39.7399735" lon="3.2166339">
        <ele>12.580001831054688</ele>
        <hdop>5.0</hdop>
        <time>2014-06-04T11:44:25Z</time>
        <extensions>
          <speed>1.2470715045928955</speed>
        </extensions>
      </trkpt>
      <trkpt lat="39.7399503" lon="3.2167227">
        <ele>12.580001831054688</ele>
        <hdop>10.0</hdop>
        <time>2014-06-04T11:44:30Z</time>
        <extensions>
          <speed>1.2595702409744263</speed>
        </extensions>
      </trkpt>
      <trkpt lat="39.7399203" lon="3.2168123">
        <ele>12.580001831054688</ele>
        <hdop>5.0</hdop>
        <time>2014-06-04T11:44:36Z</time>
        <extensions>
          <speed>1.2451599836349487</speed>
        </extensions>
      </trkpt>
      <trkpt lat="39.7398905" lon="3.2169051">
        <ele>12.580001831054688</ele>
        <hdop>5.0</hdop>
        <time>2014-06-04T11:44:42Z</time>
        <extensions>
          <speed>1.25832998752594</speed>
        </extensions>
      </trkpt>
      <trkpt lat="39.7398697" lon="3.2169756">
        <ele>12.580001831054688</ele>
        <hdop>5.0</hdop>
        <time>2014-06-04T11:44:47Z</time>
        <extensions>
          <speed>1.2199989557266235</speed>
        </extensions>
      </trkpt>
      <trkpt lat="39.7398288" lon="3.2170558">
        <ele>12.580001831054688</ele>
        <hdop>5.0</hdop>
        <time>2014-06-04T11:44:53Z</time>
        <extensions>
          <speed>1.2713737487792969</speed>
        </extensions>
      </trkpt>
      <trkpt lat="39.7397791" lon="3.2171221">
        <ele>12.580001831054688</ele>
        <hdop>5.0</hdop>
        <time>2014-06-04T11:44:59Z</time>
        <extensions>
          <speed>1.2674626111984253</speed>
        </extensions>
      </trkpt>
      <trkpt lat="39.7397491" lon="3.2171903">
        <ele>12.580001831054688</ele>
        <hdop>5.0</hdop>
        <time>2014-06-04T11:45:04Z</time>
        <extensions>
          <speed>1.280820369720459</speed>
        </extensions>
      </trkpt>
      <trkpt lat="39.7397148" lon="3.2172673">
        <ele>12.580001831054688</ele>
        <hdop>10.0</hdop>
        <time>2014-06-04T11:45:09Z</time>
        <extensions>
          <speed>1.2865856885910034</speed>
        </extensions>
      </trkpt>
      <trkpt lat="39.7396753" lon="3.217347">
        <ele>12.580001831054688</ele>
        <hdop>5.0</hdop>
        <time>2014-06-04T11:45:15Z</time>
        <extensions>
          <speed>1.2859418392181396</speed>
        </extensions>
      </trkpt>
      <trkpt lat="39.7396511" lon="3.2173852">
        <ele>12.580001831054688</ele>
        <hdop>5.0</hdop>
        <time>2014-06-04T11:45:21Z</time>
      </trkpt>
      <trkpt lat="39.739613" lon="3.2174405">
        <ele>12.580001831054688</ele>
        <hdop>5.0</hdop>
        <time>2014-06-04T11:45:26Z</time>
        <extensions>
          <speed>1.1481019258499146</speed>
        </extensions>
      </trkpt>
      <trkpt lat="39.7395845" lon="3.2174889">
        <ele>12.580001831054688</ele>
        <hdop>5.0</hdop>
        <time>2014-06-04T11:45:31Z</time>
        <extensions>
          <speed>1.0122606754302979</speed>
        </extensions>
      </trkpt>
      <trkpt lat="39.7395485" lon="3.2175367">
        <ele>12.580001831054688</ele>
        <hdop>5.0</hdop>
        <time>2014-06-04T11:45:36Z</time>
        <extensions>
          <speed>1.0510653257369995</speed>
        </extensions>
      </trkpt>
      <trkpt lat="39.7395035" lon="3.2176108">
        <ele>12.580001831054688</ele>
        <hdop>10.0</hdop>
        <time>2014-06-04T11:45:42Z</time>
        <extensions>
          <speed>1.1503089666366577</speed>
        </extensions>
      </trkpt>
      <trkpt lat="39.7394617" lon="3.2176748">
        <ele>12.580001831054688</ele>
        <hdop>5.0</hdop>
        <time>2014-06-04T11:45:47Z</time>
        <extensions>
          <speed>1.1642870903015137</speed>
        </extensions>
      </trkpt>
      <trkpt lat="39.739424" lon="3.2177698">
        <ele>12.580001831054688</ele>
        <hdop>5.0</hdop>
        <time>2014-06-04T11:45:52Z</time>
        <extensions>
          <speed>1.2229042053222656</speed>
        </extensions>
      </trkpt>
      <trkpt lat="39.7393852" lon="3.2178736">
        <ele>12.580001831054688</ele>
        <hdop>5.0</hdop>
        <time>2014-06-04T11:45:58Z</time>
        <extensions>
          <speed>1.2153631448745728</speed>
        </extensions>
      </trkpt>
      <trkpt lat="39.7393455" lon="3.217961">
        <ele>12.580001831054688</ele>
        <hdop>10.0</hdop>
        <time>2014-06-04T11:46:04Z</time>
        <extensions>
          <speed>1.2370846271514893</speed>
        </extensions>
      </trkpt>
      <trkpt lat="39.7393214" lon="3.2180478">
        <ele>12.580001831054688</ele>
        <hdop>5.0</hdop>
        <time>2014-06-04T11:46:09Z</time>
        <extensions>
          <speed>1.2133976221084595</speed>
        </extensions>
      </trkpt>
      <trkpt lat="39.7393021" lon="3.2181401">
        <ele>12.580001831054688</ele>
        <hdop>5.0</hdop>
        <time>2014-06-04T11:46:15Z</time>
        <extensions>
          <speed>1.2254436016082764</speed>
        </extensions>
      </trkpt>
      <trkpt lat="39.7392878" lon="3.2182078">
        <ele>12.580001831054688</ele>
        <hdop>5.0</hdop>
        <time>2014-06-04T11:46:20Z</time>
        <extensions>
          <speed>1.1911165714263916</speed>
        </extensions>
      </trkpt>
      <trkpt lat="39.739304" lon="3.2182933">
        <ele>12.580001831054688</ele>
        <hdop>10.0</hdop>
        <time>2014-06-04T11:46:26Z</time>
        <extensions>
          <speed>1.1859722137451172</speed>
        </extensions>
      </trkpt>
      <trkpt lat="39.7393477" lon="3.2183741">
        <ele>12.580001831054688</ele>
        <hdop>10.0</hdop>
        <time>2014-06-04T11:46:31Z</time>
        <extensions>
          <speed>1.1910513639450073</speed>
        </extensions>
      </trkpt>
      <trkpt lat="39.7393744" lon="3.2184572">
        <ele>12.580001831054688</ele>
        <hdop>10.0</hdop>
        <time>2014-06-04T11:46:37Z</time>
        <extensions>
          <speed>1.1695537567138672</speed>
        </extensions>
      </trkpt>
      <trkpt lat="39.7394129" lon="3.2185271">
        <ele>12.580001831054688</ele>
        <hdop>10.0</hdop>
        <time>2014-06-04T11:46:42Z</time>
        <extensions>
          <speed>1.157336950302124</speed>
        </extensions>
      </trkpt>
      <trkpt lat="39.7394497" lon="3.2186108">
        <ele>12.580001831054688</ele>
        <hdop>10.0</hdop>
        <time>2014-06-04T11:46:48Z</time>
        <extensions>
          <speed>1.128900408744812</speed>
        </extensions>
      </trkpt>
      <trkpt lat="39.73952" lon="3.2186501">
        <ele>12.580001831054688</ele>
        <hdop>30.0</hdop>
        <time>2014-06-04T11:46:54Z</time>
      </trkpt>
      <trkpt lat="39.7395638" lon="3.2186863">
        <ele>12.580001831054688</ele>
        <hdop>5.0</hdop>
        <time>2014-06-04T11:46:59Z</time>
        <extensions>
          <speed>0.6459805965423584</speed>
        </extensions>
      </trkpt>
      <trkpt lat="39.7395902" lon="3.2187436">
        <ele>12.580001831054688</ele>
        <hdop>5.0</hdop>
        <time>2014-06-04T11:47:04Z</time>
        <extensions>
          <speed>0.8790717720985413</speed>
        </extensions>
      </trkpt>
      <trkpt lat="39.7395958" lon="3.2188154">
        <ele>12.580001831054688</ele>
        <hdop>5.0</hdop>
        <time>2014-06-04T11:47:09Z</time>
        <extensions>
          <speed>1.1931462287902832</speed>
        </extensions>
      </trkpt>
      <trkpt lat="39.7395968" lon="3.218891">
        <ele>12.580001831054688</ele>
        <hdop>5.0</hdop>
        <time>2014-06-04T11:47:15Z</time>
        <extensions>
          <speed>1.1278021335601807</speed>
        </extensions>
      </trkpt>
      <trkpt lat="39.7396002" lon="3.2189552">
        <ele>12.580001831054688</ele>
        <hdop>10.0</hdop>
        <time>2014-06-04T11:47:20Z</time>
        <extensions>
          <speed>1.2373325824737549</speed>
        </extensions>
      </trkpt>
      <trkpt lat="39.7395891" lon="3.2190367">
        <ele>12.580001831054688</ele>
        <hdop>5.0</hdop>
        <time>2014-06-04T11:47:26Z</time>
        <extensions>
          <speed>1.3580453395843506</speed>
        </extensions>
      </trkpt>
      <trkpt lat="39.7395733" lon="3.2191237">
        <ele>12.580001831054688</ele>
        <hdop>5.0</hdop>
        <time>2014-06-04T11:47:32Z</time>
        <extensions>
          <speed>1.379417896270752</speed>
        </extensions>
      </trkpt>
      <trkpt lat="39.7395422" lon="3.2191836">
        <ele>12.580001831054688</ele>
        <hdop>5.0</hdop>
        <time>2014-06-04T11:47:37Z</time>
        <extensions>
          <speed>1.3971080780029297</speed>
        </extensions>
      </trkpt>
      <trkpt lat="39.7395146" lon="3.2192584">
        <ele>12.580001831054688</ele>
        <hdop>5.0</hdop>
        <time>2014-06-04T11:47:43Z</time>
        <extensions>
          <speed>1.29880952835083</speed>
        </extensions>
      </trkpt>
      <trkpt lat="39.7394933" lon="3.2193341">
        <ele>12.580001831054688</ele>
        <hdop>5.0</hdop>
        <time>2014-06-04T11:47:49Z</time>
        <extensions>
          <speed>1.2793407440185547</speed>
        </extensions>
      </trkpt>
      <trkpt lat="39.7394668" lon="3.2193886">
        <ele>12.580001831054688</ele>
        <hdop>5.0</hdop>
        <time>2014-06-04T11:47:54Z</time>
        <extensions>
          <speed>1.262486219406128</speed>
        </extensions>
      </trkpt>
      <trkpt lat="39.7394256" lon="3.2194259">
        <ele>12.580001831054688</ele>
        <hdop>5.0</hdop>
        <time>2014-06-04T11:47:59Z</time>
        <extensions>
          <speed>1.1856939792633057</speed>
        </extensions>
      </trkpt>
      <trkpt lat="39.7394085" lon="3.219434">
        <ele>12.580001831054688</ele>
        <hdop>5.0</hdop>
        <time>2014-06-04T11:48:04Z</time>
      </trkpt>
      <trkpt lat="39.7393647" lon="3.2194795">
        <ele>12.580001831054688</ele>
        <hdop>5.0</hdop>
        <time>2014-06-04T11:48:10Z</time>
        <extensions>
          <speed>0.815228283405304</speed>
        </extensions>
      </trkpt>
      <trkpt lat="39.7393383" lon="3.2195283">
        <ele>12.580001831054688</ele>
        <hdop>5.0</hdop>
        <time>2014-06-04T11:48:15Z</time>
        <extensions>
          <speed>1.0021770000457764</speed>
        </extensions>
      </trkpt>
      <trkpt lat="39.7393159" lon="3.2195873">
        <ele>12.580001831054688</ele>
        <hdop>5.0</hdop>
        <time>2014-06-04T11:48:20Z</time>
        <extensions>
          <speed>1.0505576133728027</speed>
        </extensions>
      </trkpt>
      <trkpt lat="39.7393058" lon="3.2196668">
        <ele>13.580001831054688</ele>
        <hdop>5.0</hdop>
        <time>2014-06-04T11:48:25Z</time>
        <extensions>
          <speed>1.0836443901062012</speed>
        </extensions>
      </trkpt>
      <trkpt lat="39.739296" lon="3.2197606">
        <ele>13.580001831054688</ele>
        <hdop>10.0</hdop>
        <time>2014-06-04T11:48:31Z</time>
        <extensions>
          <speed>0.7033358812332153</speed>
        </extensions>
      </trkpt>
      <trkpt lat="39.7392768" lon="3.2197735">
        <ele>12.580001831054688</ele>
        <hdop>10.0</hdop>
        <time>2014-06-04T11:48:36Z</time>
        <extensions>
          <speed>0.4832744598388672</speed>
        </extensions>
      </trkpt>
      <trkpt lat="39.7392803" lon="3.2197722">
        <ele>12.580001831054688</ele>
        <hdop>10.0</hdop>
        <time>2014-06-04T11:48:42Z</time>
        <extensions>
          <speed>0.5427826642990112</speed>
        </extensions>
      </trkpt>
      <trkpt lat="39.7392777" lon="3.2197699">
        <ele>12.580001831054688</ele>
        <hdop>10.0</hdop>
        <time>2014-06-04T11:48:47Z</time>
      </trkpt>
      <trkpt lat="39.7392795" lon="3.219768">
        <ele>12.580001831054688</ele>
        <hdop>30.0</hdop>
        <time>2014-06-04T11:48:53Z</time>
        <extensions>
          <speed>0.30985012650489807</speed>
        </extensions>
      </trkpt>
      <trkpt lat="39.7392795" lon="3.2197574">
        <ele>13.580001831054688</ele>
        <hdop>10.0</hdop>
        <time>2014-06-04T11:48:58Z</time>
      </trkpt>
      <trkpt lat="39.7392896" lon="3.2197514">
        <ele>13.580001831054688</ele>
        <hdop>5.0</hdop>
        <time>2014-06-04T11:49:03Z</time>
      </trkpt>
      <trkpt lat="39.7392896" lon="3.2197514">
        <ele>13.580001831054688</ele>
        <hdop>10.0</hdop>
        <time>2014-06-04T11:49:09Z</time>
      </trkpt>
      <trkpt lat="39.7392896" lon="3.2197514">
        <ele>13.580001831054688</ele>
        <hdop>5.0</hdop>
        <time>2014-06-04T11:49:15Z</time>
      </trkpt>
      <trkpt lat="39.7392896" lon="3.2197514">
        <ele>13.580001831054688</ele>
        <hdop>5.0</hdop>
        <time>2014-06-04T11:49:20Z</time>
      </trkpt>
      <trkpt lat="39.7392896" lon="3.2197514">
        <ele>13.580001831054688</ele>
        <hdop>5.0</hdop>
        <time>2014-06-04T11:49:25Z</time>
      </trkpt>
      <trkpt lat="39.7392896" lon="3.2197514">
        <ele>13.580001831054688</ele>
        <hdop>10.0</hdop>
        <time>2014-06-04T11:49:31Z</time>
      </trkpt>
      <trkpt lat="39.7392896" lon="3.2197514">
        <ele>13.580001831054688</ele>
        <hdop>5.0</hdop>
        <time>2014-06-04T11:49:37Z</time>
      </trkpt>
      <trkpt lat="39.7392896" lon="3.2197514">
        <ele>13.580001831054688</ele>
        <hdop>5.0</hdop>
        <time>2014-06-04T11:49:42Z</time>
      </trkpt>
      <trkpt lat="39.7392896" lon="3.2197514">
        <ele>13.580001831054688</ele>
        <hdop>10.0</hdop>
        <time>2014-06-04T11:49:48Z</time>
      </trkpt>
      <trkpt lat="39.7392896" lon="3.2197514">
        <ele>13.580001831054688</ele>
        <hdop>10.0</hdop>
        <time>2014-06-04T11:49:53Z</time>
      </trkpt>
      <trkpt lat="39.7392896" lon="3.2197514">
        <ele>13.580001831054688</ele>
        <hdop>5.0</hdop>
        <time>2014-06-04T11:49:58Z</time>
      </trkpt>
      <trkpt lat="39.7392896" lon="3.2197514">
        <ele>13.580001831054688</ele>
        <hdop>5.0</hdop>
        <time>2014-06-04T11:50:04Z</time>
      </trkpt>
      <trkpt lat="39.7393019" lon="3.2197414">
        <ele>12.580001831054688</ele>
        <hdop>10.0</hdop>
        <time>2014-06-04T11:50:10Z</time>
        <extensions>
          <speed>0.4034051299095154</speed>
        </extensions>
      </trkpt>
      <trkpt lat="39.7393136" lon="3.2197379">
        <ele>12.580001831054688</ele>
        <hdop>30.0</hdop>
        <time>2014-06-04T11:50:15Z</time>
        <extensions>
          <speed>0.5006710886955261</speed>
        </extensions>
      </trkpt>
      <trkpt lat="39.7393114" lon="3.2197197">
        <ele>12.580001831054688</ele>
        <hdop>10.0</hdop>
        <time>2014-06-04T11:50:21Z</time>
        <extensions>
          <speed>1.2492049932479858</speed>
        </extensions>
      </trkpt>
      <trkpt lat="39.7393232" lon="3.2196973">
        <ele>12.580001831054688</ele>
        <hdop>10.0</hdop>
        <time>2014-06-04T11:50:27Z</time>
      </trkpt>
      <trkpt lat="39.7393232" lon="3.2196973">
        <ele>12.580001831054688</ele>
        <hdop>10.0</hdop>
        <time>2014-06-04T11:50:32Z</time>
      </trkpt>
      <trkpt lat="39.7393232" lon="3.2196973">
        <ele>12.580001831054688</ele>
        <hdop>5.0</hdop>
        <time>2014-06-04T11:50:38Z</time>
      </trkpt>
      <trkpt lat="39.7393232" lon="3.2196973">
        <ele>12.580001831054688</ele>
        <hdop>10.0</hdop>
        <time>2014-06-04T11:50:43Z</time>
      </trkpt>
      <trkpt lat="39.7393232" lon="3.2196973">
        <ele>12.580001831054688</ele>
        <hdop>10.0</hdop>
        <time>2014-06-04T11:50:49Z</time>
      </trkpt>
      <trkpt lat="39.7393232" lon="3.2196973">
        <ele>12.580001831054688</ele>
        <hdop>5.0</hdop>
        <time>2014-06-04T11:50:54Z</time>
      </trkpt>
      <trkpt lat="39.7393232" lon="3.2196973">
        <ele>12.580001831054688</ele>
        <hdop>5.0</hdop>
        <time>2014-06-04T11:51:00Z</time>
      </trkpt>
      <trkpt lat="39.7393232" lon="3.2196973">
        <ele>12.580001831054688</ele>
        <hdop>5.0</hdop>
        <time>2014-06-04T11:51:06Z</time>
      </trkpt>
      <trkpt lat="39.7393232" lon="3.2196973">
        <ele>12.580001831054688</ele>
        <hdop>5.0</hdop>
        <time>2014-06-04T11:51:12Z</time>
      </trkpt>
      <trkpt lat="39.7393142" lon="3.219702">
        <ele>12.580001831054688</ele>
        <hdop>5.0</hdop>
        <time>2014-06-04T11:51:17Z</time>
        <extensions>
          <speed>0.569383978843689</speed>
        </extensions>
      </trkpt>
      <trkpt lat="39.7392741" lon="3.219733">
        <ele>12.580001831054688</ele>
        <hdop>5.0</hdop>
        <time>2014-06-04T11:51:22Z</time>
        <extensions>
          <speed>0.7425524592399597</speed>
        </extensions>
      </trkpt>
      <trkpt lat="39.7392741" lon="3.219733">
        <ele>12.580001831054688</ele>
        <hdop>10.0</hdop>
        <time>2014-06-04T11:51:28Z</time>
      </trkpt>
      <trkpt lat="39.739288" lon="3.2197443">
        <ele>12.580001831054688</ele>
        <hdop>5.0</hdop>
        <time>2014-06-04T11:51:33Z</time>
      </trkpt>
      <trkpt lat="39.739288" lon="3.2197443">
        <ele>12.580001831054688</ele>
        <hdop>10.0</hdop>
        <time>2014-06-04T11:51:39Z</time>
      </trkpt>
      <trkpt lat="39.739289" lon="3.2197541">
        <ele>12.580001831054688</ele>
        <hdop>30.0</hdop>
        <time>2014-06-04T11:51:44Z</time>
        <extensions>
          <speed>0.38198959827423096</speed>
        </extensions>
      </trkpt>
      <trkpt lat="39.7392943" lon="3.2197695">
        <ele>12.580001831054688</ele>
        <hdop>10.0</hdop>
        <time>2014-06-04T11:51:49Z</time>
        <extensions>
          <speed>1.1467822790145874</speed>
        </extensions>
      </trkpt>
      <trkpt lat="39.7393169" lon="3.2198135">
        <ele>11.580001831054688</ele>
        <hdop>10.0</hdop>
        <time>2014-06-04T11:51:55Z</time>
        <extensions>
          <speed>2.5648105144500732</speed>
        </extensions>
      </trkpt>
      <trkpt lat="39.7391995" lon="3.2197743">
        <ele>11.580001831054688</ele>
        <hdop>10.0</hdop>
        <time>2014-06-04T11:52:01Z</time>
        <extensions>
          <speed>1.6505084037780762</speed>
        </extensions>
      </trkpt>
      <trkpt lat="39.7391318" lon="3.2197477">
        <ele>11.580001831054688</ele>
        <hdop>10.0</hdop>
        <time>2014-06-04T11:52:06Z</time>
        <extensions>
          <speed>2.2091712951660156</speed>
        </extensions>
      </trkpt>
      <trkpt lat="39.7389993" lon="3.2197094">
        <ele>11.580001831054688</ele>
        <hdop>10.0</hdop>
        <time>2014-06-04T11:52:12Z</time>
        <extensions>
          <speed>2.348451614379883</speed>
        </extensions>
      </trkpt>
      <trkpt lat="39.7389563" lon="3.2197267">
        <ele>11.580001831054688</ele>
        <hdop>10.0</hdop>
        <time>2014-06-04T11:52:17Z</time>
        <extensions>
          <speed>1.6854149103164673</speed>
        </extensions>
      </trkpt>
      <trkpt lat="39.7388227" lon="3.2199188">
        <ele>11.580001831054688</ele>
        <hdop>30.0</hdop>
        <time>2014-06-04T11:52:23Z</time>
        <extensions>
          <speed>3.1706383228302</speed>
        </extensions>
      </trkpt>
      <trkpt lat="39.7387232" lon="3.2203605">
        <ele>9.580001831054688</ele>
        <hdop>30.0</hdop>
        <time>2014-06-04T11:52:28Z</time>
        <extensions>
          <speed>5.708853244781494</speed>
        </extensions>
      </trkpt>
      <trkpt lat="39.7385324" lon="3.2206492">
        <ele>8.580001831054688</ele>
        <hdop>10.0</hdop>
        <time>2014-06-04T11:52:34Z</time>
        <extensions>
          <speed>8.437003135681152</speed>
        </extensions>
      </trkpt>
      <trkpt lat="39.7384339" lon="3.2208511">
        <ele>7.5800018310546875</ele>
        <hdop>30.0</hdop>
        <time>2014-06-04T11:52:40Z</time>
        <extensions>
          <speed>5.659924030303955</speed>
        </extensions>
      </trkpt>
      <trkpt lat="39.738405" lon="3.2210005">
        <ele>7.5800018310546875</ele>
        <hdop>10.0</hdop>
        <time>2014-06-04T11:52:46Z</time>
        <extensions>
          <speed>3.2678284645080566</speed>
        </extensions>
      </trkpt>
      <trkpt lat="39.738499" lon="3.2211903">
        <ele>8.580001831054688</ele>
        <hdop>30.0</hdop>
        <time>2014-06-04T11:52:52Z</time>
        <extensions>
          <speed>3.4702565670013428</speed>
        </extensions>
      </trkpt>
      <trkpt lat="39.7386703" lon="3.2213863">
        <ele>8.580001831054688</ele>
        <hdop>30.0</hdop>
        <time>2014-06-04T11:52:58Z</time>
        <extensions>
          <speed>3.612098217010498</speed>
        </extensions>
      </trkpt>
      <trkpt lat="39.7387408" lon="3.2215324">
        <ele>9.580001831054688</ele>
        <hdop>10.0</hdop>
        <time>2014-06-04T11:53:04Z</time>
        <extensions>
          <speed>2.8096892833709717</speed>
        </extensions>
      </trkpt>
      <trkpt lat="39.7386636" lon="3.2217335">
        <ele>10.580001831054688</ele>
        <hdop>10.0</hdop>
        <time>2014-06-04T11:53:10Z</time>
        <extensions>
          <speed>4.0777363777160645</speed>
        </extensions>
      </trkpt>
      <trkpt lat="39.7385218" lon="3.2218228">
        <ele>10.580001831054688</ele>
        <hdop>5.0</hdop>
        <time>2014-06-04T11:53:16Z</time>
        <extensions>
          <speed>3.984922170639038</speed>
        </extensions>
      </trkpt>
      <trkpt lat="39.7383673" lon="3.2217395">
        <ele>10.580001831054688</ele>
        <hdop>10.0</hdop>
        <time>2014-06-04T11:53:21Z</time>
        <extensions>
          <speed>4.032443523406982</speed>
        </extensions>
      </trkpt>
      <trkpt lat="39.7381781" lon="3.2215416">
        <ele>11.580001831054688</ele>
        <hdop>30.0</hdop>
        <time>2014-06-04T11:53:27Z</time>
        <extensions>
          <speed>3.3047027587890625</speed>
        </extensions>
      </trkpt>
      <trkpt lat="39.7380687" lon="3.2214266">
        <ele>10.580001831054688</ele>
        <hdop>10.0</hdop>
        <time>2014-06-04T11:53:33Z</time>
        <extensions>
          <speed>5.836406707763672</speed>
        </extensions>
      </trkpt>
      <trkpt lat="39.7378186" lon="3.2212191">
        <ele>9.580001831054688</ele>
        <hdop>10.0</hdop>
        <time>2014-06-04T11:53:38Z</time>
        <extensions>
          <speed>6.3473100662231445</speed>
        </extensions>
      </trkpt>
      <trkpt lat="39.7376451" lon="3.2210493">
        <ele>9.580001831054688</ele>
        <hdop>10.0</hdop>
        <time>2014-06-04T11:53:44Z</time>
        <extensions>
          <speed>3.204913377761841</speed>
        </extensions>
      </trkpt>
      <trkpt lat="39.7376755" lon="3.2208388">
        <ele>9.580001831054688</ele>
        <hdop>30.0</hdop>
        <time>2014-06-04T11:53:50Z</time>
        <extensions>
          <speed>3.2211711406707764</speed>
        </extensions>
      </trkpt>
      <trkpt lat="39.7377325" lon="3.220678">
        <ele>9.580001831054688</ele>
        <hdop>10.0</hdop>
        <time>2014-06-04T11:53:55Z</time>
        <extensions>
          <speed>2.9693350791931152</speed>
        </extensions>
      </trkpt>
      <trkpt lat="39.7379543" lon="3.2206855">
        <ele>9.580001831054688</ele>
        <hdop>10.0</hdop>
        <time>2014-06-04T11:54:00Z</time>
        <extensions>
          <speed>3.131592035293579</speed>
        </extensions>
      </trkpt>
      <trkpt lat="39.7381703" lon="3.2207662">
        <ele>9.580001831054688</ele>
        <hdop>10.0</hdop>
        <time>2014-06-04T11:54:06Z</time>
        <extensions>
          <speed>2.9183270931243896</speed>
        </extensions>
      </trkpt>
      <trkpt lat="39.7382664" lon="3.2209154">
        <ele>9.580001831054688</ele>
        <hdop>30.0</hdop>
        <time>2014-06-04T11:54:12Z</time>
        <extensions>
          <speed>2.799485921859741</speed>
        </extensions>
      </trkpt>
      <trkpt lat="39.738307" lon="3.2209502">
        <ele>9.580001831054688</ele>
        <hdop>30.0</hdop>
        <time>2014-06-04T11:54:18Z</time>
      </trkpt>
      <trkpt lat="39.738307" lon="3.2209502">
        <ele>9.580001831054688</ele>
        <hdop>10.0</hdop>
        <time>2014-06-04T11:54:23Z</time>
      </trkpt>
      <trkpt lat="39.738307" lon="3.2209502">
        <ele>9.580001831054688</ele>
        <hdop>30.0</hdop>
        <time>2014-06-04T11:54:29Z</time>
      </trkpt>
      <trkpt lat="39.7383455" lon="3.2209103">
        <ele>10.580001831054688</ele>
        <hdop>30.0</hdop>
        <time>2014-06-04T11:54:34Z</time>
        <extensions>
          <speed>2.8530330657958984</speed>
        </extensions>
      </trkpt>
      <trkpt lat="39.7379882" lon="3.2205589">
        <ele>12.580001831054688</ele>
        <hdop>10.0</hdop>
        <time>2014-06-04T11:54:40Z</time>
        <extensions>
          <speed>6.179418563842773</speed>
        </extensions>
      </trkpt>
      <trkpt lat="39.7376907" lon="3.2202704">
        <ele>15.580001831054688</ele>
        <hdop>30.0</hdop>
        <time>2014-06-04T11:54:46Z</time>
        <extensions>
          <speed>5.513683795928955</speed>
        </extensions>
      </trkpt>
      <trkpt lat="39.73743" lon="3.2200099">
        <ele>15.580001831054688</ele>
        <hdop>10.0</hdop>
        <time>2014-06-04T11:54:52Z</time>
        <extensions>
          <speed>4.690855979919434</speed>
        </extensions>
      </trkpt>
      <trkpt lat="39.7372142" lon="3.2197547">
        <ele>16.580001831054688</ele>
        <hdop>10.0</hdop>
        <time>2014-06-04T11:54:57Z</time>
        <extensions>
          <speed>4.860217571258545</speed>
        </extensions>
      </trkpt>
      <trkpt lat="39.7369365" lon="3.2194893">
        <ele>17.580001831054688</ele>
        <hdop>10.0</hdop>
        <time>2014-06-04T11:55:03Z</time>
        <extensions>
          <speed>4.832049369812012</speed>
        </extensions>
      </trkpt>
      <trkpt lat="39.7365915" lon="3.2192513">
        <ele>17.580001831054688</ele>
        <hdop>10.0</hdop>
        <time>2014-06-04T11:55:09Z</time>
        <extensions>
          <speed>6.02606201171875</speed>
        </extensions>
      </trkpt>
      <trkpt lat="39.7363352" lon="3.2190796">
        <ele>16.580001831054688</ele>
        <hdop>30.0</hdop>
        <time>2014-06-04T11:55:14Z</time>
        <extensions>
          <speed>5.556702136993408</speed>
        </extensions>
      </trkpt>
      <trkpt lat="39.7362379" lon="3.2191022">
        <ele>16.580001831054688</ele>
        <hdop>30.0</hdop>
        <time>2014-06-04T11:55:20Z</time>
        <extensions>
          <speed>5.129899978637695</speed>
        </extensions>
      </trkpt>
      <trkpt lat="39.7363555" lon="3.2192735">
        <ele>14.580001831054688</ele>
        <hdop>30.0</hdop>
        <time>2014-06-04T11:55:26Z</time>
        <extensions>
          <speed>4.295648574829102</speed>
        </extensions>
      </trkpt>
      <trkpt lat="39.7366201" lon="3.219628">
        <ele>14.580001831054688</ele>
        <hdop>30.0</hdop>
        <time>2014-06-04T11:55:31Z</time>
        <extensions>
          <speed>4.826155185699463</speed>
        </extensions>
      </trkpt>
      <trkpt lat="39.7367809" lon="3.2198397">
        <ele>13.580001831054688</ele>
        <hdop>30.0</hdop>
        <time>2014-06-04T11:55:37Z</time>
        <extensions>
          <speed>3.6369166374206543</speed>
        </extensions>
      </trkpt>
      <trkpt lat="39.7367688" lon="3.2198625">
        <ele>13.580001831054688</ele>
        <hdop>30.0</hdop>
        <time>2014-06-04T11:55:43Z</time>
      </trkpt>
      <trkpt lat="39.7367526" lon="3.2198339">
        <ele>13.580001831054688</ele>
        <hdop>30.0</hdop>
        <time>2014-06-04T11:55:49Z</time>
      </trkpt>
      <trkpt lat="39.7367526" lon="3.2198339">
        <ele>13.580001831054688</ele>
        <hdop>10.0</hdop>
        <time>2014-06-04T11:55:54Z</time>
      </trkpt>
      <trkpt lat="39.7368825" lon="3.2197362">
        <ele>11.580001831054688</ele>
        <hdop>10.0</hdop>
        <time>2014-06-04T11:56:00Z</time>
        <extensions>
          <speed>2.508828639984131</speed>
        </extensions>
      </trkpt>
      <trkpt lat="39.7368825" lon="3.2197362">
        <ele>11.580001831054688</ele>
        <hdop>10.0</hdop>
        <time>2014-06-04T11:56:05Z</time>
      </trkpt>
      <trkpt lat="39.7369358" lon="3.2197585">
        <ele>11.580001831054688</ele>
        <hdop>5.0</hdop>
        <time>2014-06-04T11:56:11Z</time>
      </trkpt>
      <trkpt lat="39.7369358" lon="3.2197585">
        <ele>11.580001831054688</ele>
        <hdop>10.0</hdop>
        <time>2014-06-04T11:56:17Z</time>
      </trkpt>
      <trkpt lat="39.7369358" lon="3.2197585">
        <ele>11.580001831054688</ele>
        <hdop>10.0</hdop>
        <time>2014-06-04T11:56:22Z</time>
      </trkpt>
      <trkpt lat="39.7369358" lon="3.2197585">
        <ele>11.580001831054688</ele>
        <hdop>5.0</hdop>
        <time>2014-06-04T11:56:27Z</time>
      </trkpt>
      <trkpt lat="39.7369358" lon="3.2197585">
        <ele>11.580001831054688</ele>
        <hdop>10.0</hdop>
        <time>2014-06-04T11:56:33Z</time>
      </trkpt>
      <trkpt lat="39.7370438" lon="3.2198941">
        <ele>11.580001831054688</ele>
        <hdop>5.0</hdop>
        <time>2014-06-04T11:56:38Z</time>
      </trkpt>
      <trkpt lat="39.7370911" lon="3.2199233">
        <ele>11.580001831054688</ele>
        <hdop>5.0</hdop>
        <time>2014-06-04T11:56:43Z</time>
      </trkpt>
      <trkpt lat="39.7370911" lon="3.2199233">
        <ele>11.580001831054688</ele>
        <hdop>10.0</hdop>
        <time>2014-06-04T11:56:49Z</time>
      </trkpt>
      <trkpt lat="39.7370911" lon="3.2199233">
        <ele>11.580001831054688</ele>
        <hdop>10.0</hdop>
        <time>2014-06-04T11:56:55Z</time>
      </trkpt>
      <trkpt lat="39.7370911" lon="3.2199233">
        <ele>11.580001831054688</ele>
        <hdop>10.0</hdop>
        <time>2014-06-04T11:57:00Z</time>
      </trkpt>
      <trkpt lat="39.7370911" lon="3.2199233">
        <ele>11.580001831054688</ele>
        <hdop>10.0</hdop>
        <time>2014-06-04T11:57:06Z</time>
      </trkpt>
      <trkpt lat="39.7370911" lon="3.2199233">
        <ele>11.580001831054688</ele>
        <hdop>30.0</hdop>
        <time>2014-06-04T11:57:12Z</time>
      </trkpt>
      <trkpt lat="39.7370911" lon="3.2199233">
        <ele>11.580001831054688</ele>
        <hdop>30.0</hdop>
        <time>2014-06-04T11:57:18Z</time>
      </trkpt>
      <trkpt lat="39.7370911" lon="3.2199233">
        <ele>11.580001831054688</ele>
        <hdop>30.0</hdop>
        <time>2014-06-04T11:57:24Z</time>
      </trkpt>
      <trkpt lat="39.7370911" lon="3.2199233">
        <ele>11.580001831054688</ele>
        <hdop>30.0</hdop>
        <time>2014-06-04T11:57:30Z</time>
      </trkpt>
      <trkpt lat="39.7370911" lon="3.2199233">
        <ele>11.580001831054688</ele>
        <hdop>30.0</hdop>
        <time>2014-06-04T11:57:35Z</time>
      </trkpt>
      <trkpt lat="39.7370911" lon="3.2199233">
        <ele>11.580001831054688</ele>
        <hdop>30.0</hdop>
        <time>2014-06-04T11:57:41Z</time>
      </trkpt>
    </trkseg>
  </trk>
</gpx>